# Wetter Temperatur Luftdruck Luftfeuchtigkeit Sichtweite Windgeschwindigkeit Windrichtung Zeit
1 Clouds 22 1017 64 10000 6.17 60 13:41 22.04.2021
2 Clouds 22 1017 60 10000 6.17 30 13:22 22.04.2021
3 Clouds 22 1017 56 10000 6.17 40 12:51 22.04.2021
4 Clouds 21 1017 60 10000 8.23 30 12:30 22.04.2021
5 Clouds 20 1017 60 10000 6.69 20 11:50 22.04.2021
6 Clouds 20 1017 64 10000 7.72 30 11:26 22.04.2021
7 Clouds 20 1017 64 10000 6.17 360 10:47 22.04.2021
8 Clouds 19 1016 68 10000 5.66 10 10:29 22.04.2021
9 Clouds 19 1016 68 10000 4.63 360 09:58 22.04.2021
10 Clouds 19 1016 68 10000 5.14 350 09:33 22.04.2021
11 Clouds 18 1016 68 10000 6.69 360 08:47 22.04.2021
12 Clouds 18 1016 68 10000 6.17 10 08:23 22.04.2021
13 Clouds 19 1016 68 10000 6.17 360 07:47 22.04.2021
14 Clouds 19 1016 68 10000 8.23 10 07:29 22.04.2021
15 Clouds 19 1016 68 10000 6.17 10 06:43 22.04.2021
16 Clouds 19 1016 68 10000 6.17 360 05:54 22.04.2021
17 Clouds 19 1016 68 10000 5.14 360 05:20 22.04.2021
18 Clouds 19 1017 72 10000 9.26 20 01:58 22.04.2021
19 Clouds 20 1017 68 10000 7.2 10 23:55 21.04.2021
20 Clouds 20 1017 73 10000 7.2 10 23:37 21.04.2021
21 Clouds 20 1016 73 10000 8.23 20 22:48 21.04.2021
22 Clouds 20 1016 73 10000 8.75 30 22:25 21.04.2021
23 Clouds 20 1016 73 10000 8.75 20 21:59 21.04.2021
24 Clouds 20 1016 73 10000 9.77 20 21:40 21.04.2021
25 Clouds 20 1016 73 10000 9.77 20 21:19 21.04.2021
26 Clouds 21 1016 68 10000 12.86 30 20:24 21.04.2021
27 Clouds 22 1015 64 10000 12.86 30 19:46 21.04.2021
28 Clouds 22 1015 64 10000 13.38 30 19:27 21.04.2021
29 Clouds 23 1015 68 10000 11.83 30 18:51 21.04.2021
30 Clouds 23 1015 64 10000 12.35 30 18:33 21.04.2021
31 Clouds 23 1015 60 10000 12.86 30 17:58 21.04.2021
32 Clouds 23 1016 60 10000 12.35 30 17:39 21.04.2021
33 Clouds 23 1016 60 10000 12.35 30 17:20 21.04.2021
34 Clouds 22 1016 60 10000 12.35 30 16:38 21.04.2021
35 Clouds 23 1016 60 10000 11.83 30 15:46 21.04.2021
36 Clouds 23 1016 60 10000 11.83 30 15:20 21.04.2021
37 Clouds 23 1017 60 10000 12.35 30 14:44 21.04.2021
38 Clouds 23 1017 60 10000 11.83 20 14:23 21.04.2021
39 Clouds 22 1017 60 10000 11.83 20 13:48 21.04.2021
40 Clouds 23 1017 50 10000 11.32 10 13:21 21.04.2021
41 Clouds 22 1017 60 10000 11.83 10 12:40 21.04.2021
42 Clouds 21 1017 68 10000 10.8 10 11:59 21.04.2021
43 Clouds 21 1017 68 10000 10.8 10 11:41 21.04.2021
44 Clouds 21 1017 68 10000 10.8 10 11:41 21.04.2021
45 Clouds 21 1017 64 10000 9.26 10 11:22 21.04.2021
46 Clouds 20 1017 68 10000 9.26 10 10:38 21.04.2021
47 Clouds 19 1017 72 10000 8.23 360 09:56 21.04.2021
48 Clouds 18 1016 68 10000 6.69 360 09:20 21.04.2021
49 Clouds 18 1016 77 10000 6.17 360 08:44 21.04.2021
50 Clouds 18 1016 77 10000 5.66 360 08:23 21.04.2021
51 Clouds 18 1015 77 10000 4.63 10 07:50 21.04.2021
52 Clouds 18 1015 72 10000 7.2 360 07:26 21.04.2021
53 Clouds 18 1016 72 10000 7.2 360 05:53 21.04.2021
54 Clouds 20 1018 73 10000 9.26 10 01:50 21.04.2021
55 Clouds 20 1018 68 10000 8.23 360 00:20 21.04.2021
56 Clouds 20 1017 68 10000 8.23 10 23:38 20.04.2021
57 Clouds 20 1017 64 10000 9.77 10 22:46 20.04.2021
58 Clouds 20 1017 64 10000 8.75 360 22:23 20.04.2021
59 Clouds 20 1017 64 10000 10.8 10 21:49 20.04.2021
60 Clouds 21 1017 64 10000 10.29 10 21:29 20.04.2021
61 Clouds 21 1017 64 10000 11.32 10 20:59 20.04.2021
62 Clouds 22 1016 56 10000 11.32 10 20:38 20.04.2021
63 Clouds 22 1016 56 10000 11.32 10 20:18 20.04.2021
64 Clouds 22 1016 56 10000 12.35 10 19:45 20.04.2021
65 Clouds 23 1016 53 10000 12.86 20 19:27 20.04.2021
66 Clouds 23 1016 53 10000 12.86 20 18:41 20.04.2021
67 Clouds 23 1016 56 10000 13.89 30 18:22 20.04.2021
68 Clouds 23 1016 60 10000 13.89 30 17:40 20.04.2021
69 Clouds 23 1017 60 10000 13.38 30 16:50 20.04.2021
70 Clouds 22 1017 64 10000 12.86 30 16:18 20.04.2021
71 Clouds 22 1017 60 10000 13.38 30 15:30 20.04.2021
72 Clouds 22 1017 60 10000 13.38 30 15:30 20.04.2021
73 Clouds 23 1017 56 10000 12.35 30 14:59 20.04.2021
74 Clouds 23 1017 60 10000 11.83 30 14:35 20.04.2021
75 Clouds 23 1018 60 10000 11.32 30 13:54 20.04.2021
76 Clouds 23 1018 56 10000 11.32 20 13:24 20.04.2021
77 Clouds 23 1018 56 10000 12.35 20 12:48 20.04.2021
78 Clouds 22 1018 56 10000 10.8 10 12:23 20.04.2021
79 Clouds 22 1018 56 10000 9.77 10 11:46 20.04.2021
80 Clouds 21 1018 56 10000 10.8 10 11:24 20.04.2021
81 Clouds 20 1018 64 10000 10.8 10 10:45 20.04.2021
82 Clouds 19 1018 68 10000 10.29 10 10:23 20.04.2021
83 Clouds 19 1017 68 10000 10.29 10 09:44 20.04.2021
84 Clouds 18 1017 72 10000 9.26 10 08:56 20.04.2021
85 Clouds 18 1017 72 10000 9.77 10 08:33 20.04.2021
86 Clouds 18 1017 77 10000 10.29 10 07:50 20.04.2021
87 Clouds 18 1017 77 10000 10.29 10 06:54 20.04.2021
88 Clouds 18 1017 77 10000 10.29 20 05:40 20.04.2021
89 Clouds 18 1018 77 10000 10.8 20 04:42 20.04.2021
90 Clouds 19 1018 72 10000 10.29 10 02:47 20.04.2021
91 Clouds 19 1019 72 10000 10.29 10 00:49 20.04.2021
92 Clouds 19 1018 72 10000 9.26 360 23:39 19.04.2021
93 Clouds 20 1018 68 10000 10.29 10 22:58 19.04.2021
94 Clouds 20 1018 68 10000 9.77 10 22:36 19.04.2021
95 Clouds 20 1018 68 10000 10.8 360 21:52 19.04.2021
96 Clouds 20 1018 68 10000 10.8 360 21:52 19.04.2021
97 Clouds 20 1017 64 10000 11.83 360 21:34 19.04.2021
98 Clouds 21 1017 60 10000 12.86 10 20:56 19.04.2021
99 Clouds 21 1017 60 10000 13.38 20 20:38 19.04.2021
100 Clouds 21 1017 60 10000 13.38 20 20:19 19.04.2021
101 Clouds 22 1017 60 10000 12.86 20 19:42 19.04.2021
102 Clouds 22 1017 60 10000 13.38 20 19:24 19.04.2021
103 Clouds 22 1017 60 10000 13.89 20 18:47 19.04.2021
104 Clouds 22 1018 60 10000 14.4 30 18:23 19.04.2021
105 Clouds 22 1018 60 10000 14.4 30 17:54 19.04.2021
106 Clouds 22 1018 60 10000 14.4 30 17:29 19.04.2021
107 Clouds 22 1018 60 10000 13.38 30 16:57 19.04.2021
108 Clouds 22 1019 60 10000 13.38 30 16:38 19.04.2021
109 Clouds 22 1019 60 10000 13.38 30 16:20 19.04.2021
110 Clouds 22 1019 56 10000 13.89 30 15:33 19.04.2021
111 Clouds 22 1020 56 10000 13.89 30 14:56 19.04.2021
112 Clouds 22 1020 60 10000 13.38 30 14:37 19.04.2021
113 Clouds 22 1020 60 10000 13.38 30 14:18 19.04.2021
114 Clouds 22 1020 56 10000 13.89 30 13:36 19.04.2021
115 Clouds 21 1020 56 10000 13.89 30 13:18 19.04.2021
116 Clouds 21 1020 56 10000 12.86 20 12:40 19.04.2021
117 Clouds 21 1020 56 10000 12.86 20 12:20 19.04.2021
118 Clouds 21 1020 60 10000 11.83 20 11:52 19.04.2021
119 Clouds 20 1019 60 10000 10.29 360 11:21 19.04.2021
120 Clouds 20 1019 60 10000 10.29 10 10:45 19.04.2021
121 Clouds 19 1019 63 10000 9.77 10 10:20 19.04.2021
122 Clouds 19 1019 63 10000 7.72 360 09:48 19.04.2021
123 Clouds 18 1018 68 10000 8.75 360 09:27 19.04.2021
124 Clouds 17 1018 68 10000 7.72 10 08:45 19.04.2021
125 Clouds 17 1018 68 10000 8.75 10 08:22 19.04.2021
126 Clouds 18 1018 68 10000 9.77 20 07:45 19.04.2021
127 Clouds 18 1018 68 10000 7.72 10 07:18 19.04.2021
128 Clouds 18 1018 68 10000 9.77 10 05:41 19.04.2021
129 Clouds 18 1020 68 10000 9.77 10 01:50 19.04.2021
130 Clouds 19 1020 63 10000 10.8 10 00:45 19.04.2021
131 Clouds 19 1020 63 10000 10.29 10 23:22 18.04.2021
132 Clouds 19 1019 63 10000 10.29 10 22:58 18.04.2021
133 Clouds 19 1019 63 10000 9.26 10 22:40 18.04.2021
134 Clouds 19 1019 63 10000 9.26 10 22:22 18.04.2021
135 Clouds 20 1019 64 10000 11.32 20 21:29 18.04.2021
136 Clouds 20 1019 64 10000 11.32 20 20:55 18.04.2021
137 Clouds 21 1018 60 10000 12.86 30 20:37 18.04.2021
138 Clouds 21 1018 60 10000 12.86 30 20:19 18.04.2021
139 Clouds 21 1018 60 10000 12.35 30 19:41 18.04.2021
140 Clouds 21 1018 60 10000 13.38 30 19:21 18.04.2021
141 Clouds 21 1018 60 10000 13.38 30 18:45 18.04.2021
142 Clouds 22 1018 56 10000 12.86 30 18:26 18.04.2021
143 Clouds 22 1018 56 10000 12.86 30 17:47 18.04.2021
144 Clouds 22 1018 56 10000 13.38 30 17:28 18.04.2021
145 Clouds 22 1019 53 10000 12.86 30 16:52 18.04.2021
146 Clouds 22 1019 56 10000 13.38 30 16:34 18.04.2021
147 Clouds 22 1019 49 10000 13.38 30 15:49 18.04.2021
148 Clouds 22 1019 53 10000 13.89 30 15:28 18.04.2021
149 Clouds 22 1019 53 10000 13.89 30 14:53 18.04.2021
150 Clouds 22 1020 53 10000 13.89 30 14:28 18.04.2021
151 Clouds 22 1020 56 10000 13.38 30 13:56 18.04.2021
152 Clouds 22 1020 53 10000 13.38 30 13:38 18.04.2021
153 Clouds 22 1020 53 10000 13.38 30 13:18 18.04.2021
154 Clouds 22 1020 53 10000 12.35 30 12:32 18.04.2021
155 Clouds 21 1020 56 10000 11.32 20 11:45 18.04.2021
156 Clouds 21 1020 52 10000 10.29 30 11:22 18.04.2021
157 Clouds 20 1020 64 10000 9.26 10 10:48 18.04.2021
158 Clouds 19 1020 64 10000 7.2 10 10:28 18.04.2021
159 Clouds 19 1019 63 10000 6.69 360 09:53 18.04.2021
160 Clouds 19 1019 63 10000 6.69 360 09:53 18.04.2021
161 Clouds 19 1019 59 10000 7.2 360 09:35 18.04.2021
162 Clouds 19 1019 59 10000 7.72 350 08:58 18.04.2021
163 Clouds 19 1019 59 10000 8.23 10 08:37 18.04.2021
164 Clouds 19 1019 59 10000 8.23 10 08:18 18.04.2021
165 Clouds 19 1018 68 10000 8.75 20 07:38 18.04.2021
166 Clouds 19 1018 68 10000 7.72 10 05:45 18.04.2021
167 Clouds 19 1018 68 10000 6.69 10 05:24 18.04.2021
168 Clouds 19 1019 68 10000 7.72 10 03:26 18.04.2021
169 Clouds 19 1019 68 10000 10.29 10 02:22 18.04.2021
170 Clouds 20 1020 68 10000 10.8 20 00:40 18.04.2021
171 Clouds 20 1019 68 10000 8.75 20 23:39 17.04.2021
172 Clouds 20 1019 68 10000 8.75 20 22:54 17.04.2021
173 -273 0 0 0 0 0 22:31 17.04.2021
174 Clouds 20 1019 68 10000 9.77 20 22:30 17.04.2021
175 Clouds 20 1018 68 10000 10.8 20 21:45 17.04.2021
176 Clouds 20 1018 68 10000 10.8 20 21:25 17.04.2021
177 Clouds 21 1018 64 10000 11.32 20 20:43 17.04.2021
178 Clouds 22 1018 64 10000 11.32 20 20:24 17.04.2021
179 Clouds 22 1018 60 10000 12.35 30 19:43 17.04.2021
180 Clouds 22 1018 64 10000 11.83 20 19:20 17.04.2021
181 Clouds 23 1018 53 10000 11.83 20 18:53 17.04.2021
182 Clouds 22 1018 56 10000 12.35 20 18:25 17.04.2021
183 Clouds 23 1018 53 10000 11.32 20 17:48 17.04.2021
184 Clouds 23 1018 53 10000 11.83 30 17:29 17.04.2021
185 Clouds 23 1018 56 10000 13.38 30 16:41 17.04.2021
186 Clouds 23 1018 43 10000 12.35 30 16:23 17.04.2021
187 Clouds 23 1019 56 10000 11.83 30 15:23 17.04.2021
188 Clouds 23 1019 56 10000 11.83 30 14:44 17.04.2021
189 Clouds 23 1019 56 10000 12.86 30 14:20 17.04.2021
190 Clouds 22 1019 56 10000 11.32 30 13:44 17.04.2021
191 Clouds 22 1019 60 10000 10.8 20 12:55 17.04.2021
192 Clouds 22 1019 56 10000 9.77 20 12:33 17.04.2021
193 Clouds 21 1019 64 10000 11.32 30 11:51 17.04.2021
194 Clouds 21 1019 64 10000 9.77 10 11:33 17.04.2021
195 Clouds 20 1018 68 10000 9.77 20 10:56 17.04.2021
196 Clouds 20 1018 68 10000 9.77 10 10:38 17.04.2021
197 Clouds 19 1018 68 10000 10.29 20 09:51 17.04.2021
198 Clouds 18 1018 77 10000 8.75 10 08:54 17.04.2021
199 Clouds 19 1018 77 10000 7.2 360 08:33 17.04.2021
200 Clouds 19 1018 72 10000 7.2 360 07:46 17.04.2021
201 Clouds 18 1018 77 10000 7.2 360 05:43 17.04.2021
202 Clouds 19 1018 82 10000 8.23 20 03:46 17.04.2021
203 Clouds 20 1018 88 10000 7.72 10 00:56 17.04.2021
204 Clouds 20 1018 83 10000 8.75 10 00:30 17.04.2021
205 Clouds 20 1018 83 8000 9.26 20 23:59 16.04.2021
206 Clouds 20 1018 73 10000 7.72 10 23:34 16.04.2021
207 Clouds 20 1017 77 10000 9.77 10 22:51 16.04.2021
208 Clouds 20 1017 73 10000 8.23 360 22:23 16.04.2021
209 Clouds 20 1017 73 10000 8.75 10 21:56 16.04.2021
210 Clouds 20 1017 77 10000 10.29 20 21:38 16.04.2021
211 Clouds 22 1016 60 10000 8.23 360 20:55 16.04.2021
212 Clouds 22 1016 60 10000 8.75 360 20:36 16.04.2021
213 Clouds 22 1016 60 10000 9.26 10 19:58 16.04.2021
214 Clouds 23 1016 56 10000 9.26 360 19:40 16.04.2021
215 Clouds 23 1016 56 10000 8.75 360 18:49 16.04.2021
216 Clouds 22 1016 56 10000 9.26 10 18:23 16.04.2021
217 Clouds 22 1016 56 10000 8.75 10 17:47 16.04.2021
218 Clouds 22 1016 56 10000 8.75 10 17:47 16.04.2021
219 Clouds 22 1017 77 10000 13.89 30 17:19 16.04.2021
220 Clouds 22 1017 77 10000 13.89 30 17:19 16.04.2021
221 Clouds 23 1016 56 10000 11.32 30 16:44 16.04.2021
222 Clouds 23 1016 56 10000 12.35 30 16:26 16.04.2021
223 Clouds 23 1017 60 10000 12.35 30 15:54 16.04.2021
224 Clouds 22 1017 60 10000 11.83 20 15:29 16.04.2021
225 Clouds 22 1017 64 10000 11.32 30 14:43 16.04.2021
226 Clouds 22 1017 64 10000 10.8 20 14:20 16.04.2021
227 Clouds 23 1017 49 10000 10.29 10 13:54 16.04.2021
228 Clouds 21 1017 53 10000 11.32 20 13:22 16.04.2021
229 Clouds 21 1017 53 10000 8.75 10 12:53 16.04.2021
230 Clouds 21 1017 56 10000 7.2 360 12:33 16.04.2021
231 Clouds 21 1017 60 10000 8.23 10 11:58 16.04.2021
232 Clouds 21 1017 60 10000 6.69 350 11:38 16.04.2021
233 Clouds 21 1017 60 10000 6.69 350 11:19 16.04.2021
234 Clouds 20 1016 68 10000 7.2 360 10:40 16.04.2021
235 Clouds 20 1016 68 10000 7.2 360 10:19 16.04.2021
236 Clouds 20 1016 68 10000 7.2 10 09:43 16.04.2021
237 Clouds 19 1016 77 10000 5.66 360 09:20 16.04.2021
238 Clouds 20 1016 72 10000 5.66 350 08:42 16.04.2021
239 Clouds 19 1016 77 10000 5.14 350 08:18 16.04.2021
240 Clouds 19 1015 77 10000 5.14 360 07:37 16.04.2021
241 Clouds 19 1015 72 10000 4.63 350 06:59 16.04.2021
242 Clouds 19 1016 77 10000 5.14 350 06:24 16.04.2021
243 Clouds 19 1017 77 10000 5.14 350 04:23 16.04.2021
244 Clouds 20 1017 68 10000 5.14 360 01:37 16.04.2021
245 Clouds 20 1017 68 10000 4.12 10 00:42 16.04.2021
246 Clouds 20 1017 68 10000 4.63 360 00:20 16.04.2021
247 Clouds 20 1017 73 10000 5.66 360 23:42 15.04.2021
248 Clouds 20 1017 73 10000 5.66 360 23:42 15.04.2021
249 Clouds 21 1017 73 10000 5.66 10 23:23 15.04.2021
250 Clouds 20 1017 73 10000 5.66 350 22:46 15.04.2021
251 Clouds 21 1016 60 10000 6.17 350 22:23 15.04.2021
252 Clouds 21 1016 60 10000 6.69 350 21:43 15.04.2021
253 Clouds 22 1016 53 10000 7.72 360 21:24 15.04.2021
254 Clouds 22 1016 53 10000 8.75 360 20:45 15.04.2021
255 Clouds 22 1016 49 10000 9.26 360 20:25 15.04.2021
256 Clouds 22 1015 49 10000 9.26 360 19:47 15.04.2021
257 Clouds 22 1015 56 10000 10.29 10 19:27 15.04.2021
258 Clouds 23 1015 53 10000 9.77 10 18:45 15.04.2021
259 Clouds 23 1015 53 10000 9.77 10 18:21 15.04.2021
260 Clouds 23 1016 56 10000 7.2 10 17:55 15.04.2021
261 Clouds 23 1016 60 10000 2.57 0 17:37 15.04.2021
262 Clouds 23 1016 60 10000 2.57 0 17:18 15.04.2021
263 Clouds 23 1016 60 10000 1.54 210 16:42 15.04.2021
264 Clouds 23 1016 60 10000 4.63 220 16:22 15.04.2021
265 Clouds 22 1016 60 10000 3.09 0 15:45 15.04.2021
266 Clouds 23 1016 50 10000 8.23 10 15:26 15.04.2021
267 Clouds 24 1016 47 10000 9.26 10 14:41 15.04.2021
268 Clouds 23 1017 53 10000 10.29 360 14:23 15.04.2021
269 Clouds 23 1017 47 10000 9.26 10 13:46 15.04.2021
270 Clouds 23 1017 53 10000 9.26 10 13:19 15.04.2021
271 Clouds 23 1017 53 10000 9.77 20 12:42 15.04.2021
272 Clouds 22 1016 53 10000 9.26 10 12:21 15.04.2021
273 Clouds 22 1016 53 10000 7.72 360 11:47 15.04.2021
274 Clouds 22 1016 60 10000 7.2 360 11:24 15.04.2021
275 Clouds 21 1016 60 10000 6.17 20 10:55 15.04.2021
276 Clouds 21 1016 64 10000 5.14 20 10:28 15.04.2021
277 Clouds 19 1016 72 10000 3.09 10 09:50 15.04.2021
278 Clouds 18 1016 72 10000 3.09 10 09:28 15.04.2021
279 Clouds 19 1016 68 10000 4.12 360 08:49 15.04.2021
280 Clouds 19 1015 68 10000 5.14 10 08:24 15.04.2021
281 Clouds 19 1015 68 10000 4.63 360 07:26 15.04.2021
282 Clouds 19 1015 68 10000 3.6 360 06:50 15.04.2021
283 Clouds 19 1015 68 10000 4.63 360 06:32 15.04.2021
284 Clouds 19 1016 72 10000 5.14 350 04:52 15.04.2021
285 Clouds 20 1017 73 10000 5.14 10 02:51 15.04.2021
286 Clouds 21 1017 68 10000 7.2 360 23:44 14.04.2021
287 Clouds 21 1017 64 10000 5.14 360 23:25 14.04.2021
288 Clouds 21 1016 68 10000 5.14 360 22:47 14.04.2021
289 Clouds 21 1016 73 10000 3.6 330 22:27 14.04.2021
290 Clouds 21 1015 68 10000 4.63 350 21:53 14.04.2021
291 Clouds 21 1015 64 10000 7.2 360 21:32 14.04.2021
292 Clouds 21 1015 64 10000 7.72 10 20:58 14.04.2021
293 Clouds 22 1015 68 10000 8.23 10 20:34 14.04.2021
294 Clouds 22 1015 64 10000 7.2 360 19:55 14.04.2021
295 Clouds 22 1015 64 10000 7.2 360 19:55 14.04.2021
296 Clouds 22 1015 68 10000 6.69 10 19:36 14.04.2021
297 Clouds 22 1015 68 10000 6.69 10 19:18 14.04.2021
298 Clouds 22 1015 78 10000 8.75 20 18:46 14.04.2021
299 Clouds 22 1016 68 10000 8.75 20 18:18 14.04.2021
300 Clouds 22 1016 78 10000 4.63 60 17:46 14.04.2021
301 Clouds 22 1016 78 10000 0.51 0 17:23 14.04.2021
302 Clouds 22 1017 78 10000 4.63 160 16:39 14.04.2021
303 Clouds 22 1017 78 10000 4.63 160 16:19 14.04.2021
304 Clouds 23 1017 68 10000 4.12 150 15:39 14.04.2021
305 Clouds 22 1017 68 10000 4.12 150 15:18 14.04.2021
306 Clouds 22 1018 73 10000 5.14 160 14:40 14.04.2021
307 Clouds 22 1018 73 10000 5.14 160 14:20 14.04.2021
308 Clouds 22 1018 64 10000 4.63 160 13:46 14.04.2021
309 Clouds 22 1018 64 10000 4.63 160 12:43 14.04.2021
310 Clouds 21 1018 73 10000 5.14 170 12:18 14.04.2021
311 Clouds 22 1018 68 10000 4.12 160 11:41 14.04.2021
312 Clouds 22 1018 68 10000 3.09 170 11:22 14.04.2021
313 Clouds 21 1017 68 10000 1.03 0 10:34 14.04.2021
314 Clouds 19 1017 72 10000 5.99 315 09:43 14.04.2021
315 Clouds 18 1017 77 10000 5.66 313 09:25 14.04.2021
316 Clouds 18 1017 77 10000 1.03 0 08:52 14.04.2021
317 Clouds 19 1017 72 10000 2.57 260 08:29 14.04.2021
318 Clouds 18 1017 82 10000 2.06 260 07:36 14.04.2021
319 Clouds 19 1017 77 10000 0.51 0 06:34 14.04.2021
320 Clouds 20 1017 73 10000 3.09 350 05:36 14.04.2021
321 Clouds 20 1019 77 10000 4.63 30 02:31 14.04.2021
322 Clouds 20 1019 78 10000 7.2 20 00:57 14.04.2021
323 Clouds 20 1019 78 10000 6.69 10 00:32 14.04.2021
324 Clouds 20 1019 73 10000 4.63 30 23:34 13.04.2021
325 Clouds 20 1019 78 10000 4.63 20 22:44 13.04.2021
326 Clouds 21 1018 78 10000 5.14 30 22:22 13.04.2021
327 Clouds 21 1018 83 10000 6.17 40 21:49 13.04.2021
328 Clouds 21 1018 83 10000 5.14 40 21:31 13.04.2021
329 Clouds 21 1018 83 10000 4.12 50 20:51 13.04.2021
330 Clouds 22 1017 73 10000 3.6 40 20:25 13.04.2021
331 Clouds 22 1017 68 10000 4.63 40 19:58 13.04.2021
332 Clouds 23 1017 68 10000 4.63 40 19:26 13.04.2021
333 Clouds 23 1017 68 10000 4.63 50 18:57 13.04.2021
334 Clouds 23 1018 68 10000 5.66 40 18:31 13.04.2021
335 Clouds 23 1018 64 10000 6.69 40 17:40 13.04.2021
336 Clouds 23 1018 68 10000 6.69 40 17:21 13.04.2021
337 Clouds 23 1018 68 10000 6.69 40 17:21 13.04.2021
338 Clouds 23 1019 68 10000 5.66 50 16:49 13.04.2021
339 Clouds 23 1019 68 10000 4.63 60 16:31 13.04.2021
340 Clouds 22 1020 73 10000 4.63 60 15:56 13.04.2021
341 Clouds 23 1020 68 10000 5.66 50 15:37 13.04.2021
342 Clouds 23 1020 68 10000 6.17 50 14:58 13.04.2021
343 Clouds 23 1020 68 10000 6.17 50 14:25 13.04.2021
344 Clouds 23 1020 68 10000 5.66 40 13:55 13.04.2021
345 Clouds 23 1020 68 10000 6.69 40 13:36 13.04.2021
346 Clouds 22 1020 68 10000 6.69 40 13:18 13.04.2021
347 Clouds 22 1020 73 10000 6.69 30 12:44 13.04.2021
348 Clouds 21 1020 78 10000 6.69 20 12:22 13.04.2021
349 Clouds 21 1019 73 10000 6.17 30 11:36 13.04.2021
350 Clouds 21 1019 73 10000 5.14 20 10:58 13.04.2021
351 Clouds 20 1019 77 10000 3.6 10 10:39 13.04.2021
352 Clouds 20 1019 77 10000 3.6 10 10:18 13.04.2021
353 Clouds 19 1019 73 10000 2.57 360 09:46 13.04.2021
354 Clouds 19 1019 77 10000 3.6 350 09:23 13.04.2021
355 Clouds 19 1019 77 10000 2.57 340 08:43 13.04.2021
356 Clear 18 1018 82 10000 5.14 360 08:21 13.04.2021
357 Clear 19 1018 82 10000 4.63 10 07:43 13.04.2021
358 Clear 18 1018 82 10000 5.14 10 07:22 13.04.2021
359 Clear 18 1018 82 10000 5.66 10 06:22 13.04.2021
360 Clouds 20 1020 77 10000 6.69 20 03:41 13.04.2021
361 Clouds 20 1021 77 10000 8.23 20 01:31 13.04.2021
362 Clouds 20 1020 77 10000 6.69 10 23:51 12.04.2021
363 Clouds 20 1020 77 10000 6.69 10 23:32 12.04.2021
364 Clouds 21 1020 73 10000 5.66 20 22:50 12.04.2021
365 Clouds 20 1019 77 10000 5.14 20 22:31 12.04.2021
366 Clouds 21 1019 78 10000 5.66 20 21:48 12.04.2021
367 Clouds 20 1019 78 10000 7.2 30 21:25 12.04.2021
368 Clouds 21 1019 78 10000 8.23 30 20:46 12.04.2021
369 Clouds 22 1018 73 10000 8.23 30 20:26 12.04.2021
370 Clouds 22 1018 73 10000 9.26 30 19:59 12.04.2021
371 Clouds 22 1018 73 10000 10.29 30 19:39 12.04.2021
372 Clouds 22 1018 73 10000 10.29 30 19:20 12.04.2021
373 Clouds 22 1018 73 10000 10.8 30 18:48 12.04.2021
374 Clouds 22 1018 68 10000 10.8 30 18:30 12.04.2021
375 Clouds 23 1018 64 10000 10.29 30 17:46 12.04.2021
376 Clouds 23 1018 64 10000 10.29 30 17:25 12.04.2021
377 Clouds 24 1018 64 10000 9.77 30 16:49 12.04.2021
378 Clouds 24 1019 68 10000 9.26 40 16:29 12.04.2021
379 Clouds 23 1019 73 10000 8.75 40 15:56 12.04.2021
380 Clouds 23 1019 68 10000 8.75 40 15:33 12.04.2021
381 Clouds 23 1020 64 10000 9.77 40 14:55 12.04.2021
382 Clouds 23 1020 64 10000 9.77 30 14:37 12.04.2021
383 Clouds 22 1020 64 10000 10.29 30 13:59 12.04.2021
384 Clouds 22 1020 60 10000 9.26 30 13:39 12.04.2021
385 Clouds 22 1020 60 10000 9.26 30 13:18 12.04.2021
386 Clouds 22 1020 68 10000 8.23 30 12:38 12.04.2021
387 Clouds 22 1020 68 10000 8.23 30 12:20 12.04.2021
388 Clouds 20 1019 68 10000 8.23 20 11:27 12.04.2021
389 Clouds 20 1019 68 10000 6.69 10 10:51 12.04.2021
390 Clouds 20 1019 73 10000 5.66 10 10:28 12.04.2021
391 Clouds 19 1019 72 10000 4.63 360 09:51 12.04.2021
392 Clouds 18 1019 77 10000 3.6 340 09:23 12.04.2021
393 Clouds 18 1019 72 10000 3.6 350 08:49 12.04.2021
394 Clouds 18 1018 72 10000 5.14 10 07:53 12.04.2021
395 Clouds 18 1018 77 10000 5.14 360 07:29 12.04.2021
396 Clouds 18 1018 72 10000 5.14 360 06:29 12.04.2021
397 Clouds 18 1018 77 10000 4.63 10 05:45 12.04.2021
398 Clouds 19 1020 77 10000 5.66 20 02:26 12.04.2021
399 Clouds 19 1019 77 10000 7.2 20 00:27 12.04.2021
400 Clouds 20 1019 73 10000 6.69 20 23:54 11.04.2021
401 Clouds 19 1019 73 10000 6.69 20 23:32 11.04.2021
402 Clouds 20 1019 77 10000 7.2 20 22:50 11.04.2021
403 Clear 20 1018 77 10000 6.69 30 22:28 11.04.2021
404 Clear 20 1018 77 10000 6.69 30 21:58 11.04.2021
405 Clouds 20 1018 77 10000 6.69 30 21:39 11.04.2021
406 Clouds 20 1018 77 10000 6.69 30 21:20 11.04.2021
407 Clouds 20 1017 73 10000 6.17 30 20:39 11.04.2021
408 Clouds 21 1017 73 10000 6.17 30 20:20 11.04.2021
409 Clouds 22 1017 68 10000 5.66 30 19:41 11.04.2021
410 Clouds 22 1017 68 10000 5.14 30 19:20 11.04.2021
411 Clouds 22 1017 64 10000 5.66 40 18:55 11.04.2021
412 Clouds 21 1017 68 10000 5.14 60 18:37 11.04.2021
413 Clouds 21 1017 68 10000 5.14 60 18:18 11.04.2021
414 Clouds 22 1017 64 10000 5.14 50 17:37 11.04.2021
415 Clouds 22 1017 64 10000 5.14 50 17:18 11.04.2021
416 Clouds 22 1018 64 10000 4.12 70 16:40 11.04.2021
417 Clouds 22 1018 64 10000 4.12 70 16:20 11.04.2021
418 Clouds 21 1018 64 10000 4.63 70 15:43 11.04.2021
419 Clouds 22 1019 64 10000 4.12 80 15:22 11.04.2021
420 Clouds 22 1019 64 10000 4.12 70 14:51 11.04.2021
421 Clouds 22 1019 64 10000 4.12 60 14:21 11.04.2021
422 Clouds 21 1019 68 10000 5.66 60 13:40 11.04.2021
423 Clouds 21 1019 68 10000 5.66 60 13:22 11.04.2021
424 Clouds 21 1018 64 10000 5.14 50 12:26 11.04.2021
425 Clouds 21 1019 64 10000 5.66 40 11:57 11.04.2021
426 Clouds 20 1018 68 10000 5.14 20 11:38 11.04.2021
427 Clouds 20 1018 68 10000 5.14 20 11:19 11.04.2021
428 Clouds 19 1018 68 10000 4.63 10 10:44 11.04.2021
429 Clouds 19 1018 72 10000 4.12 350 10:22 11.04.2021
430 Clouds 18 1017 77 10000 3.6 340 09:43 11.04.2021
431 Clouds 18 1017 77 10000 3.6 340 09:43 11.04.2021
432 Clouds 17 1017 72 10000 3.6 350 09:25 11.04.2021
433 Clouds 17 1016 77 10000 4.63 340 08:39 11.04.2021
434 Clouds 17 1016 77 10000 4.63 350 07:38 11.04.2021
435 Clouds 17 1016 77 10000 4.63 350 07:19 11.04.2021
436 Clouds 17 1016 77 10000 4.63 360 05:47 11.04.2021
437 Clouds 18 1016 77 10000 5.14 360 05:23 11.04.2021
438 Clouds 17 1017 72 10000 3.6 350 04:35 11.04.2021
439 Clear 18 1017 68 10000 4.12 360 03:35 11.04.2021
440 Clouds 19 1017 63 10000 6.17 30 00:55 11.04.2021
441 Clear 19 1017 63 10000 6.17 20 00:32 11.04.2021
442 Clear 19 1017 72 10000 5.14 20 23:45 10.04.2021
443 Clouds 19 1016 72 10000 6.69 20 22:55 10.04.2021
444 Clouds 19 1016 72 10000 5.14 20 22:28 10.04.2021
445 Clouds 20 1016 68 10000 6.69 30 21:53 10.04.2021
446 Clouds 20 1016 68 10000 7.2 30 21:25 10.04.2021
447 Clouds 20 1016 64 10000 6.17 40 20:56 10.04.2021
448 Clouds 20 1016 64 10000 6.69 40 20:34 10.04.2021
449 Clouds 20 1015 64 10000 7.72 40 19:59 10.04.2021
450 Clouds 21 1015 64 10000 7.72 40 19:41 10.04.2021
451 Clouds 21 1015 64 10000 8.23 40 19:23 10.04.2021
452 Clouds 22 1015 60 10000 8.23 40 18:41 10.04.2021
453 Clouds 22 1015 60 10000 8.23 40 18:23 10.04.2021
454 Clouds 22 1015 60 10000 8.23 40 18:23 10.04.2021
455 Clouds 22 1016 56 10000 8.23 40 17:35 10.04.2021
456 Clouds 22 1016 60 10000 7.72 30 16:42 10.04.2021
457 Clouds 22 1016 64 10000 8.23 40 16:21 10.04.2021
458 Clouds 22 1016 56 10000 9.26 30 15:44 10.04.2021
459 Clouds 22 1016 60 10000 8.75 30 14:54 10.04.2021
460 Clouds 22 1017 60 10000 7.72 40 14:33 10.04.2021
461 Clouds 22 1017 60 10000 7.72 40 13:55 10.04.2021
462 Clouds 22 1017 60 10000 7.72 40 13:36 10.04.2021
463 Clouds 22 1017 60 10000 6.69 40 12:41 10.04.2021
464 Clouds 21 1017 64 10000 6.17 50 12:20 10.04.2021
465 Clouds 21 1017 64 10000 6.69 40 11:45 10.04.2021
466 Clouds 21 1017 64 10000 6.69 40 11:45 10.04.2021
467 Clouds 21 1016 64 10000 6.69 30 11:21 10.04.2021
468 Clouds 20 1016 68 10000 5.66 20 10:50 10.04.2021
469 Clouds 19 1016 72 10000 3.6 0 10:30 10.04.2021
470 Clouds 18 1016 72 10000 3.09 340 09:37 10.04.2021
471 Clouds 18 1016 72 10000 3.09 340 09:18 10.04.2021
472 Clouds 18 1015 72 10000 4.12 330 08:34 10.04.2021
473 Clouds 17 1015 77 10000 3.09 310 07:56 10.04.2021
474 Clouds 17 1015 82 10000 2.06 330 07:26 10.04.2021
475 Clouds 18 1015 77 10000 2.57 340 06:27 10.04.2021
476 Clouds 19 1015 77 10000 4.63 10 05:28 10.04.2021
477 Clouds 19 1017 82 10000 4.63 10 03:36 10.04.2021
478 Clouds 19 1017 82 10000 6.69 20 02:42 10.04.2021
479 Clouds 19 1017 77 10000 6.69 20 01:27 10.04.2021
480 Clouds 19 1017 77 10000 5.14 20 00:31 10.04.2021
481 Clouds 20 1017 77 10000 6.69 20 23:51 09.04.2021
482 Clouds 19 1017 77 10000 5.66 10 23:27 09.04.2021
483 Clouds 20 1016 77 10000 6.17 20 22:47 09.04.2021
484 Clouds 20 1016 68 10000 6.17 20 22:28 09.04.2021
485 Clouds 20 1015 68 10000 8.23 20 21:40 09.04.2021
486 Clouds 20 1015 68 10000 8.23 20 21:21 09.04.2021
487 Clouds 21 1016 73 10000 9.26 30 20:46 09.04.2021
488 Clouds 21 1016 68 10000 9.26 40 20:23 09.04.2021
489 Clouds 21 1016 68 10000 8.23 40 19:58 09.04.2021
490 Clouds 22 1015 68 10000 7.72 40 19:40 09.04.2021
491 Clouds 22 1015 68 10000 7.72 40 19:22 09.04.2021
492 Clouds 22 1015 60 10000 8.23 40 18:42 09.04.2021
493 Clouds 21 1016 64 10000 7.72 40 18:23 09.04.2021
494 Clouds 22 1016 64 10000 7.72 40 17:47 09.04.2021
495 Clouds 22 1016 64 10000 8.75 30 17:29 09.04.2021
496 Clouds 22 1016 64 10000 7.72 40 16:44 09.04.2021
497 Clouds 22 1017 64 10000 7.2 40 16:23 09.04.2021
498 Clouds 22 1017 68 10000 7.2 40 15:43 09.04.2021
499 Clouds 22 1017 68 10000 7.2 60 15:23 09.04.2021
500 Clouds 23 1017 64 10000 7.2 50 14:46 09.04.2021
501 Clouds 22 1017 68 10000 6.69 50 14:21 09.04.2021
502 Clouds 22 1017 73 10000 6.17 60 13:43 09.04.2021
503 Clouds 22 1018 68 10000 5.14 60 13:22 09.04.2021
504 Clouds 22 1018 68 10000 5.14 50 12:47 09.04.2021
505 Clouds 21 1017 68 10000 5.14 40 11:57 09.04.2021
506 Clouds 21 1017 68 10000 5.14 40 11:28 09.04.2021
507 Clouds 21 1017 68 10000 4.12 30 10:56 09.04.2021
508 Clouds 20 1017 60 10000 2.57 10 10:37 09.04.2021
509 Clouds 18 1017 59 10000 2.57 350 09:55 09.04.2021
510 Clouds 18 1017 68 10000 2.06 320 09:27 09.04.2021
511 Clouds 17 1017 67 10000 1.54 300 08:55 09.04.2021
512 Clouds 17 1016 72 10000 1.54 320 08:25 09.04.2021
513 Clouds 17 1016 67 10000 1.03 0 07:21 09.04.2021
514 Clouds 18 1016 63 10000 1.54 320 06:21 09.04.2021
515 Clouds 19 1017 82 10000 3.09 350 03:56 09.04.2021
516 Clouds 19 1018 82 10000 4.12 340 03:38 09.04.2021
517 Clouds 20 1018 83 10000 5.66 30 00:38 09.04.2021
518 Clouds 20 1018 83 10000 5.66 30 00:20 09.04.2021
519 Clouds 20 1018 83 10000 4.63 20 23:31 08.04.2021
520 Clouds 20 1018 83 10000 4.63 30 22:47 08.04.2021
521 Clouds 20 1018 83 10000 5.14 30 22:27 08.04.2021
522 Clouds 21 1017 78 10000 5.14 30 21:58 08.04.2021
523 Clouds 20 1017 78 10000 4.12 40 21:40 08.04.2021
524 Clouds 20 1017 78 10000 4.12 40 21:40 08.04.2021
525 Clouds 21 1017 78 10000 4.12 40 21:21 08.04.2021
526 Clouds 21 1017 78 10000 4.12 40 20:54 08.04.2021
527 Clouds 21 1017 78 10000 3.6 50 20:34 08.04.2021
528 Clouds 21 1017 73 10000 3.09 70 19:57 08.04.2021
529 Clouds 21 1017 73 10000 2.06 100 19:25 08.04.2021
530 Clouds 21 1017 73 10000 1.54 100 18:57 08.04.2021
531 Clouds 22 1017 73 10000 2.57 110 18:24 08.04.2021
532 Clouds 22 1018 68 10000 2.57 110 17:55 08.04.2021
533 Clouds 22 1018 73 10000 2.57 110 17:27 08.04.2021
534 Clouds 21 1018 73 10000 2.57 100 16:57 08.04.2021
535 Clouds 21 1018 73 10000 3.09 140 16:36 08.04.2021
536 Clouds 21 1019 73 10000 2.57 130 15:56 08.04.2021
537 Clouds 21 1019 68 10000 3.09 140 15:37 08.04.2021
538 Clouds 21 1019 68 10000 3.09 140 15:19 08.04.2021
539 Clouds 21 1019 73 10000 3.6 150 14:40 08.04.2021
540 Clouds 21 1019 73 10000 3.6 150 14:40 08.04.2021
541 Clouds 21 1019 73 10000 3.6 150 14:20 08.04.2021
542 Clouds 21 1019 73 10000 2.57 130 13:44 08.04.2021
543 Clouds 21 1019 73 10000 3.09 160 13:23 08.04.2021
544 Clouds 20 1019 77 10000 2.57 130 12:53 08.04.2021
545 Clouds 21 1019 78 10000 2.57 140 12:32 08.04.2021
546 Clouds 20 1019 77 10000 2.06 110 11:56 08.04.2021
547 Clouds 20 1019 73 10000 1.54 100 11:21 08.04.2021
548 Clouds 20 1019 73 10000 1.03 100 10:49 08.04.2021
549 Clear 19 1019 72 10000 0.51 0 10:24 08.04.2021
550 Clear 18 1018 72 10000 1.54 270 09:43 08.04.2021
551 Clouds 18 1018 72 10000 2.06 260 08:54 08.04.2021
552 Clouds 17 1018 72 10000 2.06 260 08:36 08.04.2021
553 Clouds 17 1018 72 10000 2.06 260 08:18 08.04.2021
554 Clouds 17 1018 77 10000 1.03 260 07:42 08.04.2021
555 Clouds 18 1017 72 10000 1.54 310 04:56 08.04.2021
556 Clouds 19 1019 72 10000 1.03 270 01:25 08.04.2021
557 Clouds 19 1019 72 10000 1.03 0 00:30 08.04.2021
558 Clouds 20 1018 68 10000 1.03 0 23:47 07.04.2021
559 Clouds 20 1018 68 10000 1.03 0 23:24 07.04.2021
560 Clouds 20 1017 68 10000 1.54 20 22:55 07.04.2021
561 Clouds 20 1017 73 10000 1.54 50 22:35 07.04.2021
562 Clouds 20 1017 68 10000 1.54 60 21:58 07.04.2021
563 Clouds 20 1017 68 10000 2.06 70 21:34 07.04.2021
564 Clouds 20 1016 73 10000 1.54 110 20:51 07.04.2021
565 Clouds 21 1016 73 10000 1.54 120 20:28 07.04.2021
566 Clouds 20 1016 73 10000 2.57 120 19:50 07.04.2021
567 Clouds 21 1016 68 10000 2.57 120 19:31 07.04.2021
568 Clouds 21 1016 68 10000 2.57 130 18:56 07.04.2021
569 Clouds 21 1016 68 10000 3.09 130 18:23 07.04.2021
570 Clouds 21 1016 68 10000 3.09 130 17:59 07.04.2021
571 Clouds 21 1016 68 10000 3.09 130 17:41 07.04.2021
572 Clouds 21 1017 64 10000 3.6 140 16:59 07.04.2021
573 Clouds 21 1017 64 10000 3.6 130 16:40 07.04.2021
574 Clouds 21 1017 64 10000 3.6 130 16:21 07.04.2021
575 Clouds 21 1017 64 10000 3.6 140 15:51 07.04.2021
576 Clouds 21 1017 64 10000 3.6 130 15:25 07.04.2021
577 Clouds 21 1017 64 10000 3.6 130 15:25 07.04.2021
578 Clouds 20 1018 68 10000 3.09 130 14:37 07.04.2021
579 Clouds 20 1018 68 10000 3.09 130 14:18 07.04.2021
580 Clouds 20 1018 68 10000 3.09 130 13:37 07.04.2021
581 Clouds 21 1018 68 10000 3.09 130 13:19 07.04.2021
582 Clouds 20 1018 68 10000 2.57 110 12:39 07.04.2021
583 Clouds 19 1018 68 10000 2.57 110 12:18 07.04.2021
584 Clouds 19 1017 72 10000 1.54 0 11:39 07.04.2021
585 Clouds 19 1017 72 10000 1.54 0 11:20 07.04.2021
586 Clouds 18 1017 72 10000 1.54 300 10:33 07.04.2021
587 Clouds 17 1016 72 10000 1.54 280 09:46 07.04.2021
588 Clouds 16 1016 77 10000 2.06 270 09:28 07.04.2021
589 Clouds 17 1016 72 10000 2.06 290 08:48 07.04.2021
590 Clear 16 1016 72 10000 2.57 280 08:26 07.04.2021
591 Clear 16 1015 77 10000 2.06 300 07:46 07.04.2021
592 Clear 17 1015 72 10000 2.06 300 07:26 07.04.2021
593 Clouds 17 1015 72 10000 2.06 270 06:39 07.04.2021
594 Clear 18 1016 72 10000 2.06 300 04:37 07.04.2021
595 Clouds 19 1017 72 10000 1.54 320 01:21 07.04.2021
596 Clouds 19 1016 68 10000 3.09 30 23:47 06.04.2021
597 Clouds 19 1016 68 10000 2.57 40 23:22 06.04.2021
598 Clouds 19 1016 68 10000 2.57 50 22:48 06.04.2021
599 Clouds 19 1015 72 10000 3.09 40 22:21 06.04.2021
600 Clouds 19 1015 72 10000 2.06 50 21:44 06.04.2021
601 Clouds 20 1015 64 10000 3.09 40 21:23 06.04.2021
602 Clouds 20 1015 64 10000 4.12 50 20:55 06.04.2021
603 Clouds 20 1015 60 10000 3.6 50 20:26 06.04.2021
604 Clouds 20 1015 60 10000 3.6 50 20:26 06.04.2021
605 Clouds 20 1015 64 10000 3.6 70 19:59 06.04.2021
606 Clouds 20 1015 64 10000 3.09 80 19:38 06.04.2021
607 Clouds 20 1015 64 10000 3.09 80 19:19 06.04.2021
608 Clouds 20 1015 64 10000 2.57 100 18:41 06.04.2021
609 Clouds 20 1015 60 10000 3.09 100 18:19 06.04.2021
610 Clouds 20 1015 64 10000 3.6 100 17:44 06.04.2021
611 Clouds 20 1016 64 10000 4.12 80 17:19 06.04.2021
612 Clouds 20 1016 64 10000 4.63 60 16:46 06.04.2021
613 Clouds 20 1016 64 10000 3.6 60 16:26 06.04.2021
614 Clouds 19 1016 60 10000 4.12 70 15:27 06.04.2021
615 Clouds 20 1016 60 10000 4.12 70 14:45 06.04.2021
616 Clouds 20 1017 56 10000 4.63 60 14:26 06.04.2021
617 Clouds 20 1017 68 10000 4.63 70 13:47 06.04.2021
618 Clouds 20 1017 64 10000 4.63 60 13:27 06.04.2021
619 Clouds 20 1017 64 10000 4.63 60 13:27 06.04.2021
620 Clouds 20 1017 64 10000 4.12 60 12:55 06.04.2021
621 Clouds 20 1017 64 10000 4.63 60 12:36 06.04.2021
622 Clouds 20 1017 64 10000 4.63 60 12:18 06.04.2021
623 Clouds 20 1017 60 10000 4.12 40 11:43 06.04.2021
624 Clouds 20 1016 60 10000 5.14 40 11:19 06.04.2021
625 Clouds 18 1016 55 10000 3.6 10 10:43 06.04.2021
626 Clouds 18 1016 52 10000 2.57 340 10:22 06.04.2021
627 Clouds 17 1016 59 10000 3.09 310 09:45 06.04.2021
628 Clouds 17 1016 63 10000 3.09 300 09:23 06.04.2021
629 Clouds 16 1015 72 10000 3.09 300 08:29 06.04.2021
630 Clouds 17 1015 72 10000 3.09 330 07:32 06.04.2021
631 Clouds 16 1015 72 10000 3.09 330 06:54 06.04.2021
632 Clouds 17 1016 72 10000 2.57 330 04:52 06.04.2021
633 Clouds 19 1017 63 10000 5.66 30 00:59 06.04.2021
634 Clouds 19 1017 68 10000 5.14 30 00:38 06.04.2021
635 Clouds 19 1017 68 10000 5.14 30 00:20 06.04.2021
636 Clouds 19 1017 68 10000 5.14 20 23:41 05.04.2021
637 Clouds 19 1017 68 10000 5.66 10 23:18 05.04.2021
638 Clouds 19 1017 63 10000 5.14 360 22:41 05.04.2021
639 Clouds 19 1016 63 10000 6.17 20 22:20 05.04.2021
640 Clouds 19 1016 60 10000 6.69 30 21:38 05.04.2021
641 Clouds 19 1016 60 10000 6.69 30 21:19 05.04.2021
642 Clouds 20 1016 60 10000 6.69 30 20:42 05.04.2021
643 Clouds 20 1016 60 10000 6.69 30 20:42 05.04.2021
644 Clouds 20 1016 60 10000 6.69 30 20:42 05.04.2021
645 Clouds 20 1016 60 10000 6.17 30 20:22 05.04.2021
646 Clouds 20 1015 56 10000 5.66 40 19:38 05.04.2021
647 Clouds 20 1015 56 10000 5.66 40 19:19 05.04.2021
648 Clouds 20 1015 56 10000 4.63 60 18:42 05.04.2021
649 Clouds 20 1015 56 10000 4.63 60 18:20 05.04.2021
650 Clouds 20 1016 56 10000 4.12 60 17:47 05.04.2021
651 Clouds 20 1016 56 10000 4.12 70 17:24 05.04.2021
652 Clouds 20 1016 56 10000 4.12 60 16:47 05.04.2021
653 Clouds 21 1016 56 10000 4.12 60 16:23 05.04.2021
654 Clouds 21 1016 56 10000 4.12 60 16:23 05.04.2021
655 Clouds 20 1017 60 10000 4.12 60 15:58 05.04.2021
656 Clouds 20 1017 60 10000 3.09 60 15:38 05.04.2021
657 Clouds 20 1017 60 10000 3.09 60 15:20 05.04.2021
658 Clouds 20 1017 60 10000 4.12 60 14:36 05.04.2021
659 Clouds 20 1017 60 10000 4.12 80 13:52 05.04.2021
660 Clouds 20 1017 60 10000 4.63 90 13:27 05.04.2021
661 Clouds 20 1017 60 10000 4.12 60 12:47 05.04.2021
662 Clouds 19 1017 56 10000 4.12 60 12:25 05.04.2021
663 Clouds 19 1017 63 10000 3.6 30 11:48 05.04.2021
664 Clouds 19 1017 63 10000 4.12 20 11:30 05.04.2021
665 Clouds 19 1017 63 10000 3.6 10 10:55 05.04.2021
666 Clouds 18 1017 63 10000 4.12 340 10:35 05.04.2021
667 Clouds 17 1016 63 10000 4.63 340 09:48 05.04.2021
668 Clouds 17 1016 59 10000 3.6 10 09:26 05.04.2021
669 Clouds 17 1016 63 10000 3.09 360 08:47 05.04.2021
670 Clouds 17 1016 59 10000 2.57 330 08:26 05.04.2021
671 Clouds 17 1016 63 10000 3.6 320 07:57 05.04.2021
672 Clouds 17 1016 63 10000 3.09 320 07:29 05.04.2021
673 Clouds 18 1017 59 10000 4.12 10 03:42 05.04.2021
674 Clouds 18 1018 63 10000 4.12 350 00:54 05.04.2021
675 Clouds 18 1018 63 10000 3.6 340 23:53 04.04.2021
676 Clouds 18 1018 63 10000 4.12 350 23:31 04.04.2021
677 Clouds 19 1017 59 10000 4.63 350 22:57 04.04.2021
678 Clouds 19 1017 59 10000 5.14 10 22:34 04.04.2021
679 Clouds 19 1016 55 10000 6.69 20 21:56 04.04.2021
680 Clouds 19 1016 55 10000 6.69 20 21:21 04.04.2021
681 Clouds 20 1016 56 10000 7.72 30 20:42 04.04.2021
682 Clouds 20 1016 56 10000 8.23 30 20:21 04.04.2021
683 Clouds 21 1016 52 10000 7.2 30 19:40 04.04.2021
684 Clouds 21 1015 52 10000 8.75 30 19:19 04.04.2021
685 Clouds 21 1015 52 10000 8.75 30 18:50 04.04.2021
686 Clouds 21 1015 52 10000 8.75 30 18:24 04.04.2021
687 Clouds 21 1016 52 10000 8.75 30 17:58 04.04.2021
688 Clouds 21 1016 52 10000 9.26 30 17:25 04.04.2021
689 Clouds 21 1016 52 10000 8.23 30 16:56 04.04.2021
690 Clouds 21 1016 49 10000 7.72 30 16:38 04.04.2021
691 Clouds 22 1016 46 10000 8.23 40 15:52 04.04.2021
692 Clouds 21 1017 49 10000 8.23 40 15:31 04.04.2021
693 Clouds 21 1017 49 10000 8.23 50 14:39 04.04.2021
694 Clouds 21 1017 49 10000 8.23 50 14:19 04.04.2021
695 Clouds 21 1018 49 10000 6.17 50 13:27 04.04.2021
696 Clouds 20 1018 52 10000 6.69 40 12:51 04.04.2021
697 Clouds 19 1018 55 10000 6.17 50 12:28 04.04.2021
698 Clouds 19 1018 59 10000 6.17 40 11:49 04.04.2021
699 Clouds 19 1018 59 10000 5.14 40 11:30 04.04.2021
700 Clouds 19 1017 55 10000 4.63 20 10:47 04.04.2021
701 Clouds 18 1017 59 10000 6.69 20 10:24 04.04.2021
702 Clouds 18 1017 59 10000 8.23 30 09:44 04.04.2021
703 Clouds 18 1017 59 10000 7.72 30 09:21 04.04.2021
704 Clouds 18 1017 63 10000 7.2 30 08:44 04.04.2021
705 Clouds 18 1017 59 10000 5.66 20 08:24 04.04.2021
706 Clouds 18 1017 59 10000 6.69 350 06:39 04.04.2021
707 Clouds 18 1017 59 10000 5.14 350 05:44 04.04.2021
708 Clouds 18 1018 59 10000 5.66 20 02:39 04.04.2021
709 Clouds 19 1018 63 10000 6.69 20 00:48 04.04.2021
710 Clouds 19 1018 63 10000 7.2 30 00:18 04.04.2021
711 Clouds 19 1018 68 10000 6.69 20 23:41 03.04.2021
712 Clouds 19 1017 68 10000 7.2 10 22:56 03.04.2021
713 Clouds 19 1016 68 10000 7.2 10 22:37 03.04.2021
714 Clouds 19 1016 68 10000 7.2 10 22:18 03.04.2021
715 Clouds 19 1016 68 10000 9.77 20 21:39 03.04.2021
716 Clouds 19 1016 68 10000 9.77 20 21:21 03.04.2021
717 Clouds 20 1016 64 10000 10.29 20 20:40 03.04.2021
718 Clouds 20 1016 64 10000 10.8 30 20:20 03.04.2021
719 Clouds 21 1016 56 10000 11.83 30 19:43 03.04.2021
720 Clouds 21 1016 56 10000 11.32 20 19:19 03.04.2021
721 Clouds 21 1016 56 10000 12.35 30 18:45 03.04.2021
722 Clouds 21 1016 56 10000 12.86 30 18:18 03.04.2021
723 Clouds 21 1016 56 10000 13.38 30 17:41 03.04.2021
724 Clouds 22 1016 56 10000 13.38 30 17:21 03.04.2021
725 Clouds 22 1016 49 10000 11.32 30 16:43 03.04.2021
726 Clouds 22 1016 49 10000 11.32 30 16:21 03.04.2021
727 Clouds 22 1016 49 10000 11.32 30 16:21 03.04.2021
728 Clouds 22 1017 49 10000 12.35 30 15:46 03.04.2021
729 Clouds 21 1017 56 10000 12.35 30 15:21 03.04.2021
730 Clouds 22 1017 53 10000 11.83 30 14:42 03.04.2021
731 Clouds 22 1018 53 10000 10.29 30 14:22 03.04.2021
732 Clouds 21 1018 52 10000 10.29 30 13:48 03.04.2021
733 Clouds 22 1018 46 10000 10.29 30 13:23 03.04.2021
734 Clouds 20 1018 56 10000 10.29 30 12:49 03.04.2021
735 Clouds 20 1018 60 10000 9.26 10 12:21 03.04.2021
736 Clouds 20 1018 52 10000 8.75 10 11:38 03.04.2021
737 Clouds 19 1017 56 10000 8.75 360 10:51 03.04.2021
738 Clouds 19 1017 63 10000 9.26 10 10:31 03.04.2021
739 Clouds 19 1017 59 10000 6.69 360 09:54 03.04.2021
740 Clouds 19 1017 63 10000 7.72 20 09:28 03.04.2021
741 Clouds 19 1017 59 10000 5.14 360 08:47 03.04.2021
742 Clouds 18 1017 68 10000 5.14 350 08:28 03.04.2021
743 Clouds 18 1017 59 10000 7.72 360 07:28 03.04.2021
744 Clouds 18 1017 68 10000 6.17 360 06:39 03.04.2021
745 Clouds 18 1018 72 10000 7.72 10 03:53 03.04.2021
746 Clouds 19 1018 68 10000 9.26 10 02:51 03.04.2021
747 Clouds 18 1019 77 10000 8.23 10 02:25 03.04.2021
748 Clouds 19 1019 68 10000 8.75 20 00:21 03.04.2021
749 Clouds 19 1019 68 10000 9.77 20 23:49 02.04.2021
750 Clouds 19 1019 72 10000 8.75 20 23:24 02.04.2021
751 Clouds 19 1019 72 10000 8.75 10 22:53 02.04.2021
752 Clouds 19 1018 72 10000 8.75 20 22:34 02.04.2021
753 Clouds 19 1018 72 10000 9.26 20 21:46 02.04.2021
754 Clouds 19 1017 72 10000 9.26 20 21:24 02.04.2021
755 Clouds 20 1017 68 10000 10.29 30 20:52 02.04.2021
756 Clouds 21 1018 64 10000 9.26 30 20:33 02.04.2021
757 Clouds 21 1018 68 10000 9.77 30 19:58 02.04.2021
758 Clouds 21 1017 68 10000 9.77 30 19:39 02.04.2021
759 Clouds 21 1017 68 10000 9.77 30 19:20 02.04.2021
760 Clouds 22 1017 60 10000 8.75 30 18:39 02.04.2021
761 Clouds 22 1017 60 10000 8.75 30 18:39 02.04.2021
762 Clouds 22 1017 60 10000 8.75 30 18:20 02.04.2021
763 Clouds 22 1018 56 10000 7.72 30 17:40 02.04.2021
764 Clouds 21 1018 60 10000 7.72 20 16:50 02.04.2021
765 Clouds 21 1018 60 10000 7.72 20 16:50 02.04.2021
766 Clouds 22 1019 60 10000 8.75 30 16:22 02.04.2021
767 Clouds 22 1019 60 10000 10.29 30 15:35 02.04.2021
768 Clouds 22 1019 60 10000 10.29 30 14:55 02.04.2021
769 Clouds 21 1019 64 10000 10.29 30 14:31 02.04.2021
770 Clouds 21 1019 64 10000 10.29 30 14:31 02.04.2021
771 Clouds 21 1020 64 10000 10.29 30 13:44 02.04.2021
772 Clouds 21 1020 64 10000 10.8 30 13:23 02.04.2021
773 Clouds 21 1020 60 10000 10.8 30 12:41 02.04.2021
774 Clouds 21 1020 64 10000 9.77 20 12:20 02.04.2021
775 Clouds 21 1020 64 10000 9.26 20 11:56 02.04.2021
776 Clouds 20 1020 68 10000 9.26 30 11:21 02.04.2021
777 Clouds 20 1020 68 10000 9.26 30 11:21 02.04.2021
778 Clouds 19 1019 72 10000 7.72 10 10:50 02.04.2021
779 Clouds 19 1020 68 10000 6.17 360 10:29 02.04.2021
780 Clouds 18 1020 77 10000 5.14 360 09:53 02.04.2021
781 Clouds 17 1019 77 10000 7.2 10 09:27 02.04.2021
782 Clouds 17 1019 77 10000 7.2 20 08:58 02.04.2021
783 Clouds 17 1019 77 10000 6.17 10 08:33 02.04.2021
784 Clouds 17 1018 77 10000 6.17 10 07:31 02.04.2021
785 Clouds 17 1018 82 10000 6.17 360 06:53 02.04.2021
786 Clouds 17 1018 77 10000 5.14 350 05:57 02.04.2021
787 Clouds 18 1020 77 10000 5.14 350 02:45 02.04.2021
788 Clouds 19 1020 77 10000 5.14 10 00:53 02.04.2021
789 Clouds 19 1020 72 10000 5.66 360 00:23 02.04.2021
790 Clouds 19 1019 72 10000 4.63 360 23:40 01.04.2021
791 Clouds 19 1019 72 10000 5.66 360 22:59 01.04.2021
792 Clouds 19 1018 68 10000 6.69 360 22:20 01.04.2021
793 Clouds 19 1018 68 10000 7.2 10 21:51 01.04.2021
794 Clouds 19 1017 73 10000 9.26 20 21:28 01.04.2021
795 Clouds 20 1017 68 10000 9.77 30 20:49 01.04.2021
796 Clouds 20 1017 68 10000 10.8 30 20:26 01.04.2021
797 Clouds 21 1017 68 10000 10.8 30 19:56 01.04.2021
798 Clouds 21 1017 64 10000 11.32 30 19:36 01.04.2021
799 Clouds 21 1017 60 10000 10.29 30 18:46 01.04.2021
800 Clouds 21 1017 64 10000 9.77 30 18:19 01.04.2021
801 Clouds 21 1017 64 10000 8.75 30 17:53 01.04.2021
802 Clouds 22 1017 60 10000 8.75 40 17:33 01.04.2021
803 Clouds 21 1017 64 10000 8.23 40 16:53 01.04.2021
804 Clouds 21 1017 64 10000 7.72 30 16:31 01.04.2021
805 Clouds 21 1018 64 10000 7.2 40 15:48 01.04.2021
806 Clouds 21 1018 64 10000 7.72 40 15:20 01.04.2021
807 Clouds 21 1018 64 10000 6.17 40 14:47 01.04.2021
808 Clouds 21 1018 64 10000 6.69 50 14:26 01.04.2021
809 Clouds 21 1018 68 10000 7.2 50 13:56 01.04.2021
810 Clouds 20 1018 68 10000 7.2 40 13:31 01.04.2021
811 Clouds 20 1018 68 10000 6.17 40 12:54 01.04.2021
812 Clouds 20 1017 68 10000 6.17 40 12:33 01.04.2021
813 Clouds 20 1017 68 10000 5.66 40 11:55 01.04.2021
814 Clouds 20 1017 68 10000 5.14 30 11:37 01.04.2021
815 Clouds 20 1017 68 10000 5.14 30 11:18 01.04.2021
816 Clouds 20 1017 68 10000 5.14 30 11:18 01.04.2021
817 Clouds 18 1016 72 10000 3.6 360 10:42 01.04.2021
818 Clouds 18 1016 68 10000 3.09 350 10:22 01.04.2021
819 Clouds 17 1016 82 10000 2.06 320 09:31 01.04.2021
820 Clouds 18 1015 82 10000 2.06 270 08:42 01.04.2021
821 Clouds 18 1015 82 10000 2.57 260 08:24 01.04.2021
822 Clouds 18 1015 77 10000 2.06 50 07:21 01.04.2021
823 Clouds 18 1015 77 10000 2.57 90 06:54 01.04.2021
824 Clouds 18 1015 77 10000 3.09 70 05:32 01.04.2021
825 Clouds 19 1015 77 10000 1.54 70 02:58 01.04.2021
826 Clouds 20 1013 77 10000 5.66 30 23:52 31.03.2021
827 Clouds 20 1013 77 10000 5.14 10 23:33 31.03.2021
828 Clouds 20 1012 73 10000 4.12 350 22:43 31.03.2021
829 Clouds 20 1012 73 10000 3.6 10 22:21 31.03.2021
830 Clouds 20 1012 73 10000 3.09 20 21:47 31.03.2021
831 Clouds 21 1011 68 10000 3.6 60 21:24 31.03.2021
832 Clouds 21 1011 68 10000 2.06 90 20:58 31.03.2021
833 Clouds 21 1011 56 10000 5.14 10 20:40 31.03.2021
834 Clouds 21 1011 56 10000 5.14 10 20:19 31.03.2021
835 Clouds 22 1010 53 10000 4.63 10 19:42 31.03.2021
836 Clouds 22 1010 53 10000 4.63 10 19:42 31.03.2021
837 Clouds 22 1010 50 10000 5.14 10 19:19 31.03.2021
838 Clouds 22 1010 53 10000 4.12 20 18:52 31.03.2021
839 Clouds 22 1010 50 10000 5.14 10 18:26 31.03.2021
840 Clouds 22 1011 53 10000 4.12 90 17:38 31.03.2021
841 Clouds 22 1011 53 10000 4.12 90 17:19 31.03.2021
842 Clouds 23 1011 53 10000 3.6 80 16:49 31.03.2021
843 Clouds 23 1011 56 10000 5.14 50 16:29 31.03.2021
844 Clouds 23 1011 53 10000 5.14 40 15:51 31.03.2021
845 Clouds 22 1011 53 10000 6.69 30 15:20 31.03.2021
846 Clouds 22 1011 53 10000 5.66 40 14:49 31.03.2021
847 Clouds 22 1011 53 10000 6.17 30 14:24 31.03.2021
848 Clouds 22 1011 53 10000 6.17 30 14:24 31.03.2021
849 Clouds 22 1011 53 10000 6.17 30 14:24 31.03.2021
850 Clouds 21 1011 49 10000 5.66 10 13:53 31.03.2021
851 Clouds 21 1011 53 10000 8.23 20 13:19 31.03.2021
852 Clouds 21 1011 46 10000 8.75 210 12:37 31.03.2021
853 Clouds 21 1011 46 10000 8.75 210 12:18 31.03.2021
854 Clouds 20 1011 56 10000 2.57 0 11:22 31.03.2021
855 Clouds 20 1010 52 10000 3.6 250 10:48 31.03.2021
856 Clouds 18 1010 68 10000 2.06 300 10:27 31.03.2021
857 Clouds 16 1010 72 10000 1.54 270 09:45 31.03.2021
858 Clouds 16 1011 72 10000 2.06 300 09:27 31.03.2021
859 Clouds 16 1010 72 10000 1.54 280 08:43 31.03.2021
860 Clouds 16 1011 67 10000 2.57 270 08:25 31.03.2021
861 Clouds 16 1011 72 10000 2.57 260 07:33 31.03.2021
862 Clouds 17 1012 77 10000 0.51 0 04:34 31.03.2021
863 Clouds 17 1013 77 10000 1.52 217 02:37 31.03.2021
864 Clouds 18 1013 77 10000 1.54 230 00:54 31.03.2021
865 Clouds 19 1013 77 10000 1.54 200 00:22 31.03.2021
866 Clouds 19 1013 77 10000 1.03 0 23:55 30.03.2021
867 Clouds 19 1013 77 10000 2.06 180 23:24 30.03.2021
868 Clouds 20 1013 73 10000 3.09 190 22:49 30.03.2021
869 Clouds 20 1012 77 10000 3.09 180 22:30 30.03.2021
870 Clouds 19 1012 82 10000 4.12 170 21:56 30.03.2021
871 Clouds 20 1012 77 10000 4.63 170 21:29 30.03.2021
872 Clouds 20 1012 77 10000 4.12 160 20:59 30.03.2021
873 Clouds 20 1012 77 10000 4.12 160 20:31 30.03.2021
874 Clouds 20 1012 73 10000 4.12 150 19:56 30.03.2021
875 Clouds 21 1012 73 10000 4.63 160 19:37 30.03.2021
876 Clouds 21 1012 73 10000 4.12 150 18:55 30.03.2021
877 Clouds 20 1012 73 10000 4.12 150 18:26 30.03.2021
878 Clouds 21 1013 68 10000 3.09 150 17:45 30.03.2021
879 Clouds 21 1013 73 10000 3.6 130 17:26 30.03.2021
880 Clouds 21 1013 77 10000 3.6 140 16:47 30.03.2021
881 Clouds 21 1014 68 10000 3.6 130 16:27 30.03.2021
882 Clouds 21 1015 73 10000 3.09 110 15:37 30.03.2021
883 Clouds 21 1015 73 10000 3.09 110 15:18 30.03.2021
884 Clouds 21 1015 73 10000 3.09 90 14:45 30.03.2021
885 Clouds 21 1016 68 10000 3.09 90 14:20 30.03.2021
886 Clouds 21 1016 64 10000 3.09 70 13:47 30.03.2021
887 Clouds 21 1016 64 10000 3.6 40 13:24 30.03.2021
888 Clouds 20 1016 68 10000 3.6 60 12:41 30.03.2021
889 Clouds 21 1016 64 10000 4.63 50 12:20 30.03.2021
890 Clouds 20 1016 64 10000 4.12 30 11:41 30.03.2021
891 Clouds 19 1016 64 10000 4.63 10 11:18 30.03.2021
892 Clouds 18 1015 68 10000 5.14 350 10:40 30.03.2021
893 Clouds 18 1015 68 10000 3.6 340 10:19 30.03.2021
894 Clouds 16 1015 77 10000 3.6 30 09:40 30.03.2021
895 Clouds 16 1015 77 10000 3.6 30 09:20 30.03.2021
896 Clouds 16 1015 63 10000 3.09 330 08:41 30.03.2021
897 Clear 17 1014 72 10000 5.66 10 07:55 30.03.2021
898 Clear 16 1014 67 10000 4.12 350 07:28 30.03.2021
899 Clouds 17 1015 72 10000 3.6 20 06:23 30.03.2021
900 Clouds 18 1015 77 10000 3.09 360 05:24 30.03.2021
901 Clouds 19 1017 77 10000 7.2 20 01:37 30.03.2021
902 Clouds 19 1016 68 10000 5.66 10 23:52 29.03.2021
903 Clouds 18 1016 72 10000 5.14 20 23:18 29.03.2021
904 Clouds 19 1015 68 10000 5.66 10 22:36 29.03.2021
905 Clouds 19 1015 72 10000 7.72 10 21:55 29.03.2021
906 Clouds 19 1015 72 10000 7.2 30 21:33 29.03.2021
907 Clouds 19 1014 73 10000 6.17 40 20:50 29.03.2021
908 Clouds 19 1014 73 10000 6.17 40 20:29 29.03.2021
909 Clouds 20 1015 73 10000 6.17 40 19:52 29.03.2021
910 Clouds 20 1015 73 10000 5.14 40 19:27 29.03.2021
911 Clouds 20 1015 68 10000 4.63 40 18:51 29.03.2021
912 Clouds 20 1014 68 10000 4.63 40 18:27 29.03.2021
913 Clouds 20 1015 68 10000 3.6 50 17:55 29.03.2021
914 Clouds 20 1015 60 10000 3.09 40 17:33 29.03.2021
915 Clouds 20 1015 64 10000 1.54 80 16:52 29.03.2021
916 Clouds 20 1015 68 10000 3.09 140 16:25 29.03.2021
917 Clouds 20 1015 68 10000 4.12 180 15:40 29.03.2021
918 Clouds 20 1015 68 10000 5.14 160 15:22 29.03.2021
919 Clouds 20 1015 77 10000 3.6 170 14:47 29.03.2021
920 Clouds 21 1015 68 10000 2.06 110 13:56 29.03.2021
921 Clouds 21 1015 64 10000 2.06 140 13:37 29.03.2021
922 Clouds 21 1015 68 10000 3.09 140 12:59 29.03.2021
923 Clouds 20 1015 68 10000 2.57 80 12:40 29.03.2021
924 Clouds 21 1015 64 10000 2.06 40 11:46 29.03.2021
925 Clouds 20 1015 68 10000 3.09 10 11:27 29.03.2021
926 Clouds 18 1014 72 10000 2.57 350 10:46 29.03.2021
927 Clouds 17 1014 72 10000 2.06 310 10:21 29.03.2021
928 Clouds 16 1013 77 10000 2.06 250 09:32 29.03.2021
929 Clouds 17 1013 72 10000 1.54 300 08:35 29.03.2021
930 Clouds 17 1013 72 10000 3.09 310 07:54 29.03.2021
931 Clouds 17 1012 72 10000 1.84 284 07:19 29.03.2021
932 Clouds 18 1012 72 10000 1.03 0 06:25 29.03.2021
933 Clouds 18 1014 82 10000 2.57 240 02:34 29.03.2021
934 Clouds 19 1014 68 10000 1.03 0 00:45 29.03.2021
935 Clouds 19 1015 68 10000 1.54 0 00:18 29.03.2021
936 Clouds 19 1014 68 10000 1.54 0 23:25 28.03.2021
937 Clouds 19 1014 68 10000 0.51 0 22:48 28.03.2021
938 Clouds 19 1013 68 10000 2.57 20 22:30 28.03.2021
939 Clouds 20 1013 68 10000 3.09 40 21:48 28.03.2021
940 Clouds 20 1013 68 10000 3.6 40 21:26 28.03.2021
941 Clouds 20 1013 68 10000 3.09 70 20:58 28.03.2021
942 Clouds 20 1012 64 10000 3.6 50 20:39 28.03.2021
943 Clouds 20 1012 64 10000 3.6 50 20:19 28.03.2021
944 Clouds 21 1012 64 10000 4.12 70 19:42 28.03.2021
945 Clouds 21 1012 56 10000 3.6 360 19:21 28.03.2021
946 Clouds 21 1013 60 10000 5.66 10 18:49 28.03.2021
947 Clouds 21 1013 60 10000 5.66 40 18:24 28.03.2021
948 Clouds 21 1013 56 10000 4.12 60 17:42 28.03.2021
949 Clouds 21 1013 60 10000 4.12 60 17:20 28.03.2021
950 Clouds 22 1013 56 10000 4.12 70 16:41 28.03.2021
951 Clouds 22 1014 60 10000 4.63 50 16:21 28.03.2021
952 Clouds 22 1014 64 10000 7.2 40 15:25 28.03.2021
953 Clouds 21 1015 73 10000 7.2 40 14:50 28.03.2021
954 Clouds 21 1015 64 10000 7.2 40 14:26 28.03.2021
955 Clouds 20 1015 64 10000 6.69 50 13:38 28.03.2021
956 Clouds 20 1015 64 10000 4.12 60 12:59 28.03.2021
957 Clouds 20 1015 68 10000 2.06 80 12:37 28.03.2021
958 Clouds 20 1015 68 10000 2.06 80 12:18 28.03.2021
959 Clouds 19 1015 68 10000 0.51 0 11:39 28.03.2021
960 Clouds 19 1014 72 10000 0.89 160 10:56 28.03.2021
961 Clouds 18 1014 72 10000 1.03 0 10:37 28.03.2021
962 Clouds 17 1014 72 10000 1.03 0 10:18 28.03.2021
963 Clouds 17 1014 77 10000 1.03 260 09:43 28.03.2021
964 Clouds 16 1014 77 10000 1.03 0 09:23 28.03.2021
965 Clouds 17 1013 77 10000 1.54 280 08:38 28.03.2021
966 Clouds 17 1013 77 10000 2.06 300 07:44 28.03.2021
967 Clouds 17 1013 77 10000 2.81 22 06:22 28.03.2021
968 Clouds 18 1014 77 10000 1.03 0 03:51 28.03.2021
969 Clouds 19 1015 77 10000 3.09 210 00:48 28.03.2021
970 Clouds 19 1015 72 10000 2.57 320 00:18 28.03.2021
971 Clouds 19 1015 73 10000 3.6 360 23:37 27.03.2021
972 Clouds 19 1015 73 10000 4.63 10 22:50 27.03.2021
973 Clouds 19 1014 77 10000 4.63 340 22:31 27.03.2021
974 Clouds 20 1014 77 10000 5.66 360 21:46 27.03.2021
975 Clouds 19 1013 77 10000 6.17 360 21:21 27.03.2021
976 Clouds 20 1013 64 10000 5.14 10 20:59 27.03.2021
977 Clouds 21 1012 64 10000 3.6 30 20:37 27.03.2021
978 Clouds 21 1012 60 10000 4.63 30 19:59 27.03.2021
979 Clouds 21 1012 60 10000 4.12 30 19:40 27.03.2021
980 Clouds 22 1012 60 10000 4.12 30 19:22 27.03.2021
981 Clouds 22 1012 56 10000 2.57 360 18:47 27.03.2021
982 Clouds 22 1012 60 10000 1.03 0 18:22 27.03.2021
983 Clouds 22 1012 60 10000 5.66 60 17:37 27.03.2021
984 Clouds 22 1012 60 10000 5.66 60 17:18 27.03.2021
985 Clouds 22 1012 56 10000 5.14 70 16:46 27.03.2021
986 Clouds 22 1013 64 10000 4.63 90 16:25 27.03.2021
987 Clouds 22 1013 60 10000 5.66 60 15:45 27.03.2021
988 Clouds 22 1013 53 10000 6.17 30 15:18 27.03.2021
989 Clouds 22 1014 56 10000 6.69 40 14:39 27.03.2021
990 Clouds 21 1014 60 10000 3.6 70 13:39 27.03.2021
991 Clouds 22 1014 60 10000 3.6 70 13:19 27.03.2021
992 Clouds 21 1015 60 10000 3.6 50 12:43 27.03.2021
993 Clouds 21 1014 60 10000 4.12 60 11:51 27.03.2021
994 Clouds 20 1014 64 10000 2.57 70 11:32 27.03.2021
995 Clouds 20 1014 64 10000 1.54 90 10:57 27.03.2021
996 Clouds 20 1014 64 10000 1.54 160 10:38 27.03.2021
997 Clouds 19 1014 60 10000 1.54 180 09:50 27.03.2021
998 Clouds 18 1014 68 10000 1.03 0 09:20 27.03.2021
999 Clouds 17 1013 67 10000 2.06 290 08:40 27.03.2021
1000 Clouds 17 1013 72 10000 2.06 280 07:52 27.03.2021
1001 Clouds 17 1013 72 10000 2.06 300 06:59 27.03.2021
1002 Clouds 17 1013 72 10000 2.57 300 06:39 27.03.2021
1003 Clouds 17 1013 72 10000 1.54 290 04:42 27.03.2021
1004 Clouds 18 1014 77 10000 2.06 300 02:26 27.03.2021
1005 Clouds 18 1015 72 10000 1.03 0 00:44 27.03.2021
1006 Clouds 19 1015 72 10000 2.64 277 00:25 27.03.2021
1007 Clouds 19 1015 68 10000 0.51 0 23:27 26.03.2021
1008 Clouds 19 1014 68 10000 1.54 350 22:40 26.03.2021
1009 Clouds 20 1014 68 10000 2.57 340 21:53 26.03.2021
1010 Clouds 20 1013 68 10000 4.12 350 21:24 26.03.2021
1011 Clouds 20 1013 64 10000 4.12 350 20:57 26.03.2021
1012 Clouds 20 1012 68 10000 4.12 30 20:31 26.03.2021
1013 Clouds 21 1012 56 10000 1.54 90 19:52 26.03.2021
1014 Clouds 21 1012 60 10000 2.57 110 19:33 26.03.2021
1015 Clouds 21 1012 56 10000 2.06 100 18:55 26.03.2021
1016 Clouds 22 1012 56 10000 3.09 100 18:36 26.03.2021
1017 Clouds 22 1012 56 10000 3.09 100 18:18 26.03.2021
1018 Clouds 22 1012 60 10000 3.09 80 17:41 26.03.2021
1019 Clouds 23 1012 56 10000 7.2 60 16:50 26.03.2021
1020 Clear 24 1012 60 10000 7.72 50 16:23 26.03.2021
1021 Clear 23 1012 60 10000 7.72 50 16:23 26.03.2021
1022 Clear 24 1012 57 10000 6.17 40 15:42 26.03.2021
1023 Clear 22 1012 53 9000 6.17 70 14:50 26.03.2021
1024 Clear 22 1013 46 9000 7.2 50 14:20 26.03.2021
1025 Clear 23 1012 44 9000 5.14 10 13:33 26.03.2021
1026 Clear 23 1012 47 9000 5.66 360 12:46 26.03.2021
1027 Clear 22 1012 50 9000 5.66 40 11:50 26.03.2021
1028 Clear 22 1012 50 9000 4.12 40 11:31 26.03.2021
1029 Clear 22 1012 49 9000 3.09 10 10:44 26.03.2021
1030 Clear 20 1012 53 9000 4.63 220 10:24 26.03.2021
1031 Clear 19 1012 64 9000 4.63 200 09:41 26.03.2021
1032 Clear 18 1010 77 9000 5.14 200 08:51 26.03.2021
1033 Clear 18 1010 88 8000 7.72 210 08:31 26.03.2021
1034 Clouds 19 1010 82 8000 7.2 210 07:58 26.03.2021
1035 Clouds 19 1009 68 8000 5.66 210 07:22 26.03.2021
1036 Clouds 19 1009 59 8000 4.63 200 06:57 26.03.2021
1037 Clouds 21 1009 35 8000 7.72 200 05:33 26.03.2021
1038 Clouds 20 1009 73 8000 7.72 210 04:43 26.03.2021
1039 Clear 22 1012 49 8000 1.54 160 01:36 26.03.2021
1040 Clouds 24 1013 38 8000 2.57 130 00:23 26.03.2021
1041 Clouds 24 1014 25 8000 2.06 280 23:42 25.03.2021
1042 Clouds 25 1013 15 7000 1.03 0 22:50 25.03.2021
1043 Clouds 24 1013 13 7000 2.06 300 22:27 25.03.2021
1044 Clouds 23 1013 18 7000 2.57 300 21:49 25.03.2021
1045 Clouds 24 1013 20 8000 0.51 0 21:29 25.03.2021
1046 Clouds 25 1013 22 8000 1.54 10 20:41 25.03.2021
1047 Clouds 25 1013 22 8000 1.54 10 20:23 25.03.2021
1048 Clouds 25 1013 31 9000 1.03 0 19:43 25.03.2021
1049 Clear 25 1013 36 10000 2.88 122 19:24 25.03.2021
1050 Clear 23 1014 41 10000 1.54 100 18:46 25.03.2021
1051 Clear 24 1014 33 10000 2.06 100 18:26 25.03.2021
1052 Clear 23 1014 29 10000 2.06 110 17:42 25.03.2021
1053 Clear 24 1014 29 10000 2.06 110 17:23 25.03.2021
1054 Clear 25 1015 41 10000 4.12 110 16:39 25.03.2021
1055 Clear 25 1015 41 10000 4.12 110 16:20 25.03.2021
1056 Clear 23 1016 38 10000 3.6 110 15:42 25.03.2021
1057 Clear 24 1016 38 10000 3.6 110 15:19 25.03.2021
1058 Clear 23 1017 35 10000 3.6 110 14:42 25.03.2021
1059 Clear 26 1018 24 10000 2.57 130 13:41 25.03.2021
1060 Clear 25 1018 27 10000 2.06 130 13:23 25.03.2021
1061 Clear 25 1019 27 10000 1.54 0 12:41 25.03.2021
1062 Clear 25 1019 35 10000 3.09 100 12:20 25.03.2021
1063 Clear 25 1019 29 10000 2.57 140 11:48 25.03.2021
1064 Clear 24 1019 31 10000 2.57 130 11:26 25.03.2021
1065 Clear 24 1019 38 10000 2.06 120 10:51 25.03.2021
1066 Clear 23 1018 43 10000 1.54 100 10:24 25.03.2021
1067 Clear 22 1018 35 10000 1.03 0 09:55 25.03.2021
1068 Clear 21 1018 40 10000 1.54 220 09:36 25.03.2021
1069 Clear 20 1018 45 10000 1.03 0 08:43 25.03.2021
1070 Clear 21 1018 40 10000 2.06 290 07:59 25.03.2021
1071 Clear 21 1018 40 10000 1.54 0 06:59 25.03.2021
1072 Clear 21 1018 40 10000 1.03 0 06:25 25.03.2021
1073 Clear 22 1018 35 10000 2.57 0 05:48 25.03.2021
1074 Clear 22 1019 20 10000 2.06 40 02:48 25.03.2021
1075 Clear 19 1020 68 10000 6.69 360 00:21 25.03.2021
1076 Clear 20 1020 77 10000 6.69 20 23:51 24.03.2021
1077 Clear 20 1020 73 10000 6.69 30 23:28 24.03.2021
1078 Clear 20 1020 73 10000 3.6 10 22:47 24.03.2021
1079 Clear 20 1019 77 10000 6.17 30 22:26 24.03.2021
1080 Clear 20 1018 68 10000 5.14 40 21:42 24.03.2021
1081 Clear 20 1018 68 10000 5.14 40 21:22 24.03.2021
1082 Clear 21 1018 64 9000 4.63 20 20:41 24.03.2021
1083 Clear 21 1018 60 9000 5.66 20 20:20 24.03.2021
1084 Clear 21 1018 49 9000 3.6 30 19:39 24.03.2021
1085 Clear 22 1018 49 9000 3.6 30 19:20 24.03.2021
1086 Clear 21 1018 68 9000 2.06 80 18:43 24.03.2021
1087 Clear 22 1018 53 9000 2.06 120 18:20 24.03.2021
1088 Clear 22 1018 60 9000 2.06 120 17:43 24.03.2021
1089 Clear 22 1019 53 9000 3.09 140 17:25 24.03.2021
1090 Clear 22 1019 64 9000 4.12 130 16:51 24.03.2021
1091 Clear 22 1019 56 9000 4.63 150 16:27 24.03.2021
1092 Clear 22 1019 56 9000 4.63 140 15:44 24.03.2021
1093 Clear 22 1020 56 9000 4.63 130 15:25 24.03.2021
1094 Clear 23 1020 49 9000 4.12 130 14:46 24.03.2021
1095 Clear 23 1020 56 9000 4.12 130 14:24 24.03.2021
1096 Clear 23 1020 49 9000 4.63 140 13:52 24.03.2021
1097 Clear 23 1021 43 9000 4.12 130 13:27 24.03.2021
1098 Clear 22 1021 46 9000 3.6 110 12:42 24.03.2021
1099 Clear 22 1021 46 9000 2.06 100 12:21 24.03.2021
1100 Clear 21 1021 53 9000 0.51 0 11:42 24.03.2021
1101 Clear 21 1021 46 9000 3.09 40 10:57 24.03.2021
1102 Clear 20 1020 40 9000 3.09 30 10:36 24.03.2021
1103 Clear 19 1020 45 9000 2.57 20 09:58 24.03.2021
1104 Clear 19 1020 45 9000 2.57 20 09:58 24.03.2021
1105 Clear 18 1020 42 10000 3.09 360 09:38 24.03.2021
1106 Clear 18 1020 42 10000 3.09 360 09:18 24.03.2021
1107 Clouds 18 1019 39 10000 3.6 350 08:47 24.03.2021
1108 Clear 18 1019 39 10000 5.66 350 08:24 24.03.2021
1109 Clear 18 1018 37 10000 4.12 360 07:31 24.03.2021
1110 Clear 18 1018 39 10000 5.14 360 06:51 24.03.2021
1111 Clear 18 1019 42 9000 4.12 20 03:21 24.03.2021
1112 Clear 18 1020 72 10000 7.2 10 00:45 24.03.2021
1113 Clear 18 1020 72 10000 8.23 10 23:53 23.03.2021
1114 Clear 18 1020 72 10000 8.75 20 23:20 23.03.2021
1115 Clear 18 1019 72 10000 9.26 20 22:51 23.03.2021
1116 Clear 18 1019 72 10000 8.75 10 22:27 23.03.2021
1117 Clouds 18 1018 72 10000 7.72 10 21:47 23.03.2021
1118 Clouds 18 1018 72 10000 8.75 10 21:29 23.03.2021
1119 Clouds 19 1018 68 10000 8.23 20 20:47 23.03.2021
1120 Clouds 19 1018 68 10000 8.23 20 20:26 23.03.2021
1121 Clouds 19 1018 68 10000 8.75 20 19:55 23.03.2021
1122 Clouds 19 1018 64 10000 9.26 30 19:26 23.03.2021
1123 Clouds 19 1017 64 10000 10.29 30 18:59 23.03.2021
1124 Clouds 19 1018 64 10000 9.26 30 18:37 23.03.2021
1125 Clouds 19 1018 64 10000 9.26 30 18:18 23.03.2021
1126 Clouds 19 1018 64 10000 9.26 30 17:42 23.03.2021
1127 Clouds 19 1018 56 10000 9.26 30 17:20 23.03.2021
1128 Clouds 20 1018 56 10000 8.75 30 16:25 23.03.2021
1129 Clouds 20 1018 60 10000 8.75 30 15:48 23.03.2021
1130 Clouds 20 1019 60 10000 9.26 30 15:22 23.03.2021
1131 Clouds 20 1019 60 10000 8.75 30 14:45 23.03.2021
1132 Clouds 20 1020 60 10000 9.26 40 14:19 23.03.2021
1133 Clouds 19 1020 64 10000 9.77 30 13:45 23.03.2021
1134 Clouds 19 1020 60 10000 9.77 30 13:23 23.03.2021
1135 Clouds 19 1020 60 10000 9.77 40 12:44 23.03.2021
1136 Clouds 19 1020 60 10000 9.26 30 12:23 23.03.2021
1137 Clouds 19 1020 60 10000 9.26 30 11:47 23.03.2021
1138 Clouds 19 1020 59 10000 7.72 10 10:59 23.03.2021
1139 Clouds 18 1020 59 10000 7.72 10 10:41 23.03.2021
1140 Clouds 18 1020 63 10000 7.72 360 10:20 23.03.2021
1141 Clouds 18 1019 63 10000 5.66 360 09:47 23.03.2021
1142 Clouds 16 1019 67 10000 6.17 350 09:22 23.03.2021
1143 Clouds 16 1018 67 10000 5.66 350 08:40 23.03.2021
1144 Clouds 16 1018 67 10000 5.66 350 08:22 23.03.2021
1145 Clouds 16 1018 67 10000 4.63 350 07:59 23.03.2021
1146 Clouds 16 1018 67 10000 4.12 350 07:22 23.03.2021
1147 Clouds 16 1018 67 10000 4.63 360 06:41 23.03.2021
1148 Clouds 17 1018 63 10000 5.14 360 03:23 23.03.2021
1149 Clouds 17 1018 67 10000 6.17 360 02:21 23.03.2021
1150 Clouds 17 1018 67 10000 6.69 10 23:44 22.03.2021
1151 Clouds 17 1018 63 10000 7.2 10 22:56 22.03.2021
1152 Clouds 17 1017 63 10000 7.2 10 22:38 22.03.2021
1153 Clouds 17 1017 63 10000 7.2 10 22:20 22.03.2021
1154 Clouds 17 1017 59 10000 7.2 20 21:41 22.03.2021
1155 Clouds 17 1017 59 10000 8.23 20 21:22 22.03.2021
1156 Clouds 18 1017 59 10000 7.72 30 20:41 22.03.2021
1157 Clouds 18 1017 59 10000 7.2 20 20:22 22.03.2021
1158 Clouds 18 1017 59 10000 8.23 30 19:54 22.03.2021
1159 Clouds 18 1016 55 10000 8.23 30 19:34 22.03.2021
1160 Clouds 18 1016 52 10000 8.75 30 18:58 22.03.2021
1161 Clouds 18 1016 52 10000 8.75 30 18:39 22.03.2021
1162 Clouds 18 1016 52 10000 8.75 30 18:20 22.03.2021
1163 Clouds 19 1016 49 10000 8.23 30 17:42 22.03.2021
1164 Clouds 19 1016 45 10000 7.72 30 17:20 22.03.2021
1165 Clouds 19 1016 49 10000 7.72 30 16:45 22.03.2021
1166 Clouds 19 1017 45 10000 7.2 30 16:19 22.03.2021
1167 Clouds 19 1017 49 10000 6.69 50 15:38 22.03.2021
1168 Clouds 19 1017 49 10000 6.69 50 15:18 22.03.2021
1169 Clouds 19 1018 49 10000 6.69 40 14:51 22.03.2021
1170 Clouds 19 1018 49 10000 6.69 40 14:51 22.03.2021
1171 Clouds 19 1018 49 10000 5.66 60 14:32 22.03.2021
1172 Clouds 19 1019 52 10000 5.66 50 13:47 22.03.2021
1173 Clouds 19 1019 52 10000 5.66 50 13:26 22.03.2021
1174 Clouds 18 1019 55 10000 6.17 30 12:54 22.03.2021
1175 Clouds 18 1019 55 10000 6.17 30 12:24 22.03.2021
1176 Clouds 18 1019 52 10000 6.69 30 11:49 22.03.2021
1177 Clouds 18 1019 52 10000 6.69 30 11:26 22.03.2021
1178 Clouds 17 1019 52 10000 7.2 40 10:44 22.03.2021
1179 Clouds 17 1018 52 10000 7.2 20 10:24 22.03.2021
1180 Clouds 17 1018 55 10000 6.17 20 09:46 22.03.2021
1181 Clouds 17 1017 55 10000 7.72 20 09:26 22.03.2021
1182 Clouds 17 1017 51 10000 5.66 360 08:45 22.03.2021
1183 Clouds 17 1017 48 10000 5.14 10 08:26 22.03.2021
1184 Clouds 17 1017 48 10000 7.2 30 07:50 22.03.2021
1185 Clouds 17 1017 51 10000 9.26 30 07:30 22.03.2021
1186 Clouds 17 1017 51 10000 7.2 10 06:39 22.03.2021
1187 Clouds 17 1018 63 10000 8.75 30 02:47 22.03.2021
1188 Clouds 17 1019 55 10000 7.2 40 00:43 22.03.2021
1189 Clouds 17 1019 52 10000 7.72 30 23:55 21.03.2021
1190 Clouds 18 1019 55 10000 7.2 20 23:20 21.03.2021
1191 Clouds 18 1019 59 10000 6.69 20 22:58 21.03.2021
1192 Clouds 17 1019 59 10000 6.17 10 22:30 21.03.2021
1193 Clouds 17 1018 55 10000 5.66 10 21:42 21.03.2021
1194 Clouds 17 1018 59 10000 7.2 20 21:24 21.03.2021
1195 Clouds 18 1018 55 10000 7.72 20 20:48 21.03.2021
1196 Clouds 18 1017 59 10000 7.72 20 20:29 21.03.2021
1197 Clouds 18 1017 63 10000 8.75 10 19:59 21.03.2021
1198 Clouds 18 1017 55 10000 8.23 10 19:28 21.03.2021
1199 Clouds 18 1017 52 10000 9.26 20 18:56 21.03.2021
1200 Clouds 18 1017 52 10000 9.26 20 18:32 21.03.2021
1201 Clouds 18 1017 52 10000 10.29 30 17:59 21.03.2021
1202 Clouds 19 1018 45 10000 10.8 30 17:40 21.03.2021
1203 Clouds 19 1018 45 10000 10.8 30 17:18 21.03.2021
1204 Clouds 19 1018 49 10000 10.8 20 16:48 21.03.2021
1205 Clouds 19 1018 49 10000 11.32 30 16:22 21.03.2021
1206 Clouds 19 1018 52 10000 11.83 30 15:42 21.03.2021
1207 Clouds 19 1018 56 10000 11.83 30 15:20 21.03.2021
1208 Clouds 19 1018 46 10000 11.32 30 14:46 21.03.2021
1209 Clouds 19 1019 45 10000 11.32 30 14:27 21.03.2021
1210 Clouds 19 1019 45 10000 11.83 30 13:57 21.03.2021
1211 Clouds 19 1019 48 10000 10.29 30 13:38 21.03.2021
1212 Clouds 18 1019 52 10000 9.77 20 12:43 21.03.2021
1213 Clouds 18 1020 59 10000 9.26 20 12:24 21.03.2021
1214 Clouds 18 1019 59 10000 9.26 20 11:41 21.03.2021
1215 Clouds 18 1019 63 10000 9.77 10 11:20 21.03.2021
1216 Clouds 18 1019 55 10000 7.2 360 10:44 21.03.2021
1217 Clouds 18 1018 52 10000 7.72 350 10:26 21.03.2021
1218 Clouds 18 1018 48 10000 8.23 10 09:47 21.03.2021
1219 Clouds 18 1018 52 10000 8.23 10 09:29 21.03.2021
1220 Clouds 17 1018 72 10000 5.66 350 08:54 21.03.2021
1221 Clouds 17 1018 67 10000 5.66 360 08:28 21.03.2021
1222 Clouds 16 1018 67 10000 6.17 350 07:41 21.03.2021
1223 Clouds 16 1017 82 10000 5.66 360 07:21 21.03.2021
1224 Clouds 16 1017 77 10000 9.77 10 05:59 21.03.2021
1225 Clouds 18 1018 68 10000 8.75 360 02:48 21.03.2021
1226 Clouds 18 1018 55 10000 7.2 360 00:56 21.03.2021
1227 Clouds 18 1018 55 10000 8.23 350 00:36 21.03.2021
1228 Clouds 18 1018 55 10000 8.23 350 00:18 21.03.2021
1229 Clouds 18 1018 59 10000 7.72 360 23:40 20.03.2021
1230 Clouds 18 1018 59 10000 7.2 350 22:57 20.03.2021
1231 Clouds 18 1018 55 10000 8.23 350 22:24 20.03.2021
1232 Clouds 18 1018 52 10000 9.77 360 21:48 20.03.2021
1233 Clouds 18 1018 52 10000 8.75 360 21:25 20.03.2021
1234 Clouds 18 1017 55 10000 7.2 350 20:49 20.03.2021
1235 Clouds 18 1017 48 10000 8.75 360 20:24 20.03.2021
1236 Clouds 19 1017 55 10000 9.77 360 19:52 20.03.2021
1237 Clouds 19 1017 49 10000 11.32 10 19:29 20.03.2021
1238 Clouds 19 1017 52 10000 9.77 10 18:52 20.03.2021
1239 Clouds 19 1017 52 10000 10.29 10 18:28 20.03.2021
1240 Clouds 20 1017 49 10000 10.29 10 17:58 20.03.2021
1241 Clouds 19 1017 52 10000 12.35 30 17:40 20.03.2021
1242 Clouds 19 1017 52 10000 12.35 30 17:20 20.03.2021
1243 Clouds 20 1017 49 10000 12.35 30 16:39 20.03.2021
1244 Clouds 20 1017 49 10000 12.35 30 16:18 20.03.2021
1245 Clouds 20 1018 46 10000 11.83 30 15:40 20.03.2021
1246 Clouds 20 1018 46 10000 11.83 30 15:22 20.03.2021
1247 Clouds 20 1018 46 10000 9.26 20 14:32 20.03.2021
1248 Clouds 19 1018 49 10000 9.77 360 13:59 20.03.2021
1249 Clouds 19 1018 49 10000 9.77 10 13:30 20.03.2021
1250 Clouds 19 1018 49 10000 9.77 10 13:30 20.03.2021
1251 Clouds 19 1018 49 10000 9.77 10 13:30 20.03.2021
1252 Clouds 19 1019 52 10000 10.29 10 12:39 20.03.2021
1253 Clouds 19 1019 52 10000 10.29 10 12:20 20.03.2021
1254 Clouds 18 1019 52 10000 10.8 360 11:42 20.03.2021
1255 Clouds 18 1018 48 10000 11.32 10 11:21 20.03.2021
1256 Clouds 18 1018 55 10000 9.26 360 10:45 20.03.2021
1257 Clouds 17 1018 55 10000 9.26 10 10:23 20.03.2021
1258 Clouds 17 1018 59 10000 7.72 360 09:44 20.03.2021
1259 Clouds 17 1018 59 10000 6.17 360 09:22 20.03.2021
1260 Clouds 16 1018 59 10000 6.17 360 08:51 20.03.2021
1261 Clouds 16 1017 63 10000 7.2 350 08:19 20.03.2021
1262 Clouds 16 1017 59 10000 7.2 350 07:47 20.03.2021
1263 Clouds 17 1017 55 10000 7.72 360 07:29 20.03.2021
1264 Clouds 16 1017 55 10000 8.75 10 06:39 20.03.2021
1265 Clouds 17 1016 55 10000 9.77 360 05:28 20.03.2021
1266 Clouds 17 1017 59 10000 7.2 360 03:44 20.03.2021
1267 Clouds 17 1018 59 10000 8.23 360 01:31 20.03.2021
1268 Clouds 18 1018 55 10000 9.26 360 23:46 19.03.2021
1269 Clouds 18 1018 55 10000 8.23 10 23:19 19.03.2021
1270 Clouds 18 1018 59 10000 7.2 360 22:43 19.03.2021
1271 Clouds 18 1017 55 10000 8.75 10 22:22 19.03.2021
1272 Clouds 18 1017 55 10000 9.26 360 21:42 19.03.2021
1273 Clouds 18 1017 63 10000 8.23 360 21:20 19.03.2021
1274 Clouds 18 1017 59 10000 9.26 360 20:45 19.03.2021
1275 Clouds 18 1016 59 10000 7.72 360 20:26 19.03.2021
1276 Clouds 19 1017 52 10000 9.26 360 19:48 19.03.2021
1277 Clouds 20 1016 49 10000 9.26 360 19:23 19.03.2021
1278 Clouds 20 1016 49 10000 9.77 10 18:49 19.03.2021
1279 Clouds 20 1016 49 10000 12.35 20 18:30 19.03.2021
1280 Clouds 20 1016 49 10000 12.35 20 17:58 19.03.2021
1281 Clouds 21 1016 35 10000 10.8 20 17:38 19.03.2021
1282 Clouds 21 1016 35 10000 10.8 20 17:18 19.03.2021
1283 Clouds 21 1016 43 10000 11.83 20 16:44 19.03.2021
1284 Clouds 21 1016 49 10000 11.83 20 16:24 19.03.2021
1285 Clouds 21 1016 53 10000 10.8 10 15:34 19.03.2021
1286 Clouds 21 1017 46 10000 10.29 360 14:53 19.03.2021
1287 Clouds 21 1017 40 10000 10.29 10 14:33 19.03.2021
1288 Clouds 21 1017 49 10000 9.77 10 13:50 19.03.2021
1289 Clouds 21 1017 49 10000 10.29 360 13:19 19.03.2021
1290 Clouds 20 1018 46 10000 9.77 360 12:42 19.03.2021
1291 Clouds 20 1018 52 10000 9.77 10 12:18 19.03.2021
1292 Clouds 20 1017 56 10000 9.26 360 11:33 19.03.2021
1293 Clouds 19 1017 56 10000 8.75 350 10:43 19.03.2021
1294 Clouds 19 1017 63 10000 8.23 350 10:22 19.03.2021
1295 Clouds 18 1017 63 10000 7.72 360 09:44 19.03.2021
1296 Clouds 18 1017 68 10000 5.66 10 09:25 19.03.2021
1297 Clouds 17 1016 72 10000 6.17 360 08:52 19.03.2021
1298 Clouds 17 1016 72 10000 5.66 10 08:28 19.03.2021
1299 Clouds 17 1016 72 10000 5.14 10 07:50 19.03.2021
1300 Clouds 17 1016 67 10000 6.17 10 07:31 19.03.2021
1301 Clouds 17 1016 67 10000 6.17 360 05:28 19.03.2021
1302 Clouds 18 1016 39 10000 9.26 360 01:58 19.03.2021
1303 Clouds 18 1017 59 10000 8.75 360 23:55 18.03.2021
1304 Clouds 18 1017 59 10000 7.72 360 23:29 18.03.2021
1305 Clouds 18 1017 59 10000 8.23 360 22:46 18.03.2021
1306 Clouds 18 1016 63 10000 7.72 10 22:25 18.03.2021
1307 Clouds 18 1016 68 10000 8.23 10 21:48 18.03.2021
1308 Clouds 18 1016 72 10000 8.23 10 21:30 18.03.2021
1309 Clouds 18 1016 59 10000 8.75 360 20:42 18.03.2021
1310 Clouds 18 1015 59 10000 8.23 360 20:22 18.03.2021
1311 Clouds 19 1015 56 10000 8.23 360 19:42 18.03.2021
1312 Clouds 19 1015 56 10000 9.26 10 19:23 18.03.2021
1313 Clouds 20 1015 49 10000 9.77 10 18:41 18.03.2021
1314 Clouds 20 1015 49 10000 10.29 10 17:58 18.03.2021
1315 Clouds 20 1015 53 10000 11.32 20 17:27 18.03.2021
1316 Clouds 20 1015 60 10000 12.35 30 16:59 18.03.2021
1317 Clouds 20 1015 60 10000 12.35 30 16:41 18.03.2021
1318 Clouds 20 1016 56 10000 13.38 30 16:22 18.03.2021
1319 Clouds 20 1016 49 10000 12.35 20 15:41 18.03.2021
1320 Clouds 20 1016 53 10000 13.38 30 15:19 18.03.2021
1321 Clouds 21 1016 53 10000 12.35 30 14:45 18.03.2021
1322 Clouds 21 1016 56 10000 10.29 10 14:23 18.03.2021
1323 Clouds 20 1017 49 10000 10.8 10 13:40 18.03.2021
1324 Clouds 20 1017 49 10000 10.8 10 13:21 18.03.2021
1325 Clouds 20 1017 52 10000 11.83 20 12:38 18.03.2021
1326 Clouds 20 1017 52 10000 11.83 20 12:19 18.03.2021
1327 Clouds 20 1017 52 10000 11.32 360 11:45 18.03.2021
1328 Clouds 19 1017 56 10000 10.8 10 11:22 18.03.2021
1329 Clouds 19 1017 56 10000 10.29 360 10:41 18.03.2021
1330 Clouds 19 1017 63 10000 8.75 360 10:23 18.03.2021
1331 Clouds 18 1016 63 10000 9.26 350 09:52 18.03.2021
1332 Clouds 17 1016 72 10000 7.72 360 09:27 18.03.2021
1333 Clouds 17 1016 72 10000 7.2 10 08:45 18.03.2021
1334 Clouds 17 1016 67 10000 7.72 360 08:25 18.03.2021
1335 Clouds 17 1015 72 10000 7.2 360 07:47 18.03.2021
1336 Clouds 17 1015 67 10000 7.72 360 06:49 18.03.2021
1337 Clouds 17 1015 67 10000 7.72 360 06:25 18.03.2021
1338 Clouds 17 1015 67 10000 7.2 360 05:26 18.03.2021
1339 Clouds 18 1016 63 10000 7.2 10 00:49 18.03.2021
1340 Clouds 18 1017 68 10000 6.69 360 23:39 17.03.2021
1341 Clouds 18 1016 63 10000 7.2 360 22:43 17.03.2021
1342 Clouds 18 1016 63 10000 7.72 360 22:24 17.03.2021
1343 Clouds 18 1016 63 10000 8.75 360 21:52 17.03.2021
1344 Clouds 18 1016 63 10000 8.23 360 21:32 17.03.2021
1345 Clouds 19 1015 59 10000 8.75 10 20:55 17.03.2021
1346 Clouds 19 1015 59 10000 9.77 360 20:37 17.03.2021
1347 Clouds 19 1015 59 10000 9.77 360 20:19 17.03.2021
1348 Clouds 19 1015 59 10000 10.29 10 19:41 17.03.2021
1349 Clouds 19 1015 56 10000 9.26 360 19:20 17.03.2021
1350 Clouds 19 1015 56 10000 9.26 360 19:20 17.03.2021
1351 Clouds 19 1014 60 10000 10.8 20 18:52 17.03.2021
1352 Clouds 20 1014 64 10000 11.83 30 18:32 17.03.2021
1353 Clouds 20 1014 60 10000 12.35 30 17:42 17.03.2021
1354 Clouds 20 1014 60 10000 11.83 30 17:23 17.03.2021
1355 Clouds 20 1014 60 10000 11.83 30 16:43 17.03.2021
1356 Clouds 20 1015 60 10000 12.35 30 16:21 17.03.2021
1357 Clouds 20 1015 60 10000 12.35 30 15:49 17.03.2021
1358 Clouds 20 1016 60 10000 11.83 30 15:29 17.03.2021
1359 Clouds 20 1016 60 10000 11.83 30 14:40 17.03.2021
1360 Clouds 20 1017 60 10000 11.83 30 14:20 17.03.2021
1361 Clouds 20 1017 56 10000 11.83 30 13:55 17.03.2021
1362 Clouds 20 1017 56 10000 11.83 30 13:26 17.03.2021
1363 Clouds 20 1017 60 10000 10.8 30 12:49 17.03.2021
1364 Clouds 19 1017 64 10000 10.8 30 12:28 17.03.2021
1365 Clouds 19 1017 60 10000 11.32 30 11:43 17.03.2021
1366 Clouds 19 1017 60 10000 11.32 20 11:23 17.03.2021
1367 Clouds 19 1017 63 10000 9.26 10 10:53 17.03.2021
1368 Clouds 19 1017 63 10000 8.23 360 10:24 17.03.2021
1369 Clouds 18 1017 68 10000 7.2 360 09:47 17.03.2021
1370 Clouds 17 1016 72 10000 5.66 360 09:21 17.03.2021
1371 Clouds 17 1016 72 10000 5.66 350 08:55 17.03.2021
1372 Clouds 17 1016 72 10000 6.69 350 08:35 17.03.2021
1373 Clouds 16 1016 72 10000 6.17 350 07:48 17.03.2021
1374 Clouds 17 1015 72 10000 6.17 350 07:30 17.03.2021
1375 Clouds 17 1015 72 10000 6.69 350 06:38 17.03.2021
1376 Clouds 17 1015 67 10000 5.14 360 04:20 17.03.2021
1377 Clouds 18 1016 68 10000 7.2 10 02:49 17.03.2021
1378 Clouds 18 1018 68 10000 8.23 10 00:40 17.03.2021
1379 Clouds 18 1018 68 10000 9.26 10 23:28 16.03.2021
1380 Clouds 18 1017 68 10000 9.26 10 22:48 16.03.2021
1381 Clouds 18 1017 72 10000 8.75 10 22:29 16.03.2021
1382 Clouds 18 1017 68 10000 8.23 10 21:47 16.03.2021
1383 Clouds 18 1017 72 10000 9.77 10 21:29 16.03.2021
1384 Clouds 18 1016 68 10000 8.75 10 20:58 16.03.2021
1385 Clouds 18 1016 72 10000 9.77 20 20:20 16.03.2021
1386 Clouds 19 1016 68 10000 10.29 20 19:57 16.03.2021
1387 Clouds 19 1015 64 10000 11.32 20 19:39 16.03.2021
1388 Clouds 19 1015 64 10000 11.32 20 19:19 16.03.2021
1389 Clouds 19 1015 64 10000 11.32 20 18:40 16.03.2021
1390 Clouds 20 1015 64 10000 11.32 20 18:21 16.03.2021
1391 Clouds 20 1015 60 10000 11.83 30 17:46 16.03.2021
1392 Clouds 19 1015 64 10000 12.35 30 17:26 16.03.2021
1393 Clouds 20 1016 60 10000 11.83 30 16:51 16.03.2021
1394 Clouds 20 1016 64 10000 11.83 30 16:28 16.03.2021
1395 Clouds 20 1016 60 10000 11.83 30 15:47 16.03.2021
1396 Clouds 20 1017 60 10000 11.32 30 15:21 16.03.2021
1397 Clouds 20 1017 60 10000 11.32 40 14:58 16.03.2021
1398 Clouds 20 1017 60 10000 11.32 30 14:40 16.03.2021
1399 Clouds 20 1017 60 10000 11.32 30 14:20 16.03.2021
1400 Clouds 20 1018 60 10000 10.29 20 13:47 16.03.2021
1401 Clouds 20 1018 60 10000 10.29 30 13:25 16.03.2021
1402 Clouds 20 1018 60 10000 10.8 20 12:51 16.03.2021
1403 Clouds 20 1018 60 10000 9.77 20 12:33 16.03.2021
1404 Clouds 19 1018 64 10000 10.29 10 11:53 16.03.2021
1405 Clouds 19 1018 60 10000 9.77 20 11:24 16.03.2021
1406 Clouds 18 1018 63 10000 7.72 10 10:28 16.03.2021
1407 Clouds 18 1018 68 10000 9.26 20 09:59 16.03.2021
1408 Clouds 18 1017 67 10000 7.2 10 09:38 16.03.2021
1409 Clouds 18 1017 67 10000 7.2 10 09:18 16.03.2021
1410 Clouds 18 1017 68 10000 8.23 10 08:45 16.03.2021
1411 Clouds 17 1017 72 10000 6.69 10 08:26 16.03.2021
1412 Clouds 18 1017 68 10000 7.2 360 07:36 16.03.2021
1413 Clouds 18 1016 63 10000 7.72 10 06:40 16.03.2021
1414 Clouds 18 1016 63 10000 8.23 360 05:59 16.03.2021
1415 Clouds 18 1016 68 10000 9.77 360 05:34 16.03.2021
1416 Clouds 18 1017 72 10000 8.75 10 02:46 16.03.2021
1417 Clouds 18 1018 77 10000 8.75 10 02:24 16.03.2021
1418 Clouds 18 1019 77 10000 9.26 10 00:25 16.03.2021
1419 Clouds 18 1018 68 10000 8.75 10 23:29 15.03.2021
1420 Clouds 19 1018 72 10000 8.75 10 22:55 15.03.2021
1421 Clouds 19 1018 72 10000 8.23 10 22:36 15.03.2021
1422 Clouds 19 1018 68 10000 9.26 10 21:58 15.03.2021
1423 Clouds 19 1018 68 10000 8.75 10 21:38 15.03.2021
1424 Clouds 19 1018 68 10000 8.75 10 21:20 15.03.2021
1425 Clouds 19 1017 72 10000 8.75 20 20:44 15.03.2021
1426 Clouds 19 1017 64 10000 8.23 360 20:25 15.03.2021
1427 Clouds 19 1017 68 10000 8.75 10 19:53 15.03.2021
1428 Clouds 19 1017 60 10000 9.77 360 19:34 15.03.2021
1429 Clouds 20 1017 56 10000 9.26 360 18:57 15.03.2021
1430 Clouds 20 1017 64 10000 11.32 30 18:33 15.03.2021
1431 Clouds 20 1016 56 10000 11.32 30 17:56 15.03.2021
1432 Clouds 21 1016 60 10000 12.35 30 17:38 15.03.2021
1433 Clouds 21 1016 60 10000 12.35 30 17:19 15.03.2021
1434 Clouds 20 1017 64 10000 12.35 30 16:41 15.03.2021
1435 Clouds 21 1017 56 10000 11.83 40 15:48 15.03.2021
1436 Clouds 20 1018 60 10000 11.83 30 15:27 15.03.2021
1437 Clouds 20 1018 60 10000 11.83 40 14:46 15.03.2021
1438 Clouds 20 1018 56 10000 12.35 30 14:28 15.03.2021
1439 Clouds 20 1019 56 10000 11.83 30 13:58 15.03.2021
1440 Clouds 20 1019 56 10000 11.32 30 13:35 15.03.2021
1441 Clouds 20 1019 60 10000 10.8 30 12:51 15.03.2021
1442 Clouds 20 1019 60 10000 10.8 30 12:20 15.03.2021
1443 Clouds 20 1019 56 10000 9.26 30 11:58 15.03.2021
1444 Clouds 19 1019 60 10000 8.75 20 11:40 15.03.2021
1445 Clouds 19 1019 60 10000 8.75 20 11:21 15.03.2021
1446 Clouds 19 1019 63 10000 9.26 20 10:34 15.03.2021
1447 Clouds 18 1018 68 10000 5.66 360 09:59 15.03.2021
1448 Clouds 18 1018 68 10000 5.66 10 09:40 15.03.2021
1449 Clouds 18 1018 68 10000 5.66 10 09:20 15.03.2021
1450 Clouds 17 1018 72 10000 5.14 360 08:41 15.03.2021
1451 Clouds 17 1018 72 10000 6.17 10 08:19 15.03.2021
1452 Clouds 17 1017 72 10000 6.17 10 07:33 15.03.2021
1453 Clouds 17 1017 72 10000 6.17 360 06:48 15.03.2021
1454 Clouds 17 1017 72 10000 6.17 360 05:35 15.03.2021
1455 Clouds 17 1019 72 10000 5.66 360 03:19 15.03.2021
1456 Clouds 18 1020 72 10000 6.69 20 00:21 15.03.2021
1457 Clouds 18 1020 72 10000 6.69 20 00:21 15.03.2021
1458 Clouds 18 1020 77 10000 7.2 10 23:22 14.03.2021
1459 Clouds 18 1020 72 10000 7.72 10 22:49 14.03.2021
1460 Clouds 18 1019 77 10000 7.2 10 22:27 14.03.2021
1461 Clouds 18 1019 77 10000 7.72 20 21:51 14.03.2021
1462 Clouds 18 1019 72 10000 7.72 20 21:22 14.03.2021
1463 Clouds 18 1019 77 10000 8.23 20 20:52 14.03.2021
1464 Clouds 19 1019 77 10000 8.23 20 20:27 14.03.2021
1465 Clouds 19 1018 72 10000 9.26 30 19:58 14.03.2021
1466 Clouds 19 1018 68 10000 8.75 30 19:40 14.03.2021
1467 Clouds 19 1018 68 10000 8.75 30 19:18 14.03.2021
1468 Clouds 19 1018 68 10000 8.23 30 18:36 14.03.2021
1469 Clouds 20 1018 73 10000 7.2 30 17:44 14.03.2021
1470 Clouds 20 1018 64 10000 6.69 30 17:24 14.03.2021
1471 Clouds 20 1019 64 10000 6.17 30 16:54 14.03.2021
1472 Clouds 20 1019 68 10000 6.17 40 16:35 14.03.2021
1473 Clouds 20 1019 64 10000 6.17 50 15:59 14.03.2021
1474 Clouds 20 1019 64 10000 6.69 40 15:40 14.03.2021
1475 Clouds 20 1020 64 10000 6.17 50 14:51 14.03.2021
1476 Clouds 20 1020 64 10000 6.69 40 14:29 14.03.2021
1477 Clouds 20 1021 60 10000 7.2 40 13:52 14.03.2021
1478 Clouds 20 1021 60 10000 7.2 40 13:52 14.03.2021
1479 Clouds 20 1021 60 10000 7.72 40 13:33 14.03.2021
1480 Clouds 20 1021 64 10000 7.2 30 12:49 14.03.2021
1481 Clouds 20 1021 68 10000 8.23 40 12:29 14.03.2021
1482 Clouds 20 1021 60 10000 7.72 30 11:59 14.03.2021
1483 Clouds 19 1021 60 10000 7.72 30 11:37 14.03.2021
1484 Clouds 19 1020 64 10000 6.69 20 10:59 14.03.2021
1485 Clouds 18 1020 72 10000 7.2 20 10:38 14.03.2021
1486 Clouds 18 1020 72 10000 7.2 20 10:38 14.03.2021
1487 Clouds 18 1020 72 10000 7.2 20 10:19 14.03.2021
1488 Clouds 18 1020 68 10000 6.17 10 09:44 14.03.2021
1489 Clouds 18 1020 68 10000 6.17 360 09:23 14.03.2021
1490 Clouds 17 1019 72 10000 6.17 360 08:51 14.03.2021
1491 Clouds 17 1019 72 10000 6.17 360 08:32 14.03.2021
1492 Clouds 18 1019 68 10000 7.72 20 07:48 14.03.2021
1493 Clouds 18 1019 68 10000 7.72 20 07:48 14.03.2021
1494 Clouds 18 1019 72 10000 8.23 20 07:20 14.03.2021
1495 Clouds 18 1019 77 10000 7.2 30 05:33 14.03.2021
1496 Clouds 18 1019 77 10000 7.2 30 05:33 14.03.2021
1497 Clouds 18 1022 77 10000 5.14 40 00:59 14.03.2021
1498 Clouds 18 1022 72 10000 6.17 30 00:20 14.03.2021
1499 Clouds 18 1021 82 10000 7.2 30 23:57 13.03.2021
1500 Clouds 18 1021 77 10000 6.69 30 23:36 13.03.2021
1501 Clouds 18 1022 77 10000 5.14 30 22:55 13.03.2021
1502 Clouds 18 1021 77 10000 5.14 30 22:36 13.03.2021
1503 Clouds 18 1021 77 10000 5.66 30 21:49 13.03.2021
1504 Clouds 18 1021 72 10000 6.17 30 21:27 13.03.2021
1505 Clouds 18 1020 72 10000 7.2 20 20:54 13.03.2021
1506 Clouds 18 1020 72 10000 6.69 30 20:32 13.03.2021
1507 Clouds 18 1020 68 10000 7.2 30 19:56 13.03.2021
1508 Clouds 19 1020 68 10000 7.2 30 19:32 13.03.2021
1509 Clouds 19 1020 68 10000 7.2 30 18:58 13.03.2021
1510 Clouds 19 1020 68 10000 7.2 30 18:40 13.03.2021
1511 Clouds 19 1020 68 10000 7.2 30 18:18 13.03.2021
1512 Clouds 19 1020 63 10000 6.17 30 17:44 13.03.2021
1513 Clouds 19 1020 56 10000 6.69 30 17:25 13.03.2021
1514 Clouds 19 1020 56 10000 6.17 30 16:45 13.03.2021
1515 Clouds 19 1021 56 10000 5.66 40 16:27 13.03.2021
1516 Clouds 19 1021 60 10000 7.2 40 15:47 13.03.2021
1517 Clouds 19 1022 60 10000 6.69 30 14:51 13.03.2021
1518 Clouds 19 1022 59 10000 6.69 30 14:32 13.03.2021
1519 Clouds 19 1022 59 10000 6.69 30 13:54 13.03.2021
1520 Clouds 19 1023 56 10000 7.72 40 13:25 13.03.2021
1521 Clouds 19 1023 59 10000 7.72 30 12:47 13.03.2021
1522 Clouds 18 1022 59 10000 8.23 20 12:28 13.03.2021
1523 Clouds 19 1022 59 10000 8.23 20 11:51 13.03.2021
1524 Clouds 18 1022 59 10000 7.2 20 11:30 13.03.2021
1525 Clouds 18 1022 59 10000 7.2 20 11:30 13.03.2021
1526 Clouds 18 1022 55 10000 8.75 40 10:51 13.03.2021
1527 Clouds 18 1022 63 10000 7.2 20 10:30 13.03.2021
1528 Clouds 18 1021 63 10000 7.72 20 09:48 13.03.2021
1529 Clouds 18 1021 59 10000 5.66 20 09:24 13.03.2021
1530 Clouds 17 1021 63 10000 5.14 360 08:44 13.03.2021
1531 Clouds 17 1021 63 10000 5.14 360 08:20 13.03.2021
1532 Clouds 17 1021 63 10000 5.14 360 07:54 13.03.2021
1533 Clouds 17 1020 63 10000 7.72 10 06:54 13.03.2021
1534 Clouds 16 1021 72 10000 5.66 360 02:56 13.03.2021
1535 Clouds 16 1021 72 10000 5.66 360 02:56 13.03.2021
1536 Clouds 16 1022 77 10000 4.63 350 01:20 13.03.2021
1537 Clouds 17 1022 77 10000 6.17 20 23:59 12.03.2021
1538 Clouds 18 1022 72 10000 7.2 20 23:32 12.03.2021
1539 Clouds 18 1022 72 10000 6.17 10 22:46 12.03.2021
1540 Clouds 18 1022 72 10000 7.2 20 22:28 12.03.2021
1541 Clouds 18 1021 72 10000 7.72 20 21:46 12.03.2021
1542 Clouds 18 1022 72 10000 7.2 20 21:27 12.03.2021
1543 Clouds 18 1021 72 10000 8.23 20 20:59 12.03.2021
1544 Clouds 18 1021 72 10000 8.23 10 20:40 12.03.2021
1545 Clouds 18 1021 72 10000 8.23 10 20:18 12.03.2021
1546 Clouds 18 1021 63 10000 9.26 20 19:42 12.03.2021
1547 Clouds 18 1021 68 10000 9.77 30 19:24 12.03.2021
1548 Clouds 19 1021 64 10000 9.26 30 18:36 12.03.2021
1549 Clouds 19 1021 64 10000 9.26 30 18:36 12.03.2021
1550 Clouds 19 1021 64 10000 9.26 30 18:18 12.03.2021
1551 Clouds 19 1021 68 10000 9.26 30 17:40 12.03.2021
1552 Clouds 19 1021 68 10000 9.26 30 17:22 12.03.2021
1553 Clouds 19 1022 64 10000 8.75 30 16:42 12.03.2021
1554 Clouds 19 1022 64 10000 8.23 30 15:55 12.03.2021
1555 Clouds 19 1023 64 10000 7.72 30 15:35 12.03.2021
1556 Clouds 19 1023 68 10000 7.72 30 14:49 12.03.2021
1557 Clouds 20 1024 64 10000 7.2 30 14:21 12.03.2021
1558 Clouds 20 1024 64 10000 8.23 30 13:45 12.03.2021
1559 Clouds 19 1025 60 10000 7.2 10 13:24 12.03.2021
1560 Clouds 20 1025 64 10000 8.23 30 12:59 12.03.2021
1561 Clouds 19 1025 64 10000 8.23 30 12:41 12.03.2021
1562 Clouds 19 1025 68 10000 8.23 30 12:20 12.03.2021
1563 Clouds 19 1025 64 10000 8.23 30 11:50 12.03.2021
1564 Clouds 19 1025 68 10000 8.23 30 11:22 12.03.2021
1565 Clouds 19 1025 68 10000 7.2 20 10:53 12.03.2021
1566 Clouds 18 1025 77 10000 7.72 20 10:25 12.03.2021
1567 Clouds 18 1024 72 10000 5.66 360 09:56 12.03.2021
1568 Clouds 17 1024 72 10000 6.17 350 09:25 12.03.2021
1569 Clouds 17 1024 72 10000 6.17 350 08:45 12.03.2021
1570 Clouds 17 1023 72 10000 6.17 350 07:58 12.03.2021
1571 Clouds 17 1023 67 10000 6.17 350 07:33 12.03.2021
1572 Clear 17 1023 67 10000 5.66 360 06:51 12.03.2021
1573 Clear 17 1023 63 10000 6.17 360 06:28 12.03.2021
1574 Clear 17 1024 63 10000 7.2 350 02:41 12.03.2021
1575 Clouds 18 1024 77 10000 6.17 360 00:42 12.03.2021
1576 Clouds 18 1024 82 10000 7.72 10 23:30 11.03.2021
1577 Clouds 18 1024 77 10000 7.72 10 22:49 11.03.2021
1578 Clouds 18 1024 82 10000 7.2 20 22:29 11.03.2021
1579 Clear 18 1023 82 10000 7.2 20 21:51 11.03.2021
1580 Clear 18 1023 72 10000 7.2 20 21:30 11.03.2021
1581 Clear 19 1023 72 10000 7.2 10 20:53 11.03.2021
1582 Clear 19 1023 72 10000 6.17 20 20:35 11.03.2021
1583 Clear 19 1022 68 10000 6.69 20 19:59 11.03.2021
1584 Clear 19 1022 68 10000 6.69 20 19:41 11.03.2021
1585 Clear 19 1022 68 10000 7.2 30 19:19 11.03.2021
1586 Clear 20 1022 64 10000 6.17 30 18:43 11.03.2021
1587 Clear 20 1022 56 10000 5.14 20 18:24 11.03.2021
1588 Clouds 20 1022 56 10000 4.63 30 17:42 11.03.2021
1589 Clear 20 1023 60 10000 4.63 30 16:43 11.03.2021
1590 Clouds 20 1023 64 10000 4.12 20 16:25 11.03.2021
1591 Clouds 20 1023 64 10000 4.63 40 15:45 11.03.2021
1592 Clouds 20 1024 64 10000 4.63 30 15:21 11.03.2021
1593 Clouds 20 1024 64 10000 4.63 30 15:21 11.03.2021
1594 Clouds 20 1024 64 10000 5.14 30 14:46 11.03.2021
1595 Clouds 20 1024 60 10000 6.17 40 14:19 11.03.2021
1596 Clouds 20 1025 56 10000 6.69 40 13:46 11.03.2021
1597 Clouds 20 1025 60 10000 7.2 30 13:24 11.03.2021
1598 Clouds 20 1025 60 10000 8.23 30 12:57 11.03.2021
1599 Clouds 19 1025 64 10000 8.23 30 12:36 11.03.2021
1600 Clouds 19 1025 64 10000 8.23 30 12:18 11.03.2021
1601 Clouds 19 1025 64 10000 8.23 20 11:42 11.03.2021
1602 Clouds 19 1025 63 10000 8.75 20 11:20 11.03.2021
1603 Clouds 18 1025 68 10000 9.26 30 10:28 11.03.2021
1604 Clouds 18 1024 68 10000 9.26 30 09:54 11.03.2021
1605 Clouds 18 1024 68 10000 8.75 20 09:34 11.03.2021
1606 Clouds 17 1023 72 10000 8.75 10 08:59 11.03.2021
1607 Clouds 17 1023 72 10000 8.75 10 08:41 11.03.2021
1608 Clouds 17 1023 67 10000 9.26 20 08:18 11.03.2021
1609 Clouds 17 1023 67 10000 9.26 10 07:22 11.03.2021
1610 Clouds 17 1023 67 10000 8.23 10 06:49 11.03.2021
1611 Clouds 17 1022 67 10000 9.77 10 06:23 11.03.2021
1612 Clouds 18 1023 63 10000 7.72 10 02:48 11.03.2021
1613 -273 0 0 0 0 0 00:49 11.03.2021
1614 Clouds 18 1023 59 10000 9.77 10 00:48 11.03.2021
1615 Clouds 18 1023 59 10000 10.29 10 23:27 10.03.2021
1616 Clouds 18 1023 59 10000 10.29 10 23:26 10.03.2021
1617 Clouds 18 1023 59 10000 10.29 10 23:25 10.03.2021
1618 -273 0 0 0 0 0 22:46 10.03.2021
1619 Clouds 18 1023 59 10000 11.32 10 22:46 10.03.2021
1620 -273 0 0 0 0 0 22:27 10.03.2021
1621 Clouds 18 1023 59 10000 9.26 10 21:47 10.03.2021
1622 Clouds 18 1023 59 10000 9.77 10 21:23 10.03.2021
1623 Clouds 18 1022 59 10000 9.77 10 20:46 10.03.2021
1624 Clouds 18 1022 59 10000 11.32 10 20:28 10.03.2021
1625 Clouds 18 1022 59 10000 10.8 10 19:50 10.03.2021
1626 Clouds 18 1022 59 10000 11.83 20 19:28 10.03.2021
1627 Clouds 18 1022 55 10000 11.32 20 18:46 10.03.2021
1628 Clouds 18 1021 52 10000 12.35 20 18:24 10.03.2021
1629 Clouds 18 1021 52 10000 12.86 20 17:56 10.03.2021
1630 Clouds 18 1021 55 10000 12.86 20 17:37 10.03.2021
1631 Clouds 18 1021 55 10000 12.86 20 17:19 10.03.2021
1632 Clouds 19 1021 49 10000 14.4 20 16:42 10.03.2021
1633 Clouds 19 1021 49 10000 14.92 20 16:23 10.03.2021
1634 Clouds 19 1021 56 10000 13.89 10 15:46 10.03.2021
1635 Clouds 19 1021 49 10000 12.86 10 15:23 10.03.2021
1636 Clouds 19 1022 49 10000 12.86 20 14:56 10.03.2021
1637 Clouds 18 1022 55 10000 12.86 20 14:20 10.03.2021
1638 Clouds 19 1022 52 10000 13.38 30 13:52 10.03.2021
1639 Clouds 19 1023 52 10000 11.32 10 13:30 10.03.2021
1640 Clouds 18 1023 55 10000 11.32 10 12:46 10.03.2021
1641 Clouds 18 1023 59 10000 9.26 10 12:21 10.03.2021
1642 Clouds 17 1023 59 10000 11.32 30 11:44 10.03.2021
1643 Clouds 17 1023 59 10000 9.26 10 11:21 10.03.2021
1644 Clouds 17 1023 59 10000 9.77 10 10:49 10.03.2021
1645 Clouds 17 1022 59 10000 10.8 20 10:30 10.03.2021
1646 Clouds 17 1022 59 10000 9.26 20 09:46 10.03.2021
1647 Clouds 17 1022 59 10000 9.77 10 09:27 10.03.2021
1648 Clouds 16 1021 59 10000 12.35 30 08:58 10.03.2021
1649 Clouds 17 1021 59 10000 11.83 20 08:40 10.03.2021
1650 Clouds 17 1021 59 10000 11.83 20 08:21 10.03.2021
1651 Clouds 17 1020 55 10000 7.72 360 07:40 10.03.2021
1652 Clouds 17 1020 55 10000 7.72 360 07:18 10.03.2021
1653 Clouds 17 1020 55 10000 9.26 10 06:44 10.03.2021
1654 Clouds 17 1021 55 10000 13.38 10 02:42 10.03.2021
1655 Clouds 17 1021 51 10000 10.29 10 23:52 09.03.2021
1656 Clouds 17 1021 55 10000 10.8 360 23:25 09.03.2021
1657 Clouds 17 1021 55 10000 11.83 360 22:45 09.03.2021
1658 Clouds 17 1020 55 10000 11.83 360 22:26 09.03.2021
1659 Clouds 17 1020 55 10000 12.86 360 21:55 09.03.2021
1660 Clouds 17 1020 55 10000 11.83 360 21:36 09.03.2021
1661 Clouds 17 1020 55 10000 11.83 360 21:18 09.03.2021
1662 Clouds 17 1020 55 10000 10.8 360 20:43 09.03.2021
1663 Clouds 17 1020 55 10000 11.83 10 20:21 09.03.2021
1664 Clouds 18 1019 55 10000 11.32 10 19:53 09.03.2021
1665 Clouds 18 1019 55 10000 11.83 10 19:27 09.03.2021
1666 Clouds 18 1019 52 10000 9.77 10 18:51 09.03.2021
1667 Clouds 18 1019 59 10000 12.35 20 18:28 09.03.2021
1668 Clouds 18 1019 59 10000 11.83 20 17:53 09.03.2021
1669 Clouds 18 1019 59 10000 11.83 10 17:34 09.03.2021
1670 Clouds 19 1019 56 10000 10.29 360 16:55 09.03.2021
1671 Clouds 18 1019 55 10000 11.32 20 16:37 09.03.2021
1672 Clouds 18 1019 55 10000 11.32 20 16:18 09.03.2021
1673 Clouds 19 1020 49 10000 11.83 20 15:43 09.03.2021
1674 Clouds 19 1020 45 10000 13.38 20 15:21 09.03.2021
1675 Clouds 18 1021 55 10000 12.35 20 14:32 09.03.2021
1676 Clouds 19 1020 56 10000 13.89 20 13:59 09.03.2021
1677 Clouds 19 1021 49 10000 13.89 10 13:38 09.03.2021
1678 Clouds 19 1021 49 10000 13.89 10 13:19 09.03.2021
1679 Clouds 18 1021 68 10000 12.86 10 12:39 09.03.2021
1680 Clouds 18 1021 68 10000 12.86 10 12:19 09.03.2021
1681 Clouds 18 1021 59 10000 10.8 10 11:42 09.03.2021
1682 Clouds 18 1021 63 10000 11.83 10 11:21 09.03.2021
1683 Clouds 18 1021 68 10000 11.32 20 10:55 09.03.2021
1684 Clouds 18 1021 68 10000 11.32 20 10:55 09.03.2021
1685 Clouds 17 1020 72 10000 9.77 360 10:36 09.03.2021
1686 Clouds 17 1020 72 10000 9.77 360 10:18 09.03.2021
1687 Clouds 17 1020 77 10000 11.32 10 09:42 09.03.2021
1688 Clouds 17 1019 72 10000 7.2 360 09:23 09.03.2021
1689 Clouds 16 1019 72 10000 6.17 10 08:46 09.03.2021
1690 Clouds 16 1019 67 10000 7.2 10 08:21 09.03.2021
1691 Clouds 17 1019 67 10000 6.17 350 07:38 09.03.2021
1692 Clouds 17 1019 67 10000 6.17 350 07:20 09.03.2021
1693 Clouds 16 1019 82 10000 7.2 360 05:55 09.03.2021
1694 Clouds 16 1019 82 9000 8.23 360 05:35 09.03.2021
1695 Clouds 17 1021 88 9000 4.63 350 00:29 09.03.2021
1696 Clouds 17 1021 88 9000 7.2 20 23:42 08.03.2021
1697 Clouds 17 1021 82 10000 8.23 10 23:23 08.03.2021
1698 Clouds 17 1020 94 10000 5.14 350 22:45 08.03.2021
1699 Clouds 18 1020 88 5000 4.63 360 22:27 08.03.2021
1700 Clouds 18 1020 82 10000 5.14 360 21:55 08.03.2021
1701 Clouds 18 1019 82 10000 6.17 350 21:35 08.03.2021
1702 Clouds 18 1019 82 10000 5.66 350 20:47 08.03.2021
1703 Clouds 18 1019 88 10000 6.69 10 20:26 08.03.2021
1704 Clouds 19 1019 82 10000 5.66 360 19:59 08.03.2021
1705 Clouds 19 1019 88 10000 5.14 360 19:28 08.03.2021
1706 Clouds 19 1019 88 8000 7.72 10 18:42 08.03.2021
1707 Clouds 20 1018 88 4900 7.72 10 18:21 08.03.2021
1708 Clouds 20 1018 72 10000 8.23 20 17:51 08.03.2021
1709 Clouds 20 1018 72 10000 9.26 30 17:26 08.03.2021
1710 Clouds 21 1018 68 10000 9.26 40 16:48 08.03.2021
1711 Clouds 20 1018 73 10000 10.29 30 16:29 08.03.2021
1712 Clouds 21 1019 73 10000 9.26 40 15:49 08.03.2021
1713 Clouds 21 1019 83 10000 9.26 40 15:28 08.03.2021
1714 Clouds 21 1019 73 10000 8.75 40 14:43 08.03.2021
1715 Clouds 21 1020 77 10000 9.26 40 14:20 08.03.2021
1716 Clouds 21 1020 64 10000 8.23 10 13:38 08.03.2021
1717 Clouds 21 1020 64 10000 8.23 10 13:19 08.03.2021
1718 Clouds 21 1021 73 10000 6.69 360 12:42 08.03.2021
1719 Clouds 20 1021 82 10000 5.14 360 12:42 08.03.2021
1720 Clouds 19 1021 82 10000 5.14 360 12:23 08.03.2021
1721 Clouds 20 1020 68 10000 5.66 360 11:40 08.03.2021
1722 Clouds 20 1020 68 10000 5.66 360 11:18 08.03.2021
1723 Drizzle 20 1020 72 9000 5.14 340 10:43 08.03.2021
1724 Drizzle 20 1020 72 9000 5.14 340 10:22 08.03.2021
1725 Clouds 17 1019 77 10000 4.63 10 09:41 08.03.2021
1726 Clouds 17 1019 77 10000 4.63 10 09:22 08.03.2021
1727 Clouds 17 1019 77 10000 4.12 20 08:28 08.03.2021
1728 Clouds 17 1019 67 10000 5.14 10 07:24 08.03.2021
1729 Clouds 17 1019 67 10000 5.14 10 07:24 08.03.2021
1730 Clouds 17 1019 72 10000 4.63 40 06:44 08.03.2021
1731 Clouds 17 1021 59 10000 5.66 340 03:39 08.03.2021
1732 Clouds 17 1022 72 10000 5.66 360 00:44 08.03.2021
1733 Clouds 17 1022 72 10000 6.17 360 23:57 07.03.2021
1734 Clouds 17 1022 72 10000 6.69 360 23:37 07.03.2021
1735 Clouds 17 1022 72 10000 6.69 360 23:18 07.03.2021
1736 Clouds 18 1022 72 10000 6.17 360 22:42 07.03.2021
1737 Clouds 18 1022 68 10000 6.17 10 22:23 07.03.2021
1738 Clouds 18 1022 68 10000 6.17 350 21:44 07.03.2021
1739 Clouds 18 1022 68 10000 6.69 360 21:25 07.03.2021
1740 Clouds 18 1022 77 10000 7.2 360 20:48 07.03.2021
1741 Clouds 18 1021 68 10000 8.23 10 20:30 07.03.2021
1742 Clouds 19 1021 59 10000 10.29 360 19:57 07.03.2021
1743 Clouds 19 1021 59 10000 11.32 360 19:38 07.03.2021
1744 Clouds 19 1021 59 10000 11.32 360 19:20 07.03.2021
1745 Clouds 19 1021 59 10000 11.32 360 19:20 07.03.2021
1746 Clouds 19 1021 55 10000 12.35 360 18:42 07.03.2021
1747 Clouds 20 1021 52 10000 11.83 350 18:19 07.03.2021
1748 Clouds 20 1021 49 10000 10.29 350 17:40 07.03.2021
1749 Clouds 21 1021 49 10000 10.29 350 17:20 07.03.2021
1750 Clouds 21 1021 46 10000 9.77 360 16:58 07.03.2021
1751 Clouds 21 1022 46 10000 9.77 360 16:38 07.03.2021
1752 Clouds 21 1022 46 10000 9.77 360 16:19 07.03.2021
1753 Clouds 21 1022 49 10000 12.35 10 15:42 07.03.2021
1754 Clouds 21 1022 49 10000 11.83 10 15:22 07.03.2021
1755 Clouds 21 1023 49 10000 10.8 10 14:30 07.03.2021
1756 Clouds 21 1024 46 10000 11.32 10 13:59 07.03.2021
1757 Clouds 21 1024 46 10000 11.32 360 13:40 07.03.2021
1758 Clouds 21 1024 46 10000 11.32 360 13:20 07.03.2021
1759 Clouds 20 1024 52 10000 11.32 360 12:44 07.03.2021
1760 Clouds 20 1024 56 10000 10.29 360 12:24 07.03.2021
1761 Clouds 19 1024 59 10000 9.77 360 11:25 07.03.2021
1762 Clouds 19 1024 55 10000 8.75 360 10:59 07.03.2021
1763 Clouds 19 1024 59 10000 10.29 10 10:39 07.03.2021
1764 Clouds 18 1024 59 10000 10.29 10 10:19 07.03.2021
1765 Clouds 17 1023 67 10000 6.17 350 09:40 07.03.2021
1766 Clouds 17 1023 67 10000 6.17 350 09:21 07.03.2021
1767 Clouds 17 1023 67 10000 8.23 360 08:45 07.03.2021
1768 Clouds 17 1022 72 10000 8.23 350 08:23 07.03.2021
1769 Clouds 17 1022 72 10000 8.23 360 07:24 07.03.2021
1770 Clouds 18 1022 72 10000 10.8 10 02:40 07.03.2021
1771 Clouds 18 1023 72 10000 7.2 10 00:38 07.03.2021
1772 Clouds 18 1023 72 10000 8.75 10 23:41 06.03.2021
1773 Clouds 18 1023 82 10000 6.17 10 23:22 06.03.2021
1774 Clouds 18 1023 82 10000 8.23 10 22:47 06.03.2021
1775 Clouds 18 1022 68 10000 7.72 10 22:25 06.03.2021
1776 Clouds 18 1022 72 10000 8.75 10 21:54 06.03.2021
1777 Clouds 18 1021 68 10000 9.26 360 21:21 06.03.2021
1778 Clouds 18 1021 72 10000 8.75 360 20:48 06.03.2021
1779 Clouds 19 1021 68 10000 10.8 360 20:26 06.03.2021
1780 Clouds 19 1020 68 10000 9.26 10 19:41 06.03.2021
1781 Clouds 20 1020 63 10000 10.8 360 19:19 06.03.2021
1782 Clouds 20 1020 60 10000 10.8 360 18:45 06.03.2021
1783 Clouds 20 1020 60 10000 11.32 360 18:23 06.03.2021
1784 Clouds 20 1020 60 10000 10.29 360 17:56 06.03.2021
1785 Clouds 20 1020 60 10000 10.8 360 17:37 06.03.2021
1786 Clouds 20 1020 60 10000 10.8 360 17:18 06.03.2021
1787 Clouds 21 1020 56 10000 12.35 10 16:39 06.03.2021
1788 Clouds 21 1020 56 10000 12.35 10 16:20 06.03.2021
1789 Clouds 21 1019 56 10000 11.32 10 15:41 06.03.2021
1790 Clouds 21 1020 56 10000 11.83 10 15:23 06.03.2021
1791 Clouds 21 1020 52 10000 10.8 360 14:34 06.03.2021
1792 Clouds 20 1020 60 10000 11.32 350 13:57 06.03.2021
1793 Clouds 20 1021 68 10000 8.75 350 13:39 06.03.2021
1794 Clouds 20 1021 68 10000 8.75 350 13:19 06.03.2021
1795 Clouds 20 1021 68 10000 9.26 350 12:44 06.03.2021
1796 Clouds 19 1021 64 10000 10.29 360 12:19 06.03.2021
1797 Clouds 19 1020 68 10000 9.26 350 11:48 06.03.2021
1798 Clouds 18 1021 72 10000 6.69 350 11:21 06.03.2021
1799 Clouds 18 1020 72 10000 4.63 350 10:48 06.03.2021
1800 Clouds 17 1020 77 10000 4.12 350 10:18 06.03.2021
1801 Clouds 16 1020 82 10000 8.75 10 09:41 06.03.2021
1802 Clouds 16 1019 72 10000 4.63 360 09:19 06.03.2021
1803 Clouds 16 1019 72 10000 6.17 350 08:36 06.03.2021
1804 Clouds 16 1018 72 10000 7.2 350 07:57 06.03.2021
1805 Clouds 16 1018 72 10000 7.2 350 07:23 06.03.2021
1806 Clouds 16 1018 72 10000 7.72 350 06:48 06.03.2021
1807 Clouds 16 1018 82 10000 6.17 340 05:34 06.03.2021
1808 Clouds 16 1018 82 10000 6.17 340 05:34 06.03.2021
1809 Clouds 17 1019 88 10000 5.66 350 02:25 06.03.2021
1810 Clouds 17 1019 88 10000 3.09 360 00:47 06.03.2021
1811 Drizzle 17 1019 77 10000 5.14 350 23:52 05.03.2021
1812 Clouds 18 1019 72 9000 5.66 350 23:28 05.03.2021
1813 Clouds 18 1019 63 10000 4.63 350 22:45 05.03.2021
1814 Clouds 18 1019 63 10000 7.2 360 22:22 05.03.2021
1815 Clouds 18 1018 63 10000 7.72 360 21:53 05.03.2021
1816 Clouds 18 1018 72 10000 9.26 360 21:34 05.03.2021
1817 Clouds 19 1017 72 10000 8.75 360 20:54 05.03.2021
1818 Clouds 19 1017 72 10000 9.26 360 20:27 05.03.2021
1819 Clouds 19 1017 88 10000 10.29 10 19:59 05.03.2021
1820 Clouds 20 1017 60 10000 9.26 10 19:26 05.03.2021
1821 Clouds 21 1017 56 10000 8.23 350 18:58 05.03.2021
1822 Clouds 21 1017 60 10000 9.26 340 18:40 05.03.2021
1823 Clouds 21 1017 60 10000 9.26 340 18:19 05.03.2021
1824 Clouds 21 1017 64 10000 10.8 350 17:36 05.03.2021
1825 Clouds 21 1016 68 10000 5.66 220 16:50 05.03.2021
1826 Clouds 21 1017 64 10000 7.2 30 16:25 05.03.2021
1827 Clouds 21 1017 73 10000 5.14 0 15:59 05.03.2021
1828 Clouds 21 1018 64 10000 5.14 140 15:40 05.03.2021
1829 Clouds 21 1018 64 10000 5.14 140 15:21 05.03.2021
1830 Clouds 21 1018 53 10000 4.12 0 14:38 05.03.2021
1831 Clouds 21 1018 53 10000 5.66 220 13:55 05.03.2021
1832 Clouds 21 1018 53 10000 10.29 360 13:22 05.03.2021
1833 Clouds 21 1019 56 10000 11.32 20 12:55 05.03.2021
1834 Clouds 21 1019 56 10000 8.75 10 11:58 05.03.2021
1835 Clouds 20 1019 56 10000 10.29 10 11:37 05.03.2021
1836 Clouds 20 1019 56 10000 10.29 10 11:18 05.03.2021
1837 Clouds 20 1019 64 10000 8.23 10 10:41 05.03.2021
1838 Clouds 19 1019 68 10000 9.26 10 10:23 05.03.2021
1839 Clouds 18 1019 72 10000 8.23 10 09:49 05.03.2021
1840 Clouds 18 1019 72 10000 8.23 20 09:26 05.03.2021
1841 Clouds 17 1018 72 10000 6.17 10 08:43 05.03.2021
1842 Clouds 17 1018 72 10000 5.66 10 08:24 05.03.2021
1843 Clouds 17 1018 77 10000 6.69 10 07:44 05.03.2021
1844 Clouds 17 1018 77 10000 6.69 20 07:20 05.03.2021
1845 Clouds 17 1018 77 10000 8.75 10 06:31 05.03.2021
1846 Clouds 18 1020 68 10000 6.69 10 01:59 05.03.2021
1847 Clouds 18 1021 68 10000 6.69 360 00:46 05.03.2021
1848 Clouds 18 1021 63 10000 8.75 360 23:37 04.03.2021
1849 Clouds 18 1020 68 10000 8.23 30 22:40 04.03.2021
1850 Clouds 18 1020 68 10000 8.23 30 22:22 04.03.2021
1851 Clouds 18 1020 68 10000 8.23 20 21:47 04.03.2021
1852 Clouds 18 1019 68 10000 6.17 30 21:27 04.03.2021
1853 Clouds 18 1019 63 10000 8.23 20 20:41 04.03.2021
1854 Clouds 19 1019 59 10000 8.75 20 20:22 04.03.2021
1855 Clouds 19 1019 56 10000 8.75 10 19:54 04.03.2021
1856 Clouds 20 1020 56 10000 8.75 10 19:31 04.03.2021
1857 Clouds 20 1020 56 10000 9.77 10 18:59 04.03.2021
1858 Clouds 20 1020 56 10000 9.77 10 18:59 04.03.2021
1859 Clouds 21 1020 52 10000 9.77 10 18:38 04.03.2021
1860 Clouds 21 1020 52 10000 9.77 10 18:19 04.03.2021
1861 Clouds 21 1020 52 10000 9.77 10 17:42 04.03.2021
1862 Clouds 21 1020 52 10000 10.8 20 17:20 04.03.2021
1863 Clouds 21 1020 56 10000 12.35 30 16:44 04.03.2021
1864 Clouds 21 1020 56 10000 11.83 30 16:24 04.03.2021
1865 Clouds 21 1020 52 10000 11.83 30 15:48 04.03.2021
1866 Clouds 21 1020 52 10000 11.83 30 15:30 04.03.2021
1867 Clouds 21 1021 52 10000 11.83 30 14:45 04.03.2021
1868 Clouds 21 1021 52 10000 11.32 30 14:22 04.03.2021
1869 Clouds 21 1021 56 10000 10.29 30 13:45 04.03.2021
1870 Clouds 20 1021 60 10000 10.8 30 13:23 04.03.2021
1871 Clouds 20 1022 56 10000 10.29 30 12:44 04.03.2021
1872 Clouds 20 1022 56 10000 8.23 10 12:20 04.03.2021
1873 Clouds 19 1022 59 10000 8.23 10 11:42 04.03.2021
1874 Clouds 19 1022 59 10000 8.75 30 11:20 04.03.2021
1875 Clouds 18 1021 63 10000 4.63 360 10:37 04.03.2021
1876 Clouds 18 1021 63 10000 4.63 360 10:18 04.03.2021
1877 Clouds 16 1021 67 10000 4.63 350 09:32 04.03.2021
1878 Clouds 15 1021 67 10000 4.63 350 08:56 04.03.2021
1879 Clouds 15 1021 67 10000 4.63 340 08:32 04.03.2021
1880 Clouds 15 1021 67 10000 4.63 360 07:49 04.03.2021
1881 Clouds 15 1021 67 10000 6.69 350 06:52 04.03.2021
1882 Clouds 15 1021 67 10000 6.17 350 06:23 04.03.2021
1883 Clouds 16 1022 67 10000 6.17 360 02:39 04.03.2021
1884 Clouds 17 1022 67 10000 5.66 360 01:24 04.03.2021
1885 Clouds 18 1022 68 10000 7.72 10 22:43 03.03.2021
1886 Clouds 18 1022 68 10000 9.26 10 22:25 03.03.2021
1887 Clouds 18 1021 68 10000 8.75 10 21:43 03.03.2021
1888 Clouds 18 1021 68 10000 5.66 360 21:24 03.03.2021
1889 Clouds 18 1021 63 10000 6.17 10 20:56 03.03.2021
1890 Clouds 19 1021 63 10000 8.23 20 20:38 03.03.2021
1891 Clouds 19 1020 59 10000 9.26 20 19:57 03.03.2021
1892 Clouds 20 1020 60 10000 9.26 30 19:39 03.03.2021
1893 Clouds 20 1020 60 10000 9.26 30 19:18 03.03.2021
1894 Clouds 20 1020 56 10000 10.29 20 18:45 03.03.2021
1895 Clouds 20 1020 56 10000 10.29 20 18:45 03.03.2021
1896 Clouds 21 1021 56 10000 10.8 30 17:59 03.03.2021
1897 Clouds 21 1020 56 10000 11.32 30 17:39 03.03.2021
1898 Clouds 21 1020 56 10000 11.32 30 17:18 03.03.2021
1899 Clouds 21 1021 60 10000 9.77 30 16:39 03.03.2021
1900 Clouds 21 1021 60 10000 9.77 30 16:21 03.03.2021
1901 Clouds 21 1021 60 10000 8.75 40 15:33 03.03.2021
1902 Clouds 21 1022 60 10000 8.23 30 14:52 03.03.2021
1903 Clouds 21 1022 60 10000 8.23 30 14:29 03.03.2021
1904 Clouds 21 1022 56 10000 7.72 40 13:52 03.03.2021
1905 Clouds 21 1023 60 10000 7.72 40 13:31 03.03.2021
1906 Clouds 21 1023 60 10000 7.2 40 12:44 03.03.2021
1907 Clouds 20 1023 64 10000 7.2 40 12:24 03.03.2021
1908 Clouds 20 1023 64 10000 7.72 30 11:47 03.03.2021
1909 Clouds 20 1023 60 10000 6.17 360 11:28 03.03.2021
1910 Clouds 19 1023 63 10000 5.66 350 10:48 03.03.2021
1911 Clouds 18 1022 59 10000 5.14 360 10:26 03.03.2021
1912 Clouds 17 1022 63 10000 4.12 350 09:48 03.03.2021
1913 Clouds 17 1021 67 10000 5.14 350 09:24 03.03.2021
1914 Clouds 16 1021 63 10000 5.14 350 08:39 03.03.2021
1915 Clouds 16 1021 63 10000 5.14 350 08:20 03.03.2021
1916 Clouds 16 1021 63 10000 6.17 350 07:39 03.03.2021
1917 Clouds 16 1021 67 10000 5.66 350 06:50 03.03.2021
1918 Clouds 16 1021 67 10000 5.66 350 05:46 03.03.2021
1919 Clouds 16 1021 67 10000 6.69 10 04:57 03.03.2021
1920 Clouds 17 1021 63 10000 7.72 20 04:25 03.03.2021
1921 Clouds 17 1022 72 10000 5.66 360 01:46 03.03.2021
1922 Clouds 18 1023 68 10000 6.69 10 23:55 02.03.2021
1923 Clouds 18 1023 72 10000 7.2 20 23:21 02.03.2021
1924 Clouds 18 1023 68 10000 8.23 20 22:41 02.03.2021
1925 Clouds 18 1022 72 10000 7.2 20 22:18 02.03.2021
1926 Clouds 18 1022 68 10000 6.69 20 21:39 02.03.2021
1927 Clouds 18 1022 68 10000 6.69 20 21:19 02.03.2021
1928 Clouds 19 1022 68 10000 6.69 10 20:45 02.03.2021
1929 Clouds 19 1021 68 10000 7.2 20 20:22 02.03.2021
1930 Clouds 19 1021 68 10000 8.23 30 19:51 02.03.2021
1931 Clouds 20 1021 64 10000 8.23 30 19:32 02.03.2021
1932 Clouds 20 1021 64 10000 7.72 30 18:58 02.03.2021
1933 Clouds 20 1021 64 10000 8.23 20 18:39 02.03.2021
1934 Clouds 20 1021 64 10000 8.23 20 18:20 02.03.2021
1935 Clouds 20 1021 64 10000 8.75 30 17:49 02.03.2021
1936 Clouds 20 1021 64 10000 8.75 30 17:29 02.03.2021
1937 Clouds 20 1021 60 10000 8.23 30 16:49 02.03.2021
1938 Clouds 21 1021 60 10000 8.23 30 16:20 02.03.2021
1939 Clouds 21 1021 64 10000 8.23 30 15:47 02.03.2021
1940 Clouds 21 1021 60 10000 7.72 40 15:21 02.03.2021
1941 Clouds 21 1022 60 10000 6.69 50 14:21 02.03.2021
1942 Clouds 21 1022 64 10000 7.2 40 13:48 02.03.2021
1943 Clouds 21 1022 64 10000 7.2 40 13:28 02.03.2021
1944 Clouds 21 1023 64 10000 7.72 40 12:51 02.03.2021
1945 Clouds 20 1023 64 10000 6.69 40 12:26 02.03.2021
1946 Clouds 20 1023 68 10000 6.69 40 11:53 02.03.2021
1947 Clouds 20 1022 64 10000 6.17 50 11:29 02.03.2021
1948 Clouds 19 1022 64 10000 6.17 40 10:55 02.03.2021
1949 Clouds 18 1022 68 10000 5.14 20 10:31 02.03.2021
1950 Clouds 18 1022 72 10000 3.09 340 09:44 02.03.2021
1951 Clouds 16 1021 77 10000 3.6 350 09:24 02.03.2021
1952 Clouds 16 1021 77 10000 4.63 350 08:56 02.03.2021
1953 Clouds 16 1020 72 10000 4.63 350 08:33 02.03.2021
1954 Clouds 16 1020 72 10000 4.63 340 07:51 02.03.2021
1955 Clouds 15 1020 77 10000 4.63 360 06:39 02.03.2021
1956 Clouds 15 1020 77 10000 5.14 360 05:52 02.03.2021
1957 Clouds 16 1020 77 10000 5.14 360 05:33 02.03.2021
1958 Clouds 16 1020 72 10000 5.66 350 04:38 02.03.2021
1959 Clouds 17 1020 72 10000 4.63 360 01:43 02.03.2021
1960 Clouds 17 1021 72 10000 4.63 350 01:21 02.03.2021
1961 Clouds 17 1020 72 10000 4.12 350 23:37 01.03.2021
1962 Clouds 17 1020 72 10000 4.12 350 23:19 01.03.2021
1963 Clouds 18 1020 68 10000 4.63 350 22:38 01.03.2021
1964 Clouds 18 1020 68 10000 4.63 350 22:19 01.03.2021
1965 Clouds 18 1019 63 10000 5.66 360 21:41 01.03.2021
1966 Clouds 18 1019 63 10000 5.66 360 21:23 01.03.2021
1967 Clouds 18 1019 63 10000 6.17 360 20:43 01.03.2021
1968 Clouds 18 1019 63 10000 6.17 360 20:43 01.03.2021
1969 Clouds 19 1019 59 10000 6.69 360 20:21 01.03.2021
1970 Clouds 19 1018 59 10000 7.72 360 19:43 01.03.2021
1971 Clouds 20 1018 52 10000 7.72 350 19:24 01.03.2021
1972 Clouds 20 1018 56 10000 9.26 20 18:43 01.03.2021
1973 Clouds 20 1017 52 10000 9.77 20 18:23 01.03.2021
1974 Clouds 20 1017 52 10000 10.29 20 17:47 01.03.2021
1975 Clouds 20 1017 52 10000 9.77 20 17:22 01.03.2021
1976 Clouds 21 1017 52 10000 10.29 20 16:47 01.03.2021
1977 Clouds 21 1018 53 10000 10.29 20 16:27 01.03.2021
1978 Clouds 21 1018 43 10000 8.23 10 15:49 01.03.2021
1979 Clouds 21 1018 49 10000 8.23 10 15:22 01.03.2021
1980 Clouds 20 1018 49 10000 8.23 20 14:58 01.03.2021
1981 Clouds 20 1018 49 10000 8.23 360 14:39 01.03.2021
1982 Clouds 20 1019 52 10000 8.23 20 13:50 01.03.2021
1983 Clouds 20 1019 52 10000 8.75 30 13:29 01.03.2021
1984 Clouds 19 1019 56 10000 8.23 10 12:59 01.03.2021
1985 Clouds 19 1019 56 10000 8.23 10 12:41 01.03.2021
1986 Clouds 19 1019 59 10000 8.23 20 12:21 01.03.2021
1987 Clouds 19 1019 68 10000 7.2 10 11:47 01.03.2021
1988 Clouds 19 1019 68 10000 8.75 20 11:18 01.03.2021
1989 Clouds 18 1018 77 10000 4.63 340 10:37 01.03.2021
1990 Clouds 18 1018 77 10000 4.63 340 10:37 01.03.2021
1991 Clouds 17 1018 77 10000 4.63 340 10:18 01.03.2021
1992 Clouds 16 1018 82 10000 3.6 330 09:48 01.03.2021
1993 Clouds 16 1017 82 7000 5.66 340 09:25 01.03.2021
1994 Clouds 16 1017 77 10000 6.17 350 08:55 01.03.2021
1995 Clouds 16 1016 72 10000 6.17 350 08:22 01.03.2021
1996 Clouds 16 1016 72 10000 5.14 360 06:54 01.03.2021
1997 Clouds 15 1016 77 10000 4.63 360 06:24 01.03.2021
1998 Clouds 17 1016 67 10000 5.14 340 02:38 01.03.2021
1999 Clouds 17 1017 67 10000 3.09 350 23:41 28.02.2021
2000 Clouds 17 1017 67 10000 3.6 350 22:56 28.02.2021
2001 Clouds 17 1016 67 10000 4.63 10 22:26 28.02.2021
2002 Clouds 17 1016 67 10000 3.6 360 21:58 28.02.2021
2003 Clouds 18 1016 63 10000 5.14 350 21:33 28.02.2021
2004 Clouds 18 1015 63 10000 4.63 360 20:59 28.02.2021
2005 Clouds 18 1015 63 10000 5.14 360 20:38 28.02.2021
2006 Clouds 18 1015 63 10000 5.14 360 20:38 28.02.2021
2007 Clouds 18 1015 63 10000 5.14 360 20:18 28.02.2021
2008 Clouds 18 1015 63 10000 5.14 360 20:18 28.02.2021
2009 Clouds 19 1015 55 10000 6.17 360 19:45 28.02.2021
2010 Clouds 19 1015 55 10000 6.17 360 19:45 28.02.2021
2011 Clouds 19 1015 52 10000 8.23 360 19:24 28.02.2021
2012 Clouds 20 1015 49 10000 7.72 350 18:43 28.02.2021
2013 Clouds 20 1015 52 10000 8.75 10 18:25 28.02.2021
2014 Clouds 20 1014 52 10000 6.69 360 17:50 28.02.2021
2015 Clouds 19 1014 56 10000 9.26 20 17:28 28.02.2021
2016 Clouds 20 1015 56 10000 9.26 30 16:56 28.02.2021
2017 Clouds 19 1015 56 10000 9.26 30 16:38 28.02.2021
2018 Clouds 20 1015 56 10000 9.26 30 16:18 28.02.2021
2019 Clouds 20 1015 63 10000 8.75 20 15:40 28.02.2021
2020 Clouds 19 1015 63 10000 8.75 20 15:22 28.02.2021
2021 Clouds 20 1015 56 10000 9.26 30 14:52 28.02.2021
2022 Clouds 19 1016 59 10000 9.26 30 14:28 28.02.2021
2023 Clouds 19 1016 68 10000 7.72 40 13:52 28.02.2021
2024 Clouds 19 1016 68 10000 8.23 40 13:21 28.02.2021
2025 Clouds 18 1016 72 10000 6.69 20 12:56 28.02.2021
2026 Clouds 18 1016 68 10000 8.75 30 12:38 28.02.2021
2027 Clouds 18 1016 68 10000 8.75 30 12:19 28.02.2021
2028 Clouds 18 1016 68 10000 8.75 30 12:19 28.02.2021
2029 Clouds 18 1016 77 10000 8.23 20 11:44 28.02.2021
2030 Clouds 17 1016 82 10000 4.12 20 11:25 28.02.2021
2031 Clouds 18 1016 77 10000 5.66 360 10:55 28.02.2021
2032 Clouds 18 1016 72 9000 5.66 340 10:29 28.02.2021
2033 Clouds 16 1016 72 10000 3.6 330 09:54 28.02.2021
2034 Clouds 16 1016 67 10000 6.17 320 09:34 28.02.2021
2035 Clouds 16 1015 67 10000 6.17 330 08:52 28.02.2021
2036 Clouds 16 1015 67 10000 4.63 340 08:32 28.02.2021
2037 Clouds 16 1015 67 10000 3.6 330 07:57 28.02.2021
2038 Clouds 16 1015 72 10000 5.14 330 07:38 28.02.2021
2039 Clouds 16 1015 72 10000 4.63 330 06:55 28.02.2021
2040 Clouds 15 1015 77 10000 4.63 340 05:52 28.02.2021
2041 Clouds 15 1016 67 10000 4.12 330 03:45 28.02.2021
2042 Clouds 15 1018 67 10000 4.63 330 01:59 28.02.2021
2043 Clouds 16 1018 63 10000 4.63 340 00:53 28.02.2021
2044 Clouds 16 1018 59 10000 5.66 340 00:34 28.02.2021
2045 Clouds 16 1018 55 10000 5.14 340 23:47 27.02.2021
2046 Clouds 16 1019 59 10000 4.12 350 23:20 27.02.2021
2047 Clouds 16 1019 59 10000 5.14 330 22:49 27.02.2021
2048 Clouds 16 1018 59 10000 4.12 330 22:21 27.02.2021
2049 Clouds 16 1018 59 10000 4.63 330 21:48 27.02.2021
2050 Clouds 16 1018 51 10000 3.6 320 21:29 27.02.2021
2051 Clouds 17 1018 51 10000 5.66 330 20:49 27.02.2021
2052 Clouds 17 1018 55 10000 6.17 340 20:31 27.02.2021
2053 Clouds 17 1018 59 10000 6.69 340 19:47 27.02.2021
2054 Clouds 18 1018 55 10000 6.69 340 19:28 27.02.2021
2055 Clouds 18 1018 52 10000 8.23 350 18:55 27.02.2021
2056 Clouds 18 1018 55 10000 8.75 350 18:36 27.02.2021
2057 Clouds 18 1018 55 10000 8.75 350 18:18 27.02.2021
2058 Clouds 18 1018 52 10000 7.2 340 17:41 27.02.2021
2059 Clouds 18 1019 52 10000 7.72 330 17:19 27.02.2021
2060 Clouds 19 1019 52 10000 8.75 350 16:50 27.02.2021
2061 Clouds 19 1020 48 10000 9.77 360 16:28 27.02.2021
2062 Clouds 18 1020 52 10000 9.77 350 15:46 27.02.2021
2063 Clouds 17 1021 67 10000 8.75 360 15:20 27.02.2021
2064 Clouds 18 1021 63 10000 6.69 20 14:41 27.02.2021
2065 Clouds 17 1022 82 10000 7.72 10 14:21 27.02.2021
2066 Clouds 18 1022 55 10000 8.75 350 13:46 27.02.2021
2067 Clouds 17 1022 63 10000 8.23 350 13:21 27.02.2021
2068 Clouds 17 1022 59 10000 8.23 340 12:45 27.02.2021
2069 Clouds 17 1022 59 10000 7.2 350 12:24 27.02.2021
2070 Clouds 18 1022 52 10000 8.75 10 11:51 27.02.2021
2071 Clouds 17 1023 48 10000 8.75 360 11:31 27.02.2021
2072 Clouds 18 1022 45 10000 8.23 10 10:53 27.02.2021
2073 Clouds 17 1022 51 10000 7.72 360 10:34 27.02.2021
2074 Clouds 16 1022 51 10000 6.69 360 09:54 27.02.2021
2075 Clouds 15 1022 55 10000 7.2 360 09:32 27.02.2021
2076 Clouds 15 1022 58 10000 5.14 350 08:44 27.02.2021
2077 Clouds 15 1022 58 10000 6.17 340 08:24 27.02.2021
2078 Clouds 15 1022 55 10000 7.2 360 07:58 27.02.2021
2079 Clouds 15 1022 58 10000 7.2 350 06:55 27.02.2021
2080 Clouds 16 1025 72 10000 6.17 10 01:24 27.02.2021
2081 Clouds 17 1025 63 10000 8.23 10 00:30 27.02.2021
2082 Clouds 17 1024 67 10000 9.26 20 23:41 26.02.2021
2083 Clouds 17 1024 67 10000 9.26 20 23:21 26.02.2021
2084 Clouds 17 1025 67 10000 9.77 10 22:34 26.02.2021
2085 Clouds 17 1024 63 10000 9.26 10 21:54 26.02.2021
2086 Clouds 17 1024 63 10000 9.26 10 21:35 26.02.2021
2087 Clouds 17 1024 59 10000 10.29 20 20:55 26.02.2021
2088 Clouds 17 1024 63 10000 10.8 20 20:37 26.02.2021
2089 Clouds 17 1024 63 10000 10.8 20 20:18 26.02.2021
2090 Clouds 18 1024 63 10000 9.26 20 19:26 26.02.2021
2091 Clouds 19 1024 55 10000 10.29 10 18:55 26.02.2021
2092 Clouds 19 1024 55 10000 10.8 20 18:25 26.02.2021
2093 Clouds 19 1024 52 10000 11.32 10 17:58 26.02.2021
2094 Clouds 19 1024 63 10000 9.77 20 17:36 26.02.2021
2095 Clouds 20 1024 52 10000 10.8 10 16:59 26.02.2021
2096 Clouds 19 1024 52 10000 10.8 10 16:41 26.02.2021
2097 Clouds 20 1024 45 10000 11.32 10 16:22 26.02.2021
2098 Clouds 20 1025 52 10000 12.35 30 15:43 26.02.2021
2099 Clouds 19 1025 55 10000 12.35 30 15:23 26.02.2021
2100 Clouds 19 1026 59 10000 9.77 10 14:53 26.02.2021
2101 Clouds 19 1026 59 10000 9.77 10 14:53 26.02.2021
2102 Clouds 19 1026 63 10000 10.8 360 14:34 26.02.2021
2103 Clouds 19 1026 55 10000 11.32 10 13:52 26.02.2021
2104 Clouds 19 1026 55 10000 9.77 360 13:33 26.02.2021
2105 Clouds 19 1027 55 10000 11.32 20 12:50 26.02.2021
2106 Clouds 19 1026 48 10000 12.86 20 12:27 26.02.2021
2107 Clouds 18 1027 59 10000 11.32 10 11:42 26.02.2021
2108 Clouds 18 1026 55 10000 12.86 20 10:58 26.02.2021
2109 Clouds 18 1026 55 10000 11.83 20 10:25 26.02.2021
2110 Clouds 17 1025 59 10000 10.29 10 09:47 26.02.2021
2111 Clouds 16 1025 59 10000 11.32 20 09:27 26.02.2021
2112 Clouds 16 1025 55 10000 8.23 360 08:35 26.02.2021
2113 Clouds 16 1025 55 10000 9.77 10 07:57 26.02.2021
2114 Clouds 16 1025 63 10000 7.2 360 07:22 26.02.2021
2115 Clouds 16 1025 59 10000 6.17 360 06:32 26.02.2021
2116 Clouds 15 1025 59 10000 6.69 360 05:18 26.02.2021
2117 Clouds 16 1027 59 10000 7.2 360 02:38 26.02.2021
2118 Clouds 17 1028 59 10000 8.23 10 00:33 26.02.2021
2119 Clouds 18 1028 59 10000 9.77 20 23:39 25.02.2021
2120 Clouds 18 1027 59 10000 9.77 20 22:58 25.02.2021
2121 Clouds 18 1027 63 10000 9.77 20 22:38 25.02.2021
2122 Clouds 18 1027 68 10000 9.77 10 21:51 25.02.2021
2123 Clouds 18 1026 68 10000 9.26 10 21:32 25.02.2021
2124 Clouds 18 1026 63 10000 9.26 10 20:55 25.02.2021
2125 Clouds 18 1026 68 10000 8.75 10 20:36 25.02.2021
2126 Clouds 18 1026 68 10000 8.75 10 20:18 25.02.2021
2127 Clouds 19 1026 68 10000 8.75 10 19:46 25.02.2021
2128 Clouds 20 1026 63 10000 11.32 10 19:19 25.02.2021
2129 Clouds 19 1026 68 10000 10.29 20 18:40 25.02.2021
2130 Clouds 20 1026 68 10000 10.29 20 18:18 25.02.2021
2131 Clouds 19 1026 72 10000 11.32 20 17:33 25.02.2021
2132 Clouds 19 1026 72 10000 11.83 30 16:56 25.02.2021
2133 Clouds 20 1026 68 10000 12.86 20 16:33 25.02.2021
2134 Clouds 21 1026 73 10000 12.35 30 15:49 25.02.2021
2135 Clouds 21 1026 68 10000 12.35 30 15:28 25.02.2021
2136 Clouds 22 1027 68 10000 10.8 30 14:37 25.02.2021
2137 Clouds 21 1027 68 10000 10.8 30 14:18 25.02.2021
2138 Clouds 21 1027 68 10000 10.29 30 13:40 25.02.2021
2139 Clouds 22 1027 68 10000 10.29 30 13:20 25.02.2021
2140 Clouds 21 1028 64 10000 10.29 30 12:38 25.02.2021
2141 Clouds 21 1028 64 10000 10.29 30 12:38 25.02.2021
2142 Clouds 21 1028 64 10000 10.29 30 12:20 25.02.2021
2143 Clouds 20 1028 64 10000 9.77 30 11:42 25.02.2021
2144 Clouds 19 1027 72 10000 9.26 20 10:51 25.02.2021
2145 Clouds 19 1027 68 10000 7.72 10 10:33 25.02.2021
2146 Clouds 17 1027 72 10000 8.23 360 09:45 25.02.2021
2147 Clouds 17 1027 72 10000 6.69 360 09:26 25.02.2021
2148 Clouds 17 1026 77 10000 9.26 10 08:40 25.02.2021
2149 Clouds 17 1026 77 10000 9.26 10 08:21 25.02.2021
2150 Clouds 17 1026 77 10000 9.26 10 07:39 25.02.2021
2151 Clouds 17 1025 77 10000 9.26 10 06:57 25.02.2021
2152 Clouds 17 1025 77 10000 9.26 10 06:57 25.02.2021
2153 Clouds 17 1025 77 10000 9.26 10 05:28 25.02.2021
2154 Clouds 18 1026 77 10000 9.26 10 01:45 25.02.2021
2155 Clouds 18 1026 77 10000 8.75 360 00:48 25.02.2021
2156 Clouds 18 1026 72 10000 8.75 360 00:19 25.02.2021
2157 Clouds 18 1025 68 10000 8.23 360 23:36 24.02.2021
2158 Clouds 19 1025 68 10000 8.23 360 22:50 24.02.2021
2159 Clouds 19 1025 72 10000 8.75 360 22:30 24.02.2021
2160 Clouds 19 1024 72 10000 9.77 360 21:49 24.02.2021
2161 Clouds 19 1024 72 10000 8.23 360 21:30 24.02.2021
2162 Clouds 19 1024 77 10000 8.75 10 20:49 24.02.2021
2163 Clouds 20 1023 77 10000 9.26 10 20:26 24.02.2021
2164 Clouds 20 1023 73 10000 10.29 10 19:42 24.02.2021
2165 Clouds 21 1023 73 10000 10.29 10 19:20 24.02.2021
2166 Clouds 21 1023 68 10000 11.32 10 18:50 24.02.2021
2167 Clouds 21 1023 68 10000 11.32 20 18:30 24.02.2021
2168 Clouds 21 1023 64 10000 10.8 20 17:40 24.02.2021
2169 Clouds 21 1023 64 10000 10.8 20 17:22 24.02.2021
2170 Clouds 22 1023 60 10000 10.8 20 16:48 24.02.2021
2171 Clouds 21 1023 64 10000 11.32 20 16:21 24.02.2021
2172 Clouds 21 1024 68 10000 11.83 30 15:50 24.02.2021
2173 Clouds 21 1024 68 10000 12.35 30 15:31 24.02.2021
2174 Clouds 21 1024 64 10000 13.38 30 14:47 24.02.2021
2175 Clouds 21 1024 60 10000 11.83 20 14:27 24.02.2021
2176 Clouds 21 1025 60 10000 11.83 20 13:42 24.02.2021
2177 Clouds 21 1025 64 10000 10.8 20 13:23 24.02.2021
2178 Clouds 21 1025 64 10000 10.8 30 12:55 24.02.2021
2179 Clouds 21 1025 64 10000 9.77 30 12:33 24.02.2021
2180 Clouds 20 1025 68 10000 9.26 30 11:53 24.02.2021
2181 Clouds 20 1025 73 10000 8.75 30 11:30 24.02.2021
2182 Clouds 18 1024 72 10000 5.14 360 10:40 24.02.2021
2183 Clouds 18 1024 72 10000 5.14 360 10:20 24.02.2021
2184 Clouds 17 1024 72 10000 5.14 350 09:24 24.02.2021
2185 Clouds 16 1023 72 10000 5.66 350 08:45 24.02.2021
2186 Clouds 16 1023 77 10000 6.17 360 08:24 24.02.2021
2187 Clouds 16 1023 68 10000 6.17 360 07:21 24.02.2021
2188 Clouds 16 1023 72 10000 5.66 360 06:56 24.02.2021
2189 Clouds 16 1022 67 10000 6.17 350 05:22 24.02.2021
2190 Clouds 17 1024 68 10000 5.66 350 00:47 24.02.2021
2191 Clouds 18 1024 68 10000 5.66 350 23:38 23.02.2021
2192 Clouds 18 1024 72 10000 4.63 360 22:43 23.02.2021
2193 Clouds 18 1024 72 10000 5.14 10 22:21 23.02.2021
2194 Clouds 19 1024 72 10000 6.17 10 21:47 23.02.2021
2195 Clouds 19 1024 68 10000 5.66 20 21:24 23.02.2021
2196 Clouds 19 1023 68 10000 6.69 30 20:50 23.02.2021
2197 Clouds 19 1023 68 10000 6.17 10 20:30 23.02.2021
2198 Clouds 20 1023 64 10000 7.72 30 19:49 23.02.2021
2199 Clouds 20 1023 68 10000 7.72 30 19:29 23.02.2021
2200 Clouds 20 1023 73 10000 7.2 30 18:59 23.02.2021
2201 Clouds 21 1023 68 10000 6.69 30 18:41 23.02.2021
2202 Clouds 21 1023 68 10000 6.69 30 18:20 23.02.2021
2203 Clouds 21 1023 68 10000 6.17 30 17:46 23.02.2021
2204 Clouds 21 1023 73 10000 6.17 30 17:18 23.02.2021
2205 Clouds 21 1023 73 10000 5.66 30 16:43 23.02.2021
2206 Clouds 21 1023 73 10000 6.17 30 16:20 23.02.2021
2207 Clouds 21 1023 73 10000 6.17 40 15:42 23.02.2021
2208 Clouds 21 1024 64 10000 6.17 40 15:23 23.02.2021
2209 Clouds 21 1024 68 10000 6.17 60 14:46 23.02.2021
2210 Clouds 21 1024 73 10000 6.69 50 14:26 23.02.2021
2211 Clouds 21 1025 64 10000 6.69 40 13:55 23.02.2021
2212 Clouds 21 1025 64 10000 7.2 30 13:31 23.02.2021
2213 Clouds 21 1025 64 10000 7.2 30 12:54 23.02.2021
2214 Clouds 21 1025 68 10000 6.17 30 12:22 23.02.2021
2215 Clouds 21 1025 68 10000 5.66 30 11:51 23.02.2021
2216 Clouds 20 1025 68 10000 5.66 30 11:23 23.02.2021
2217 Clouds 19 1025 73 10000 6.17 30 10:53 23.02.2021
2218 Clouds 18 1024 72 10000 4.12 10 10:35 23.02.2021
2219 Clouds 18 1024 72 10000 4.63 350 09:45 23.02.2021
2220 Clouds 17 1024 72 10000 5.14 360 09:25 23.02.2021
2221 Clouds 16 1023 72 10000 5.14 340 08:57 23.02.2021
2222 Clouds 16 1023 77 10000 5.14 350 08:38 23.02.2021
2223 Clouds 16 1023 77 10000 5.14 350 08:19 23.02.2021
2224 Clouds 17 1023 77 10000 4.63 350 05:44 23.02.2021
2225 Clouds 18 1023 72 10000 5.66 350 05:19 23.02.2021
2226 Clear 17 1024 72 10000 5.14 360 02:36 23.02.2021
2227 Clouds 17 1024 72 10000 4.63 360 00:54 23.02.2021
2228 Clouds 17 1024 72 10000 5.14 360 00:18 23.02.2021
2229 Clear 18 1024 68 10000 5.14 10 23:21 22.02.2021
2230 Clear 18 1024 72 10000 5.66 10 22:41 22.02.2021
2231 Clear 18 1023 68 10000 5.66 10 22:21 22.02.2021
2232 Clouds 19 1023 63 10000 5.14 20 21:46 22.02.2021
2233 Clouds 19 1023 68 10000 5.14 30 21:23 22.02.2021
2234 Clouds 19 1023 68 10000 6.69 30 20:53 22.02.2021
2235 Clouds 19 1022 68 10000 6.69 30 20:29 22.02.2021
2236 Clouds 19 1022 64 10000 6.17 30 19:54 22.02.2021
2237 Clouds 19 1022 60 10000 4.63 40 19:35 22.02.2021
2238 Clouds 20 1022 64 10000 4.12 50 18:57 22.02.2021
2239 Clouds 20 1022 64 10000 4.12 50 18:57 22.02.2021
2240 Clouds 20 1022 60 10000 4.12 60 18:39 22.02.2021
2241 Clouds 20 1022 60 10000 4.12 60 18:20 22.02.2021
2242 Clouds 20 1022 64 10000 3.09 80 17:26 22.02.2021
2243 Clouds 20 1022 64 10000 3.09 80 17:26 22.02.2021
2244 Clouds 20 1022 60 10000 3.6 90 16:55 22.02.2021
2245 Clouds 20 1022 60 10000 3.09 90 16:35 22.02.2021
2246 Clouds 20 1022 60 10000 3.09 90 15:47 22.02.2021
2247 Clouds 20 1022 60 10000 3.09 100 15:28 22.02.2021
2248 Clouds 20 1023 60 10000 2.57 110 14:47 22.02.2021
2249 Clouds 20 1023 63 10000 2.57 100 14:28 22.02.2021
2250 Clouds 20 1024 68 10000 3.09 110 13:47 22.02.2021
2251 Clouds 20 1024 68 10000 3.09 90 12:58 22.02.2021
2252 Clouds 20 1024 68 10000 2.57 70 12:37 22.02.2021
2253 Clouds 19 1024 68 10000 2.57 70 12:18 22.02.2021
2254 Clouds 19 1023 68 10000 2.57 80 11:41 22.02.2021
2255 Clouds 19 1023 68 10000 2.06 90 11:22 22.02.2021
2256 Clouds 19 1023 63 10000 0.51 0 10:46 22.02.2021
2257 Clouds 17 1023 68 10000 1.54 300 10:26 22.02.2021
2258 Clouds 16 1022 67 10000 2.06 290 09:42 22.02.2021
2259 Clouds 16 1022 72 10000 2.06 290 09:24 22.02.2021
2260 Clouds 16 1021 72 10000 2.06 300 08:50 22.02.2021
2261 Clouds 16 1021 72 10000 2.06 300 08:29 22.02.2021
2262 Clouds 16 1021 72 10000 2.57 300 07:56 22.02.2021
2263 Clouds 16 1021 67 10000 3.09 310 07:26 22.02.2021
2264 Clouds 16 1021 72 10000 2.06 310 06:32 22.02.2021
2265 Clouds 16 1021 72 10000 2.57 310 05:38 22.02.2021
2266 Clouds 17 1021 67 10000 2.57 320 03:27 22.02.2021
2267 Clouds 17 1021 67 10000 2.57 320 02:48 22.02.2021
2268 Clouds 17 1022 67 10000 2.06 330 00:45 22.02.2021
2269 Clouds 18 1022 67 10000 1.54 340 00:20 22.02.2021
2270 Clouds 18 1021 63 10000 2.57 340 23:29 21.02.2021
2271 Clouds 18 1021 63 10000 3.6 360 22:43 21.02.2021
2272 Clouds 18 1021 63 10000 3.6 360 22:22 21.02.2021
2273 Clouds 18 1020 63 10000 4.63 20 21:37 21.02.2021
2274 Clouds 18 1020 63 10000 4.63 20 21:19 21.02.2021
2275 Clouds 19 1019 59 10000 5.66 30 20:40 21.02.2021
2276 Clouds 19 1019 59 10000 5.66 30 20:19 21.02.2021
2277 Clouds 19 1019 59 10000 6.17 30 19:51 21.02.2021
2278 Clouds 19 1019 55 10000 6.69 30 19:32 21.02.2021
2279 Clouds 19 1019 55 10000 6.69 30 19:32 21.02.2021
2280 Clouds 19 1018 55 10000 7.2 30 18:48 21.02.2021
2281 Clouds 20 1018 52 10000 8.23 30 18:25 21.02.2021
2282 Clouds 20 1018 52 10000 8.75 40 17:30 21.02.2021
2283 Clouds 20 1017 49 10000 8.23 30 16:58 21.02.2021
2284 Clouds 20 1017 52 10000 7.72 30 16:34 21.02.2021
2285 Clouds 21 1018 52 10000 9.26 20 15:54 21.02.2021
2286 Clouds 20 1018 52 10000 9.77 30 15:22 21.02.2021
2287 Clouds 20 1019 52 10000 11.83 30 14:51 21.02.2021
2288 Clouds 20 1018 52 10000 10.8 30 14:30 21.02.2021
2289 Clouds 21 1019 43 10000 9.77 20 13:47 21.02.2021
2290 Clouds 21 1019 43 10000 9.77 10 13:23 21.02.2021
2291 Clouds 20 1018 52 10000 9.26 350 12:32 21.02.2021
2292 Clouds 20 1018 56 10000 8.75 10 11:56 21.02.2021
2293 Clouds 20 1018 52 10000 8.23 360 11:36 21.02.2021
2294 Clouds 19 1017 52 10000 7.72 350 10:36 21.02.2021
2295 Clouds 19 1017 52 10000 7.72 350 10:18 21.02.2021
2296 Clouds 18 1017 59 10000 7.72 350 09:41 21.02.2021
2297 Clouds 18 1016 55 10000 7.72 340 09:23 21.02.2021
2298 Clouds 18 1015 59 10000 6.69 340 08:32 21.02.2021
2299 Clouds 17 1015 67 10000 4.63 360 07:43 21.02.2021
2300 Clouds 17 1015 72 10000 6.17 360 07:21 21.02.2021
2301 Clouds 17 1015 77 10000 8.23 360 04:58 21.02.2021
2302 Clouds 20 1014 72 10000 7.72 350 02:32 21.02.2021
2303 Clouds 20 1015 77 10000 7.2 50 00:52 21.02.2021
2304 Clouds 20 1014 83 10000 5.66 230 00:20 21.02.2021
2305 Clouds 20 1013 77 10000 8.23 220 23:31 20.02.2021
2306 Clouds 20 1012 77 10000 10.8 210 22:54 20.02.2021
2307 Clouds 20 1012 77 10000 13.38 200 22:31 20.02.2021
2308 Clouds 20 1012 73 10000 12.35 200 21:47 20.02.2021
2309 Clouds 20 1012 68 10000 6.69 210 21:27 20.02.2021
2310 Clouds 21 1012 68 10000 8.75 210 20:54 20.02.2021
2311 Clouds 21 1012 56 10000 11.32 200 20:35 20.02.2021
2312 Clouds 21 1011 56 10000 6.69 260 19:59 20.02.2021
2313 Clouds 21 1011 60 10000 14.92 200 19:36 20.02.2021
2314 Clouds 21 1010 64 10000 14.4 200 18:47 20.02.2021
2315 Clouds 21 1010 60 10000 13.89 210 18:27 20.02.2021
2316 Clouds 21 1011 53 10000 12.86 220 17:43 20.02.2021
2317 Clouds 21 1011 46 10000 12.86 220 17:25 20.02.2021
2318 Clear 22 1011 38 10000 12.86 220 16:44 20.02.2021
2319 Clear 22 1012 38 10000 11.83 220 16:22 20.02.2021
2320 Clear 23 1012 29 10000 11.83 210 15:38 20.02.2021
2321 Clouds 23 1013 25 8000 9.77 210 14:50 20.02.2021
2322 Clouds 22 1014 23 6000 5.14 0 14:25 20.02.2021
2323 Clouds 21 1016 43 6000 3.09 0 13:53 20.02.2021
2324 Clouds 22 1016 49 6000 3.6 90 13:28 20.02.2021
2325 Clouds 22 1016 35 6000 3.6 0 12:53 20.02.2021
2326 Clouds 22 1015 19 6000 8.75 210 12:32 20.02.2021
2327 Clouds 20 1016 45 7000 2.06 70 11:48 20.02.2021
2328 Clouds 19 1016 42 8000 1.54 50 11:30 20.02.2021
2329 Clouds 19 1016 52 8000 0.61 238 10:50 20.02.2021
2330 Clouds 16 1016 51 8000 1.03 0 10:21 20.02.2021
2331 Clouds 16 1016 63 9000 2.06 280 09:41 20.02.2021
2332 Clear 15 1016 62 10000 1.54 210 08:51 20.02.2021
2333 Clear 15 1016 67 10000 0.51 0 08:23 20.02.2021
2334 Clear 16 1017 72 10000 3.09 280 04:37 20.02.2021
2335 Clear 16 1018 63 10000 2.57 260 02:32 20.02.2021
2336 Clear 16 1019 67 10000 2.06 280 01:54 20.02.2021
2337 Clear 16 1019 72 10000 0.51 290 00:49 20.02.2021
2338 Clear 17 1019 67 10000 1.54 310 00:30 20.02.2021
2339 Clear 18 1018 63 10000 0.73 205 23:24 19.02.2021
2340 Clear 18 1019 63 10000 1.54 320 22:42 19.02.2021
2341 Clear 18 1019 59 10000 2.57 320 22:19 19.02.2021
2342 Clear 19 1018 59 10000 0.84 247 21:39 19.02.2021
2343 Clear 19 1018 59 10000 0.84 247 21:39 19.02.2021
2344 Clear 19 1018 59 10000 0.81 276 21:20 19.02.2021
2345 Clear 20 1018 56 10000 1.03 0 20:40 19.02.2021
2346 Clear 20 1018 56 10000 1.03 0 20:22 19.02.2021
2347 Clear 20 1017 60 10000 1.54 110 19:43 19.02.2021
2348 Clear 20 1018 56 10000 2.06 80 19:20 19.02.2021
2349 Clear 21 1018 46 10000 2.06 100 18:43 19.02.2021
2350 Clear 21 1018 43 10000 2.57 100 18:23 19.02.2021
2351 Clear 21 1018 52 10000 2.06 100 17:24 19.02.2021
2352 Clear 21 1018 64 10000 2.57 100 16:40 19.02.2021
2353 Clear 21 1018 64 10000 2.57 100 16:21 19.02.2021
2354 Clear 21 1018 46 10000 2.57 100 15:49 19.02.2021
2355 Clear 21 1018 46 10000 2.06 90 15:27 19.02.2021
2356 Clear 21 1019 64 10000 3.09 90 14:46 19.02.2021
2357 Clear 21 1019 64 10000 2.57 70 14:26 19.02.2021
2358 Clear 21 1020 56 10000 3.6 60 13:53 19.02.2021
2359 Clear 21 1020 52 10000 4.12 40 13:30 19.02.2021
2360 Clear 21 1020 56 10000 3.6 40 12:52 19.02.2021
2361 Clear 20 1020 64 10000 3.09 30 12:24 19.02.2021
2362 Clear 20 1020 68 10000 3.09 30 11:54 19.02.2021
2363 Clear 19 1020 68 10000 2.57 30 11:26 19.02.2021
2364 Clear 19 1020 59 10000 2.06 350 10:54 19.02.2021
2365 Clear 18 1019 48 10000 2.06 330 10:31 19.02.2021
2366 Clear 16 1019 44 10000 3.6 310 09:51 19.02.2021
2367 Clear 15 1019 41 10000 3.09 320 09:27 19.02.2021
2368 Clear 15 1019 36 10000 3.09 330 08:54 19.02.2021
2369 Clear 15 1019 33 10000 3.09 340 08:25 19.02.2021
2370 Clear 15 1019 31 10000 3.09 320 07:49 19.02.2021
2371 Clear 16 1019 31 10000 2.57 340 07:31 19.02.2021
2372 Clear 16 1019 39 10000 3.09 330 06:54 19.02.2021
2373 Clear 15 1019 44 10000 3.09 340 05:41 19.02.2021
2374 Clear 16 1019 63 10000 3.09 330 04:41 19.02.2021
2375 Clear 16 1019 63 10000 3.09 330 04:41 19.02.2021
2376 Clear 17 1019 67 10000 4.12 360 01:48 19.02.2021
2377 Clear 17 1020 63 10000 4.63 350 00:37 19.02.2021
2378 Clear 17 1020 59 10000 4.63 350 23:56 18.02.2021
2379 Clear 17 1020 72 10000 4.12 350 23:35 18.02.2021
2380 Clear 18 1020 72 10000 4.12 360 22:50 18.02.2021
2381 Clear 18 1019 72 10000 3.6 350 22:30 18.02.2021
2382 Clear 18 1019 72 10000 4.12 360 21:52 18.02.2021
2383 Clear 18 1019 77 10000 4.63 360 21:26 18.02.2021
2384 Clear 19 1019 72 10000 4.12 10 20:44 18.02.2021
2385 Clear 19 1019 72 10000 5.66 20 20:24 18.02.2021
2386 Clear 19 1018 72 10000 6.17 30 19:48 18.02.2021
2387 Clear 20 1018 68 10000 6.17 30 19:30 18.02.2021
2388 Clear 21 1018 68 10000 6.17 30 18:55 18.02.2021
2389 Clear 21 1018 60 10000 6.69 30 18:32 18.02.2021
2390 Clear 21 1018 60 10000 6.69 30 17:59 18.02.2021
2391 Clear 21 1018 60 10000 6.69 30 17:41 18.02.2021
2392 Clear 21 1018 56 10000 6.17 40 17:19 18.02.2021
2393 Clear 21 1018 60 10000 5.66 30 16:41 18.02.2021
2394 Clear 20 1018 64 10000 6.17 40 16:21 18.02.2021
2395 Clear 21 1018 60 10000 5.66 40 15:39 18.02.2021
2396 Clear 21 1018 60 10000 5.66 40 15:21 18.02.2021
2397 Clear 21 1019 60 10000 5.66 50 14:49 18.02.2021
2398 Clear 21 1019 60 10000 5.66 40 14:29 18.02.2021
2399 Clear 21 1019 60 10000 5.66 40 14:29 18.02.2021
2400 Clear 20 1019 56 10000 6.17 40 13:46 18.02.2021
2401 Clear 20 1020 60 10000 7.2 30 13:20 18.02.2021
2402 Clouds 20 1020 60 10000 7.2 30 12:47 18.02.2021
2403 Clouds 20 1020 60 10000 6.17 20 12:23 18.02.2021
2404 Clouds 21 1020 60 10000 6.17 20 11:46 18.02.2021
2405 Clear 19 1020 59 10000 5.66 360 11:27 18.02.2021
2406 Clear 19 1020 55 10000 5.14 350 10:48 18.02.2021
2407 Clear 18 1020 63 10000 4.63 350 10:29 18.02.2021
2408 Clear 17 1019 63 10000 4.12 340 09:50 18.02.2021
2409 Clear 17 1019 63 10000 4.12 340 09:50 18.02.2021
2410 Clear 16 1019 63 10000 4.12 340 09:24 18.02.2021
2411 Clear 16 1019 63 10000 4.12 350 08:48 18.02.2021
2412 Clear 16 1018 63 10000 5.14 340 08:25 18.02.2021
2413 Clear 16 1018 63 10000 6.17 340 07:35 18.02.2021
2414 Clear 16 1019 63 10000 5.66 340 06:54 18.02.2021
2415 Clouds 16 1019 55 8000 4.12 330 03:31 18.02.2021
2416 Clear 17 1019 34 6000 3.6 340 23:56 17.02.2021
2417 Clear 17 1019 42 6000 4.12 330 23:30 17.02.2021
2418 Clear 17 1019 48 6000 4.12 330 22:54 17.02.2021
2419 Clear 17 1019 51 6000 4.12 330 22:27 17.02.2021
2420 Clear 17 1019 51 6000 3.6 350 21:57 17.02.2021
2421 Clear 17 1019 51 6000 2.57 350 21:22 17.02.2021
2422 Clear 18 1019 48 6000 3.09 40 20:52 17.02.2021
2423 Haze 18 1019 48 5000 3.6 50 20:32 17.02.2021
2424 Haze 18 1018 48 5000 3.6 50 19:52 17.02.2021
2425 Haze 19 1018 45 5000 4.12 60 19:34 17.02.2021
2426 Haze 19 1018 45 4800 4.12 60 18:49 17.02.2021
2427 Haze 19 1018 42 4600 3.6 50 18:30 17.02.2021
2428 Haze 19 1018 42 4600 3.09 80 17:42 17.02.2021
2429 Haze 19 1019 45 4600 3.09 100 17:21 17.02.2021
2430 Haze 20 1019 45 4600 3.09 100 16:49 17.02.2021
2431 Haze 20 1019 40 4600 3.09 110 16:28 17.02.2021
2432 Haze 20 1019 40 4600 3.6 110 15:45 17.02.2021
2433 Haze 20 1019 40 4600 3.6 120 15:27 17.02.2021
2434 Haze 20 1019 40 4600 3.6 120 15:27 17.02.2021
2435 Haze 20 1020 40 4600 2.06 140 14:51 17.02.2021
2436 Haze 20 1020 40 4800 3.09 140 14:29 17.02.2021
2437 Haze 20 1021 37 5000 3.09 140 13:52 17.02.2021
2438 Clouds 20 1021 40 6000 3.6 150 13:33 17.02.2021
2439 Clouds 20 1022 40 7000 4.12 160 12:57 17.02.2021
2440 Clouds 20 1022 40 8000 4.12 130 12:26 17.02.2021
2441 Clouds 20 1022 42 8000 4.63 130 11:47 17.02.2021
2442 Clouds 19 1022 42 9000 4.12 120 11:29 17.02.2021
2443 Clear 19 1021 45 10000 4.63 110 10:50 17.02.2021
2444 Clear 19 1021 45 10000 4.12 110 10:31 17.02.2021
2445 Clear 19 1021 45 10000 4.12 110 09:58 17.02.2021
2446 Clear 18 1021 59 10000 3.6 100 09:37 17.02.2021
2447 Clear 18 1021 59 10000 3.6 90 08:49 17.02.2021
2448 Clear 18 1021 63 10000 1.54 0 08:23 17.02.2021
2449 Clear 18 1021 63 10000 3.09 80 07:55 17.02.2021
2450 Clear 17 1020 67 10000 2.06 340 06:37 17.02.2021
2451 Clear 19 1022 59 10000 3.6 360 03:52 17.02.2021
2452 Clear 19 1022 39 9000 4.12 350 02:31 17.02.2021
2453 Clear 20 1022 30 8000 4.63 360 01:35 17.02.2021
2454 Clear 21 1022 22 9000 5.14 350 00:28 17.02.2021
2455 Clear 21 1021 24 8000 3.6 360 23:39 16.02.2021
2456 Clear 20 1021 26 8000 6.69 340 22:47 16.02.2021
2457 Clear 20 1021 30 7000 4.63 10 22:26 16.02.2021
2458 Clear 20 1021 30 7000 4.63 10 22:26 16.02.2021
2459 Clear 20 1021 28 7000 5.14 340 21:59 16.02.2021
2460 Clear 20 1021 28 7000 4.63 360 21:39 16.02.2021
2461 Clear 20 1021 28 7000 4.63 360 21:39 16.02.2021
2462 Clear 20 1021 28 7000 4.63 360 21:39 16.02.2021
2463 Clear 20 1021 28 7000 4.63 360 21:21 16.02.2021
2464 Clear 20 1020 28 7000 4.12 340 20:55 16.02.2021
2465 Clear 21 1020 28 6000 4.63 340 20:24 16.02.2021
2466 Clear 21 1021 26 6000 4.12 360 19:50 16.02.2021
2467 Clear 21 1021 26 6000 3.6 360 19:29 16.02.2021
2468 Clear 21 1021 30 6000 1.54 10 18:53 16.02.2021
2469 Clear 21 1021 37 6000 2.06 30 18:26 16.02.2021
2470 Clear 21 1022 49 6000 2.06 80 17:56 16.02.2021
2471 Clear 21 1022 37 6000 2.57 90 17:37 16.02.2021
2472 Clear 21 1022 37 6000 2.57 90 17:19 16.02.2021
2473 Haze 21 1022 37 5000 3.09 110 16:42 16.02.2021
2474 Haze 21 1022 45 4500 4.12 110 16:20 16.02.2021
2475 Haze 21 1023 37 3000 4.12 110 15:36 16.02.2021
2476 Haze 21 1023 37 3000 4.12 110 15:18 16.02.2021
2477 Haze 21 1024 43 3000 4.12 110 14:41 16.02.2021
2478 Haze 21 1024 46 3000 4.12 110 14:23 16.02.2021
2479 Haze 21 1025 46 3000 2.06 120 13:47 16.02.2021
2480 Haze 21 1025 40 3000 2.57 120 13:18 16.02.2021
2481 Haze 21 1026 43 3000 3.09 130 12:42 16.02.2021
2482 Haze 21 1026 49 3000 3.09 130 12:20 16.02.2021
2483 Haze 21 1026 49 3000 3.09 130 12:20 16.02.2021
2484 Haze 20 1025 49 2800 2.57 140 11:43 16.02.2021
2485 Haze 20 1025 46 2800 2.57 140 11:21 16.02.2021
2486 Haze 20 1025 49 2500 2.57 160 10:49 16.02.2021
2487 Haze 19 1025 55 2500 1.03 0 10:30 16.02.2021
2488 Haze 19 1024 52 2500 6.07 136 09:54 16.02.2021
2489 Haze 19 1024 48 2500 5.94 134 09:28 16.02.2021
2490 Haze 18 1024 48 3000 1.03 0 08:52 16.02.2021
2491 Haze 18 1024 48 3000 1.03 0 08:52 16.02.2021
2492 Haze 19 1023 48 4000 1.03 0 08:31 16.02.2021
2493 Haze 20 1024 49 4000 0.51 0 07:59 16.02.2021
2494 Haze 21 1023 40 4000 1.54 0 06:58 16.02.2021
2495 Haze 21 1024 56 3000 5.63 138 03:20 16.02.2021
2496 Haze 22 1023 31 3000 2.06 20 00:35 16.02.2021
2497 Haze 22 1023 26 4000 2.57 340 23:30 15.02.2021
2498 Haze 22 1023 37 4500 2.57 10 22:51 15.02.2021
2499 Haze 22 1023 25 4500 3.09 320 22:30 15.02.2021
2500 Haze 22 1023 25 4500 3.09 320 22:30 15.02.2021
2501 Haze 22 1022 28 4000 2.57 20 21:50 15.02.2021
2502 Haze 22 1022 25 4000 2.06 360 21:26 15.02.2021
2503 Haze 24 1022 23 4000 1.54 0 20:57 15.02.2021
2504 Haze 23 1021 20 4000 2.57 350 20:39 15.02.2021
2505 Haze 23 1021 20 4000 2.57 350 20:19 15.02.2021
2506 Haze 23 1021 18 4000 1.03 0 19:42 15.02.2021
2507 Haze 24 1021 18 5000 0.51 0 19:18 15.02.2021
2508 Haze 23 1021 18 5000 0.51 0 18:42 15.02.2021
2509 Haze 24 1022 18 5000 1.03 0 18:18 15.02.2021
2510 Clear 25 1022 20 8000 1.03 0 17:41 15.02.2021
2511 Clear 25 1022 20 8000 1.03 0 17:21 15.02.2021
2512 Clear 25 1022 23 9000 1.54 0 16:47 15.02.2021
2513 Clear 24 1022 27 10000 1.03 0 16:26 15.02.2021
2514 Clear 22 1022 31 10000 1.54 0 15:46 15.02.2021
2515 Clear 23 1023 33 10000 1.54 0 15:20 15.02.2021
2516 Clear 22 1023 35 10000 2.57 100 14:49 15.02.2021
2517 Clear 22 1023 40 10000 1.03 0 14:21 15.02.2021
2518 Clear 22 1024 43 10000 1.03 0 13:50 15.02.2021
2519 Clear 22 1024 38 10000 1.54 0 13:27 15.02.2021
2520 Clear 22 1024 35 10000 1.54 0 12:52 15.02.2021
2521 Clear 20 1024 40 10000 1.54 0 12:31 15.02.2021
2522 Clear 20 1024 53 10000 3.09 10 11:54 15.02.2021
2523 Clear 20 1024 56 10000 2.06 360 11:27 15.02.2021
2524 Clouds 19 1023 68 10000 2.06 30 10:56 15.02.2021
2525 Clouds 19 1023 55 10000 3.09 350 10:38 15.02.2021
2526 Clouds 18 1023 55 10000 3.09 350 10:20 15.02.2021
2527 Clouds 20 1023 77 10000 2.57 350 09:51 15.02.2021
2528 Clouds 19 1022 88 10000 3.6 10 09:32 15.02.2021
2529 Clouds 16 1021 88 10000 4.63 360 08:23 15.02.2021
2530 Clouds 16 1021 82 10000 5.66 20 07:27 15.02.2021
2531 Clouds 16 1021 88 10000 5.66 10 06:42 15.02.2021
2532 Clouds 17 1021 82 10000 5.14 360 04:41 15.02.2021
2533 Clouds 17 1021 88 10000 5.14 360 02:21 15.02.2021
2534 Clouds 17 1022 88 10000 6.69 360 00:22 15.02.2021
2535 Clouds 17 1021 82 10000 6.17 360 23:29 14.02.2021
2536 Clouds 17 1021 88 10000 6.17 360 22:47 14.02.2021
2537 Clouds 17 1021 88 10000 5.14 10 22:29 14.02.2021
2538 Clouds 17 1021 88 10000 7.2 10 21:53 14.02.2021
2539 Clouds 18 1021 82 10000 6.17 20 21:31 14.02.2021
2540 Clouds 18 1020 82 10000 5.66 360 20:55 14.02.2021
2541 Clouds 18 1020 82 10000 6.17 20 20:31 14.02.2021
2542 Clouds 18 1020 77 10000 6.17 20 19:50 14.02.2021
2543 Clear 18 1020 72 10000 7.2 30 19:31 14.02.2021
2544 Clear 19 1020 68 10000 7.2 30 18:42 14.02.2021
2545 Clear 19 1020 68 10000 7.2 30 18:42 14.02.2021
2546 Clear 19 1020 72 10000 6.69 30 18:21 14.02.2021
2547 Clear 19 1020 68 10000 6.69 30 17:40 14.02.2021
2548 Clouds 19 1020 68 10000 7.72 40 16:57 14.02.2021
2549 Clouds 19 1020 72 10000 7.72 30 16:38 14.02.2021
2550 Clouds 19 1020 72 10000 7.72 30 16:18 14.02.2021
2551 Clouds 19 1021 64 10000 8.75 30 15:41 14.02.2021
2552 Clouds 20 1021 68 10000 9.26 30 14:58 14.02.2021
2553 Clouds 19 1022 64 10000 9.26 30 14:29 14.02.2021
2554 Clouds 19 1022 64 10000 9.26 20 13:55 14.02.2021
2555 Clouds 19 1022 64 10000 9.77 30 13:31 14.02.2021
2556 Clouds 19 1022 64 10000 9.77 30 12:45 14.02.2021
2557 Clouds 18 1022 68 10000 9.26 20 12:21 14.02.2021
2558 Clouds 18 1022 68 10000 8.75 20 11:50 14.02.2021
2559 Clouds 18 1022 68 10000 9.26 10 11:22 14.02.2021
2560 Clouds 18 1022 72 10000 7.72 10 10:45 14.02.2021
2561 Clouds 17 1021 77 10000 6.69 360 09:57 14.02.2021
2562 Clouds 16 1021 77 10000 6.69 360 09:38 14.02.2021
2563 Clouds 16 1021 77 10000 6.69 360 09:20 14.02.2021
2564 Clouds 17 1021 82 10000 6.69 360 08:39 14.02.2021
2565 Clouds 16 1020 82 10000 7.2 360 07:56 14.02.2021
2566 Clouds 16 1020 82 10000 6.69 10 06:49 14.02.2021
2567 Clouds 17 1020 77 10000 7.72 10 05:41 14.02.2021
2568 Clouds 17 1021 72 10000 7.72 10 03:30 14.02.2021
2569 Clouds 17 1022 72 10000 7.72 360 01:54 14.02.2021
2570 Clouds 17 1022 72 10000 6.17 360 00:47 14.02.2021
2571 Clouds 17 1022 72 10000 6.69 10 00:22 14.02.2021
2572 Clouds 18 1022 68 10000 9.26 10 23:40 13.02.2021
2573 Clouds 18 1022 68 10000 9.26 10 23:20 13.02.2021
2574 Clouds 18 1022 72 10000 9.26 10 22:34 13.02.2021
2575 Clouds 18 1022 72 10000 9.26 10 21:59 13.02.2021
2576 Clouds 19 1022 68 10000 8.75 10 21:40 13.02.2021
2577 Clouds 18 1022 68 10000 7.72 10 20:52 13.02.2021
2578 Clouds 19 1021 63 10000 9.77 10 20:28 13.02.2021
2579 Clouds 19 1021 63 10000 9.77 10 20:28 13.02.2021
2580 Clouds 19 1021 68 10000 10.8 10 19:49 13.02.2021
2581 Clouds 19 1021 63 10000 10.29 10 19:25 13.02.2021
2582 Clouds 19 1021 64 10000 10.8 20 18:52 13.02.2021
2583 Clouds 20 1021 64 10000 10.8 20 18:33 13.02.2021
2584 Clouds 21 1021 60 10000 10.8 20 17:45 13.02.2021
2585 Clouds 20 1021 64 10000 12.35 20 17:26 13.02.2021
2586 Clouds 20 1021 64 10000 11.83 30 16:55 13.02.2021
2587 Clouds 21 1021 64 10000 11.83 30 16:37 13.02.2021
2588 Clouds 21 1022 60 10000 11.32 30 15:46 13.02.2021
2589 Clouds 21 1022 60 10000 11.83 30 15:26 13.02.2021
2590 Clouds 21 1022 60 10000 11.83 30 14:41 13.02.2021
2591 Clouds 21 1023 56 10000 10.29 20 13:54 13.02.2021
2592 Clouds 20 1024 64 10000 11.83 30 13:29 13.02.2021
2593 Clouds 21 1024 68 10000 11.83 30 12:57 13.02.2021
2594 Clouds 20 1024 64 10000 10.8 20 12:23 13.02.2021
2595 Clouds 20 1024 64 10000 10.8 20 12:23 13.02.2021
2596 Clouds 20 1023 64 10000 10.8 20 11:58 13.02.2021
2597 Clouds 20 1023 64 10000 9.77 10 11:39 13.02.2021
2598 Clouds 19 1023 64 10000 9.77 10 11:18 13.02.2021
2599 Clouds 19 1023 68 10000 8.75 10 10:43 13.02.2021
2600 Clouds 19 1023 68 10000 8.75 10 10:43 13.02.2021
2601 Clouds 18 1023 72 10000 8.23 360 10:22 13.02.2021
2602 Clouds 17 1023 72 10000 7.72 10 09:46 13.02.2021
2603 Clouds 17 1023 72 10000 6.17 360 09:28 13.02.2021
2604 Clouds 17 1022 72 10000 6.69 10 08:47 13.02.2021
2605 Clouds 17 1022 77 10000 6.69 10 08:18 13.02.2021
2606 Drizzle 17 1022 72 10000 6.69 360 06:59 13.02.2021
2607 Clouds 17 1022 72 10000 7.2 360 06:24 13.02.2021
2608 Clouds 17 1023 72 10000 8.75 360 04:31 13.02.2021
2609 Clouds 17 1023 77 10000 8.75 10 02:37 13.02.2021
2610 Clouds 18 1023 77 10000 8.23 360 00:54 13.02.2021
2611 Clouds 18 1023 77 10000 8.23 360 00:54 13.02.2021
2612 Clouds 18 1023 77 10000 8.23 360 00:18 13.02.2021
2613 Clouds 18 1023 77 10000 8.23 360 23:44 12.02.2021
2614 Clouds 18 1023 77 10000 7.2 360 23:18 12.02.2021
2615 Clouds 18 1023 82 10000 7.2 360 22:32 12.02.2021
2616 Drizzle 18 1023 82 10000 7.2 20 21:58 12.02.2021
2617 Drizzle 18 1023 82 10000 7.2 20 21:58 12.02.2021
2618 Clouds 19 1023 72 10000 7.2 360 21:38 12.02.2021
2619 Clouds 19 1023 72 10000 7.2 360 21:20 12.02.2021
2620 Clouds 19 1022 77 10000 8.23 360 20:40 12.02.2021
2621 Clouds 19 1022 77 10000 8.23 360 20:21 12.02.2021
2622 Clouds 19 1022 77 10000 8.75 10 19:49 12.02.2021
2623 Clouds 19 1022 72 10000 9.26 10 19:27 12.02.2021
2624 Clouds 21 1022 68 10000 9.26 10 18:32 12.02.2021
2625 Clouds 21 1022 64 10000 9.26 360 17:54 12.02.2021
2626 Clouds 21 1022 68 10000 9.26 10 17:35 12.02.2021
2627 Clouds 21 1022 64 10000 10.8 20 16:44 12.02.2021
2628 Clouds 21 1023 60 10000 9.26 20 15:49 12.02.2021
2629 Clouds 21 1023 60 10000 9.77 20 15:24 12.02.2021
2630 Clouds 21 1023 68 10000 9.77 20 14:59 12.02.2021
2631 Clouds 21 1023 64 10000 9.26 10 14:34 12.02.2021
2632 Clouds 21 1023 64 10000 9.26 20 13:47 12.02.2021
2633 Clouds 21 1024 64 10000 8.75 20 13:28 12.02.2021
2634 Clouds 21 1024 64 10000 8.75 20 12:53 12.02.2021
2635 Clouds 21 1024 64 10000 7.2 360 12:35 12.02.2021
2636 Clouds 20 1024 72 10000 7.2 360 11:47 12.02.2021
2637 Clouds 19 1024 72 10000 7.72 360 11:20 12.02.2021
2638 Clouds 18 1023 82 10000 5.66 10 10:47 12.02.2021
2639 Clouds 17 1023 77 10000 7.2 20 09:57 12.02.2021
2640 Clouds 17 1023 77 10000 5.66 20 09:39 12.02.2021
2641 Clouds 16 1023 77 10000 5.66 20 09:19 12.02.2021
2642 Clouds 16 1022 82 10000 5.66 350 08:40 12.02.2021
2643 Clouds 16 1022 82 10000 5.66 350 08:20 12.02.2021
2644 Clouds 16 1022 82 10000 6.17 340 07:51 12.02.2021
2645 Clouds 16 1022 82 10000 5.66 350 07:21 12.02.2021
2646 Clouds 16 1022 82 10000 5.66 350 06:18 12.02.2021
2647 Clouds 17 1022 77 10000 5.66 360 05:27 12.02.2021
2648 Clouds 17 1023 77 10000 6.69 20 01:59 12.02.2021
2649 Clouds 17 1023 77 10000 6.17 360 23:58 11.02.2021
2650 Clouds 18 1023 72 10000 7.2 360 23:23 11.02.2021
2651 Clouds 18 1023 77 10000 5.66 10 22:59 11.02.2021
2652 Clouds 18 1023 77 10000 5.66 10 22:41 11.02.2021
2653 Clouds 18 1022 72 10000 6.17 360 22:21 11.02.2021
2654 Clouds 18 1022 72 10000 5.14 360 21:42 11.02.2021
2655 Clouds 18 1022 72 10000 5.14 360 21:42 11.02.2021
2656 Clouds 19 1022 72 10000 5.14 360 21:23 11.02.2021
2657 Clouds 19 1022 68 10000 6.17 10 20:46 11.02.2021
2658 Clouds 20 1021 64 10000 5.14 10 20:23 11.02.2021
2659 Clouds 20 1021 56 10000 6.69 20 19:51 11.02.2021
2660 Clouds 19 1021 52 10000 7.2 10 19:33 11.02.2021
2661 Clouds 19 1021 60 10000 7.72 20 18:59 11.02.2021
2662 Clouds 20 1021 64 10000 8.23 30 18:31 11.02.2021
2663 Clouds 20 1021 60 10000 8.75 30 17:58 11.02.2021
2664 Clouds 20 1021 60 10000 10.8 40 17:37 11.02.2021
2665 Clouds 20 1021 60 10000 10.8 40 17:18 11.02.2021
2666 Clouds 20 1021 64 10000 9.26 40 16:41 11.02.2021
2667 Clouds 20 1021 68 10000 8.75 40 16:22 11.02.2021
2668 Clouds 20 1021 64 10000 7.72 40 15:44 11.02.2021
2669 Clouds 20 1022 60 10000 7.2 40 15:26 11.02.2021
2670 Clouds 20 1022 64 10000 6.69 40 14:47 11.02.2021
2671 Clouds 20 1022 64 10000 7.72 40 14:29 11.02.2021
2672 Clouds 20 1022 60 10000 6.69 40 13:41 11.02.2021
2673 Clouds 20 1023 68 10000 6.17 50 13:19 11.02.2021
2674 Clouds 20 1023 64 10000 6.17 50 12:51 11.02.2021
2675 Clouds 20 1023 56 10000 5.66 40 12:28 11.02.2021
2676 Clouds 19 1023 60 10000 5.66 30 11:46 11.02.2021
2677 Clouds 19 1022 60 10000 3.6 40 11:25 11.02.2021
2678 Clouds 18 1022 59 10000 1.54 30 10:45 11.02.2021
2679 Clouds 18 1022 59 10000 1.54 30 10:45 11.02.2021
2680 Clouds 17 1022 67 10000 2.06 50 10:26 11.02.2021
2681 Clouds 16 1022 72 10000 3 3 09:54 11.02.2021
2682 Clouds 15 1022 77 10000 2.06 330 09:23 11.02.2021
2683 Clouds 15 1021 72 10000 1.54 310 08:53 11.02.2021
2684 Clouds 15 1021 72 10000 2.06 300 08:24 11.02.2021
2685 Clouds 15 1021 72 10000 2.85 350 07:30 11.02.2021
2686 Clouds 15 1021 77 10000 2.06 20 06:40 11.02.2021
2687 Clear 15 1021 72 10000 1.54 320 04:58 11.02.2021
2688 Clouds 16 1022 77 10000 3.09 310 02:29 11.02.2021
2689 Clouds 17 1022 77 10000 3.09 310 00:54 11.02.2021
2690 Clouds 17 1022 77 10000 3.09 300 00:21 11.02.2021
2691 Clouds 17 1022 77 10000 3.09 310 23:44 10.02.2021
2692 Clouds 17 1022 82 10000 3.09 340 22:53 10.02.2021
2693 Clouds 17 1022 82 10000 3.09 340 22:53 10.02.2021
2694 Clouds 18 1022 77 10000 3.09 350 22:29 10.02.2021
2695 Clouds 18 1021 77 10000 2.06 360 21:59 10.02.2021
2696 Clouds 18 1021 82 10000 3.09 20 21:38 10.02.2021
2697 Clouds 18 1021 82 10000 3.09 20 21:19 10.02.2021
2698 Clouds 18 1021 72 10000 4.12 20 20:40 10.02.2021
2699 Clouds 19 1021 77 10000 4.63 30 20:22 10.02.2021
2700 Clouds 19 1020 72 10000 4.63 30 19:45 10.02.2021
2701 Clouds 19 1020 68 10000 4.63 30 19:24 10.02.2021
2702 Clouds 20 1020 72 10000 4.12 40 18:42 10.02.2021
2703 Clouds 20 1020 73 10000 3.6 40 18:22 10.02.2021
2704 Clouds 20 1020 73 10000 3.09 50 17:55 10.02.2021
2705 Clouds 20 1020 72 10000 2.57 70 17:24 10.02.2021
2706 Clouds 20 1020 72 10000 2.57 70 17:24 10.02.2021
2707 Clouds 20 1020 73 10000 3.09 60 16:53 10.02.2021
2708 Clouds 20 1020 73 10000 3.09 50 16:31 10.02.2021
2709 Clouds 20 1021 68 10000 3.09 60 15:55 10.02.2021
2710 Clouds 19 1021 68 10000 3.6 30 15:23 10.02.2021
2711 Clouds 19 1022 68 10000 4.12 50 14:47 10.02.2021
2712 Clouds 20 1022 73 10000 4.63 70 14:29 10.02.2021
2713 Clouds 20 1022 73 10000 4.63 70 13:52 10.02.2021
2714 Clouds 20 1022 73 10000 4.63 60 13:28 10.02.2021
2715 Clouds 20 1022 68 10000 3.6 60 12:50 10.02.2021
2716 Clouds 20 1022 60 10000 3.6 40 12:30 10.02.2021
2717 Clouds 19 1022 64 10000 3.6 50 11:54 10.02.2021
2718 Clouds 19 1022 68 10000 2.06 70 11:36 10.02.2021
2719 Clouds 19 1022 68 10000 2.06 70 11:18 10.02.2021
2720 Clouds 17 1022 68 10000 1.03 0 10:22 10.02.2021
2721 Clouds 16 1022 77 10000 2.06 300 09:45 10.02.2021
2722 Clouds 15 1021 77 10000 2.57 300 09:26 10.02.2021
2723 Clouds 15 1021 82 10000 2.57 280 08:51 10.02.2021
2724 Clouds 15 1021 77 10000 3.09 260 08:30 10.02.2021
2725 Clear 15 1020 77 10000 2.57 270 07:25 10.02.2021
2726 Clouds 15 1021 77 10000 2.06 300 05:40 10.02.2021
2727 Clear 16 1022 72 10000 1.54 310 01:21 10.02.2021
2728 Clouds 16 1022 77 10000 0.51 0 23:45 09.02.2021
2729 Clouds 17 1022 72 10000 2.57 290 23:27 09.02.2021
2730 Clouds 17 1021 72 10000 1.03 0 22:42 09.02.2021
2731 Clouds 17 1021 72 10000 1.54 310 22:23 09.02.2021
2732 Clouds 18 1021 72 10000 2.06 320 21:47 09.02.2021
2733 Clouds 18 1020 68 10000 3.09 20 21:21 09.02.2021
2734 Clouds 18 1020 68 10000 3.6 10 20:43 09.02.2021
2735 Clouds 19 1020 63 10000 3.6 10 20:24 09.02.2021
2736 Clouds 19 1020 60 10000 4.63 30 19:44 09.02.2021
2737 Clouds 19 1020 64 10000 5.14 40 19:22 09.02.2021
2738 Clouds 19 1020 64 10000 3.09 60 18:44 09.02.2021
2739 Clouds 19 1020 64 10000 1.54 80 18:26 09.02.2021
2740 Clouds 20 1020 64 10000 2.06 110 17:49 09.02.2021
2741 Clouds 20 1020 60 10000 2.57 140 17:27 09.02.2021
2742 Clouds 20 1020 64 10000 2.57 130 16:53 09.02.2021
2743 Clouds 20 1020 60 10000 2.57 120 16:20 09.02.2021
2744 Clouds 20 1020 60 10000 2.57 80 15:51 09.02.2021
2745 Clouds 20 1021 56 10000 3.09 70 15:31 09.02.2021
2746 Clouds 21 1021 52 10000 4.12 50 14:59 09.02.2021
2747 Clouds 20 1022 56 10000 4.63 50 14:36 09.02.2021
2748 Clouds 20 1022 56 10000 4.63 50 14:18 09.02.2021
2749 Clouds 21 1022 60 10000 4.12 30 13:40 09.02.2021
2750 Clouds 20 1022 60 10000 4.12 30 13:20 09.02.2021
2751 Clouds 20 1022 52 10000 1.03 0 12:43 09.02.2021
2752 Clouds 20 1023 56 10000 3.6 250 12:23 09.02.2021
2753 Clouds 19 1022 56 10000 3.6 340 11:44 09.02.2021
2754 Clouds 19 1022 59 10000 2.06 360 11:21 09.02.2021
2755 Clouds 19 1022 59 10000 1.54 320 10:56 09.02.2021
2756 Clouds 17 1022 67 10000 1.54 260 10:20 09.02.2021
2757 Clouds 17 1022 67 10000 1.54 0 09:51 09.02.2021
2758 Clouds 16 1022 67 10000 3.6 300 09:26 09.02.2021
2759 Clouds 16 1021 72 10000 2.57 290 08:54 09.02.2021
2760 Clouds 16 1021 72 10000 3.09 320 08:28 09.02.2021
2761 Clouds 16 1021 72 10000 2.57 300 07:41 09.02.2021
2762 Clouds 15 1020 72 10000 2.57 280 05:33 09.02.2021
2763 Clouds 16 1021 67 10000 3.09 300 03:47 09.02.2021
2764 Clouds 17 1022 67 10000 1.54 330 01:50 09.02.2021
2765 Clouds 18 1022 63 10000 5.66 360 00:18 09.02.2021
2766 Clouds 17 1022 72 10000 3.09 320 23:23 08.02.2021
2767 Clouds 17 1022 77 10000 3.09 340 22:59 08.02.2021
2768 Clouds 18 1022 72 10000 4.12 10 22:39 08.02.2021
2769 Clouds 18 1022 72 10000 4.12 10 22:21 08.02.2021
2770 Clouds 18 1021 72 10000 5.66 10 21:39 08.02.2021
2771 Clouds 18 1021 72 10000 5.66 10 21:20 08.02.2021
2772 Clouds 18 1021 68 10000 6.17 360 20:44 08.02.2021
2773 Clouds 18 1021 68 10000 4.12 360 20:23 08.02.2021
2774 Clouds 18 1020 68 10000 4.63 20 19:49 08.02.2021
2775 Clouds 18 1020 68 10000 6.17 30 19:30 08.02.2021
2776 Clouds 19 1020 68 10000 6.17 30 18:50 08.02.2021
2777 Clouds 19 1020 68 10000 6.69 40 18:25 08.02.2021
2778 Clouds 19 1020 68 10000 6.69 40 17:59 08.02.2021
2779 Clouds 19 1020 68 10000 6.69 40 17:41 08.02.2021
2780 Clouds 19 1020 64 10000 6.69 40 17:21 08.02.2021
2781 Clouds 19 1020 60 10000 7.2 40 16:40 08.02.2021
2782 Clouds 19 1020 60 10000 7.2 40 16:20 08.02.2021
2783 Clouds 20 1021 60 10000 8.75 40 15:38 08.02.2021
2784 Clouds 20 1021 60 10000 8.75 40 15:18 08.02.2021
2785 Clouds 19 1021 64 10000 8.75 20 14:50 08.02.2021
2786 Clouds 19 1022 64 10000 9.26 30 14:28 08.02.2021
2787 Clouds 19 1022 68 10000 7.2 40 13:49 08.02.2021
2788 Clouds 18 1023 64 10000 7.2 40 13:28 08.02.2021
2789 Clouds 19 1023 60 10000 5.66 30 12:42 08.02.2021
2790 Clouds 18 1023 63 10000 5.66 20 12:24 08.02.2021
2791 Clouds 18 1023 68 10000 4.63 10 11:39 08.02.2021
2792 Clouds 18 1023 68 10000 3.6 360 10:47 08.02.2021
2793 Clouds 13 1023 67 10000 3.6 350 10:26 08.02.2021
2794 Clouds 13 1022 67 10000 3.09 350 09:59 08.02.2021
2795 Clouds 16 1022 72 10000 3.09 310 09:36 08.02.2021
2796 Clouds 13 1022 72 10000 3.09 330 08:57 08.02.2021
2797 Clouds 13 1022 67 10000 3.6 360 08:27 08.02.2021
2798 Clouds 13 1021 72 10000 2.06 340 07:47 08.02.2021
2799 Clouds 13 1021 72 10000 2.57 320 06:39 08.02.2021
2800 Clouds 16 1021 72 10000 3.09 320 05:18 08.02.2021
2801 Clouds 17 1022 67 10000 4.63 350 02:27 08.02.2021
2802 Clouds 16 1023 77 10000 3.6 350 00:26 08.02.2021
2803 Clouds 16 1022 77 10000 4.63 360 23:55 07.02.2021
2804 Clouds 17 1022 72 10000 4.12 360 23:30 07.02.2021
2805 Clouds 17 1022 72 10000 3.6 350 22:59 07.02.2021
2806 Clouds 17 1022 72 10000 3.6 350 22:41 07.02.2021
2807 Clouds 17 1022 72 10000 3.6 350 22:41 07.02.2021
2808 Clouds 17 1022 72 10000 4.12 350 22:22 07.02.2021
2809 Clouds 17 1022 68 10000 4.63 360 21:50 07.02.2021
2810 Clouds 17 1022 68 10000 4.63 360 21:25 07.02.2021
2811 Clouds 18 1022 68 10000 5.66 20 20:51 07.02.2021
2812 Clouds 18 1021 68 10000 6.17 20 20:32 07.02.2021
2813 Clouds 18 1021 68 10000 6.69 20 19:54 07.02.2021
2814 Clouds 18 1021 68 10000 8.23 20 19:29 07.02.2021
2815 Clouds 18 1021 59 10000 8.75 20 18:51 07.02.2021
2816 Clouds 18 1021 59 10000 8.75 30 18:31 07.02.2021
2817 Clouds 18 1021 63 10000 8.23 30 17:58 07.02.2021
2818 Clouds 18 1021 59 10000 9.26 20 17:40 07.02.2021
2819 Clouds 18 1021 59 10000 9.26 20 17:18 07.02.2021
2820 Clouds 18 1021 55 10000 9.77 20 16:43 07.02.2021
2821 Clouds 19 1021 56 10000 10.29 30 16:22 07.02.2021
2822 Clouds 19 1021 56 10000 10.29 30 15:46 07.02.2021
2823 Clouds 19 1022 60 10000 10.8 30 15:27 07.02.2021
2824 Clouds 19 1022 56 10000 9.77 30 14:47 07.02.2021
2825 Clouds 19 1022 56 10000 8.75 40 14:29 07.02.2021
2826 Clouds 19 1023 59 10000 7.72 40 13:52 07.02.2021
2827 Clouds 19 1023 63 10000 7.72 30 13:33 07.02.2021
2828 Clouds 19 1023 63 10000 5.14 20 12:44 07.02.2021
2829 Clouds 18 1024 68 10000 4.63 20 12:22 07.02.2021
2830 Clouds 18 1024 63 10000 5.14 10 11:49 07.02.2021
2831 Clouds 18 1023 63 10000 4.63 350 11:27 07.02.2021
2832 Clouds 17 1023 67 10000 4.12 340 10:49 07.02.2021
2833 Clouds 17 1023 67 10000 4.12 340 10:49 07.02.2021
2834 Clouds 16 1023 67 10000 4.12 340 10:25 07.02.2021
2835 Clouds 16 1022 67 10000 3.09 300 09:48 07.02.2021
2836 Clouds 13 1022 67 10000 3.6 310 09:21 07.02.2021
2837 Clouds 16 1022 67 10000 3.6 310 08:26 07.02.2021
2838 Clouds 16 1021 72 10000 3.6 340 07:32 07.02.2021
2839 Clouds 13 1021 77 10000 4.63 330 05:57 07.02.2021
2840 Clouds 16 1021 72 10000 2.57 330 03:52 07.02.2021
2841 Clouds 16 1021 67 10000 6.17 340 01:37 07.02.2021
2842 Clouds 16 1021 72 10000 8.23 340 00:36 07.02.2021
2843 Clouds 16 1021 82 10000 6.69 350 23:46 06.02.2021
2844 Clouds 16 1021 82 10000 3.09 340 22:42 06.02.2021
2845 Clouds 16 1020 72 10000 5.66 360 21:43 06.02.2021
2846 Clouds 16 1020 67 10000 5.14 340 21:23 06.02.2021
2847 Clouds 17 1019 63 10000 6.17 350 20:52 06.02.2021
2848 Clouds 17 1019 63 10000 4.12 340 20:26 06.02.2021
2849 Clouds 17 1019 63 10000 5.66 340 19:57 06.02.2021
2850 Clouds 18 1019 55 10000 7.2 330 19:34 06.02.2021
2851 Clouds 18 1019 52 10000 6.69 330 18:54 06.02.2021
2852 Clouds 18 1018 59 10000 7.2 340 18:34 06.02.2021
2853 Clouds 18 1018 72 10000 7.2 340 17:56 06.02.2021
2854 Clouds 18 1018 59 10000 6.69 330 17:38 06.02.2021
2855 Clouds 18 1018 59 10000 6.69 330 17:19 06.02.2021
2856 Clouds 18 1018 59 10000 8.23 350 16:41 06.02.2021
2857 Clouds 19 1018 59 10000 8.75 350 16:23 06.02.2021
2858 Clouds 19 1018 59 10000 7.72 330 15:48 06.02.2021
2859 Clouds 20 1018 52 10000 6.17 320 15:25 06.02.2021
2860 Clouds 18 1019 55 10000 7.72 330 14:45 06.02.2021
2861 Clouds 18 1019 63 10000 6.69 340 14:27 06.02.2021
2862 Clouds 18 1019 52 10000 8.75 340 13:51 06.02.2021
2863 Clouds 17 1019 67 10000 7.2 340 13:32 06.02.2021
2864 Clouds 14 1019 63 10000 5.66 330 12:23 06.02.2021
2865 Clouds 17 1019 67 10000 3.6 360 11:57 06.02.2021
2866 Clouds 16 1019 77 10000 4.63 360 11:38 06.02.2021
2867 Clouds 16 1019 77 10000 4.63 360 11:19 06.02.2021
2868 Clouds 13 1018 63 10000 3.6 360 10:42 06.02.2021
2869 Clouds 13 1018 63 10000 4.63 330 10:23 06.02.2021
2870 Clouds 11 1017 71 10000 5.14 320 09:37 06.02.2021
2871 Clouds 11 1017 71 10000 5.14 320 09:18 06.02.2021
2872 Clouds 14 1017 72 10000 5.66 340 08:49 06.02.2021
2873 Clouds 14 1017 67 10000 3.09 330 08:23 06.02.2021
2874 Clouds 14 1016 62 10000 1.54 290 06:29 06.02.2021
2875 Clouds 13 1016 76 10000 1.03 0 04:37 06.02.2021
2876 Clouds 12 1017 72 10000 1.54 330 02:34 06.02.2021
2877 Clouds 12 1016 76 10000 5.66 330 00:48 06.02.2021
2878 Clouds 14 1016 82 10000 5.14 360 00:20 06.02.2021
2879 Clouds 15 1016 72 10000 4.63 330 23:46 05.02.2021
2880 Clouds 12 1015 72 10000 5.66 350 23:26 05.02.2021
2881 Clouds 12 1015 72 10000 5.66 330 22:47 05.02.2021
2882 Clouds 12 1015 67 10000 6.69 340 22:23 05.02.2021
2883 Clouds 15 1015 67 10000 6.17 340 21:49 05.02.2021
2884 Clouds 12 1014 62 10000 5.14 350 21:28 05.02.2021
2885 Clouds 15 1014 67 10000 5.66 330 20:48 05.02.2021
2886 Clouds 13 1013 63 10000 6.17 350 19:53 05.02.2021
2887 Clouds 15 1013 63 10000 6.17 340 19:22 05.02.2021
2888 Clouds 15 1013 63 10000 6.17 340 19:22 05.02.2021
2889 Clouds 16 1012 67 10000 6.17 350 18:54 05.02.2021
2890 Clouds 16 1012 67 10000 7.72 340 18:28 05.02.2021
2891 Clouds 12 1012 72 10000 7.2 360 17:48 05.02.2021
2892 Clouds 13 1011 77 10000 6.17 330 17:27 05.02.2021
2893 Clouds 14 1012 72 9000 6.69 340 16:57 05.02.2021
2894 Clouds 14 1012 76 8000 9.26 320 16:37 05.02.2021
2895 Clouds 13 1012 76 8000 9.26 320 16:19 05.02.2021
2896 Clouds 18 1011 59 10000 7.72 360 15:29 05.02.2021
2897 Clouds 17 1012 59 10000 6.17 350 14:57 05.02.2021
2898 Clouds 16 1012 67 10000 9.77 330 14:37 05.02.2021
2899 Clouds 17 1012 67 10000 9.77 330 14:18 05.02.2021
2900 Clouds 17 1012 77 10000 8.23 330 13:39 05.02.2021
2901 Clouds 16 1012 77 10000 8.23 330 13:19 05.02.2021
2902 Clouds 17 1012 72 10000 9.77 340 12:41 05.02.2021
2903 Clouds 17 1012 72 10000 9.77 340 12:41 05.02.2021
2904 Clouds 17 1011 48 10000 8.75 340 11:58 05.02.2021
2905 Clouds 13 1011 45 10000 7.72 350 11:37 05.02.2021
2906 Clouds 17 1011 45 10000 7.72 350 11:19 05.02.2021
2907 Clouds 16 1010 55 10000 5.66 10 10:43 05.02.2021
2908 Clouds 12 1010 58 10000 6.69 340 10:22 05.02.2021
2909 Clouds 11 1010 62 10000 6.69 360 09:42 05.02.2021
2910 Clouds 11 1010 58 10000 3.6 340 09:22 05.02.2021
2911 Clouds 11 1009 67 10000 6.69 330 08:37 05.02.2021
2912 Clouds 13 1009 76 10000 5.14 20 07:40 05.02.2021
2913 Clouds 12 1009 71 10000 5.14 10 07:19 05.02.2021
2914 Clouds 13 1009 62 10000 4.12 340 05:40 05.02.2021
2915 Clouds 14 1009 58 10000 4.12 330 04:59 05.02.2021
2916 Clouds 13 1009 55 10000 5.14 300 02:25 05.02.2021
2917 Clouds 12 1010 72 10000 3.09 310 00:44 05.02.2021
2918 Clouds 15 1010 63 10000 5.66 300 00:21 05.02.2021
2919 Clouds 16 1010 72 10000 5.14 330 23:59 04.02.2021
2920 Clouds 13 1010 72 10000 2.57 300 23:40 04.02.2021
2921 Clouds 12 1010 72 10000 2.57 300 23:22 04.02.2021
2922 Clouds 13 1010 67 10000 5.66 310 22:52 04.02.2021
2923 Clouds 16 1010 63 10000 4.12 330 22:30 04.02.2021
2924 Clouds 13 1010 63 10000 3.6 340 21:43 04.02.2021
2925 Clouds 13 1009 67 10000 4.12 350 21:23 04.02.2021
2926 Clouds 15 1009 67 10000 7.2 340 20:56 04.02.2021
2927 Clouds 13 1009 72 10000 6.69 360 20:34 04.02.2021
2928 Clouds 13 1009 82 10000 8.23 360 19:51 04.02.2021
2929 Clouds 17 1009 77 10000 3.09 70 19:23 04.02.2021
2930 Clouds 18 1010 72 10000 4.12 20 18:40 04.02.2021
2931 Clouds 14 1010 72 10000 4.12 20 18:21 04.02.2021
2932 Clouds 18 1010 77 10000 7.72 20 17:45 04.02.2021
2933 Clouds 19 1010 67 10000 5.14 20 17:21 04.02.2021
2934 Clouds 19 1010 68 10000 5.14 10 16:48 04.02.2021
2935 Clouds 19 1010 68 10000 4.63 20 16:19 04.02.2021
2936 Clouds 16 1010 77 10000 3.6 30 15:41 04.02.2021
2937 Clouds 19 1011 82 10000 3.09 30 15:21 04.02.2021
2938 Clouds 15 1011 82 10000 4.12 30 14:56 04.02.2021
2939 Clouds 15 1012 82 10000 3.6 10 14:37 04.02.2021
2940 Clouds 18 1012 82 10000 3.6 10 14:19 04.02.2021
2941 Clouds 18 1013 77 10000 5.66 360 13:41 04.02.2021
2942 Clouds 15 1014 72 10000 5.14 350 12:57 04.02.2021
2943 Clouds 15 1014 63 10000 7.2 350 12:27 04.02.2021
2944 Clouds 15 1013 63 10000 5.66 10 11:53 04.02.2021
2945 Clouds 14 1014 82 10000 6.69 30 11:32 04.02.2021
2946 Clouds 14 1013 77 10000 6.17 350 10:45 04.02.2021
2947 Clouds 14 1013 77 10000 3.6 20 10:18 04.02.2021
2948 Clouds 15 1013 72 10000 1.54 350 09:43 04.02.2021
2949 Clouds 16 1013 72 10000 1.03 0 09:19 04.02.2021
2950 Clouds 16 1013 63 10000 2.06 300 08:41 04.02.2021
2951 Clouds 16 1013 72 10000 2.06 310 08:20 04.02.2021
2952 Clouds 14 1013 77 10000 1.54 320 07:42 04.02.2021
2953 Clouds 14 1013 67 10000 1.03 340 06:55 04.02.2021
2954 Clouds 14 1013 67 10000 0.51 0 06:37 04.02.2021
2955 Clouds 15 1015 67 10000 3.09 320 03:54 04.02.2021
2956 Clouds 16 1015 72 10000 2.06 310 02:26 04.02.2021
2957 Clouds 17 1016 72 10000 2.57 320 00:48 04.02.2021
2958 Clouds 17 1016 72 10000 5.14 360 23:40 03.02.2021
2959 Clouds 18 1016 68 10000 6.17 360 22:50 03.02.2021
2960 Clouds 18 1016 68 10000 7.2 10 22:23 03.02.2021
2961 Clouds 18 1016 68 10000 5.66 360 21:59 03.02.2021
2962 Clouds 18 1016 68 10000 5.66 360 21:40 03.02.2021
2963 Clouds 18 1016 72 10000 5.66 10 21:20 03.02.2021
2964 Clouds 18 1016 72 10000 4.63 360 20:46 03.02.2021
2965 Clouds 18 1016 72 10000 5.14 20 20:26 03.02.2021
2966 Clouds 18 1016 68 10000 6.17 20 19:46 03.02.2021
2967 Clouds 19 1016 72 10000 7.72 30 19:23 03.02.2021
2968 Clouds 19 1016 64 10000 7.72 30 18:49 03.02.2021
2969 Clouds 19 1016 68 10000 8.23 40 18:21 03.02.2021
2970 Clouds 19 1016 68 10000 8.23 40 17:53 03.02.2021
2971 Clouds 20 1017 68 10000 7.72 40 17:33 03.02.2021
2972 Clouds 20 1017 68 10000 6.69 40 16:59 03.02.2021
2973 Clouds 21 1017 64 10000 5.66 40 16:35 03.02.2021
2974 Clouds 20 1017 68 10000 5.14 50 15:50 03.02.2021
2975 Clouds 20 1017 68 10000 5.14 50 15:30 03.02.2021
2976 Clouds 20 1018 68 10000 5.66 40 14:54 03.02.2021
2977 Clouds 20 1018 68 10000 5.66 40 14:54 03.02.2021
2978 Clouds 20 1018 68 10000 5.14 40 14:30 03.02.2021
2979 Clouds 20 1019 68 10000 4.12 50 13:56 03.02.2021
2980 Clouds 20 1019 68 10000 4.12 40 13:29 03.02.2021
2981 Clouds 20 1019 72 10000 2.06 80 12:55 03.02.2021
2982 Clouds 19 1019 72 10000 2.57 40 12:36 03.02.2021
2983 Clouds 20 1019 72 10000 2.57 40 12:18 03.02.2021
2984 Clouds 18 1019 72 10000 3.09 350 11:38 03.02.2021
2985 Clouds 18 1019 72 10000 3.6 340 10:59 03.02.2021
2986 Clouds 17 1019 77 10000 3.6 330 10:23 03.02.2021
2987 Clouds 17 1018 77 10000 4.12 320 09:51 03.02.2021
2988 Clouds 16 1018 82 10000 4.63 340 09:32 03.02.2021
2989 Clouds 17 1018 77 10000 4.63 340 08:54 03.02.2021
2990 Clouds 17 1018 77 10000 4.63 340 08:54 03.02.2021
2991 Clouds 16 1018 82 10000 4.63 340 08:35 03.02.2021
2992 Clouds 16 1018 82 10000 4.63 340 07:42 03.02.2021
2993 Clouds 16 1018 82 10000 5.14 340 06:42 03.02.2021
2994 Clouds 16 1019 82 10000 4.63 360 04:55 03.02.2021
2995 Clouds 16 1019 82 10000 6.17 350 04:34 03.02.2021
2996 Clouds 16 1019 82 10000 3.6 340 03:40 03.02.2021
2997 Clouds 17 1020 77 10000 4.12 350 02:37 03.02.2021
2998 Clouds 18 1020 72 10000 6.69 10 01:20 03.02.2021
2999 Clouds 18 1020 77 10000 7.2 20 00:20 03.02.2021
3000 Clouds 18 1020 77 10000 5.14 10 23:40 02.02.2021
3001 Clouds 18 1020 82 10000 5.14 10 23:22 02.02.2021
3002 Clouds 18 1020 82 10000 4.12 10 22:37 02.02.2021
3003 Clouds 18 1020 82 10000 4.12 10 22:18 02.02.2021
3004 Clouds 18 1019 82 10000 5.66 20 21:40 02.02.2021
3005 Clouds 18 1019 82 10000 5.66 20 21:21 02.02.2021
3006 Clouds 18 1019 82 10000 5.14 30 20:47 02.02.2021
3007 Clouds 18 1019 82 10000 6.17 20 20:21 02.02.2021
3008 Clouds 19 1019 77 10000 5.66 30 19:48 02.02.2021
3009 Clouds 19 1019 77 10000 5.14 30 19:30 02.02.2021
3010 Clouds 19 1019 77 10000 5.14 30 19:30 02.02.2021
3011 Clouds 19 1019 77 10000 5.14 30 19:30 02.02.2021
3012 Clouds 20 1018 77 10000 4.63 30 18:46 02.02.2021
3013 Clouds 20 1018 73 10000 4.63 30 18:26 02.02.2021
3014 Clouds 20 1018 73 10000 4.63 30 18:26 02.02.2021
3015 Clouds 21 1018 73 10000 4.12 60 17:52 02.02.2021
3016 Clouds 20 1018 73 10000 4.12 60 17:24 02.02.2021
3017 Clouds 21 1018 73 10000 4.12 60 16:58 02.02.2021
3018 Clouds 20 1018 73 10000 4.12 50 16:38 02.02.2021
3019 Clouds 20 1018 73 10000 4.12 50 16:18 02.02.2021
3020 Clouds 20 1019 73 10000 4.12 60 15:42 02.02.2021
3021 Clouds 20 1019 73 10000 4.12 60 15:21 02.02.2021
3022 Clouds 20 1019 73 10000 4.12 70 14:41 02.02.2021
3023 Clouds 20 1020 73 10000 4.12 70 14:20 02.02.2021
3024 Clouds 20 1020 73 10000 4.12 70 13:54 02.02.2021
3025 Clouds 20 1021 77 10000 3.09 70 13:36 02.02.2021
3026 Clouds 20 1021 77 10000 3.09 70 13:18 02.02.2021
3027 Clouds 19 1021 72 10000 5.14 40 12:31 02.02.2021
3028 Clouds 19 1021 77 10000 4.12 40 11:44 02.02.2021
3029 Clouds 18 1021 77 10000 5.14 20 11:22 02.02.2021
3030 Clouds 18 1021 77 10000 3.6 350 10:55 02.02.2021
3031 Clouds 18 1020 77 10000 4.12 360 10:27 02.02.2021
3032 Clouds 17 1020 82 10000 5.14 360 09:46 02.02.2021
3033 Clouds 17 1020 82 10000 5.66 360 09:25 02.02.2021
3034 Clouds 17 1020 82 10000 5.66 360 08:48 02.02.2021
3035 Clouds 17 1020 82 10000 4.12 360 08:22 02.02.2021
3036 Clouds 17 1019 82 10000 6.17 10 07:28 02.02.2021
3037 Clouds 17 1019 82 10000 6.69 360 06:42 02.02.2021
3038 Clouds 17 1020 82 10000 5.14 10 05:52 02.02.2021
3039 Clouds 18 1020 88 10000 7.2 360 04:37 02.02.2021
3040 Clouds 18 1021 82 10000 7.72 20 02:25 02.02.2021
3041 Clouds 18 1021 82 10000 7.2 10 01:28 02.02.2021
3042 Clouds 18 1021 82 10000 8.23 10 00:31 02.02.2021
3043 Clouds 19 1021 77 10000 9.26 20 23:19 01.02.2021
3044 Clouds 19 1021 77 10000 9.26 20 22:43 01.02.2021
3045 Clouds 19 1021 77 10000 9.26 20 22:24 01.02.2021
3046 Clouds 20 1020 77 10000 9.26 20 21:48 01.02.2021
3047 Clouds 20 1020 82 10000 9.26 20 21:27 01.02.2021
3048 Clouds 20 1020 77 10000 9.77 20 20:47 01.02.2021
3049 Clouds 19 1020 82 10000 8.75 20 20:25 01.02.2021
3050 Clouds 20 1019 77 10000 9.26 20 19:55 01.02.2021
3051 Clouds 21 1019 77 10000 9.77 20 19:37 01.02.2021
3052 Clouds 21 1019 77 10000 9.77 20 19:18 01.02.2021
3053 Clouds 22 1019 73 10000 9.26 20 18:41 01.02.2021
3054 Clouds 22 1019 64 10000 9.77 20 18:22 01.02.2021
3055 Clouds 23 1019 60 10000 10.8 10 17:45 01.02.2021
3056 Clouds 23 1019 56 10000 9.77 20 17:22 01.02.2021
3057 Clouds 23 1020 53 10000 9.77 20 16:42 01.02.2021
3058 Clouds 23 1020 53 10000 9.77 20 16:42 01.02.2021
3059 Clouds 23 1020 56 10000 9.26 20 16:22 01.02.2021
3060 Clouds 24 1020 43 10000 8.23 10 15:41 01.02.2021
3061 Clouds 24 1020 46 10000 8.75 20 15:19 01.02.2021
3062 Clouds 25 1021 41 10000 8.75 20 14:51 01.02.2021
3063 Clouds 24 1021 43 10000 7.72 10 14:23 01.02.2021
3064 Clouds 23 1021 41 10000 8.23 350 13:44 01.02.2021
3065 Clouds 22 1022 49 10000 8.75 10 13:25 01.02.2021
3066 Clouds 22 1022 60 10000 7.72 20 12:44 01.02.2021
3067 Clouds 22 1022 56 10000 9.77 30 12:25 01.02.2021
3068 Clouds 23 1022 56 10000 8.75 20 11:43 01.02.2021
3069 Clouds 23 1022 49 10000 8.75 360 11:21 01.02.2021
3070 Clouds 22 1022 53 10000 9.26 10 10:47 01.02.2021
3071 Clouds 20 1021 49 10000 8.23 360 10:21 01.02.2021
3072 Clouds 20 1021 56 10000 8.75 360 09:51 01.02.2021
3073 Clouds 19 1021 63 10000 8.23 10 09:25 01.02.2021
3074 Clouds 19 1021 56 10000 10.29 10 08:56 01.02.2021
3075 Clouds 19 1020 52 10000 9.26 10 08:24 01.02.2021
3076 Clouds 21 1021 46 10000 7.72 10 06:58 01.02.2021
3077 Clouds 20 1022 52 10000 8.75 360 04:32 01.02.2021
3078 Clouds 19 1023 63 10000 8.23 10 02:39 01.02.2021
3079 Clouds 19 1022 68 10000 10.8 10 23:57 31.01.2021
3080 Clouds 18 1022 72 10000 10.29 10 22:56 31.01.2021
3081 Clouds 18 1022 77 10000 10.8 10 22:37 31.01.2021
3082 Clouds 18 1022 77 10000 10.8 10 22:18 31.01.2021
3083 Clouds 18 1022 77 10000 10.8 10 21:46 31.01.2021
3084 Clouds 18 1022 77 10000 11.32 10 21:19 31.01.2021
3085 Clouds 19 1022 77 10000 11.32 10 20:42 31.01.2021
3086 Clouds 19 1022 72 10000 11.83 10 20:20 31.01.2021
3087 Clouds 20 1021 68 10000 12.35 20 19:38 31.01.2021
3088 Clouds 21 1021 68 10000 12.35 20 19:19 31.01.2021
3089 Clouds 21 1021 68 10000 12.35 20 18:47 31.01.2021
3090 Clouds 21 1021 60 10000 13.38 10 18:25 31.01.2021
3091 Clouds 21 1021 56 10000 12.86 10 17:57 31.01.2021
3092 Clouds 22 1021 56 10000 14.4 20 17:38 31.01.2021
3093 Clouds 22 1021 56 10000 14.4 20 17:19 31.01.2021
3094 Clouds 22 1021 56 10000 14.4 20 17:19 31.01.2021
3095 Clouds 22 1021 60 10000 14.4 20 16:41 31.01.2021
3096 Clouds 22 1022 49 10000 13.38 20 16:20 31.01.2021
3097 Clouds 22 1022 53 10000 12.86 10 15:48 31.01.2021
3098 Clouds 22 1023 56 10000 12.86 10 15:18 31.01.2021
3099 Clouds 22 1024 60 10000 12.86 20 14:36 31.01.2021
3100 Clouds 22 1024 60 10000 12.86 20 14:18 31.01.2021
3101 Clouds 22 1025 56 10000 11.83 10 13:39 31.01.2021
3102 Clouds 21 1025 56 10000 11.83 10 13:18 31.01.2021
3103 Clouds 21 1025 64 10000 10.8 10 12:45 31.01.2021
3104 Clouds 21 1025 64 10000 11.83 10 12:20 31.01.2021
3105 Clouds 20 1025 68 10000 10.8 10 11:39 31.01.2021
3106 Clouds 20 1025 68 10000 10.8 10 11:20 31.01.2021
3107 Clouds 19 1024 72 10000 8.75 360 10:45 31.01.2021
3108 Clouds 18 1024 82 10000 8.23 360 10:26 31.01.2021
3109 Clouds 17 1024 88 10000 7.72 10 09:39 31.01.2021
3110 Clouds 16 1024 88 9000 8.23 360 08:34 31.01.2021
3111 Clouds 16 1024 88 9000 8.23 360 08:34 31.01.2021
3112 Clouds 16 1024 94 9000 8.75 10 07:55 31.01.2021
3113 Drizzle 17 1024 94 9000 9.77 10 06:45 31.01.2021
3114 Drizzle 17 1025 88 10000 8.23 360 03:46 31.01.2021
3115 Clouds 17 1026 77 10000 10.8 10 00:28 31.01.2021
3116 Clouds 17 1026 72 10000 9.77 10 23:52 30.01.2021
3117 Clouds 17 1025 77 10000 9.77 10 23:24 30.01.2021
3118 Clouds 17 1025 77 10000 8.23 10 22:38 30.01.2021
3119 Clouds 18 1025 72 10000 8.75 360 21:45 30.01.2021
3120 Clouds 18 1025 72 10000 10.8 10 21:25 30.01.2021
3121 Clouds 18 1025 72 10000 8.23 10 20:58 30.01.2021
3122 Clouds 18 1024 72 10000 10.29 20 20:38 30.01.2021
3123 Clouds 18 1024 72 10000 10.29 10 19:59 30.01.2021
3124 Clouds 19 1024 72 10000 11.83 20 19:40 30.01.2021
3125 Clouds 20 1024 72 10000 11.83 20 19:19 30.01.2021
3126 Clouds 20 1024 72 10000 11.83 20 19:19 30.01.2021
3127 Clouds 20 1024 68 10000 12.86 30 18:40 30.01.2021
3128 Clouds 21 1024 68 10000 12.86 30 18:20 30.01.2021
3129 Clouds 21 1024 68 10000 12.86 20 17:45 30.01.2021
3130 Clouds 22 1024 68 10000 12.86 30 17:18 30.01.2021
3131 Clouds 22 1024 68 10000 12.86 30 16:41 30.01.2021
3132 Clouds 22 1024 68 10000 12.86 30 16:22 30.01.2021
3133 Clouds 21 1024 64 10000 13.38 30 15:49 30.01.2021
3134 Clouds 21 1025 68 10000 12.86 30 15:24 30.01.2021
3135 Clouds 21 1025 64 10000 12.35 30 14:52 30.01.2021
3136 Clouds 21 1025 68 10000 13.38 30 14:28 30.01.2021
3137 Clouds 21 1026 64 10000 11.83 30 13:53 30.01.2021
3138 Clouds 21 1026 64 10000 12.35 30 13:20 30.01.2021
3139 Clouds 21 1026 64 10000 11.83 30 12:43 30.01.2021
3140 Clouds 21 1026 68 10000 11.32 10 12:23 30.01.2021
3141 Clouds 21 1026 68 10000 11.32 10 11:46 30.01.2021
3142 Clouds 20 1025 72 10000 8.75 10 10:56 30.01.2021
3143 Clouds 18 1025 77 10000 8.75 10 10:27 30.01.2021
3144 Clouds 17 1025 82 10000 6.69 360 09:41 30.01.2021
3145 Clouds 16 1025 88 10000 6.17 360 09:22 30.01.2021
3146 Clouds 16 1025 88 10000 6.17 350 08:44 30.01.2021
3147 Clear 18 1024 82 10000 3.6 350 07:41 30.01.2021
3148 Clear 18 1024 77 10000 6.69 20 06:25 30.01.2021
3149 Clouds 18 1025 82 10000 9.26 10 03:46 30.01.2021
3150 Clear 18 1024 88 10000 8.75 10 02:52 30.01.2021
3151 Clouds 19 1025 88 10000 8.75 20 02:21 30.01.2021
3152 Clouds 19 1025 88 10000 3.09 350 00:53 30.01.2021
3153 Clouds 19 1025 94 10000 3.6 360 00:21 30.01.2021
3154 Clouds 19 1025 88 10000 3.09 360 23:50 29.01.2021
3155 Clouds 20 1025 94 10000 4.12 20 23:27 29.01.2021
3156 Clouds 20 1025 94 7000 5.14 10 22:45 29.01.2021
3157 Clear 19 1024 72 10000 2.06 360 22:25 29.01.2021
3158 Clear 19 1024 72 10000 1.03 360 21:45 29.01.2021
3159 Clear 21 1023 73 10000 1.54 10 21:26 29.01.2021
3160 Clear 21 1023 83 10000 2.06 10 20:42 29.01.2021
3161 Clear 20 1023 83 10000 2.57 30 20:21 29.01.2021
3162 Clear 22 1023 73 10000 3.09 30 19:39 29.01.2021
3163 Clear 22 1023 73 10000 3.09 30 19:20 29.01.2021
3164 Clear 23 1023 68 10000 2.06 60 18:48 29.01.2021
3165 Clear 24 1023 68 10000 2.06 60 17:47 29.01.2021
3166 Clear 24 1023 68 10000 2.57 50 17:22 29.01.2021
3167 Clear 24 1023 64 10000 2.57 60 16:47 29.01.2021
3168 Clear 24 1023 64 10000 2.57 60 16:24 29.01.2021
3169 Clear 23 1023 64 10000 3.09 60 15:54 29.01.2021
3170 Clear 23 1023 64 10000 3.09 30 15:36 29.01.2021
3171 Clear 22 1024 73 10000 3.6 40 14:58 29.01.2021
3172 Clear 22 1024 73 10000 3.6 30 14:21 29.01.2021
3173 Clear 22 1024 78 10000 3.6 40 13:46 29.01.2021
3174 Clear 21 1025 78 10000 3.6 50 13:27 29.01.2021
3175 Clear 22 1025 78 10000 5.66 40 12:30 29.01.2021
3176 Clear 21 1025 78 10000 5.66 30 11:58 29.01.2021
3177 Clear 21 1025 83 10000 5.66 30 11:40 29.01.2021
3178 Clear 20 1025 83 10000 5.66 30 11:18 29.01.2021
3179 Clear 20 1024 82 10000 7.2 30 10:41 29.01.2021
3180 Clouds 18 1023 88 10000 5.14 10 09:56 29.01.2021
3181 Clouds 18 1023 88 10000 5.14 10 09:36 29.01.2021
3182 Clouds 17 1023 88 10000 3.6 360 08:48 29.01.2021
3183 Clouds 17 1023 77 10000 4.63 360 08:26 29.01.2021
3184 Clear 17 1023 67 10000 4.63 20 07:44 29.01.2021
3185 Clear 18 1022 48 10000 4.63 20 07:23 29.01.2021
3186 Clear 19 1022 42 10000 3.6 360 06:35 29.01.2021
3187 Clouds 19 1022 88 10000 3.09 360 03:53 29.01.2021
3188 Clear 19 1023 88 10000 3.09 20 00:51 29.01.2021
3189 Clear 19 1022 88 10000 2.57 350 00:23 29.01.2021
3190 Clear 19 1022 72 10000 2.06 350 23:47 28.01.2021
3191 Clear 19 1022 77 10000 2.06 350 23:28 28.01.2021
3192 Clear 19 1022 68 10000 2.06 340 22:59 28.01.2021
3193 Clear 20 1022 72 10000 1.54 340 22:39 28.01.2021
3194 Clear 19 1022 72 10000 1.54 340 22:21 28.01.2021
3195 Clear 19 1022 72 10000 1.54 340 22:21 28.01.2021
3196 Clear 20 1022 82 10000 1.54 340 21:42 28.01.2021
3197 Clear 20 1022 88 10000 1.54 350 21:22 28.01.2021
3198 Clear 20 1021 83 10000 2.06 30 20:45 28.01.2021
3199 Clear 20 1021 88 10000 2.06 40 20:19 28.01.2021
3200 Clear 21 1021 78 10000 3.09 30 19:52 28.01.2021
3201 Clear 22 1021 78 10000 2.57 60 19:28 28.01.2021
3202 Clear 22 1021 73 10000 2.06 40 18:50 28.01.2021
3203 Clear 23 1021 68 10000 2.06 60 18:31 28.01.2021
3204 Clear 22 1021 78 10000 2.57 60 17:54 28.01.2021
3205 Clear 23 1021 78 10000 3.09 60 17:34 28.01.2021
3206 Clear 22 1021 78 10000 2.57 60 16:58 28.01.2021
3207 Clear 23 1021 73 10000 2.57 70 16:39 28.01.2021
3208 Clear 23 1021 73 10000 2.57 70 16:20 28.01.2021
3209 Clear 24 1022 56 10000 2.06 80 15:32 28.01.2021
3210 Clear 24 1022 57 10000 2.06 80 14:49 28.01.2021
3211 Clear 24 1022 46 10000 2.06 100 14:26 28.01.2021
3212 Clear 24 1023 49 10000 1.54 70 13:59 28.01.2021
3213 Clear 25 1023 50 10000 2.57 60 13:25 28.01.2021
3214 Clear 23 1023 64 10000 3.09 60 12:50 28.01.2021
3215 Clear 23 1023 68 10000 3.09 40 12:32 28.01.2021
3216 Clear 23 1022 60 10000 2.57 40 11:57 28.01.2021
3217 Clear 23 1022 49 10000 2.57 40 11:39 28.01.2021
3218 Clear 23 1022 49 10000 2.57 40 11:18 28.01.2021
3219 Clear 24 1022 29 10000 1.03 0 10:49 28.01.2021
3220 Clear 22 1022 30 10000 3.09 300 10:26 28.01.2021
3221 Clear 19 1021 39 10000 0.51 0 09:42 28.01.2021
3222 Clear 18 1021 44 10000 1.86 134 09:20 28.01.2021
3223 Clear 19 1021 45 10000 1.54 290 08:46 28.01.2021
3224 Clear 17 1020 63 10000 2.06 340 07:51 28.01.2021
3225 Clear 17 1020 63 10000 2.57 360 07:22 28.01.2021
3226 Clear 17 1020 51 10000 2.57 350 06:48 28.01.2021
3227 Clouds 18 1021 88 10000 4.63 360 04:31 28.01.2021
3228 Clear 17 1021 88 10000 5.14 10 02:46 28.01.2021
3229 Clear 18 1021 88 8000 5.14 10 00:50 28.01.2021
3230 Clear 19 1021 88 8000 4.12 10 23:41 27.01.2021
3231 Clear 19 1022 94 8000 4.12 10 23:22 27.01.2021
3232 Clear 18 1021 88 9000 3.09 360 22:40 27.01.2021
3233 Clear 19 1021 88 9000 3.09 360 22:19 27.01.2021
3234 Clear 19 1021 88 9000 3.09 360 22:19 27.01.2021
3235 Clear 19 1021 94 8000 3.6 10 21:42 27.01.2021
3236 Clear 19 1021 88 9000 3.09 20 21:22 27.01.2021
3237 Clear 20 1021 88 10000 2.06 350 20:42 27.01.2021
3238 Clear 19 1020 88 10000 2.57 30 20:18 27.01.2021
3239 Clear 20 1020 88 10000 3.6 40 19:41 27.01.2021
3240 Clear 21 1020 83 10000 3.09 40 19:21 27.01.2021
3241 Clear 22 1020 83 10000 3.6 40 18:43 27.01.2021
3242 Clear 22 1020 78 10000 4.12 50 18:23 27.01.2021
3243 Clear 22 1020 78 10000 5.14 40 17:47 27.01.2021
3244 Clear 21 1020 78 10000 5.14 40 17:28 27.01.2021
3245 Clear 22 1020 78 10000 5.66 40 16:49 27.01.2021
3246 Clear 22 1020 78 10000 6.17 40 16:28 27.01.2021
3247 Clear 22 1021 78 10000 6.17 40 15:51 27.01.2021
3248 Clear 22 1021 78 10000 6.17 30 15:32 27.01.2021
3249 Clear 23 1021 78 10000 6.69 40 14:45 27.01.2021
3250 Clear 23 1022 78 10000 6.69 30 14:23 27.01.2021
3251 Clear 23 1022 73 10000 7.2 30 13:48 27.01.2021
3252 Clear 21 1023 77 10000 6.69 30 13:19 27.01.2021
3253 Clear 21 1023 73 10000 6.17 20 12:40 27.01.2021
3254 Clear 21 1023 73 10000 6.17 20 12:21 27.01.2021
3255 Clear 20 1023 73 10000 6.69 10 11:44 27.01.2021
3256 Clouds 20 1023 73 10000 6.17 10 11:22 27.01.2021
3257 Clouds 20 1023 73 10000 6.17 10 11:22 27.01.2021
3258 Clouds 20 1023 73 10000 6.17 10 11:22 27.01.2021
3259 Clouds 19 1022 77 10000 6.17 360 10:41 27.01.2021
3260 Clouds 18 1022 77 10000 5.66 360 10:21 27.01.2021
3261 Clouds 17 1022 82 10000 5.66 350 09:49 27.01.2021
3262 Clouds 16 1021 77 10000 5.66 360 08:59 27.01.2021
3263 Clouds 16 1021 77 10000 6.17 360 08:32 27.01.2021
3264 Clouds 17 1021 82 10000 6.69 360 07:43 27.01.2021
3265 Clouds 17 1021 77 10000 5.66 360 07:19 27.01.2021
3266 Clouds 17 1021 77 10000 7.2 10 06:19 27.01.2021
3267 Clouds 17 1022 77 10000 6.17 10 05:44 27.01.2021
3268 Clouds 17 1022 77 10000 6.69 360 03:35 27.01.2021
3269 Clouds 17 1023 77 10000 7.2 360 02:23 27.01.2021
3270 Clouds 18 1023 72 10000 8.23 360 01:50 27.01.2021
3271 Clouds 17 1023 77 10000 8.23 10 00:34 27.01.2021
3272 Clouds 18 1023 77 10000 8.75 10 23:49 26.01.2021
3273 Clouds 18 1023 77 10000 8.23 10 23:30 26.01.2021
3274 Clouds 18 1023 82 10000 9.77 10 22:51 26.01.2021
3275 Clouds 19 1023 77 10000 10.29 10 22:24 26.01.2021
3276 Clouds 19 1023 77 10000 10.29 10 21:54 26.01.2021
3277 Clouds 19 1023 77 10000 9.26 20 21:34 26.01.2021
3278 Clouds 19 1023 77 10000 9.77 20 20:58 26.01.2021
3279 Clouds 19 1023 77 10000 9.77 20 20:40 26.01.2021
3280 Clouds 19 1023 77 10000 9.77 20 20:21 26.01.2021
3281 Clouds 19 1022 77 10000 9.77 20 19:45 26.01.2021
3282 Clouds 20 1022 68 10000 10.29 20 19:22 26.01.2021
3283 Clouds 21 1022 68 10000 9.77 20 18:48 26.01.2021
3284 Clouds 21 1022 64 10000 10.8 20 18:27 26.01.2021
3285 Clouds 21 1022 64 10000 10.8 20 18:27 26.01.2021
3286 Clouds 21 1022 64 10000 11.83 20 17:52 26.01.2021
3287 Clouds 21 1022 68 10000 10.8 20 17:33 26.01.2021
3288 Clouds 21 1022 60 10000 11.32 20 16:56 26.01.2021
3289 Clouds 21 1022 64 10000 10.8 10 16:37 26.01.2021
3290 Clouds 21 1022 64 10000 10.8 10 16:18 26.01.2021
3291 Clouds 22 1023 60 10000 10.29 360 15:44 26.01.2021
3292 Clouds 21 1023 64 10000 10.29 10 15:24 26.01.2021
3293 Clouds 22 1024 60 10000 11.32 20 14:43 26.01.2021
3294 Clouds 21 1024 60 10000 11.32 20 14:25 26.01.2021
3295 Clouds 21 1025 60 10000 10.8 10 13:34 26.01.2021
3296 Clouds 21 1025 60 10000 10.8 10 13:34 26.01.2021
3297 Clouds 21 1025 60 10000 10.29 10 12:58 26.01.2021
3298 Clouds 21 1025 68 10000 9.77 10 12:38 26.01.2021
3299 Clouds 20 1025 68 10000 9.77 10 12:19 26.01.2021
3300 Clouds 20 1025 68 10000 11.32 30 11:50 26.01.2021
3301 Clouds 19 1025 72 10000 8.75 360 11:19 26.01.2021
3302 Clouds 20 1025 68 10000 8.23 10 10:42 26.01.2021
3303 Clouds 18 1025 68 10000 9.26 20 10:21 26.01.2021
3304 Clouds 17 1024 68 10000 7.72 360 09:40 26.01.2021
3305 Clouds 17 1024 68 10000 7.72 360 09:21 26.01.2021
3306 Clouds 16 1024 68 10000 7.72 10 08:48 26.01.2021
3307 Clouds 16 1024 68 10000 7.72 10 07:57 26.01.2021
3308 Clouds 17 1023 72 10000 8.23 20 07:19 26.01.2021
3309 Clouds 17 1023 72 10000 7.2 10 05:53 26.01.2021
3310 Clouds 17 1024 72 10000 7.72 360 05:34 26.01.2021
3311 Clouds 17 1024 72 10000 6.69 360 03:39 26.01.2021
3312 Clouds 18 1025 72 10000 7.2 10 01:19 26.01.2021
3313 Clouds 18 1025 72 10000 8.75 20 00:30 26.01.2021
3314 Clouds 19 1024 68 10000 8.23 10 23:33 25.01.2021
3315 Clouds 19 1024 68 10000 8.23 20 22:51 25.01.2021
3316 Clouds 19 1024 68 10000 6.69 360 22:31 25.01.2021
3317 Clouds 19 1024 68 10000 8.75 10 21:48 25.01.2021
3318 Clouds 19 1024 68 10000 7.72 10 21:20 25.01.2021
3319 Clouds 19 1024 68 10000 8.75 20 20:44 25.01.2021
3320 Clouds 19 1024 68 10000 8.75 10 20:24 25.01.2021
3321 Clouds 19 1023 68 10000 9.26 10 19:49 25.01.2021
3322 Clouds 19 1023 72 10000 10.29 30 19:24 25.01.2021
3323 Clouds 20 1023 68 10000 9.77 30 18:47 25.01.2021
3324 Clouds 21 1023 68 10000 9.77 30 18:25 25.01.2021
3325 Clouds 21 1022 68 10000 9.77 30 17:49 25.01.2021
3326 Clouds 21 1022 68 10000 9.77 30 17:26 25.01.2021
3327 Clouds 21 1022 64 10000 9.26 30 16:57 25.01.2021
3328 Clouds 21 1022 64 10000 9.26 30 16:39 25.01.2021
3329 Clouds 21 1022 64 10000 9.26 30 16:20 25.01.2021
3330 Clouds 21 1023 64 10000 9.26 30 15:41 25.01.2021
3331 Clouds 21 1023 64 10000 10.29 30 15:21 25.01.2021
3332 Clouds 21 1024 68 10000 9.77 40 14:39 25.01.2021
3333 Clouds 21 1024 68 10000 9.77 40 14:18 25.01.2021
3334 Clouds 21 1024 68 10000 9.26 30 13:44 25.01.2021
3335 Clouds 21 1024 68 10000 9.26 30 13:44 25.01.2021
3336 Clouds 21 1024 68 10000 8.75 30 13:22 25.01.2021
3337 Clouds 20 1025 73 10000 8.23 30 12:44 25.01.2021
3338 Clouds 20 1024 77 10000 7.72 20 12:19 25.01.2021
3339 Clouds 19 1024 82 10000 7.72 20 11:31 25.01.2021
3340 Clouds 19 1023 82 10000 6.17 10 10:53 25.01.2021
3341 Clouds 18 1023 82 10000 5.66 360 10:22 25.01.2021
3342 Clouds 17 1023 88 10000 6.17 360 09:54 25.01.2021
3343 Clouds 16 1022 88 10000 5.66 360 09:31 25.01.2021
3344 Clouds 16 1022 88 10000 5.66 350 08:48 25.01.2021
3345 Clouds 16 1022 82 10000 4.63 350 08:23 25.01.2021
3346 Clear 16 1021 77 10000 3.6 350 07:29 25.01.2021
3347 Clear 16 1021 82 10000 4.12 350 06:39 25.01.2021
3348 Clear 17 1022 72 10000 4.63 350 02:56 25.01.2021
3349 Clear 17 1023 82 10000 4.63 350 00:48 25.01.2021
3350 Clear 18 1022 82 10000 3.6 350 23:40 24.01.2021
3351 Clear 18 1022 82 10000 3.6 350 23:18 24.01.2021
3352 Clouds 17 1022 88 10000 4.12 350 22:41 24.01.2021
3353 Clouds 18 1022 88 10000 3.6 360 22:18 24.01.2021
3354 Clouds 18 1022 88 10000 2.57 350 21:44 24.01.2021
3355 Clouds 18 1022 88 10000 3.6 20 21:19 24.01.2021
3356 Clouds 18 1021 88 10000 3.09 30 20:41 24.01.2021
3357 Clouds 19 1021 82 10000 3.09 40 20:19 24.01.2021
3358 Clouds 19 1021 82 10000 4.12 40 19:50 24.01.2021
3359 Clouds 19 1021 82 10000 5.14 30 19:26 24.01.2021
3360 Clouds 20 1021 82 10000 6.17 30 18:56 24.01.2021
3361 Clear 19 1021 82 10000 6.69 20 18:37 24.01.2021
3362 Clear 19 1021 82 10000 6.69 20 18:19 24.01.2021
3363 Clear 20 1021 77 10000 6.17 40 17:47 24.01.2021
3364 Clear 21 1021 77 10000 6.17 40 17:20 24.01.2021
3365 Clear 21 1021 77 10000 7.2 30 16:42 24.01.2021
3366 Clear 21 1021 73 10000 7.2 30 16:23 24.01.2021
3367 Clear 21 1021 73 10000 6.69 30 15:49 24.01.2021
3368 Clouds 21 1021 73 10000 6.69 30 15:22 24.01.2021
3369 Clouds 21 1022 73 10000 7.2 30 14:58 24.01.2021
3370 Clouds 21 1022 73 10000 6.69 30 14:36 24.01.2021
3371 Clear 21 1023 73 10000 5.66 30 13:40 24.01.2021
3372 Clear 21 1023 73 10000 5.66 30 13:20 24.01.2021
3373 Clear 21 1023 77 10000 5.66 40 12:42 24.01.2021
3374 Clear 20 1023 77 10000 5.66 40 12:19 24.01.2021
3375 Clouds 20 1023 77 10000 5.14 30 11:49 24.01.2021
3376 Clouds 19 1023 82 10000 5.14 10 11:23 24.01.2021
3377 Clouds 19 1023 82 10000 4.63 360 10:43 24.01.2021
3378 Clouds 17 1022 82 10000 5.14 350 10:18 24.01.2021
3379 Clouds 16 1022 88 10000 4.12 350 09:22 24.01.2021
3380 Clouds 16 1022 88 10000 4.12 350 08:55 24.01.2021
3381 Clouds 16 1021 82 10000 3.6 350 07:41 24.01.2021
3382 Clouds 17 1023 82 10000 5.14 360 02:39 24.01.2021
3383 Clouds 17 1024 77 10000 5.14 350 01:00 24.01.2021
3384 Clouds 17 1024 77 10000 5.66 350 00:24 24.01.2021
3385 Clouds 17 1024 77 10000 5.14 360 23:47 23.01.2021
3386 Clouds 17 1024 77 10000 5.66 360 23:25 23.01.2021
3387 Clouds 18 1024 77 10000 5.14 360 22:42 23.01.2021
3388 Clouds 18 1024 77 10000 5.14 360 22:24 23.01.2021
3389 Clouds 18 1024 77 10000 6.17 10 21:50 23.01.2021
3390 Clouds 18 1024 77 10000 7.2 10 21:21 23.01.2021
3391 Clouds 18 1023 77 10000 7.72 20 20:47 23.01.2021
3392 Clouds 18 1023 77 10000 6.17 20 20:22 23.01.2021
3393 Clouds 19 1023 72 10000 7.2 20 19:46 23.01.2021
3394 Clouds 19 1023 72 10000 7.2 20 19:22 23.01.2021
3395 Clouds 19 1023 72 10000 8.75 30 18:49 23.01.2021
3396 Clouds 19 1022 72 10000 9.26 30 18:26 23.01.2021
3397 Clouds 20 1022 68 10000 8.23 30 17:48 23.01.2021
3398 Clouds 21 1022 64 10000 8.23 30 17:27 23.01.2021
3399 Clouds 21 1023 64 10000 8.75 30 16:49 23.01.2021
3400 Clouds 21 1023 68 10000 9.26 30 16:25 23.01.2021
3401 Clouds 21 1023 64 10000 8.75 30 15:40 23.01.2021
3402 Clouds 21 1023 64 10000 8.75 30 15:21 23.01.2021
3403 Clouds 21 1024 68 10000 9.26 30 14:32 23.01.2021
3404 Clouds 21 1025 68 10000 8.75 30 13:54 23.01.2021
3405 Clouds 21 1025 68 10000 7.2 10 13:35 23.01.2021
3406 Clouds 21 1025 68 10000 7.2 10 13:35 23.01.2021
3407 Clouds 21 1026 77 10000 8.23 30 12:57 23.01.2021
3408 Clouds 20 1026 77 10000 8.23 30 12:27 23.01.2021
3409 Drizzle 20 1026 88 8000 7.2 30 11:45 23.01.2021
3410 Drizzle 19 1026 94 4800 5.66 360 11:25 23.01.2021
3411 Drizzle 19 1025 94 3000 6.69 10 10:48 23.01.2021
3412 Drizzle 17 1025 94 9000 5.66 10 10:19 23.01.2021
3413 Drizzle 17 1025 88 10000 4.63 20 09:46 23.01.2021
3414 Clouds 17 1024 88 10000 4.63 350 08:54 23.01.2021
3415 Clouds 17 1024 88 10000 5.14 350 08:30 23.01.2021
3416 Clouds 17 1024 88 10000 5.14 350 08:30 23.01.2021
3417 Clouds 16 1024 94 10000 5.66 360 07:25 23.01.2021
3418 Clouds 18 1026 88 10000 5.66 20 03:36 23.01.2021
3419 Clouds 18 1027 94 10000 7.72 40 00:41 23.01.2021
3420 Clouds 19 1027 77 10000 9.26 30 23:39 22.01.2021
3421 Clouds 20 1026 77 10000 8.23 20 22:53 22.01.2021
3422 Clouds 20 1026 77 10000 7.2 20 22:32 22.01.2021
3423 Clouds 20 1026 77 10000 7.2 10 21:46 22.01.2021
3424 Clouds 20 1026 77 10000 7.2 10 21:46 22.01.2021
3425 Clouds 20 1026 77 10000 8.23 20 21:26 22.01.2021
3426 Clouds 20 1026 73 10000 8.23 20 20:56 22.01.2021
3427 Clouds 21 1025 77 10000 7.2 10 20:37 22.01.2021
3428 Clouds 21 1025 73 10000 8.23 20 19:54 22.01.2021
3429 Clouds 21 1025 68 10000 7.72 20 19:21 22.01.2021
3430 Clouds 21 1025 68 10000 8.23 20 18:55 22.01.2021
3431 Clouds 21 1025 64 10000 8.75 30 18:28 22.01.2021
3432 Clouds 21 1025 68 10000 8.75 20 17:58 22.01.2021
3433 Clouds 21 1025 64 10000 8.75 20 17:39 22.01.2021
3434 Clouds 21 1025 68 10000 9.77 30 16:59 22.01.2021
3435 Clouds 20 1025 73 10000 10.8 30 16:36 22.01.2021
3436 Clouds 21 1025 73 10000 11.32 30 15:55 22.01.2021
3437 Clouds 21 1025 73 10000 10.8 30 15:26 22.01.2021
3438 Clouds 21 1025 73 10000 11.32 30 14:43 22.01.2021
3439 Clouds 21 1026 73 10000 10.8 30 14:25 22.01.2021
3440 Clouds 21 1026 68 10000 10.29 30 13:46 22.01.2021
3441 Clouds 21 1027 73 10000 9.77 20 13:26 22.01.2021
3442 Clouds 20 1027 77 10000 8.75 20 12:40 22.01.2021
3443 Clouds 20 1027 77 10000 8.75 20 12:18 22.01.2021
3444 Clouds 20 1026 82 10000 7.72 10 11:39 22.01.2021
3445 Clouds 19 1026 88 10000 6.69 20 10:48 22.01.2021
3446 Clouds 18 1026 94 10000 6.17 20 10:25 22.01.2021
3447 Clouds 18 1026 94 10000 6.69 20 09:45 22.01.2021
3448 Clouds 17 1025 94 10000 6.69 20 08:58 22.01.2021
3449 Drizzle 17 1025 94 9000 7.2 20 08:32 22.01.2021
3450 Drizzle 17 1025 94 6000 6.69 10 07:49 22.01.2021
3451 Clouds 18 1025 82 10000 2.57 360 05:26 22.01.2021
3452 Clouds 18 1026 82 10000 6.17 10 01:54 22.01.2021
3453 Drizzle 18 1026 82 10000 6.17 360 00:30 22.01.2021
3454 Clouds 19 1026 77 10000 6.69 360 23:49 21.01.2021
3455 Clouds 19 1026 82 10000 6.17 360 23:20 21.01.2021
3456 Clouds 19 1026 77 10000 6.69 10 22:48 21.01.2021
3457 Clouds 19 1025 77 10000 6.17 20 21:59 21.01.2021
3458 Clouds 19 1025 72 10000 5.14 20 21:39 21.01.2021
3459 Clouds 19 1025 72 10000 5.14 20 21:18 21.01.2021
3460 Clouds 20 1025 64 10000 4.63 10 20:44 21.01.2021
3461 Clouds 19 1024 68 10000 6.69 10 20:21 21.01.2021
3462 Clouds 20 1024 73 10000 7.72 20 19:49 21.01.2021
3463 Clouds 20 1024 77 10000 8.75 30 19:26 21.01.2021
3464 Clouds 21 1024 77 10000 9.26 40 18:47 21.01.2021
3465 Clouds 22 1024 73 10000 9.26 30 18:22 21.01.2021
3466 Clouds 21 1024 73 10000 9.26 40 17:58 21.01.2021
3467 Clouds 21 1024 73 10000 9.77 30 17:22 21.01.2021
3468 Clouds 21 1024 73 10000 9.77 40 16:59 21.01.2021
3469 Clouds 21 1024 73 10000 9.26 40 16:40 21.01.2021
3470 Clouds 21 1024 73 10000 9.26 40 16:22 21.01.2021
3471 Clouds 21 1024 73 10000 8.75 40 15:47 21.01.2021
3472 Clouds 21 1025 68 10000 8.23 40 15:26 21.01.2021
3473 Clouds 21 1025 68 10000 7.2 50 14:46 21.01.2021
3474 Clouds 21 1025 68 10000 7.2 50 14:24 21.01.2021
3475 Clouds 21 1026 68 10000 7.2 40 13:43 21.01.2021
3476 Clouds 21 1026 68 10000 7.2 40 13:43 21.01.2021
3477 Clouds 21 1026 68 10000 6.69 40 13:23 21.01.2021
3478 Clouds 21 1026 68 10000 6.69 40 13:23 21.01.2021
3479 Clouds 21 1026 68 10000 6.69 40 13:23 21.01.2021
3480 Clouds 20 1026 77 10000 6.69 40 12:44 21.01.2021
3481 Clouds 20 1026 82 10000 6.69 30 12:24 21.01.2021
3482 Clouds 19 1026 77 10000 6.17 10 11:51 21.01.2021
3483 Clouds 19 1026 77 10000 5.66 360 11:30 21.01.2021
3484 Clouds 19 1026 77 10000 5.66 360 11:30 21.01.2021
3485 Clouds 19 1025 72 10000 5.14 360 10:52 21.01.2021
3486 Clouds 18 1025 77 10000 5.66 350 10:33 21.01.2021
3487 Clouds 17 1025 77 10000 4.63 350 09:47 21.01.2021
3488 Clouds 17 1024 77 10000 4.63 350 09:26 21.01.2021
3489 Clouds 17 1024 77 10000 4.12 340 08:55 21.01.2021
3490 Clouds 17 1024 77 10000 4.12 340 08:27 21.01.2021
3491 Clouds 17 1024 77 10000 4.12 340 07:45 21.01.2021
3492 Clouds 17 1024 77 10000 3.6 350 07:23 21.01.2021
3493 Clouds 17 1024 77 10000 3.6 350 05:50 21.01.2021
3494 Clouds 16 1024 77 10000 3.09 350 04:28 21.01.2021
3495 Clouds 16 1024 72 10000 6.69 10 01:25 21.01.2021
3496 Clouds 16 1024 77 10000 5.66 350 00:40 21.01.2021
3497 Clouds 17 1024 72 10000 2.57 340 23:39 20.01.2021
3498 Clouds 17 1024 72 10000 2.57 340 23:21 20.01.2021
3499 Clouds 17 1024 72 10000 2.57 330 22:48 20.01.2021
3500 Clouds 18 1024 72 10000 2.06 330 22:28 20.01.2021
3501 Clouds 18 1024 68 10000 2.06 10 21:48 20.01.2021
3502 Clouds 18 1023 72 10000 3.6 30 21:22 20.01.2021
3503 Clouds 18 1023 77 10000 2.06 40 20:50 20.01.2021
3504 Clouds 18 1023 77 10000 1.54 80 20:21 20.01.2021
3505 Clouds 18 1023 77 10000 1.03 0 19:47 20.01.2021
3506 Clouds 18 1023 77 10000 2.06 140 19:27 20.01.2021
3507 Clouds 19 1023 72 10000 2.06 140 18:42 20.01.2021
3508 Clouds 19 1022 68 10000 1.54 110 18:20 20.01.2021
3509 Clouds 19 1023 68 10000 1.54 130 17:43 20.01.2021
3510 Clouds 19 1022 68 10000 2.06 120 17:24 20.01.2021
3511 Clouds 19 1023 68 10000 2.06 110 16:45 20.01.2021
3512 Clouds 19 1023 68 10000 2.57 120 15:56 20.01.2021
3513 Clouds 20 1023 64 10000 2.57 110 15:36 20.01.2021
3514 Clouds 20 1023 64 10000 3.09 130 14:52 20.01.2021
3515 Clouds 20 1024 68 10000 3.09 120 14:29 20.01.2021
3516 Clouds 19 1024 63 10000 2.57 110 13:59 20.01.2021
3517 Clouds 19 1024 68 10000 2.57 140 13:36 20.01.2021
3518 Clouds 19 1024 63 10000 2.57 120 12:54 20.01.2021
3519 Clouds 19 1025 63 10000 2.06 80 12:22 20.01.2021
3520 Clouds 18 1024 63 10000 1.54 40 11:39 20.01.2021
3521 Clouds 18 1024 63 10000 1.54 40 11:18 20.01.2021
3522 Clouds 17 1024 59 10000 1.38 7 10:44 20.01.2021
3523 Clouds 15 1024 67 10000 0.86 9 10:18 20.01.2021
3524 Clouds 13 1023 71 10000 1.54 290 09:31 20.01.2021
3525 Clouds 12 1023 76 10000 1.68 349 08:59 20.01.2021
3526 Clouds 14 1023 72 10000 2.57 290 08:35 20.01.2021
3527 Clear 13 1023 76 10000 2.06 300 07:59 20.01.2021
3528 Clear 14 1023 77 10000 3.09 300 07:37 20.01.2021
3529 Clear 14 1023 77 10000 2.57 290 06:56 20.01.2021
3530 Clear 14 1023 82 10000 2.06 280 03:34 20.01.2021
3531 Clear 15 1024 77 10000 2.57 300 01:51 20.01.2021
3532 Clear 15 1024 82 10000 2.57 300 00:49 20.01.2021
3533 Clear 15 1024 82 10000 2.57 260 23:50 19.01.2021
3534 Clear 16 1024 77 10000 2.06 260 23:32 19.01.2021
3535 Clear 16 1024 77 10000 2.57 270 22:58 19.01.2021
3536 Clear 16 1024 77 10000 2.06 270 22:37 19.01.2021
3537 Clear 16 1024 77 10000 2.06 270 22:19 19.01.2021
3538 Clear 17 1024 72 10000 1.54 310 21:52 19.01.2021
3539 Clouds 17 1024 77 10000 1.03 0 21:28 19.01.2021
3540 Clouds 17 1023 77 10000 1.03 0 20:49 19.01.2021
3541 Clouds 18 1023 72 10000 0.51 0 20:26 19.01.2021
3542 Clouds 18 1024 72 10000 1.54 50 19:55 19.01.2021
3543 Clouds 18 1024 72 10000 1.03 0 19:30 19.01.2021
3544 Clouds 18 1024 72 10000 2.06 60 18:50 19.01.2021
3545 Clouds 18 1023 72 10000 2.06 90 18:31 19.01.2021
3546 Clouds 18 1023 68 10000 2.06 130 17:47 19.01.2021
3547 Clouds 20 1023 68 10000 2.57 110 17:29 19.01.2021
3548 Clouds 20 1024 68 10000 3.09 120 16:59 19.01.2021
3549 Clouds 20 1024 63 10000 3.09 120 16:38 19.01.2021
3550 Clouds 20 1024 63 10000 3.09 120 16:18 19.01.2021
3551 Clouds 20 1024 63 10000 3.6 130 15:41 19.01.2021
3552 Clouds 20 1024 64 10000 3.09 130 15:21 19.01.2021
3553 Clouds 20 1025 68 10000 3.09 120 14:41 19.01.2021
3554 Clouds 20 1025 68 10000 3.09 130 14:23 19.01.2021
3555 Clouds 20 1026 63 10000 3.6 140 13:48 19.01.2021
3556 Clouds 19 1026 63 10000 3.6 140 13:21 19.01.2021
3557 Clouds 19 1026 63 10000 3.6 140 13:21 19.01.2021
3558 Clouds 19 1026 63 10000 3.09 140 12:48 19.01.2021
3559 Clouds 19 1026 68 10000 1.54 120 12:29 19.01.2021
3560 Clouds 19 1027 63 10000 0.51 0 11:45 19.01.2021
3561 Clouds 18 1026 68 10000 1.54 70 11:26 19.01.2021
3562 Clouds 16 1026 72 10000 1.54 350 10:51 19.01.2021
3563 Clouds 16 1026 72 10000 2.06 310 10:32 19.01.2021
3564 Clouds 15 1026 77 10000 3.09 310 09:53 19.01.2021
3565 Clouds 14 1025 77 10000 3.09 310 09:30 19.01.2021
3566 Clouds 14 1025 77 10000 3.09 310 08:56 19.01.2021
3567 Clouds 14 1025 77 10000 3.09 310 08:24 19.01.2021
3568 Clouds 15 1025 77 10000 3.6 320 07:47 19.01.2021
3569 Clouds 13 1024 82 10000 3.6 330 06:53 19.01.2021
3570 Clouds 15 1026 72 10000 4.12 340 02:32 19.01.2021
3571 Clouds 15 1027 77 10000 3.09 340 00:55 19.01.2021
3572 Clouds 15 1027 77 10000 3.09 340 23:58 18.01.2021
3573 Clouds 16 1027 77 10000 3.6 350 23:32 18.01.2021
3574 Clouds 16 1026 77 10000 3.09 340 22:51 18.01.2021
3575 Clouds 16 1026 77 10000 3.09 330 22:26 18.01.2021
3576 Clear 16 1026 82 10000 2.57 330 21:55 18.01.2021
3577 Clear 17 1026 72 10000 2.57 320 21:37 18.01.2021
3578 Clear 17 1026 72 10000 2.57 320 21:19 18.01.2021
3579 Clear 17 1026 72 10000 1.54 330 20:42 18.01.2021
3580 Clear 17 1026 72 10000 1.54 50 20:22 18.01.2021
3581 Clear 18 1025 72 10000 2.06 50 19:48 18.01.2021
3582 Clouds 18 1025 72 10000 2.06 60 19:30 18.01.2021
3583 Clouds 18 1025 72 10000 2.57 90 18:47 18.01.2021
3584 Clouds 19 1025 68 10000 2.57 90 18:22 18.01.2021
3585 Clouds 19 1025 63 10000 3.09 100 17:44 18.01.2021
3586 Clouds 20 1025 63 10000 2.57 80 17:21 18.01.2021
3587 Clouds 20 1025 63 10000 2.57 90 16:46 18.01.2021
3588 Clouds 19 1024 63 10000 3.09 90 16:20 18.01.2021
3589 Clouds 19 1024 63 10000 3.09 90 16:20 18.01.2021
3590 Clouds 20 1025 68 10000 3.09 90 15:42 18.01.2021
3591 Clouds 20 1025 63 10000 4.12 60 15:20 18.01.2021
3592 Clouds 21 1025 68 10000 4.12 60 14:44 18.01.2021
3593 Clouds 20 1026 68 10000 3.6 70 14:25 18.01.2021
3594 Clouds 20 1026 68 10000 4.63 60 13:46 18.01.2021
3595 Clouds 20 1026 63 10000 3.6 60 13:26 18.01.2021
3596 Clear 20 1027 63 10000 4.12 40 12:52 18.01.2021
3597 Clear 20 1027 63 10000 4.12 40 12:20 18.01.2021
3598 Clear 20 1027 63 10000 4.12 40 12:20 18.01.2021
3599 Clouds 19 1027 59 10000 3.6 30 11:56 18.01.2021
3600 Clouds 18 1027 68 10000 3.09 10 11:37 18.01.2021
3601 Clouds 18 1027 68 10000 3.09 10 11:18 18.01.2021
3602 Clouds 16 1026 72 10000 3.6 340 10:39 18.01.2021
3603 Clouds 15 1026 77 10000 3.09 330 09:44 18.01.2021
3604 Clouds 14 1025 77 10000 3.6 340 09:24 18.01.2021
3605 Clouds 15 1025 77 10000 3.6 340 08:50 18.01.2021
3606 Clouds 14 1025 77 10000 4.12 340 07:56 18.01.2021
3607 Clouds 14 1025 77 10000 4.12 330 07:33 18.01.2021
3608 Clouds 14 1025 77 10000 4.63 330 05:32 18.01.2021
3609 Clouds 15 1025 77 10000 4.12 330 04:33 18.01.2021
3610 Clouds 15 1025 77 10000 3.6 330 03:59 18.01.2021
3611 Clouds 15 1025 77 10000 3.6 330 03:41 18.01.2021
3612 Clouds 15 1025 77 10000 4.63 320 03:19 18.01.2021
3613 Clouds 15 1025 72 10000 3.6 340 02:37 18.01.2021
3614 Clouds 15 1026 72 10000 4.12 340 00:46 18.01.2021
3615 Clouds 15 1026 72 10000 4.12 330 00:27 18.01.2021
3616 Clouds 16 1026 67 10000 4.63 340 23:46 17.01.2021
3617 Clouds 16 1026 67 10000 4.63 330 23:20 17.01.2021
3618 Clouds 16 1026 72 10000 5.14 350 22:39 17.01.2021
3619 Clouds 16 1026 72 10000 5.14 350 22:39 17.01.2021
3620 Clouds 16 1026 72 10000 5.14 350 22:19 17.01.2021
3621 Clouds 17 1025 67 10000 4.63 360 21:39 17.01.2021
3622 Clouds 17 1025 67 10000 4.63 360 21:21 17.01.2021
3623 Clouds 17 1025 67 10000 4.63 10 20:48 17.01.2021
3624 Clouds 17 1025 63 10000 5.66 10 20:27 17.01.2021
3625 Clouds 18 1025 63 10000 5.66 20 19:42 17.01.2021
3626 Clouds 18 1025 63 10000 6.17 30 19:22 17.01.2021
3627 Clouds 19 1025 59 10000 6.17 40 18:41 17.01.2021
3628 Clouds 19 1025 59 10000 4.63 40 18:21 17.01.2021
3629 Clouds 19 1025 59 10000 4.63 50 17:47 17.01.2021
3630 Clouds 19 1025 59 10000 4.63 60 17:26 17.01.2021
3631 Clouds 19 1025 59 10000 4.12 70 16:44 17.01.2021
3632 Clouds 19 1025 59 10000 4.63 60 16:20 17.01.2021
3633 Clouds 19 1025 59 10000 5.14 80 15:43 17.01.2021
3634 Clouds 19 1025 59 10000 5.14 80 15:24 17.01.2021
3635 Clouds 19 1025 59 10000 5.14 80 14:49 17.01.2021
3636 Clouds 19 1026 63 10000 5.14 70 14:26 17.01.2021
3637 Clouds 19 1027 63 10000 5.14 80 13:45 17.01.2021
3638 Clouds 19 1027 59 10000 4.63 60 13:27 17.01.2021
3639 Clouds 19 1027 63 10000 5.66 60 12:53 17.01.2021
3640 Clouds 19 1027 59 10000 5.66 20 12:31 17.01.2021
3641 Clouds 19 1027 55 10000 5.66 20 11:56 17.01.2021
3642 Clouds 19 1027 55 10000 6.17 30 11:23 17.01.2021
3643 Clouds 17 1027 59 10000 5.14 20 10:48 17.01.2021
3644 Clouds 16 1026 63 10000 5.14 10 10:21 17.01.2021
3645 Clouds 15 1026 63 10000 5.66 350 09:26 17.01.2021
3646 Clouds 15 1025 63 10000 4.12 10 08:45 17.01.2021
3647 Clouds 15 1024 59 10000 5.14 360 06:52 17.01.2021
3648 Clouds 16 1025 63 10000 7.2 10 04:28 17.01.2021
3649 Clouds 17 1025 55 10000 7.2 20 02:46 17.01.2021
3650 Clouds 17 1026 59 10000 5.66 10 00:48 17.01.2021
3651 Clouds 17 1026 55 10000 8.23 40 00:18 17.01.2021
3652 Clouds 17 1026 55 10000 6.69 20 23:49 16.01.2021
3653 Clouds 17 1026 59 10000 7.72 40 23:19 16.01.2021
3654 Clouds 17 1025 55 10000 6.17 10 22:36 16.01.2021
3655 Clouds 17 1025 59 10000 9.26 30 21:58 16.01.2021
3656 Clouds 17 1025 59 10000 9.26 30 21:25 16.01.2021
3657 Clouds 18 1025 63 10000 8.23 40 20:59 16.01.2021
3658 Clouds 18 1025 63 10000 8.23 40 20:41 16.01.2021
3659 Clouds 18 1024 68 10000 6.69 40 20:19 16.01.2021
3660 Drizzle 18 1025 68 10000 7.2 40 19:42 16.01.2021
3661 Clouds 19 1025 68 10000 7.72 30 19:24 16.01.2021
3662 Clouds 19 1024 68 10000 8.23 30 18:42 16.01.2021
3663 Clouds 19 1024 63 10000 7.72 20 18:24 16.01.2021
3664 Clouds 20 1024 63 10000 7.72 30 17:46 16.01.2021
3665 Clouds 20 1024 60 10000 8.23 30 17:28 16.01.2021
3666 Clouds 20 1024 60 10000 7.72 30 16:45 16.01.2021
3667 Clouds 20 1024 60 10000 8.75 30 16:26 16.01.2021
3668 Clouds 20 1024 60 10000 8.23 30 15:51 16.01.2021
3669 Clouds 20 1025 60 10000 7.72 30 15:20 16.01.2021
3670 Clouds 20 1025 52 10000 8.75 30 14:21 16.01.2021
3671 Clouds 20 1026 56 10000 9.26 40 13:48 16.01.2021
3672 Clouds 20 1026 60 10000 8.75 40 13:21 16.01.2021
3673 Clouds 20 1027 49 10000 8.23 10 12:39 16.01.2021
3674 Clouds 19 1027 49 10000 8.23 10 12:20 16.01.2021
3675 Clouds 18 1026 48 10000 8.23 10 11:48 16.01.2021
3676 Clouds 18 1026 52 10000 9.77 30 11:25 16.01.2021
3677 Clouds 17 1026 55 10000 9.26 30 10:46 16.01.2021
3678 Clouds 16 1025 59 10000 6.69 360 10:21 16.01.2021
3679 Clouds 16 1025 59 10000 7.2 10 09:33 16.01.2021
3680 Clouds 15 1025 59 10000 6.69 20 08:35 16.01.2021
3681 Clouds 16 1025 55 10000 6.69 10 07:32 16.01.2021
3682 Clouds 15 1025 63 10000 6.69 10 06:43 16.01.2021
3683 Clouds 16 1025 59 10000 9.26 30 04:39 16.01.2021
3684 Clouds 17 1026 55 10000 5.14 360 02:56 16.01.2021
3685 Clouds 17 1026 55 10000 8.75 20 00:50 16.01.2021
3686 Clouds 17 1027 55 10000 10.29 40 00:28 16.01.2021
3687 Clouds 17 1026 55 10000 10.29 20 23:58 15.01.2021
3688 Clouds 17 1026 59 10000 7.72 360 23:21 15.01.2021
3689 Clouds 17 1026 55 10000 7.2 350 22:25 15.01.2021
3690 Clouds 17 1026 59 10000 9.77 30 21:46 15.01.2021
3691 Clouds 17 1026 52 10000 7.72 10 20:59 15.01.2021
3692 Clouds 17 1026 52 10000 8.75 10 20:40 15.01.2021
3693 Clouds 17 1026 52 10000 8.75 10 20:40 15.01.2021
3694 Clouds 18 1026 52 10000 8.75 10 20:21 15.01.2021
3695 Clouds 18 1025 55 10000 10.8 30 19:41 15.01.2021
3696 Clouds 18 1025 59 10000 9.26 20 19:22 15.01.2021
3697 Clouds 19 1026 68 10000 7.2 10 18:43 15.01.2021
3698 Clouds 19 1025 52 10000 8.75 20 18:19 15.01.2021
3699 Clouds 19 1025 52 10000 9.26 20 17:51 15.01.2021
3700 Clouds 19 1025 55 10000 9.77 30 17:26 15.01.2021
3701 Clouds 19 1025 55 10000 8.23 30 16:54 15.01.2021
3702 Clouds 18 1026 55 10000 7.2 10 16:25 15.01.2021
3703 Clouds 19 1026 59 10000 8.75 30 15:43 15.01.2021
3704 Clouds 19 1026 55 10000 10.29 30 15:23 15.01.2021
3705 Clouds 19 1026 55 10000 8.75 30 14:51 15.01.2021
3706 Clouds 18 1027 55 10000 7.72 20 14:28 15.01.2021
3707 Clouds 18 1028 55 10000 9.26 30 13:46 15.01.2021
3708 Clouds 18 1028 63 10000 8.23 50 13:24 15.01.2021
3709 Clouds 18 1028 55 10000 7.72 30 12:59 15.01.2021
3710 Clouds 18 1028 59 10000 6.69 30 12:37 15.01.2021
3711 Clouds 18 1028 59 10000 6.69 30 12:18 15.01.2021
3712 Clouds 17 1028 67 10000 6.17 40 11:42 15.01.2021
3713 Clouds 17 1027 59 10000 9.26 30 10:58 15.01.2021
3714 Clouds 16 1027 55 10000 9.26 30 10:39 15.01.2021
3715 Clouds 16 1027 55 10000 9.26 30 10:19 15.01.2021
3716 Clouds 16 1027 55 10000 9.26 30 10:19 15.01.2021
3717 Clouds 16 1027 59 10000 7.72 10 09:47 15.01.2021
3718 Clouds 16 1027 59 10000 7.72 10 09:47 15.01.2021
3719 Clouds 16 1027 55 10000 7.2 10 09:27 15.01.2021
3720 Clouds 16 1026 59 10000 9.77 30 08:27 15.01.2021
3721 Clouds 17 1026 59 10000 6.69 10 07:42 15.01.2021
3722 Clouds 16 1026 59 10000 6.17 10 07:21 15.01.2021
3723 Clouds 16 1026 51 10000 10.8 40 05:56 15.01.2021
3724 Clouds 17 1027 59 10000 10.8 40 02:26 15.01.2021
3725 Clouds 17 1028 59 10000 7.2 10 00:32 15.01.2021
3726 Clouds 17 1028 59 10000 9.77 40 23:29 14.01.2021
3727 Clouds 17 1027 59 10000 7.72 40 22:50 14.01.2021
3728 Clouds 17 1027 59 10000 7.2 40 22:27 14.01.2021
3729 Clouds 17 1027 55 10000 8.23 40 21:58 14.01.2021
3730 Clouds 17 1027 63 10000 8.23 40 21:39 14.01.2021
3731 Clouds 17 1027 63 10000 8.23 40 21:20 14.01.2021
3732 Clouds 17 1027 59 10000 7.72 40 20:43 14.01.2021
3733 Clouds 17 1027 59 10000 6.69 40 19:57 14.01.2021
3734 Clouds 17 1027 55 10000 7.72 50 19:36 14.01.2021
3735 Clouds 17 1027 59 10000 6.69 40 18:59 14.01.2021
3736 Clouds 17 1027 59 10000 6.69 40 18:39 14.01.2021
3737 Clouds 17 1027 59 10000 6.69 40 17:57 14.01.2021
3738 Clouds 18 1027 55 10000 6.69 50 17:30 14.01.2021
3739 Clouds 18 1027 55 10000 5.66 50 16:54 14.01.2021
3740 Clouds 18 1027 59 10000 5.66 50 16:31 14.01.2021
3741 Clouds 17 1027 55 10000 6.69 50 15:54 14.01.2021
3742 Clouds 18 1027 59 10000 6.17 60 15:32 14.01.2021
3743 Clouds 19 1028 55 10000 5.66 60 14:48 14.01.2021
3744 Clouds 19 1028 49 10000 5.14 60 14:30 14.01.2021
3745 Clouds 19 1029 56 10000 6.17 80 13:56 14.01.2021
3746 Clouds 18 1029 59 10000 6.17 80 13:24 14.01.2021
3747 Clouds 18 1029 59 10000 5.66 70 12:57 14.01.2021
3748 Clouds 18 1030 63 10000 5.66 80 12:22 14.01.2021
3749 Clouds 18 1029 63 10000 6.69 70 11:58 14.01.2021
3750 Clouds 17 1029 63 10000 5.66 60 11:38 14.01.2021
3751 Clouds 17 1029 63 10000 5.66 60 11:18 14.01.2021
3752 Clouds 17 1029 67 10000 5.66 60 10:40 14.01.2021
3753 Clouds 17 1029 67 10000 5.66 60 10:18 14.01.2021
3754 Clouds 17 1028 63 10000 5.14 60 09:42 14.01.2021
3755 Clouds 16 1028 67 10000 4.12 50 09:20 14.01.2021
3756 Clouds 15 1028 72 10000 3.09 340 08:33 14.01.2021
3757 Clouds 15 1028 72 10000 3.09 340 07:57 14.01.2021
3758 Clouds 15 1027 72 10000 3.09 340 07:31 14.01.2021
3759 Clouds 15 1027 72 10000 3.6 340 06:34 14.01.2021
3760 Clouds 16 1028 72 10000 3.09 340 04:57 14.01.2021
3761 Clouds 16 1029 72 10000 3.6 350 00:27 14.01.2021
3762 Clouds 17 1028 72 10000 5.66 30 23:28 13.01.2021
3763 Clouds 17 1028 67 10000 7.2 30 22:48 13.01.2021
3764 Clouds 17 1028 67 10000 6.69 30 22:21 13.01.2021
3765 Clouds 17 1028 63 10000 6.69 20 21:43 13.01.2021
3766 Clouds 17 1028 63 10000 4.63 360 21:22 13.01.2021
3767 Clouds 17 1027 63 10000 5.14 10 20:51 13.01.2021
3768 Clouds 17 1027 59 10000 5.66 10 20:23 13.01.2021
3769 Clouds 18 1027 59 10000 5.66 20 19:48 13.01.2021
3770 Clouds 18 1027 55 10000 7.2 10 19:24 13.01.2021
3771 Clouds 18 1027 59 10000 7.72 20 18:46 13.01.2021
3772 Clouds 18 1027 59 10000 6.69 20 18:25 13.01.2021
3773 Clouds 19 1027 55 10000 6.69 30 17:42 13.01.2021
3774 Clouds 19 1026 55 10000 7.72 30 17:18 13.01.2021
3775 Clouds 19 1026 55 10000 8.23 30 16:42 13.01.2021
3776 Clouds 19 1026 55 10000 8.23 30 16:21 13.01.2021
3777 Clouds 20 1026 56 10000 8.23 20 15:41 13.01.2021
3778 Clouds 19 1027 55 10000 8.75 30 15:20 13.01.2021
3779 Clouds 19 1027 59 10000 8.75 30 14:28 13.01.2021
3780 Clouds 18 1027 55 10000 8.75 30 13:47 13.01.2021
3781 Clouds 19 1028 59 10000 8.23 40 13:25 13.01.2021
3782 Clouds 18 1028 59 10000 8.23 40 12:46 13.01.2021
3783 Clouds 18 1028 59 10000 8.23 40 12:25 13.01.2021
3784 Clouds 17 1028 63 10000 7.72 50 11:51 13.01.2021
3785 Clouds 17 1028 63 10000 8.23 60 11:33 13.01.2021
3786 Clouds 16 1027 68 10000 7.2 60 10:49 13.01.2021
3787 Clouds 16 1027 72 10000 7.72 60 10:28 13.01.2021
3788 Clouds 16 1027 72 10000 8.23 60 09:40 13.01.2021
3789 Clouds 16 1026 67 10000 8.23 50 08:59 13.01.2021
3790 Clouds 16 1026 67 10000 8.23 50 08:41 13.01.2021
3791 Clouds 17 1026 72 10000 7.72 50 08:23 13.01.2021
3792 Clouds 16 1026 72 10000 7.2 40 07:29 13.01.2021
3793 Clouds 15 1026 82 10000 3.09 360 05:55 13.01.2021
3794 Clouds 16 1026 77 10000 5.66 30 04:18 13.01.2021
3795 Clouds 16 1026 77 10000 6.17 40 03:43 13.01.2021
3796 Clouds 16 1026 72 10000 7.72 40 03:22 13.01.2021
3797 Clouds 16 1026 72 10000 4.12 340 00:48 13.01.2021
3798 Rain 17 1026 63 10000 7.2 40 23:43 12.01.2021
3799 Rain 16 1026 72 10000 4.12 350 22:58 12.01.2021
3800 Clouds 16 1025 72 10000 3.6 330 22:39 12.01.2021
3801 Rain 16 1025 72 10000 3.6 330 22:19 12.01.2021
3802 Rain 16 1025 72 10000 4.12 340 21:43 12.01.2021
3803 Rain 16 1025 72 10000 4.12 330 21:24 12.01.2021
3804 Rain 16 1025 72 10000 5.14 330 20:47 12.01.2021
3805 Clouds 16 1024 72 10000 5.14 340 20:26 12.01.2021
3806 Clouds 17 1024 72 10000 5.66 340 19:44 12.01.2021
3807 Clouds 18 1024 59 10000 6.17 360 18:57 12.01.2021
3808 Clouds 18 1024 55 10000 5.14 360 18:38 12.01.2021
3809 Clouds 18 1024 55 10000 5.14 360 18:20 12.01.2021
3810 Clouds 18 1024 55 10000 6.17 360 17:34 12.01.2021
3811 Clouds 17 1024 59 10000 5.66 20 16:54 12.01.2021
3812 Clouds 17 1024 59 10000 4.63 360 16:36 12.01.2021
3813 Clouds 17 1024 59 10000 4.63 360 16:18 12.01.2021
3814 Clouds 16 1024 77 10000 2.57 350 15:29 12.01.2021
3815 Clouds 16 1025 82 10000 2.57 40 14:57 12.01.2021
3816 Rain 15 1026 88 8000 7.72 40 14:39 12.01.2021
3817 Rain 16 1026 88 8000 7.72 40 14:18 12.01.2021
3818 Rain 18 1026 77 10000 10.29 10 13:45 12.01.2021
3819 Clouds 17 1027 72 10000 4.12 360 12:39 12.01.2021
3820 Clouds 17 1026 63 10000 3.6 340 11:55 12.01.2021
3821 Clouds 16 1026 67 10000 4.12 310 11:36 12.01.2021
3822 Rain 15 1025 72 10000 3.6 330 10:44 12.01.2021
3823 Clouds 14 1025 82 10000 3.6 280 10:20 12.01.2021
3824 Rain 14 1025 94 10000 4.63 330 09:54 12.01.2021
3825 Rain 14 1025 88 6000 5.14 10 09:24 12.01.2021
3826 Clouds 14 1024 82 10000 4.63 350 08:39 12.01.2021
3827 Clouds 14 1024 82 10000 4.63 350 08:20 12.01.2021
3828 Rain 14 1023 82 9000 4.12 340 07:34 12.01.2021
3829 Rain 14 1024 82 10000 3.6 320 05:56 12.01.2021
3830 Clouds 15 1024 72 10000 4.12 320 03:48 12.01.2021
3831 Rain 15 1024 72 10000 4.12 320 03:23 12.01.2021
3832 Clouds 15 1024 67 10000 3.6 310 02:18 12.01.2021
3833 Rain 15 1025 72 10000 4.12 330 00:55 12.01.2021
3834 Drizzle 16 1025 72 10000 7.2 40 23:44 11.01.2021
3835 Drizzle 15 1025 82 10000 3.6 340 23:20 11.01.2021
3836 Drizzle 16 1024 82 10000 6.17 340 22:47 11.01.2021
3837 Drizzle 16 1024 72 10000 3.6 340 22:28 11.01.2021
3838 Clouds 16 1024 67 10000 5.14 330 21:47 11.01.2021
3839 Clouds 16 1023 67 10000 4.12 330 21:26 11.01.2021
3840 Clouds 16 1023 82 10000 3.6 350 20:59 11.01.2021
3841 Rain 16 1023 82 10000 4.12 360 20:39 11.01.2021
3842 Rain 16 1023 82 10000 4.12 360 20:21 11.01.2021
3843 Rain 16 1023 82 10000 6.69 340 19:50 11.01.2021
3844 Rain 16 1023 82 10000 7.72 360 19:23 11.01.2021
3845 Clouds 17 1022 59 10000 8.23 10 18:44 11.01.2021
3846 Clouds 17 1022 67 10000 8.75 20 18:24 11.01.2021
3847 Clouds 18 1022 59 10000 8.75 10 17:42 11.01.2021
3848 Clouds 18 1022 59 10000 8.75 10 17:24 11.01.2021
3849 Rain 18 1022 59 10000 8.75 20 16:49 11.01.2021
3850 Clouds 18 1022 63 10000 9.26 20 16:29 11.01.2021
3851 Clouds 18 1022 59 10000 9.26 20 15:58 11.01.2021
3852 Clouds 18 1022 59 10000 9.77 20 15:37 11.01.2021
3853 Clouds 19 1023 55 10000 8.23 10 14:58 11.01.2021
3854 Clouds 18 1023 63 10000 7.2 340 14:37 11.01.2021
3855 Clouds 18 1024 55 10000 8.75 10 13:48 11.01.2021
3856 Clouds 17 1024 63 10000 7.2 330 13:23 11.01.2021
3857 Clouds 18 1024 63 10000 9.77 350 12:44 11.01.2021
3858 Clouds 17 1024 63 10000 8.23 360 12:26 11.01.2021
3859 Clouds 18 1024 55 10000 7.72 350 11:48 11.01.2021
3860 Clouds 17 1024 55 10000 5.66 350 11:18 11.01.2021
3861 Clouds 14 1023 63 10000 5.14 350 10:42 11.01.2021
3862 Clouds 14 1023 63 10000 5.14 350 10:21 11.01.2021
3863 Clouds 14 1023 67 10000 4.63 330 09:37 11.01.2021
3864 Clouds 14 1023 67 10000 4.63 330 09:19 11.01.2021
3865 Clouds 14 1023 67 10000 3.6 310 08:38 11.01.2021
3866 Clouds 14 1023 67 10000 3.6 320 07:50 11.01.2021
3867 Clouds 15 1023 63 10000 3.6 330 07:25 11.01.2021
3868 Clouds 14 1023 72 10000 3.6 340 06:49 11.01.2021
3869 Rain 14 1023 82 10000 4.12 350 02:52 11.01.2021
3870 Drizzle 14 1023 88 10000 6.69 340 00:57 11.01.2021
3871 Rain 15 1023 82 8000 7.72 360 23:48 10.01.2021
3872 Clouds 16 1022 82 9000 7.72 360 23:23 10.01.2021
3873 Clouds 16 1022 63 10000 4.63 340 22:44 10.01.2021
3874 Clouds 17 1022 59 10000 6.69 340 22:20 10.01.2021
3875 Clouds 17 1022 59 10000 5.66 340 21:41 10.01.2021
3876 Rain 17 1022 59 10000 4.12 350 21:20 10.01.2021
3877 Rain 17 1022 55 10000 4.63 340 20:49 10.01.2021
3878 Clouds 17 1021 55 10000 5.14 350 20:29 10.01.2021
3879 Rain 18 1021 63 10000 5.66 340 19:42 10.01.2021
3880 Clouds 18 1021 55 10000 7.72 340 19:23 10.01.2021
3881 Drizzle 18 1021 59 10000 8.23 350 18:45 10.01.2021
3882 Clouds 19 1021 52 10000 6.17 340 18:20 10.01.2021
3883 Clouds 20 1021 45 10000 9.77 340 17:26 10.01.2021
3884 Clouds 19 1021 42 10000 10.29 320 16:51 10.01.2021
3885 Clouds 20 1021 42 10000 9.77 330 16:31 10.01.2021
3886 Clouds 20 1021 45 10000 8.75 330 15:42 10.01.2021
3887 Clouds 20 1021 45 10000 8.75 330 15:42 10.01.2021
3888 Clouds 20 1021 45 10000 10.29 340 15:24 10.01.2021
3889 Clouds 19 1022 45 10000 8.75 340 14:41 10.01.2021
3890 Clouds 19 1022 52 10000 9.26 350 14:23 10.01.2021
3891 Clouds 19 1023 55 10000 8.23 330 13:48 10.01.2021
3892 Rain 19 1023 52 10000 7.72 340 13:27 10.01.2021
3893 Rain 19 1024 48 10000 8.75 330 12:59 10.01.2021
3894 Clouds 19 1024 45 10000 8.75 330 12:41 10.01.2021
3895 Clouds 18 1024 59 10000 7.2 330 11:57 10.01.2021
3896 Clouds 17 1023 63 10000 7.72 340 11:21 10.01.2021
3897 Clouds 16 1023 67 10000 6.17 340 10:52 10.01.2021
3898 Clouds 16 1023 67 10000 4.12 320 10:24 10.01.2021
3899 Clouds 15 1023 72 10000 4.63 350 09:46 10.01.2021
3900 Clouds 15 1022 67 10000 3.6 310 08:50 10.01.2021
3901 Clouds 14 1022 82 10000 4.63 310 08:18 10.01.2021
3902 Drizzle 14 1021 77 10000 4.63 310 06:52 10.01.2021
3903 Drizzle 14 1021 72 10000 3.09 340 06:18 10.01.2021
3904 Clouds 15 1021 63 10000 4.12 320 05:28 10.01.2021
3905 Clouds 15 1022 72 10000 6.69 360 02:38 10.01.2021
3906 Clouds 15 1023 63 10000 3.6 340 00:25 10.01.2021
3907 Rain 15 1022 63 10000 3.6 340 23:42 09.01.2021
3908 Clouds 15 1022 63 10000 4.12 340 23:23 09.01.2021
3909 Clouds 15 1022 67 10000 4.63 340 22:25 09.01.2021
3910 Clouds 15 1021 67 10000 4.12 340 21:59 09.01.2021
3911 Clouds 15 1021 63 10000 5.66 340 21:40 09.01.2021
3912 Clouds 15 1021 63 10000 5.66 340 21:21 09.01.2021
3913 Clouds 15 1021 63 10000 4.63 340 20:58 09.01.2021
3914 Clouds 15 1020 67 10000 6.69 340 20:37 09.01.2021
3915 Rain 16 1020 59 10000 6.17 360 19:42 09.01.2021
3916 Clouds 16 1020 59 10000 6.17 360 19:21 09.01.2021
3917 Clouds 17 1020 67 10000 8.75 360 18:39 09.01.2021
3918 Clouds 17 1020 67 10000 8.75 360 18:19 09.01.2021
3919 Clouds 18 1020 55 10000 7.72 350 17:43 09.01.2021
3920 Clouds 18 1019 63 10000 8.75 350 17:23 09.01.2021
3921 Clouds 16 1020 77 10000 7.2 330 16:31 09.01.2021
3922 Clouds 19 1019 45 10000 10.29 340 15:47 09.01.2021
3923 Clouds 18 1019 48 10000 10.8 350 15:27 09.01.2021
3924 Drizzle 18 1020 52 10000 9.77 340 14:38 09.01.2021
3925 Drizzle 18 1020 52 10000 9.77 340 14:20 09.01.2021
3926 Clouds 18 1020 55 10000 8.23 350 13:47 09.01.2021
3927 Clouds 17 1020 63 10000 7.72 340 13:28 09.01.2021
3928 Clouds 17 1021 72 10000 9.77 360 12:47 09.01.2021
3929 Clouds 18 1020 59 10000 8.23 350 12:21 09.01.2021
3930 Clouds 17 1020 63 10000 8.75 340 11:50 09.01.2021
3931 Clouds 17 1020 59 10000 6.69 330 11:27 09.01.2021
3932 Rain 16 1019 63 10000 5.66 350 10:52 09.01.2021
3933 Rain 16 1019 63 10000 6.69 330 10:27 09.01.2021
3934 Rain 15 1018 58 10000 7.72 330 09:46 09.01.2021
3935 Rain 14 1018 67 10000 4.63 340 09:21 09.01.2021
3936 Clouds 14 1017 67 10000 2.57 340 08:26 09.01.2021
3937 Rain 14 1017 67 10000 4.12 320 06:56 09.01.2021
3938 Clouds 15 1017 63 10000 5.14 320 06:38 09.01.2021
3939 Clouds 15 1017 72 10000 5.66 330 04:43 09.01.2021
3940 Clouds 15 1016 63 10000 2.57 330 02:48 09.01.2021
3941 Clouds 15 1016 63 10000 3.09 300 02:29 09.01.2021
3942 Clouds 15 1016 72 10000 4.12 350 01:36 09.01.2021
3943 Clouds 15 1016 77 10000 4.12 340 00:34 09.01.2021
3944 Rain 15 1016 88 10000 5.14 350 23:50 08.01.2021
3945 Rain 15 1016 88 10000 5.14 350 23:50 08.01.2021
3946 Clouds 15 1016 77 10000 7.2 360 22:54 08.01.2021
3947 Clouds 16 1015 77 10000 4.63 10 21:59 08.01.2021
3948 Clouds 16 1015 82 10000 7.72 10 21:34 08.01.2021
3949 Rain 16 1014 72 10000 7.2 360 20:42 08.01.2021
3950 Rain 17 1014 72 10000 7.2 350 20:23 08.01.2021
3951 Drizzle 17 1013 77 10000 6.69 350 19:39 08.01.2021
3952 Rain 17 1013 77 10000 6.69 350 19:20 08.01.2021
3953 Drizzle 18 1012 72 10000 8.23 10 18:34 08.01.2021
3954 Rain 18 1012 72 10000 6.17 360 17:55 08.01.2021
3955 Clouds 18 1012 77 10000 6.69 360 17:30 08.01.2021
3956 Rain 18 1012 88 9000 7.2 10 16:51 08.01.2021
3957 Rain 16 1011 88 6000 10.29 10 15:57 08.01.2021
3958 Rain 16 1011 88 7000 8.23 20 15:38 08.01.2021
3959 Rain 19 1011 82 7000 8.75 10 14:41 08.01.2021
3960 Rain 20 1011 77 9000 9.26 10 14:22 08.01.2021
3961 Clouds 20 1011 64 10000 8.75 360 13:22 08.01.2021
3962 Clouds 20 1011 64 10000 10.8 10 12:53 08.01.2021
3963 Clouds 21 1010 60 10000 7.2 340 12:23 08.01.2021
3964 Clouds 20 1010 64 10000 6.17 350 11:59 08.01.2021
3965 Clouds 20 1010 56 10000 5.14 330 11:40 08.01.2021
3966 Clouds 20 1010 56 10000 5.14 330 11:20 08.01.2021
3967 Clouds 19 1009 68 10000 4.63 350 10:45 08.01.2021
3968 Clouds 18 1008 72 10000 2.57 310 09:57 08.01.2021
3969 Clouds 18 1007 68 10000 3.6 40 09:38 08.01.2021
3970 Clouds 18 1007 68 10000 3.6 40 09:19 08.01.2021
3971 Clouds 18 1005 77 10000 2.06 80 07:43 08.01.2021
3972 Rain 19 1005 68 10000 4.12 10 07:24 08.01.2021
3973 Rain 19 1003 72 10000 6.69 220 04:18 08.01.2021
3974 Clouds 20 1004 88 10000 11.83 210 23:43 07.01.2021
3975 Rain 20 1005 94 9000 9.77 220 22:55 07.01.2021
3976 Rain 21 1004 78 10000 9.77 210 22:36 07.01.2021
3977 Rain 22 1004 68 10000 12.35 230 21:50 07.01.2021
3978 Clouds 22 1004 60 10000 10.29 230 21:31 07.01.2021
3979 Clouds 22 1003 68 10000 10.29 220 20:55 07.01.2021
3980 Rain 22 1003 60 10000 10.8 230 20:36 07.01.2021
3981 Clouds 22 1003 60 10000 10.8 230 19:49 07.01.2021
3982 Clouds 21 1003 60 10000 9.77 220 19:26 07.01.2021
3983 Clouds 22 1003 60 10000 9.77 230 18:47 07.01.2021
3984 Clouds 22 1004 60 10000 10.29 230 18:20 07.01.2021
3985 Clouds 23 1004 60 10000 7.72 220 17:35 07.01.2021
3986 Clouds 23 1004 53 10000 7.72 230 16:57 07.01.2021
3987 Clouds 23 1004 57 10000 8.23 230 16:32 07.01.2021
3988 Clouds 22 1004 53 10000 8.23 240 15:56 07.01.2021
3989 Clouds 23 1004 64 10000 7.72 250 15:31 07.01.2021
3990 Clouds 20 1004 94 10000 11.32 200 14:34 07.01.2021
3991 Rain 19 1005 94 2000 12.86 220 13:59 07.01.2021
3992 Rain 22 1005 83 4000 12.35 230 13:30 07.01.2021
3993 Clouds 22 1005 83 10000 14.75 220 12:56 07.01.2021
3994 Rain 22 1006 73 10000 14.4 220 12:24 07.01.2021
3995 Rain 22 1006 73 10000 14.4 220 11:43 07.01.2021
3996 Clouds 21 1005 83 10000 12.9 220 11:25 07.01.2021
3997 Clouds 21 1005 73 10000 12.3 220 10:38 07.01.2021
3998 Clouds 21 1005 73 10000 12.3 220 10:19 07.01.2021
3999 Clouds 20 1004 82 10000 10.8 220 09:41 07.01.2021
4000 Clouds 20 1004 77 10000 12.3 220 08:51 07.01.2021
4001 Clouds 21 1004 73 10000 8.7 210 08:23 07.01.2021
4002 Clouds 20 1004 73 10000 8.7 210 07:43 07.01.2021
4003 Clouds 20 1005 82 10000 9.8 200 06:50 07.01.2021
4004 Clouds 20 1006 82 10000 7.7 200 03:18 07.01.2021
4005 Clouds 20 1007 77 10000 5.7 220 00:25 07.01.2021
4006 Clouds 20 1006 77 10000 7.2 230 23:35 06.01.2021
4007 Clouds 20 1007 72 10000 3.1 200 22:36 06.01.2021
4008 Clouds 21 1006 68 10000 6.2 210 21:42 06.01.2021
4009 Clouds 21 1006 68 10000 6.2 210 21:22 06.01.2021
4010 Clouds 21 1006 77 10000 6.7 190 20:50 06.01.2021
4011 Clouds 22 1006 64 10000 6.2 180 20:22 06.01.2021
4012 Clouds 22 1005 60 10000 5.1 190 19:48 06.01.2021
4013 Clouds 23 1004 57 10000 7.7 210 19:28 06.01.2021
4014 Clouds 22 1004 73 10000 8.7 180 18:50 06.01.2021
4015 Clouds 25 1004 57 10000 7.2 210 18:31 06.01.2021
4016 Clouds 23 1004 60 10000 7.7 230 17:47 06.01.2021
4017 Clouds 23 1004 60 10000 7.7 230 17:28 06.01.2021
4018 Clouds 22 1004 83 10000 9.8 190 16:57 06.01.2021
4019 Clouds 22 1004 83 10000 9.3 190 16:21 06.01.2021
4020 Clouds 22 1004 83 10000 10.3 200 15:59 06.01.2021
4021 Clouds 22 1005 88 10000 9.8 200 15:39 06.01.2021
4022 Clouds 22 1005 88 10000 9.8 200 15:21 06.01.2021
4023 Rain 22 1006 78 10000 9.8 190 14:32 06.01.2021
4024 Clouds 22 1007 78 10000 8.7 200 13:55 06.01.2021
4025 Rain 22 1007 83 10000 10.3 200 13:27 06.01.2021
4026 Rain 22 1007 88 10000 9.3 190 12:58 06.01.2021
4027 Rain 22 1007 83 10000 9.8 180 12:30 06.01.2021
4028 Rain 21 1007 88 10000 11.3 190 11:44 06.01.2021
4029 Rain 21 1007 88 10000 11.3 190 11:21 06.01.2021
4030 Rain 20 1007 94 10000 11.8 190 10:35 06.01.2021
4031 Rain 20 1007 94 10000 10.8 190 09:52 06.01.2021
4032 Rain 20 1007 94 7000 10.3 200 09:27 06.01.2021
4033 Drizzle 20 1007 94 5000 8.7 190 08:51 06.01.2021
4034 Drizzle 20 1006 88 9000 8.7 180 08:18 06.01.2021
4035 Drizzle 20 1006 88 9000 8.7 190 07:49 06.01.2021
4036 Clouds 20 1007 88 10000 8.7 180 06:44 06.01.2021
4037 Clouds 20 1008 82 10000 7.2 200 05:28 06.01.2021
4038 Clouds 20 1009 82 10000 4.6 220 02:59 06.01.2021
4039 Clouds 19 1009 88 10000 3.6 210 02:40 06.01.2021
4040 Clouds 19 1009 88 10000 3.6 210 02:19 06.01.2021
4041 Clouds 19 1010 72 10000 1.62 194 23:48 05.01.2021
4042 Clouds 19 1010 77 10000 2.1 230 22:55 05.01.2021
4043 Clouds 19 1010 88 10000 3.1 200 22:36 05.01.2021
4044 Clouds 19 1010 88 10000 3.1 200 22:18 05.01.2021
4045 Clouds 19 1010 88 10000 1.5 210 21:19 05.01.2021
4046 Clouds 20 1010 83 10000 1.5 80 20:30 05.01.2021
4047 Clouds 21 1010 83 10000 3.1 50 19:45 05.01.2021
4048 Clouds 21 1010 83 10000 3.1 50 19:27 05.01.2021
4049 Clouds 22 1009 68 10000 4.1 20 18:50 05.01.2021
4050 Clouds 22 1010 73 10000 4.1 30 18:28 05.01.2021
4051 Clouds 22 1009 64 10000 3.6 30 17:54 05.01.2021
4052 Clouds 22 1009 64 10000 5.1 10 17:32 05.01.2021
4053 Clouds 23 1009 60 10000 6.2 30 16:54 05.01.2021
4054 Clouds 23 1009 60 10000 6.7 20 16:24 05.01.2021
4055 Clouds 23 1009 60 10000 6.7 20 15:59 05.01.2021
4056 Clouds 23 1009 60 10000 4.6 30 15:40 05.01.2021
4057 Clouds 23 1009 60 10000 3.1 50 14:48 05.01.2021
4058 Clouds 22 1011 60 10000 2.6 80 14:18 05.01.2021
4059 Clouds 22 1011 56 10000 2.1 110 13:39 05.01.2021
4060 Clouds 22 1011 56 10000 2.1 110 13:20 05.01.2021
4061 Clouds 21 1012 64 10000 3.6 160 12:46 05.01.2021
4062 Clouds 22 1012 60 10000 2.1 110 12:20 05.01.2021
4063 Clouds 22 1012 60 10000 1 0 11:32 05.01.2021
4064 Clouds 22 1012 60 10000 1 0 11:31 05.01.2021
4065 Clouds 19 1011 63 10000 1.5 310 10:46 05.01.2021
4066 Clouds 19 1011 63 10000 1.5 310 10:25 05.01.2021
4067 Clouds 18 1011 68 10000 3.1 260 09:47 05.01.2021
4068 Clouds 17 1011 72 10000 0.5 250 09:26 05.01.2021
4069 Clouds 17 1011 67 10000 2.6 240 08:23 05.01.2021
4070 Clear 17 1010 77 10000 1.5 300 06:39 05.01.2021
4071 Clouds 19 1011 88 10000 2.6 290 03:42 05.01.2021
4072 Clouds 18 1011 77 10000 8.2 230 00:28 05.01.2021
4073 Clouds 18 1011 77 10000 5.1 250 23:43 04.01.2021
4074 Clouds 18 1011 82 10000 11.3 220 23:24 04.01.2021
4075 Clouds 18 1011 82 10000 9.8 220 22:46 04.01.2021
4076 Clouds 18 1011 82 10000 9.8 220 22:46 04.01.2021
4077 Clouds 18 1011 72 10000 7.7 230 22:21 04.01.2021
4078 Clouds 18 1012 72 10000 8.2 220 21:44 04.01.2021
4079 Clouds 19 1011 64 10000 4.6 230 21:24 04.01.2021
4080 Clouds 18 1011 72 10000 1 0 20:43 04.01.2021
4081 Clouds 18 1011 72 10000 1.5 0 20:22 04.01.2021
4082 Clouds 18 1011 72 10000 8.2 210 19:43 04.01.2021
4083 Clouds 18 1011 72 10000 8.2 210 19:21 04.01.2021
4084 Clouds 18 1011 72 10000 9.3 210 18:48 04.01.2021
4085 Clouds 18 1011 72 10000 8.7 190 18:18 04.01.2021
4086 Clouds 18 1010 72 10000 11.8 200 17:39 04.01.2021
4087 Clouds 18 1010 72 10000 11.8 200 17:21 04.01.2021
4088 Clouds 18 1011 72 10000 10.8 200 16:44 04.01.2021
4089 Clouds 18 1011 72 10000 10.8 200 16:26 04.01.2021
4090 Clouds 19 1012 68 10000 11.3 210 15:49 04.01.2021
4091 Clouds 19 1012 68 10000 10.8 210 15:25 04.01.2021
4092 Clouds 19 1013 68 10000 10.3 200 14:21 04.01.2021
4093 Clouds 18 1014 68 10000 9.3 190 13:37 04.01.2021
4094 Clouds 18 1014 68 10000 8.2 200 12:57 04.01.2021
4095 Clouds 18 1015 68 10000 8.2 200 12:31 04.01.2021
4096 Clouds 19 1015 68 10000 6.7 190 11:52 04.01.2021
4097 Clouds 18 1015 72 10000 5.1 190 11:20 04.01.2021
4098 Clouds 18 1015 72 10000 4.6 190 10:46 04.01.2021
4099 Clouds 18 1014 72 10000 5.1 190 10:23 04.01.2021
4100 Clouds 18 1014 72 10000 5.1 190 09:48 04.01.2021
4101 Clouds 17 1014 72 10000 4.1 210 09:18 04.01.2021
4102 Clouds 16 1014 72 10000 2.6 210 08:32 04.01.2021
4103 Clouds 16 1014 77 10000 2.6 210 07:47 04.01.2021
4104 Clouds 17 1014 77 10000 2.6 210 06:40 04.01.2021
4105 Clouds 17 1015 72 10000 2.1 260 05:20 04.01.2021
4106 Clouds 17 1016 67 10000 2.6 240 02:31 04.01.2021
4107 Clouds 17 1016 67 10000 2.1 260 00:29 04.01.2021
4108 Clouds 17 1017 63 10000 0.5 0 23:38 03.01.2021
4109 Clouds 17 1017 59 10000 0.5 0 22:59 03.01.2021
4110 Clouds 17 1017 63 10000 1.5 290 22:41 03.01.2021
4111 Clouds 17 1017 63 10000 1.5 290 22:22 03.01.2021
4112 Clouds 18 1017 63 10000 3.13 111 21:45 03.01.2021
4113 Clouds 18 1017 63 10000 1 210 21:24 03.01.2021
4114 Clouds 18 1016 63 10000 1.5 140 20:42 03.01.2021
4115 Clouds 18 1016 63 10000 1.5 140 20:20 03.01.2021
4116 Clouds 19 1016 55 10000 2.1 120 19:47 03.01.2021
4117 Clouds 19 1016 55 10000 1.5 90 19:28 03.01.2021
4118 Clouds 18 1016 55 10000 2.6 80 18:50 03.01.2021
4119 Clouds 18 1016 55 10000 2.1 100 18:30 03.01.2021
4120 Clouds 19 1015 55 10000 2.1 70 17:53 03.01.2021
4121 Clouds 19 1015 59 10000 2.6 70 17:27 03.01.2021
4122 Clouds 19 1015 59 10000 2.1 80 16:56 03.01.2021
4123 Clouds 19 1016 63 10000 2.6 80 16:37 03.01.2021
4124 Clouds 19 1016 63 10000 2.6 80 16:18 03.01.2021
4125 Clouds 19 1016 59 10000 3.6 50 15:40 03.01.2021
4126 Clouds 19 1017 59 10000 3.6 50 14:59 03.01.2021
4127 Clouds 19 1017 63 10000 3.1 70 14:40 03.01.2021
4128 Clouds 19 1017 59 10000 2.6 70 13:54 03.01.2021
4129 Clouds 19 1018 59 10000 2.1 100 13:25 03.01.2021
4130 Clouds 19 1018 59 10000 1.5 100 12:57 03.01.2021
4131 Clouds 18 1019 55 10000 1.5 70 11:44 03.01.2021
4132 Clouds 18 1019 59 10000 0.5 0 11:26 03.01.2021
4133 Clouds 18 1018 63 10000 1 0 10:56 03.01.2021
4134 Clouds 17 1017 63 10000 1.5 0 10:31 03.01.2021
4135 Clouds 17 1017 67 10000 2.1 310 09:43 03.01.2021
4136 Clouds 17 1017 63 10000 2.1 300 09:23 03.01.2021
4137 Clouds 16 1016 67 10000 2.6 310 07:59 03.01.2021
4138 Clouds 17 1016 67 10000 1.5 340 06:25 03.01.2021
4139 Clouds 17 1017 63 10000 3.6 40 02:45 03.01.2021
4140 Clouds 17 1018 63 10000 3.1 40 02:20 03.01.2021
4141 Clouds 18 1018 68 10000 4.6 40 00:24 03.01.2021
4142 Clouds 18 1018 68 10000 4.6 40 23:32 02.01.2021
4143 Clouds 18 1018 55 10000 4.6 30 22:59 02.01.2021
4144 Clouds 18 1017 55 10000 5.1 50 22:33 02.01.2021
4145 Clouds 18 1017 55 10000 5.1 40 21:55 02.01.2021
4146 Clouds 18 1018 59 10000 4.6 40 21:33 02.01.2021
4147 Clouds 18 1017 63 10000 4.1 40 20:59 02.01.2021
4148 Clouds 18 1017 59 10000 5.7 40 20:39 02.01.2021
4149 Clouds 18 1017 59 10000 5.7 40 20:19 02.01.2021
4150 Clouds 18 1017 68 10000 5.1 40 19:40 02.01.2021
4151 Clouds 18 1017 68 10000 5.1 40 19:18 02.01.2021
4152 Clouds 19 1017 68 10000 6.7 30 18:40 02.01.2021
4153 Clouds 19 1017 68 10000 6.7 30 18:21 02.01.2021
4154 Clouds 19 1017 59 10000 6.7 20 17:45 02.01.2021
4155 Clouds 19 1017 49 10000 6.7 20 17:22 02.01.2021
4156 Clouds 19 1017 55 10000 5.7 10 16:24 02.01.2021
4157 Clouds 20 1018 52 10000 6.2 30 15:57 02.01.2021
4158 Clouds 19 1018 52 10000 5.7 30 15:38 02.01.2021
4159 Clouds 20 1018 52 10000 5.7 30 15:20 02.01.2021
4160 Clouds 19 1019 55 10000 6.2 30 14:36 02.01.2021
4161 Clouds 19 1019 52 10000 4.6 360 13:54 02.01.2021
4162 Clouds 19 1020 52 10000 4.6 20 13:26 02.01.2021
4163 Clouds 19 1020 59 10000 4.6 40 12:52 02.01.2021
4164 Clouds 19 1020 55 10000 3.6 360 12:31 02.01.2021
4165 Clouds 18 1020 55 10000 4.1 340 11:45 02.01.2021
4166 Clouds 18 1020 55 10000 4.1 350 11:22 02.01.2021
4167 Clouds 18 1020 59 10000 4.1 360 10:46 02.01.2021
4168 Clouds 17 1020 63 10000 5.1 350 10:28 02.01.2021
4169 Clouds 17 1020 63 10000 5.1 350 10:28 02.01.2021
4170 Clouds 16 1019 67 10000 2.6 10 09:45 02.01.2021
4171 Clouds 15 1019 72 10000 4.1 330 09:23 02.01.2021
4172 Clouds 15 1019 77 10000 3.6 350 08:50 02.01.2021
4173 Clouds 15 1018 72 10000 3.6 360 08:25 02.01.2021
4174 Clouds 15 1018 77 10000 3.6 360 07:44 02.01.2021
4175 Clouds 15 1019 77 10000 4.1 340 07:21 02.01.2021
4176 Clouds 16 1019 82 10000 4.1 330 06:28 02.01.2021
4177 Clouds 16 1019 72 10000 3.6 340 05:28 02.01.2021
4178 Drizzle 15 1021 87 4000 6.2 40 00:56 02.01.2021
4179 Clouds 17 1021 67 10000 6.2 360 00:35 02.01.2021
4180 Clouds 17 1021 67 10000 5.7 360 23:51 01.01.2021
4181 Clouds 17 1021 67 10000 5.7 350 23:20 01.01.2021
4182 Clouds 17 1021 72 10000 5.7 350 22:47 01.01.2021
4183 Clouds 17 1021 82 10000 5.7 340 22:24 01.01.2021
4184 Clouds 17 1021 82 10000 7.2 360 21:44 01.01.2021
4185 Clouds 17 1020 63 10000 5.7 350 21:22 01.01.2021
4186 Clouds 17 1020 63 10000 5.7 350 20:52 01.01.2021
4187 Clouds 17 1020 67 10000 5.1 350 20:22 01.01.2021
4188 Clouds 18 1020 63 10000 6.7 360 19:43 01.01.2021
4189 Clouds 18 1020 63 10000 9.3 20 19:24 01.01.2021
4190 Clouds 18 1020 68 10000 8.7 20 18:57 01.01.2021
4191 Clouds 18 1020 68 10000 9.3 40 18:39 01.01.2021
4192 Clouds 18 1020 68 10000 9.3 40 18:19 01.01.2021
4193 Clouds 19 1020 52 10000 8.2 20 17:41 01.01.2021
4194 Clouds 19 1020 52 10000 8.2 20 17:18 01.01.2021
4195 Clouds 20 1020 49 10000 8.2 20 16:38 01.01.2021
4196 Clouds 19 1020 49 10000 8.2 20 15:56 01.01.2021
4197 Clouds 19 1021 52 10000 8.7 30 15:36 01.01.2021
4198 Clouds 19 1021 59 10000 6.2 360 14:41 01.01.2021
4199 Clouds 19 1022 63 10000 5.7 360 13:54 01.01.2021
4200 Clouds 19 1022 63 10000 10.8 30 13:36 01.01.2021
4201 Clouds 19 1022 68 10000 8.7 40 12:47 01.01.2021
4202 Clouds 20 1023 45 10000 6.2 10 12:20 01.01.2021
4203 Clouds 19 1022 45 10000 9.3 40 11:39 01.01.2021
4204 Clouds 18 1022 45 10000 9.3 40 11:18 01.01.2021
4205 Clouds 17 1021 63 10000 7.7 30 10:43 01.01.2021
4206 Clouds 18 1021 59 10000 6.7 20 09:50 01.01.2021
4207 Clouds 17 1021 59 10000 8.2 40 09:22 01.01.2021
4208 Clouds 17 1021 55 10000 8.7 30 08:30 01.01.2021
4209 Clouds 17 1021 55 10000 8.7 30 08:30 01.01.2021
4210 Clouds 17 1020 59 10000 4.6 350 05:50 01.01.2021
4211 Clouds 18 1021 59 10000 4.1 350 04:47 01.01.2021
4212 Clouds 18 1022 55 10000 4.6 350 01:39 01.01.2021
4213 Clouds 17 1022 59 10000 5.1 360 00:32 01.01.2021
4214 Drizzle 17 1022 67 10000 6.7 350 23:38 31.12.2020
4215 Drizzle 17 1022 67 10000 6.7 350 23:20 31.12.2020
4216 Clouds 18 1021 63 10000 7.2 10 22:41 31.12.2020
4217 Clouds 18 1021 63 10000 7.2 10 22:21 31.12.2020
4218 Clouds 18 1021 63 10000 6.7 10 21:50 31.12.2020
4219 Clouds 18 1021 63 10000 6.2 10 21:31 31.12.2020
4220 Clouds 18 1020 63 10000 7.2 10 20:57 31.12.2020
4221 Clouds 19 1020 59 10000 6.7 10 20:24 31.12.2020
4222 Clouds 19 1020 59 10000 6.7 10 19:49 31.12.2020
4223 Clouds 19 1020 59 10000 7.7 20 19:31 31.12.2020
4224 Clouds 19 1020 59 10000 6.7 20 18:50 31.12.2020
4225 Clouds 19 1020 63 10000 5.7 20 18:25 31.12.2020
4226 Clouds 19 1020 63 10000 7.2 30 17:46 31.12.2020
4227 Clouds 19 1020 68 10000 6.7 30 17:25 31.12.2020
4228 Clouds 20 1020 64 10000 7.7 30 16:44 31.12.2020
4229 Clouds 20 1020 64 10000 7.7 30 16:26 31.12.2020
4230 Clouds 19 1020 68 10000 9.3 30 15:57 31.12.2020
4231 Clouds 20 1020 64 10000 8.7 30 15:38 31.12.2020
4232 Clouds 20 1020 64 10000 8.7 30 15:18 31.12.2020
4233 Clouds 20 1020 64 10000 6.2 30 14:40 31.12.2020
4234 Clouds 20 1020 64 10000 6.2 30 14:21 31.12.2020
4235 Clouds 20 1021 72 10000 8.2 30 13:42 31.12.2020
4236 Clouds 20 1021 72 10000 8.2 30 13:24 31.12.2020
4237 Clouds 20 1021 68 10000 7.7 40 13:24 31.12.2020
4238 Clouds 19 1021 68 10000 7.7 40 12:55 31.12.2020
4239 Clouds 19 1021 68 10000 7.7 30 12:37 31.12.2020
4240 Clouds 19 1021 63 10000 5.7 360 11:53 31.12.2020
4241 Clouds 18 1020 68 10000 5.1 350 11:32 31.12.2020
4242 Clouds 17 1020 68 10000 5.1 340 10:52 31.12.2020
4243 Clouds 16 1020 72 10000 3.6 330 10:31 31.12.2020
4244 Clouds 16 1020 72 10000 3.6 330 09:59 31.12.2020
4245 Clouds 16 1020 72 10000 4.1 330 09:39 31.12.2020
4246 Clouds 16 1020 72 10000 4.1 330 09:21 31.12.2020
4247 Clouds 16 1019 72 10000 3.1 310 08:46 31.12.2020
4248 Clouds 16 1019 72 10000 3.1 310 08:27 31.12.2020
4249 Clouds 16 1019 77 10000 3.6 310 07:52 31.12.2020
4250 Clouds 16 1019 77 10000 3.6 340 06:49 31.12.2020
4251 Clouds 16 1018 77 10000 3.6 330 05:30 31.12.2020
4252 Clouds 17 1019 77 10000 3.1 340 03:24 31.12.2020
4253 Clouds 16 1019 77 10000 3.1 330 02:26 31.12.2020
4254 Clouds 17 1019 82 10000 2.6 350 01:53 31.12.2020
4255 Clouds 17 1019 82 10000 2.1 350 01:33 31.12.2020
4256 Drizzle 17 1019 82 10000 2.6 330 00:52 31.12.2020
4257 Drizzle 17 1019 82 10000 3.1 330 23:55 30.12.2020
4258 Clouds 17 1019 82 6000 2.6 300 23:20 30.12.2020
4259 Rain 17 1018 82 6000 3.1 310 22:52 30.12.2020
4260 Drizzle 17 1018 77 10000 3.1 360 22:32 30.12.2020
4261 Clouds 18 1018 77 10000 2.6 350 21:49 30.12.2020
4262 Clouds 18 1018 77 10000 3.1 340 21:25 30.12.2020
4263 Clouds 18 1018 77 10000 2.6 360 20:52 30.12.2020
4264 Rain 18 1018 77 10000 3.6 350 20:25 30.12.2020
4265 Rain 18 1017 72 10000 3.6 40 19:42 30.12.2020
4266 Rain 18 1017 72 10000 3.6 40 19:23 30.12.2020
4267 Rain 18 1017 77 10000 4.1 40 18:57 30.12.2020
4268 Rain 18 1017 72 10000 5.7 30 18:37 30.12.2020
4269 Rain 18 1017 72 10000 5.7 30 18:19 30.12.2020
4270 Rain 19 1017 72 10000 5.7 50 17:41 30.12.2020
4271 Clouds 19 1017 72 10000 5.7 50 17:21 30.12.2020
4272 Clouds 19 1016 72 10000 4.6 40 16:41 30.12.2020
4273 Clouds 20 1016 72 10000 6.7 30 15:50 30.12.2020
4274 Clouds 20 1016 72 10000 7.7 40 15:29 30.12.2020
4275 Clouds 20 1017 68 10000 6.7 40 14:45 30.12.2020
4276 Clouds 20 1017 68 10000 6.7 40 14:26 30.12.2020
4277 Clouds 20 1017 68 10000 6.2 50 13:53 30.12.2020
4278 Clouds 21 1018 64 10000 6.2 40 12:49 30.12.2020
4279 Clouds 20 1018 68 10000 6.2 40 12:24 30.12.2020
4280 Clouds 20 1018 56 10000 4.6 350 11:39 30.12.2020
4281 Clouds 20 1018 56 10000 4.6 350 11:20 30.12.2020
4282 Clouds 18 1017 59 10000 4.1 340 10:55 30.12.2020
4283 Clouds 17 1017 63 10000 3.6 330 10:36 30.12.2020
4284 Clouds 16 1016 67 10000 3.1 310 09:55 30.12.2020
4285 Clouds 16 1016 72 10000 3.1 320 09:36 30.12.2020
4286 Clouds 16 1016 72 10000 3.1 320 08:35 30.12.2020
4287 Clouds 16 1016 72 10000 3.1 320 07:32 30.12.2020
4288 Clouds 16 1016 72 10000 3.6 320 06:54 30.12.2020
4289 Clouds 16 1016 72 10000 3.6 330 06:35 30.12.2020
4290 Clouds 17 1016 67 10000 4.1 330 05:46 30.12.2020
4291 Clouds 17 1016 67 10000 3.6 330 05:27 30.12.2020
4292 Clouds 16 1016 72 10000 3.1 330 03:29 30.12.2020
4293 Clouds 17 1016 67 10000 3.1 340 02:47 30.12.2020
4294 Clouds 17 1016 67 10000 4.1 340 02:27 30.12.2020
4295 Clouds 17 1017 72 10000 3.1 340 01:34 30.12.2020
4296 Clouds 17 1017 67 10000 2.6 330 00:51 30.12.2020
4297 Clouds 17 1017 72 10000 3.1 330 00:32 30.12.2020
4298 Clouds 17 1017 72 10000 3.6 350 23:58 29.12.2020
4299 Clouds 18 1016 68 10000 3.6 340 23:40 29.12.2020
4300 Clouds 18 1016 68 10000 3.6 340 23:21 29.12.2020
4301 Clouds 19 1016 63 10000 5.1 20 22:43 29.12.2020
4302 Clouds 19 1016 63 10000 5.1 20 22:23 29.12.2020
4303 Clouds 19 1016 63 10000 6.7 20 21:47 29.12.2020
4304 Clouds 18 1016 72 10000 5.7 30 21:29 29.12.2020
4305 Clouds 18 1016 72 10000 5.1 20 20:48 29.12.2020
4306 Clouds 19 1015 63 10000 6.2 30 20:26 29.12.2020
4307 Clouds 19 1015 68 10000 6.2 40 19:56 29.12.2020
4308 Clouds 19 1015 68 10000 6.7 30 19:37 29.12.2020
4309 Clouds 19 1015 68 10000 6.7 30 19:18 29.12.2020
4310 Clouds 20 1015 64 10000 6.2 40 18:39 29.12.2020
4311 Clouds 20 1015 64 10000 6.2 40 18:19 29.12.2020
4312 Clouds 20 1015 64 10000 6.2 30 17:44 29.12.2020
4313 Clouds 20 1015 64 10000 5.7 30 17:19 29.12.2020
4314 Clouds 20 1015 68 10000 6.7 50 16:36 29.12.2020
4315 Clouds 21 1015 60 10000 6.2 40 15:59 29.12.2020
4316 Clouds 21 1015 64 10000 5.7 50 15:36 29.12.2020
4317 Clouds 21 1016 64 10000 5.7 50 14:58 29.12.2020
4318 Clouds 21 1016 68 10000 5.7 60 14:36 29.12.2020
4319 Clouds 21 1016 68 10000 5.7 60 14:18 29.12.2020
4320 Clouds 20 1017 68 10000 5.1 60 13:39 29.12.2020
4321 Clouds 20 1017 68 10000 5.1 60 13:18 29.12.2020
4322 Clouds 21 1017 68 10000 4.1 50 12:37 29.12.2020
4323 Clouds 20 1017 68 10000 4.1 50 12:19 29.12.2020
4324 Clouds 20 1017 64 10000 4.6 50 11:52 29.12.2020
4325 Clouds 20 1017 68 10000 5.7 40 11:31 29.12.2020
4326 Clouds 18 1016 72 10000 4.6 350 10:23 29.12.2020
4327 Clouds 17 1016 72 10000 4.6 350 09:48 29.12.2020
4328 Clouds 16 1016 72 10000 4.6 350 09:20 29.12.2020
4329 Clouds 17 1015 72 10000 5.1 350 08:52 29.12.2020
4330 Clouds 17 1015 72 10000 4.6 350 08:19 29.12.2020
4331 Clouds 16 1015 82 10000 4.6 350 07:26 29.12.2020
4332 Clouds 16 1015 77 10000 5.1 350 06:26 29.12.2020
4333 Clouds 17 1015 77 10000 5.1 350 03:45 29.12.2020
4334 Clouds 18 1016 72 10000 4.1 350 00:47 29.12.2020
4335 Clouds 17 1015 77 10000 4.1 350 00:20 29.12.2020
4336 Clouds 18 1015 77 10000 4.6 360 23:34 28.12.2020
4337 Clouds 18 1015 77 10000 5.1 350 22:28 28.12.2020
4338 Clouds 19 1015 82 10000 4.6 350 21:45 28.12.2020
4339 Clouds 19 1014 82 10000 6.2 20 21:24 28.12.2020
4340 Clouds 19 1014 82 9000 5.7 20 20:42 28.12.2020
4341 Clouds 19 1014 82 9000 5.7 20 20:22 28.12.2020
4342 Clouds 20 1014 82 9000 5.7 20 19:48 28.12.2020
4343 Clouds 20 1014 77 9000 4.6 20 19:24 28.12.2020
4344 Clouds 20 1014 77 9000 6.2 30 18:51 28.12.2020
4345 Clouds 21 1014 73 9000 6.7 30 18:28 28.12.2020
4346 Clouds 21 1014 73 9000 6.7 30 17:45 28.12.2020
4347 Clear 22 1014 68 9000 6.7 40 17:25 28.12.2020
4348 Clear 22 1014 64 9000 5.1 40 16:45 28.12.2020
4349 Clear 23 1014 56 9000 4.1 40 16:24 28.12.2020
4350 Clear 23 1014 56 9000 4.1 40 15:50 28.12.2020
4351 Clouds 23 1014 33 9000 1.5 80 14:58 28.12.2020
4352 Clouds 23 1015 49 9000 2.6 60 13:59 28.12.2020
4353 Clouds 23 1015 38 9000 3.6 40 13:35 28.12.2020
4354 Clear 23 1016 38 9000 2.6 60 12:55 28.12.2020
4355 Clouds 22 1016 40 9000 2.1 70 12:24 28.12.2020
4356 Clouds 22 1016 35 9000 2.1 60 11:47 28.12.2020
4357 Clouds 22 1016 31 9000 0.5 0 11:25 28.12.2020
4358 Clouds 20 1016 35 9000 1 0 10:49 28.12.2020
4359 Clouds 20 1016 32 9000 1.5 0 10:28 28.12.2020
4360 Clouds 19 1015 32 9000 3.1 310 09:49 28.12.2020
4361 Clouds 17 1015 39 9000 4.1 320 09:21 28.12.2020
4362 Clear 17 1015 48 10000 3.6 320 08:52 28.12.2020
4363 Clear 18 1014 45 10000 3.6 320 06:51 28.12.2020
4364 Clear 16 1015 51 10000 3.1 350 04:41 28.12.2020
4365 Clear 17 1016 48 10000 3.1 360 02:44 28.12.2020
4366 Clear 17 1016 59 10000 2.1 10 00:53 28.12.2020
4367 Clear 17 1016 72 10000 2.6 360 23:49 27.12.2020
4368 Clear 18 1016 77 9000 2.6 320 23:20 27.12.2020
4369 Clear 18 1015 82 9000 1.5 10 21:58 27.12.2020
4370 Clear 19 1015 82 8000 2.1 330 21:27 27.12.2020
4371 Clear 19 1015 77 8000 1 30 20:48 27.12.2020
4372 Clear 20 1014 77 8000 1.14 151 19:48 27.12.2020
4373 Clear 20 1014 77 8000 1.75 162 19:22 27.12.2020
4374 Clear 21 1014 77 8000 2.1 130 18:47 27.12.2020
4375 Clear 21 1014 77 8000 2.1 130 18:19 27.12.2020
4376 Clear 21 1014 73 8000 2.6 130 17:49 27.12.2020
4377 Clouds 22 1014 73 8000 3.1 140 17:30 27.12.2020
4378 Clouds 21 1014 73 8000 2.6 140 16:43 27.12.2020
4379 Clouds 21 1014 73 8000 2.6 140 15:59 27.12.2020
4380 Clear 21 1015 73 8000 2.1 130 15:19 27.12.2020
4381 Clear 21 1016 73 8000 3.1 110 14:41 27.12.2020
4382 Clouds 21 1016 73 8000 3.1 110 14:22 27.12.2020
4383 Clear 21 1016 68 8000 2.6 100 13:22 27.12.2020
4384 Clouds 21 1017 68 8000 2.1 100 12:47 27.12.2020
4385 Clouds 21 1017 68 7000 2.1 70 12:18 27.12.2020
4386 Clouds 19 1017 68 8000 2.6 20 11:39 27.12.2020
4387 Clouds 19 1016 68 8000 2.1 360 10:52 27.12.2020
4388 Clear 18 1016 59 10000 1 0 10:25 27.12.2020
4389 Clear 17 1016 67 10000 1 0 09:53 27.12.2020
4390 Clear 17 1015 77 10000 3.1 310 08:50 27.12.2020
4391 Clouds 16 1015 82 9000 2.6 330 08:25 27.12.2020
4392 Clouds 17 1015 82 9000 2.1 310 07:26 27.12.2020
4393 Clouds 17 1015 88 9000 1 0 05:45 27.12.2020
4394 Clouds 17 1015 88 9000 2.1 290 04:25 27.12.2020
4395 Clouds 18 1015 88 9000 2.1 270 03:20 27.12.2020
4396 Clouds 18 1016 82 9000 2.1 270 01:34 27.12.2020
4397 Clouds 19 1016 82 9000 1 0 00:24 27.12.2020
4398 Clear 19 1016 82 9000 3.52 139 23:32 26.12.2020
4399 Clouds 19 1015 82 9000 3.13 143 22:57 26.12.2020
4400 Clouds 19 1015 82 9000 1.5 340 22:36 26.12.2020
4401 Clouds 19 1015 82 9000 1.5 340 22:18 26.12.2020
4402 Clouds 19 1015 82 9000 1.5 340 22:18 26.12.2020
4403 Clouds 19 1015 88 9000 2.6 220 21:43 26.12.2020
4404 Clouds 19 1015 88 8000 3.6 210 21:22 26.12.2020
4405 Clouds 19 1014 88 8000 3.1 210 20:42 26.12.2020
4406 Clouds 20 1014 88 8000 3.1 210 20:19 26.12.2020
4407 Clouds 20 1013 82 8000 4.6 190 19:27 26.12.2020
4408 Clouds 20 1013 73 8000 5.1 180 18:53 26.12.2020
4409 Clouds 21 1013 73 8000 7.2 190 18:29 26.12.2020
4410 Clouds 21 1013 68 8000 6.2 160 17:42 26.12.2020
4411 Clouds 21 1013 68 8000 6.2 160 17:21 26.12.2020
4412 Clouds 21 1013 73 8000 6.7 170 16:37 26.12.2020
4413 Clouds 22 1013 73 8000 6.2 160 15:38 26.12.2020
4414 Clouds 22 1013 73 8000 6.2 160 15:19 26.12.2020
4415 Clouds 21 1014 73 7000 6.2 160 14:29 26.12.2020
4416 Clouds 21 1014 73 7000 6.2 170 13:54 26.12.2020
4417 Clouds 21 1015 73 7000 6.2 160 13:32 26.12.2020
4418 Clouds 21 1015 73 7000 5.7 170 12:50 26.12.2020
4419 Clouds 21 1015 73 7000 5.7 180 12:30 26.12.2020
4420 Clouds 21 1015 73 7000 5.1 180 11:51 26.12.2020
4421 Clouds 20 1015 72 7000 4.6 190 11:24 26.12.2020
4422 Clouds 19 1014 72 7000 3.1 200 10:55 26.12.2020
4423 Clouds 18 1014 77 7000 3.1 220 10:28 26.12.2020
4424 Clouds 17 1014 82 7000 2.6 220 09:55 26.12.2020
4425 Clouds 17 1014 82 7000 3.1 230 09:32 26.12.2020
4426 Clear 16 1013 87 9000 3.1 220 08:39 26.12.2020
4427 Clear 17 1012 82 9000 2.6 220 07:56 26.12.2020
4428 Clouds 17 1012 82 9000 3.6 230 06:47 26.12.2020
4429 Clouds 18 1012 82 9000 2.6 210 03:53 26.12.2020
4430 Clouds 19 1012 77 9000 3.1 200 02:24 26.12.2020
4431 Clouds 19 1013 68 8000 2.1 220 00:28 26.12.2020
4432 Clouds 19 1012 72 8000 2.6 200 23:43 25.12.2020
4433 Clouds 19 1012 72 8000 2.6 200 23:25 25.12.2020
4434 Clouds 19 1012 77 7000 2.6 190 22:50 25.12.2020
4435 Clouds 19 1012 72 7000 1.5 210 22:23 25.12.2020
4436 Clouds 20 1012 72 7000 3.1 200 21:35 25.12.2020
4437 Clouds 20 1011 72 7000 2.1 200 20:59 25.12.2020
4438 Clouds 20 1011 72 7000 3.1 210 20:37 25.12.2020
4439 Clouds 20 1011 72 7000 4.1 200 19:50 25.12.2020
4440 Clouds 20 1010 68 8000 5.7 180 19:30 25.12.2020
4441 Clouds 21 1009 64 9000 7.7 190 18:39 25.12.2020
4442 Clouds 21 1009 64 9000 7.7 190 18:39 25.12.2020
4443 Clouds 21 1009 64 9000 6.2 190 17:54 25.12.2020
4444 Clouds 21 1009 64 9000 6.7 180 17:34 25.12.2020
4445 Clear 22 1009 60 10000 6.7 170 16:38 25.12.2020
4446 Clear 22 1009 60 10000 6.7 170 16:19 25.12.2020
4447 Clear 22 1009 56 10000 5.7 160 15:39 25.12.2020
4448 Clear 22 1009 56 10000 5.7 160 15:21 25.12.2020
4449 Clear 22 1010 56 10000 5.1 160 14:30 25.12.2020
4450 Clear 22 1011 53 10000 4.6 160 13:46 25.12.2020
4451 Clear 22 1011 56 10000 3.6 160 13:26 25.12.2020
4452 Clear 22 1012 56 10000 4.6 170 12:47 25.12.2020
4453 Clear 22 1012 56 10000 4.6 170 12:25 25.12.2020
4454 Clear 22 1012 56 10000 4.6 170 11:46 25.12.2020
4455 Clouds 21 1012 56 9000 3.6 160 11:21 25.12.2020
4456 Clouds 19 1011 68 9000 1.5 260 10:32 25.12.2020
4457 Clouds 19 1011 72 9000 1.5 280 09:49 25.12.2020
4458 Clouds 18 1011 72 10000 1 0 08:49 25.12.2020
4459 Clouds 18 1011 72 10000 3.1 300 08:28 25.12.2020
4460 Clouds 18 1011 77 9000 3.1 300 06:48 25.12.2020
4461 Clouds 18 1012 82 9000 2.1 300 04:47 25.12.2020
4462 Clouds 19 1013 68 9000 2.1 310 02:19 25.12.2020
4463 Clouds 18 1015 68 9000 2.1 300 00:19 25.12.2020
4464 Clouds 19 1015 64 9000 4.1 110 23:28 24.12.2020
4465 Clouds 19 1014 64 9000 5.1 110 22:53 24.12.2020
4466 Clouds 19 1014 72 9000 5.1 110 22:23 24.12.2020
4467 Clouds 19 1014 56 9000 5.1 110 21:42 24.12.2020
4468 Clouds 19 1014 52 9000 4.1 120 20:48 24.12.2020
4469 Clouds 20 1014 52 9000 4.6 120 19:20 24.12.2020
4470 Clouds 20 1015 56 9000 5.1 130 18:21 24.12.2020
4471 Clouds 20 1015 52 9000 5.7 130 17:37 24.12.2020
4472 Clouds 20 1015 60 10000 5.1 130 16:59 24.12.2020
4473 Clouds 21 1015 56 10000 6.2 140 16:24 24.12.2020
4474 Clouds 21 1016 60 10000 6.2 140 15:43 24.12.2020
4475 Clouds 21 1016 60 10000 6.2 140 15:21 24.12.2020
4476 Clouds 21 1017 60 10000 7.2 140 14:55 24.12.2020
4477 Clouds 21 1018 56 10000 7.2 140 14:24 24.12.2020
4478 Clouds 21 1018 56 10000 7.2 140 13:49 24.12.2020
4479 Clouds 21 1019 60 10000 6.2 140 13:30 24.12.2020
4480 Clouds 21 1019 60 10000 7.2 140 12:45 24.12.2020
4481 Clouds 21 1019 60 10000 6.7 140 12:22 24.12.2020
4482 Clouds 21 1019 60 10000 7.7 130 11:59 24.12.2020
4483 Clouds 20 1020 64 10000 7.2 130 11:37 24.12.2020
4484 Clouds 20 1019 60 10000 7.7 120 11:18 24.12.2020
4485 Clouds 20 1019 64 10000 7.2 120 10:42 24.12.2020
4486 Clouds 20 1018 64 10000 7.7 120 09:54 24.12.2020
4487 Clouds 19 1018 60 10000 7.2 120 09:35 24.12.2020
4488 Clouds 19 1018 56 10000 8.2 120 08:48 24.12.2020
4489 Clear 19 1018 60 10000 6.2 130 07:48 24.12.2020
4490 Clear 20 1018 60 10000 7.2 130 07:28 24.12.2020
4491 Clear 20 1018 60 10000 7.7 140 06:23 24.12.2020
4492 Clear 19 1019 72 10000 3.1 290 03:23 24.12.2020
4493 Clear 19 1020 63 10000 2.6 310 01:48 24.12.2020
4494 Clear 19 1020 63 10000 3.1 310 01:18 24.12.2020
4495 Clear 19 1020 63 10000 3.1 310 01:18 24.12.2020
4496 Clear 19 1020 63 10000 3.1 310 01:18 24.12.2020
4497 Clear 19 1020 55 10000 3.6 310 00:23 24.12.2020
4498 Clear 19 1020 48 10000 3.1 310 23:56 23.12.2020
4499 Clear 19 1020 48 10000 2.6 350 23:38 23.12.2020
4500 Clear 19 1020 48 10000 2.6 350 23:18 23.12.2020
4501 Clear 19 1020 45 10000 3.1 310 22:42 23.12.2020
4502 Clear 20 1020 45 10000 3.1 310 22:19 23.12.2020
4503 Clear 19 1019 52 10000 1.5 320 21:32 23.12.2020
4504 Clear 20 1020 49 10000 1.5 340 20:59 23.12.2020
4505 Clear 20 1019 49 10000 5.32 122 20:37 23.12.2020
4506 Clear 20 1019 49 10000 5.79 135 20:19 23.12.2020
4507 Clouds 20 1020 52 9000 1.5 180 19:42 23.12.2020
4508 Clouds 20 1020 52 9000 1.5 180 19:22 23.12.2020
4509 Clouds 21 1020 49 9000 2.6 170 18:52 23.12.2020
4510 Clouds 21 1019 52 9000 3.1 170 18:34 23.12.2020
4511 Clouds 21 1019 52 9000 4.6 180 17:43 23.12.2020
4512 Clouds 21 1019 52 9000 4.6 180 17:22 23.12.2020
4513 Clouds 21 1020 52 9000 5.1 170 16:56 23.12.2020
4514 Clouds 21 1020 52 9000 5.1 170 16:31 23.12.2020
4515 Clouds 21 1020 56 10000 5.7 160 15:59 23.12.2020
4516 Clouds 21 1020 56 10000 6.2 170 15:39 23.12.2020
4517 Clouds 22 1021 53 10000 6.2 170 15:21 23.12.2020
4518 Clouds 22 1021 53 10000 6.2 170 14:45 23.12.2020
4519 Clouds 22 1021 53 10000 5.7 170 14:22 23.12.2020
4520 Clouds 22 1022 53 10000 6.2 160 13:46 23.12.2020
4521 Clouds 21 1022 53 10000 6.2 160 13:20 23.12.2020
4522 Clouds 21 1022 56 10000 6.2 150 12:58 23.12.2020
4523 Clear 22 1022 56 10000 6.2 150 12:37 23.12.2020
4524 Clear 22 1022 56 10000 6.2 150 12:18 23.12.2020
4525 Clear 21 1022 52 10000 5.1 170 11:43 23.12.2020
4526 Clear 21 1022 56 10000 3.1 210 10:57 23.12.2020
4527 Clear 20 1022 60 10000 3.1 220 10:39 23.12.2020
4528 Clouds 18 1021 63 10000 3.1 240 09:39 23.12.2020
4529 Clouds 18 1021 68 10000 2.6 240 08:58 23.12.2020
4530 Clear 18 1021 77 10000 3.1 250 08:33 23.12.2020
4531 Clear 18 1021 77 10000 2.6 250 07:49 23.12.2020
4532 Clear 18 1021 77 10000 2.6 270 06:53 23.12.2020
4533 Clear 18 1021 68 10000 0.5 0 06:35 23.12.2020
4534 Clear 19 1021 72 10000 2.1 300 05:24 23.12.2020
4535 Clear 17 1022 77 10000 3.1 330 01:59 23.12.2020
4536 Clear 18 1022 63 10000 3.1 330 00:33 23.12.2020
4537 Clear 18 1022 59 10000 2.6 340 23:45 22.12.2020
4538 Clear 18 1022 68 10000 2.6 330 23:25 22.12.2020
4539 Clear 18 1022 77 10000 2.1 310 22:43 22.12.2020
4540 Clear 18 1022 77 10000 2.1 310 22:25 22.12.2020
4541 Clear 18 1022 77 10000 2.1 310 21:54 22.12.2020
4542 Clear 19 1022 72 10000 1 0 21:21 22.12.2020
4543 Clear 19 1022 72 10000 1.5 210 20:55 22.12.2020
4544 Clear 19 1022 72 10000 1.5 180 20:37 22.12.2020
4545 Clear 20 1022 72 10000 1.5 180 19:59 22.12.2020
4546 Clear 20 1022 72 10000 2.6 160 19:41 22.12.2020
4547 Clear 20 1022 72 10000 2.6 160 19:20 22.12.2020
4548 Clouds 21 1022 73 10000 2.6 150 18:44 22.12.2020
4549 Clouds 21 1022 73 10000 2.6 150 18:24 22.12.2020
4550 Clouds 21 1022 73 10000 3.1 140 17:41 22.12.2020
4551 Clouds 21 1022 73 10000 3.1 140 17:18 22.12.2020
4552 Clouds 21 1022 73 10000 3.1 140 17:18 22.12.2020
4553 Clouds 21 1022 77 10000 2.6 130 16:47 22.12.2020
4554 Clouds 21 1022 77 10000 2.6 130 16:21 22.12.2020
4555 Clouds 21 1022 73 10000 3.1 140 15:47 22.12.2020
4556 Clouds 21 1022 73 10000 3.1 140 15:47 22.12.2020
4557 Clouds 22 1023 73 10000 3.6 120 15:29 22.12.2020
4558 Clouds 21 1023 73 10000 3.1 120 14:58 22.12.2020
4559 Clouds 22 1024 73 10000 3.1 110 14:39 22.12.2020
4560 Clouds 22 1024 73 10000 3.1 110 14:20 22.12.2020
4561 Clouds 22 1024 73 10000 2.1 120 13:44 22.12.2020
4562 Clouds 21 1025 73 10000 1.5 120 13:19 22.12.2020
4563 Clouds 21 1025 73 10000 1.5 110 12:52 22.12.2020
4564 Clouds 21 1025 73 10000 1.5 120 12:33 22.12.2020
4565 Clouds 21 1025 73 10000 0.5 0 11:57 22.12.2020
4566 Clouds 21 1025 72 10000 0.5 0 11:39 22.12.2020
4567 Clouds 20 1025 72 10000 0.5 0 11:20 22.12.2020
4568 Clouds 20 1025 72 10000 2.9 127 10:51 22.12.2020
4569 Clouds 18 1024 77 10000 1.5 280 10:24 22.12.2020
4570 Clouds 18 1024 82 10000 1.5 270 09:56 22.12.2020
4571 Clouds 17 1024 82 10000 2.1 260 09:23 22.12.2020
4572 Clouds 17 1024 88 10000 2.1 270 08:53 22.12.2020
4573 Clouds 18 1024 82 10000 1.5 290 08:30 22.12.2020
4574 Clouds 17 1023 82 10000 2.1 320 07:48 22.12.2020
4575 Clouds 17 1023 82 10000 2.1 320 06:48 22.12.2020
4576 Clouds 17 1023 82 10000 2.1 330 05:47 22.12.2020
4577 Clouds 17 1024 82 10000 2.6 340 03:40 22.12.2020
4578 Clouds 18 1025 82 10000 3.1 340 00:47 22.12.2020
4579 Clouds 18 1025 82 10000 3.1 320 23:54 21.12.2020
4580 Clouds 18 1025 82 10000 3.1 320 23:54 21.12.2020
4581 Clouds 19 1025 77 10000 3.1 330 23:36 21.12.2020
4582 Clouds 18 1025 77 10000 2.6 10 22:39 21.12.2020
4583 Clouds 19 1025 77 10000 2.6 10 22:20 21.12.2020
4584 Clouds 19 1025 77 10000 2.6 360 21:59 21.12.2020
4585 Clouds 19 1025 77 10000 2.6 330 21:39 21.12.2020
4586 Clouds 19 1025 77 10000 2.6 330 21:39 21.12.2020
4587 Clouds 19 1025 77 10000 2.6 330 21:19 21.12.2020
4588 Clouds 19 1024 77 10000 3.1 20 20:29 21.12.2020
4589 Clouds 20 1024 72 10000 3.1 20 19:59 21.12.2020
4590 Clouds 20 1024 72 10000 3.1 30 19:41 21.12.2020
4591 Clouds 20 1024 72 10000 3.1 30 19:19 21.12.2020
4592 Clouds 20 1024 72 10000 3.1 40 18:51 21.12.2020
4593 Clouds 20 1024 72 10000 3.6 50 18:33 21.12.2020
4594 Clouds 20 1024 72 10000 3.1 40 17:43 21.12.2020
4595 Clouds 21 1024 68 10000 3.1 60 17:24 21.12.2020
4596 Clouds 21 1024 64 10000 3.1 80 16:47 21.12.2020
4597 Clouds 21 1024 60 10000 3.6 60 16:27 21.12.2020
4598 Clouds 21 1024 64 10000 3.1 70 15:54 21.12.2020
4599 Clouds 21 1024 64 10000 3.1 70 15:35 21.12.2020
4600 Clouds 21 1024 60 10000 2.1 80 14:57 21.12.2020
4601 Clouds 21 1025 60 10000 3.1 60 14:21 21.12.2020
4602 Clouds 21 1025 64 10000 4.1 60 13:44 21.12.2020
4603 Clouds 21 1026 64 10000 5.1 30 13:26 21.12.2020
4604 Clouds 21 1026 64 10000 4.6 50 12:45 21.12.2020
4605 Clouds 21 1026 64 10000 5.7 60 12:25 21.12.2020
4606 Clouds 21 1027 64 10000 5.1 60 11:58 21.12.2020
4607 Clouds 20 1026 68 10000 5.7 60 11:39 21.12.2020
4608 Clouds 20 1026 68 10000 5.7 60 11:19 21.12.2020
4609 Clouds 18 1026 72 10000 3.6 20 10:42 21.12.2020
4610 Clouds 18 1026 72 10000 3.6 20 10:24 21.12.2020
4611 Clouds 17 1026 77 10000 4.1 360 09:46 21.12.2020
4612 Clouds 17 1025 77 10000 4.1 360 09:25 21.12.2020
4613 Clouds 17 1025 82 10000 4.1 350 08:52 21.12.2020
4614 Clouds 18 1025 82 10000 5.1 360 07:51 21.12.2020
4615 Clouds 18 1025 88 10000 5.1 350 06:43 21.12.2020
4616 Clouds 18 1024 88 10000 4.1 20 04:46 21.12.2020
4617 Clouds 18 1026 93 10000 4.1 360 01:25 21.12.2020
4618 Drizzle 18 1026 93 10000 5.7 40 00:31 21.12.2020
4619 Clouds 20 1026 68 10000 4.1 350 23:34 20.12.2020
4620 Clouds 20 1026 68 10000 4.6 350 22:59 20.12.2020
4621 Clouds 20 1026 68 10000 5.1 350 22:40 20.12.2020
4622 Clouds 20 1026 68 10000 5.1 350 22:21 20.12.2020
4623 Clouds 20 1025 72 10000 5.1 360 22:21 20.12.2020
4624 Clouds 20 1025 68 10000 4.1 350 21:39 20.12.2020
4625 Clouds 19 1025 68 10000 4.1 350 21:20 20.12.2020
4626 Clouds 20 1025 68 10000 4.6 350 20:50 20.12.2020
4627 Clouds 20 1025 68 10000 5.1 340 20:23 20.12.2020
4628 Clouds 20 1025 68 10000 4.1 350 19:46 20.12.2020
4629 Clouds 20 1024 72 10000 5.1 360 19:27 20.12.2020
4630 Clouds 20 1024 72 10000 4.1 20 18:57 20.12.2020
4631 Clouds 20 1024 72 10000 4.6 30 18:38 20.12.2020
4632 Clouds 20 1024 72 10000 4.6 30 18:19 20.12.2020
4633 Clouds 21 1024 68 10000 5.1 60 17:43 20.12.2020
4634 Clouds 21 1024 68 10000 5.1 60 17:22 20.12.2020
4635 Clouds 21 1024 73 10000 4.1 70 16:44 20.12.2020
4636 Clouds 22 1023 64 10000 4.6 40 16:25 20.12.2020
4637 Clouds 22 1024 68 10000 4.1 40 15:45 20.12.2020
4638 Clouds 22 1024 64 10000 4.6 30 15:24 20.12.2020
4639 Clouds 22 1024 64 10000 4.1 10 14:49 20.12.2020
4640 Clouds 22 1025 64 10000 5.7 30 14:30 20.12.2020
4641 Clouds 22 1025 64 10000 5.7 30 14:30 20.12.2020
4642 Clouds 22 1025 64 10000 5.7 30 13:46 20.12.2020
4643 Clouds 21 1025 72 10000 5.7 30 13:24 20.12.2020
4644 Clouds 21 1026 68 10000 5.7 20 12:54 20.12.2020
4645 Clouds 20 1026 68 10000 5.7 360 12:36 20.12.2020
4646 Clouds 20 1026 68 10000 5.7 360 12:18 20.12.2020
4647 Clouds 20 1026 68 10000 5.1 360 11:42 20.12.2020
4648 Clouds 19 1025 68 10000 4.6 360 10:55 20.12.2020
4649 Clouds 18 1025 72 10000 4.1 350 10:37 20.12.2020
4650 Clouds 18 1025 72 10000 4.1 350 10:19 20.12.2020
4651 Clouds 17 1024 72 10000 4.1 340 09:42 20.12.2020
4652 Clouds 17 1024 72 10000 4.1 340 09:24 20.12.2020
4653 Clouds 17 1024 77 10000 4.6 350 08:50 20.12.2020
4654 Clouds 17 1024 77 10000 4.1 350 08:32 20.12.2020
4655 Clouds 17 1023 77 10000 5.1 10 07:23 20.12.2020
4656 Clouds 18 1023 72 10000 6.2 10 05:44 20.12.2020
4657 Clouds 18 1024 63 10000 5.1 360 01:32 20.12.2020
4658 Clouds 18 1024 68 10000 5.1 360 00:22 20.12.2020
4659 Clouds 18 1024 68 10000 5.7 350 23:19 19.12.2020
4660 Clouds 18 1024 63 10000 5.1 350 22:46 19.12.2020
4661 Clouds 18 1024 63 10000 5.1 350 22:25 19.12.2020
4662 Clouds 18 1024 63 10000 5.7 350 21:59 19.12.2020
4663 Clouds 18 1024 63 10000 5.1 350 21:41 19.12.2020
4664 Clouds 18 1024 63 10000 5.1 350 21:22 19.12.2020
4665 Clouds 19 1024 59 10000 4.6 360 20:41 19.12.2020
4666 Clouds 19 1024 59 10000 4.6 360 20:18 19.12.2020
4667 Clouds 19 1023 59 10000 5.7 10 19:50 19.12.2020
4668 Clouds 19 1023 59 10000 7.2 20 19:29 19.12.2020
4669 Clouds 21 1023 52 10000 8.2 30 18:38 19.12.2020
4670 Clouds 21 1023 52 10000 8.2 30 18:20 19.12.2020
4671 Clouds 21 1022 56 10000 8.2 30 17:45 19.12.2020
4672 Clouds 21 1022 56 10000 8.2 30 17:23 19.12.2020
4673 Clouds 21 1023 60 10000 8.2 30 16:44 19.12.2020
4674 Clouds 21 1022 56 10000 8.7 40 16:26 19.12.2020
4675 Clouds 21 1023 56 10000 7.7 30 15:55 19.12.2020
4676 Clouds 21 1023 56 10000 8.2 30 15:34 19.12.2020
4677 Clouds 21 1024 49 10000 6.7 40 14:41 19.12.2020
4678 Clouds 21 1024 49 10000 6.7 40 14:21 19.12.2020
4679 Clouds 21 1024 52 10000 7.2 30 13:41 19.12.2020
4680 Clouds 21 1024 52 10000 7.2 30 13:20 19.12.2020
4681 Clouds 21 1025 49 10000 8.2 30 12:44 19.12.2020
4682 Clouds 21 1025 49 10000 8.2 30 12:25 19.12.2020
4683 Clouds 20 1025 52 10000 5.7 20 11:57 19.12.2020
4684 Clouds 20 1025 63 10000 5.1 360 11:35 19.12.2020
4685 Clouds 19 1024 59 10000 4.1 350 10:43 19.12.2020
4686 Clouds 19 1024 59 10000 4.1 350 10:24 19.12.2020
4687 Clouds 18 1024 63 10000 3.6 340 09:47 19.12.2020
4688 Clouds 18 1024 63 10000 3.6 340 09:47 19.12.2020
4689 Clouds 18 1023 63 10000 3.6 340 09:29 19.12.2020
4690 Clouds 18 1023 63 10000 4.1 340 08:32 19.12.2020
4691 Clouds 18 1023 63 10000 4.1 350 07:24 19.12.2020
4692 Clouds 18 1022 63 10000 4.1 340 06:52 19.12.2020
4693 Clouds 18 1022 63 10000 4.1 350 06:19 19.12.2020
4694 Clouds 18 1022 63 10000 3.6 360 05:18 19.12.2020
4695 Clouds 17 1022 68 10000 4.1 360 03:19 19.12.2020
4696 Clouds 19 1023 63 10000 5.1 10 00:37 19.12.2020
4697 Clouds 18 1023 63 10000 5.1 10 00:18 19.12.2020
4698 Clouds 18 1023 63 10000 4.6 360 23:47 18.12.2020
4699 Clouds 19 1023 63 10000 5.1 360 23:23 18.12.2020
4700 Clouds 19 1023 59 10000 6.2 350 22:46 18.12.2020
4701 Clouds 19 1023 59 10000 5.7 350 22:22 18.12.2020
4702 Clouds 19 1023 63 10000 6.2 10 21:50 18.12.2020
4703 Clouds 19 1023 59 10000 7.2 20 21:31 18.12.2020
4704 Clouds 19 1022 59 10000 5.1 350 20:41 18.12.2020
4705 Clouds 19 1022 59 10000 5.1 350 20:21 18.12.2020
4706 Clouds 19 1022 59 10000 5.7 10 19:44 18.12.2020
4707 Clouds 19 1022 59 10000 5.7 10 19:21 18.12.2020
4708 Clouds 20 1022 56 10000 7.2 40 18:42 18.12.2020
4709 Clouds 20 1022 56 10000 7.2 40 18:24 18.12.2020
4710 Clouds 20 1022 52 10000 7.2 20 17:24 18.12.2020
4711 Clouds 20 1022 49 10000 8.7 40 16:55 18.12.2020
4712 Clouds 21 1022 49 10000 9.3 30 16:37 18.12.2020
4713 Clouds 20 1022 49 10000 9.3 30 16:18 18.12.2020
4714 Clouds 21 1022 52 10000 8.7 30 15:41 18.12.2020
4715 Clouds 21 1022 52 10000 8.7 30 15:23 18.12.2020
4716 Clouds 21 1023 52 10000 8.7 30 14:55 18.12.2020
4717 Clouds 21 1023 49 10000 10.3 30 14:22 18.12.2020
4718 Clouds 21 1024 52 10000 9.8 30 13:51 18.12.2020
4719 Clouds 21 1024 52 10000 9.8 30 13:51 18.12.2020
4720 Clouds 21 1024 56 10000 9.3 30 13:31 18.12.2020
4721 Clouds 21 1024 52 10000 9.3 30 12:50 18.12.2020
4722 Clouds 20 1024 56 10000 8.7 30 12:27 18.12.2020
4723 Clouds 19 1024 59 10000 6.2 360 11:26 18.12.2020
4724 Clouds 18 1023 59 10000 5.7 340 10:40 18.12.2020
4725 Clouds 18 1023 59 10000 5.7 340 10:21 18.12.2020
4726 Clouds 17 1023 63 10000 5.1 350 09:40 18.12.2020
4727 Clouds 17 1023 63 10000 5.1 350 09:22 18.12.2020
4728 Clouds 18 1023 63 10000 5.7 350 08:57 18.12.2020
4729 Clouds 16 1023 67 10000 6.2 350 08:36 18.12.2020
4730 Clouds 17 1023 67 10000 5.7 350 07:47 18.12.2020
4731 Clouds 16 1022 67 10000 5.1 350 07:19 18.12.2020
4732 Clouds 16 1023 67 10000 5.7 360 06:58 18.12.2020
4733 Clouds 17 1023 59 10000 5.7 350 05:43 18.12.2020
4734 Clouds 17 1023 59 10000 6.2 340 04:51 18.12.2020
4735 Clouds 17 1023 63 10000 5.7 350 02:31 18.12.2020
4736 Clouds 17 1024 68 10000 5.1 360 01:41 18.12.2020
4737 Clouds 17 1024 68 10000 6.2 360 00:28 18.12.2020
4738 Clouds 18 1024 68 10000 6.7 360 23:50 17.12.2020
4739 Clouds 18 1024 63 10000 5.7 360 23:19 17.12.2020
4740 Clouds 18 1024 63 10000 7.2 10 22:47 17.12.2020
4741 Clouds 19 1024 59 10000 6.7 10 22:27 17.12.2020
4742 Clouds 19 1024 59 10000 6.7 350 21:44 17.12.2020
4743 Clouds 19 1024 59 10000 6.7 350 21:20 17.12.2020
4744 Clouds 19 1024 59 10000 6.7 360 20:45 17.12.2020
4745 Clouds 19 1023 55 10000 8.7 20 20:19 17.12.2020
4746 Clouds 19 1023 55 10000 8.7 20 19:49 17.12.2020
4747 Clouds 19 1023 59 10000 8.2 10 19:25 17.12.2020
4748 Clouds 20 1023 59 10000 10.3 20 18:47 17.12.2020
4749 Clouds 21 1023 56 10000 10.8 20 18:27 17.12.2020
4750 Clouds 21 1023 56 10000 10.8 20 18:27 17.12.2020
4751 Clouds 21 1023 60 10000 9.8 20 17:58 17.12.2020
4752 Clouds 21 1022 56 10000 10.8 20 17:38 17.12.2020
4753 Clouds 21 1022 56 10000 10.8 20 17:20 17.12.2020
4754 Clouds 21 1022 56 10000 11.3 30 16:37 17.12.2020
4755 Clouds 21 1022 56 10000 11.3 30 16:18 17.12.2020
4756 Clouds 21 1023 60 10000 10.8 30 15:42 17.12.2020
4757 Clouds 21 1023 60 10000 10.8 30 15:23 17.12.2020
4758 Clouds 21 1023 52 10000 10.3 20 14:47 17.12.2020
4759 Clouds 22 1024 56 10000 10.3 30 14:20 17.12.2020
4760 Clouds 21 1024 56 10000 10.3 20 13:42 17.12.2020
4761 Clouds 21 1024 56 10000 10.3 20 13:18 17.12.2020
4762 Clouds 20 1024 64 10000 9.8 30 12:39 17.12.2020
4763 Clouds 20 1024 64 10000 9.8 30 12:21 17.12.2020
4764 Clouds 19 1024 72 10000 9.3 20 11:41 17.12.2020
4765 Clouds 19 1024 72 10000 9.3 20 11:20 17.12.2020
4766 Clouds 19 1023 82 10000 5.7 360 10:40 17.12.2020
4767 Clouds 18 1023 77 10000 7.7 360 09:36 17.12.2020
4768 Clouds 18 1022 77 10000 8.2 20 08:40 17.12.2020
4769 Clouds 18 1022 77 10000 9.3 20 07:42 17.12.2020
4770 Clouds 18 1022 77 10000 9.3 20 07:20 17.12.2020
4771 Clouds 18 1022 72 10000 7.7 10 06:47 17.12.2020
4772 Clouds 18 1022 77 10000 7.2 10 06:27 17.12.2020
4773 Clouds 19 1022 77 10000 5.7 350 03:29 17.12.2020
4774 Clouds 20 1023 72 10000 6.2 350 00:27 17.12.2020
4775 Clouds 20 1023 68 10000 5.1 350 23:40 16.12.2020
4776 Rain 20 1023 68 10000 5.1 350 23:18 16.12.2020
4777 Rain 20 1023 64 10000 5.1 340 22:48 16.12.2020
4778 Clouds 20 1023 64 10000 7.2 340 22:28 16.12.2020
4779 Clouds 20 1022 64 10000 7.2 340 21:42 16.12.2020
4780 Clouds 21 1022 64 10000 7.2 340 21:23 16.12.2020
4781 Clouds 21 1022 60 10000 6.2 340 20:52 16.12.2020
4782 Clouds 20 1022 64 10000 7.23 320 20:20 16.12.2020
4783 Clouds 21 1022 60 10000 3.1 210 19:38 16.12.2020
4784 Clouds 21 1022 60 10000 3.1 210 19:18 16.12.2020
4785 Clouds 21 1021 60 10000 3.1 200 18:47 16.12.2020
4786 Clouds 21 1021 56 10000 4.6 210 18:25 16.12.2020
4787 Clouds 21 1021 49 10000 7.2 10 17:36 16.12.2020
4788 Clouds 22 1021 46 10000 8.2 360 16:46 16.12.2020
4789 Clouds 21 1020 53 10000 8.2 10 16:28 16.12.2020
4790 Clouds 21 1020 53 10000 9.3 10 15:58 16.12.2020
4791 Clouds 21 1021 53 10000 9.3 10 15:39 16.12.2020
4792 Clouds 21 1021 53 10000 9.3 10 15:18 16.12.2020
4793 Clouds 21 1022 53 10000 7.7 10 14:44 16.12.2020
4794 Clouds 21 1022 53 10000 7.7 10 14:25 16.12.2020
4795 Clouds 21 1022 53 10000 7.2 10 13:41 16.12.2020
4796 Clouds 21 1022 53 10000 7.2 10 13:20 16.12.2020
4797 Clouds 21 1023 56 10000 7.2 360 12:43 16.12.2020
4798 Clouds 20 1023 60 10000 6.7 360 11:51 16.12.2020
4799 Clouds 20 1023 60 10000 6.2 350 11:31 16.12.2020
4800 Clouds 20 1022 64 10000 6.7 360 10:56 16.12.2020
4801 Clouds 18 1022 77 10000 4.6 360 10:32 16.12.2020
4802 Clouds 18 1021 77 10000 5.1 340 09:55 16.12.2020
4803 Clouds 17 1021 72 10000 4.1 340 09:29 16.12.2020
4804 Clouds 17 1020 77 10000 3.1 350 08:22 16.12.2020
4805 Clouds 17 1020 77 10000 3.1 330 07:45 16.12.2020
4806 Clouds 18 1020 77 10000 3.1 330 07:20 16.12.2020
4807 Clouds 17 1020 77 10000 2.1 340 03:35 16.12.2020
4808 Clouds 18 1020 82 10000 3.6 360 01:59 16.12.2020
4809 Rain 19 1020 77 10000 3.6 340 23:46 15.12.2020
4810 Clouds 18 1020 82 10000 3.6 340 23:19 15.12.2020
4811 Clouds 18 1020 82 10000 4.1 350 22:41 15.12.2020
4812 Clouds 18 1020 82 10000 4.1 350 22:20 15.12.2020
4813 Clouds 19 1019 77 10000 4.6 350 21:46 15.12.2020
4814 Clouds 19 1019 77 10000 5.1 350 21:23 15.12.2020
4815 Clouds 19 1019 77 10000 5.7 360 20:45 15.12.2020
4816 Clouds 19 1019 82 10000 4.6 360 20:27 15.12.2020
4817 Clouds 20 1018 77 10000 4.1 350 19:55 15.12.2020
4818 Clouds 20 1018 72 10000 5.1 360 19:33 15.12.2020
4819 Clouds 20 1018 72 10000 6.2 10 18:41 15.12.2020
4820 Clouds 20 1018 72 10000 6.2 10 18:22 15.12.2020
4821 Clouds 21 1018 73 10000 7.2 10 17:58 15.12.2020
4822 Clouds 21 1018 73 10000 6.7 10 17:40 15.12.2020
4823 Clouds 21 1018 73 10000 6.7 10 17:19 15.12.2020
4824 Clouds 21 1017 73 10000 7.2 30 16:32 15.12.2020
4825 Clouds 21 1018 73 10000 7.2 30 15:51 15.12.2020
4826 Clouds 21 1018 73 10000 6.7 30 15:30 15.12.2020
4827 Rain 22 1019 73 10000 7.7 30 14:47 15.12.2020
4828 Clouds 22 1019 73 10000 6.7 20 14:21 15.12.2020
4829 Clouds 22 1019 73 10000 7.2 20 13:51 15.12.2020
4830 Rain 22 1020 77 10000 7.2 20 13:32 15.12.2020
4831 Rain 22 1020 77 10000 6.7 10 12:47 15.12.2020
4832 Rain 21 1020 82 10000 5.1 360 12:22 15.12.2020
4833 Rain 20 1020 88 10000 4.1 350 11:56 15.12.2020
4834 Rain 19 1020 93 9000 4.6 350 11:26 15.12.2020
4835 Drizzle 19 1020 88 6000 4.1 30 10:55 15.12.2020
4836 Drizzle 18 1020 82 10000 4.1 360 10:32 15.12.2020
4837 Rain 17 1019 93 10000 3.6 350 09:51 15.12.2020
4838 Rain 18 1019 88 10000 3.1 360 09:32 15.12.2020
4839 Clouds 17 1019 88 10000 3.6 350 08:53 15.12.2020
4840 Drizzle 17 1019 93 10000 3.1 360 08:26 15.12.2020
4841 Clouds 17 1019 93 9000 5.7 40 07:49 15.12.2020
4842 Clouds 17 1019 93 9000 5.7 40 07:49 15.12.2020
4843 Drizzle 17 1018 93 10000 4.6 30 07:25 15.12.2020
4844 Drizzle 17 1018 82 10000 4.1 360 06:33 15.12.2020
4845 Clouds 18 1018 77 10000 5.1 330 03:25 15.12.2020
4846 Clouds 19 1018 77 10000 5.7 10 00:34 15.12.2020
4847 Clouds 18 1018 77 10000 5.7 360 23:26 14.12.2020
4848 Clouds 19 1018 77 10000 6.2 10 22:56 14.12.2020
4849 Clouds 19 1018 77 10000 5.7 20 22:32 14.12.2020
4850 Clouds 19 1018 77 10000 5.7 20 21:45 14.12.2020
4851 Clouds 19 1018 77 10000 5.7 20 21:23 14.12.2020
4852 Clouds 19 1017 77 10000 5.7 20 20:51 14.12.2020
4853 Clouds 20 1017 68 10000 5.7 10 20:30 14.12.2020
4854 Clouds 20 1017 72 10000 6.7 20 19:53 14.12.2020
4855 Clouds 20 1017 72 10000 7.2 20 19:29 14.12.2020
4856 Clouds 21 1017 68 10000 8.2 30 18:51 14.12.2020
4857 Clouds 21 1017 73 10000 8.7 30 18:30 14.12.2020
4858 Clouds 21 1017 68 10000 8.7 30 17:46 14.12.2020
4859 Clouds 21 1017 68 10000 8.7 30 17:24 14.12.2020
4860 Clouds 22 1017 64 10000 9.3 30 16:50 14.12.2020
4861 Clouds 21 1017 68 10000 8.7 30 16:29 14.12.2020
4862 Clouds 21 1017 64 10000 8.2 10 15:40 14.12.2020
4863 Clouds 22 1017 64 10000 8.2 10 15:20 14.12.2020
4864 Clouds 22 1018 56 10000 8.2 40 14:42 14.12.2020
4865 Clouds 22 1018 56 10000 8.2 40 14:24 14.12.2020
4866 Clouds 21 1018 60 10000 6.2 30 13:43 14.12.2020
4867 Clouds 21 1019 56 10000 6.2 360 13:19 14.12.2020
4868 Clouds 21 1019 60 10000 7.7 350 12:52 14.12.2020
4869 Clouds 21 1019 68 10000 5.1 350 12:24 14.12.2020
4870 Clouds 21 1019 64 10000 4.6 20 11:35 14.12.2020
4871 Clouds 18 1018 68 10000 3.1 360 10:38 14.12.2020
4872 Clouds 18 1018 68 10000 3.1 360 10:19 14.12.2020
4873 Clouds 17 1018 72 10000 3.1 360 09:31 14.12.2020
4874 Clouds 16 1017 77 10000 3.1 350 08:47 14.12.2020
4875 Clouds 16 1017 77 10000 2.1 360 08:28 14.12.2020
4876 Clouds 16 1017 72 10000 2.1 330 07:44 14.12.2020
4877 Clouds 17 1016 72 10000 3.1 350 06:47 14.12.2020
4878 Clouds 17 1017 72 10000 2.6 320 05:35 14.12.2020
4879 Clouds 17 1017 72 10000 3.1 340 02:26 14.12.2020
4880 Clouds 18 1018 72 10000 2.6 340 00:56 14.12.2020
4881 Clouds 18 1018 68 10000 2.6 350 00:33 14.12.2020
4882 Clouds 18 1018 68 10000 3.1 340 23:50 13.12.2020
4883 Clouds 18 1018 68 10000 2.6 340 23:30 13.12.2020
4884 Clouds 18 1018 59 10000 3.6 350 22:47 13.12.2020
4885 Clouds 18 1017 59 10000 4.6 340 22:20 13.12.2020
4886 Clouds 18 1017 63 10000 4.6 350 21:45 13.12.2020
4887 Clouds 19 1017 59 10000 4.1 350 21:26 13.12.2020
4888 Clouds 19 1016 59 10000 5.7 350 20:35 13.12.2020
4889 Clouds 19 1016 63 10000 4.6 360 19:57 13.12.2020
4890 Clouds 19 1016 60 10000 4.6 360 19:37 13.12.2020
4891 Clouds 19 1016 60 10000 4.6 360 19:19 13.12.2020
4892 Clouds 20 1016 64 10000 4.6 10 18:42 13.12.2020
4893 Clouds 20 1016 64 10000 4.6 10 18:20 13.12.2020
4894 Clouds 20 1016 64 10000 3.6 340 17:47 13.12.2020
4895 Clouds 20 1016 68 10000 5.7 360 17:21 13.12.2020
4896 Clouds 20 1016 72 10000 6.2 20 16:56 13.12.2020
4897 Clouds 20 1016 72 10000 6.2 20 16:56 13.12.2020
4898 Clouds 20 1016 72 10000 6.2 20 16:38 13.12.2020
4899 Clouds 20 1016 72 10000 6.2 20 16:18 13.12.2020
4900 Clouds 20 1016 68 10000 7.7 30 15:40 13.12.2020
4901 Clouds 21 1016 68 10000 7.7 30 15:21 13.12.2020
4902 Clouds 21 1016 64 10000 8.2 30 14:43 13.12.2020
4903 Clouds 21 1017 60 10000 6.7 30 14:21 13.12.2020
4904 Clouds 21 1018 64 10000 5.7 40 13:43 13.12.2020
4905 Clouds 20 1018 64 10000 5.7 40 13:24 13.12.2020
4906 Clouds 21 1018 56 10000 5.7 40 12:48 13.12.2020
4907 Clouds 20 1018 60 10000 3.6 10 12:22 13.12.2020
4908 Clouds 19 1018 64 10000 3.1 350 11:40 13.12.2020
4909 Clouds 19 1018 68 10000 3.1 320 10:56 13.12.2020
4910 Clouds 19 1018 68 10000 2.6 340 10:37 13.12.2020
4911 Clouds 19 1017 72 10000 3.1 330 09:55 13.12.2020
4912 Clouds 19 1017 72 10000 3.1 330 09:26 13.12.2020
4913 Clouds 18 1017 72 10000 3.1 340 08:34 13.12.2020
4914 Clouds 19 1017 68 10000 2.1 330 07:47 13.12.2020
4915 Clouds 18 1018 77 10000 4.1 340 04:29 13.12.2020
4916 Clouds 18 1019 82 10000 4.6 330 02:41 13.12.2020
4917 Clouds 18 1019 82 10000 4.6 330 01:57 13.12.2020
4918 Clouds 18 1020 88 10000 4.1 350 00:50 13.12.2020
4919 Drizzle 18 1020 88 10000 5.1 360 23:56 12.12.2020
4920 Clouds 18 1020 88 10000 4.6 10 23:31 12.12.2020
4921 Drizzle 18 1020 88 10000 6.2 30 22:52 12.12.2020
4922 Clouds 19 1020 77 10000 4.6 10 21:59 12.12.2020
4923 Clouds 20 1020 72 10000 3.6 360 21:34 12.12.2020
4924 Clouds 20 1020 72 10000 3.6 360 21:34 12.12.2020
4925 Clouds 20 1020 72 10000 5.1 360 20:56 12.12.2020
4926 Clouds 20 1019 68 10000 5.7 20 20:29 12.12.2020
4927 Clouds 20 1019 68 10000 5.7 360 19:58 12.12.2020
4928 Clouds 20 1019 68 10000 7.2 20 19:39 12.12.2020
4929 Clouds 20 1019 68 10000 7.2 20 19:21 12.12.2020
4930 Clouds 20 1019 72 10000 8.2 30 18:44 12.12.2020
4931 Clouds 21 1019 64 10000 8.7 30 18:26 12.12.2020
4932 Clouds 21 1019 64 10000 8.2 20 17:47 12.12.2020
4933 Clouds 21 1020 64 10000 9.3 20 16:56 12.12.2020
4934 Clouds 21 1020 60 10000 9.8 30 16:21 12.12.2020
4935 Clouds 21 1020 68 10000 10.3 30 15:45 12.12.2020
4936 Clouds 22 1020 60 10000 10.3 30 15:27 12.12.2020
4937 Clouds 22 1021 60 10000 9.8 30 14:48 12.12.2020
4938 Clouds 22 1022 60 10000 9.3 20 13:56 12.12.2020
4939 Clouds 21 1023 64 10000 9.3 20 13:37 12.12.2020
4940 Clouds 21 1023 64 10000 8.2 10 12:58 12.12.2020
4941 Clouds 20 1023 68 10000 7.2 360 11:48 12.12.2020
4942 Clouds 19 1023 72 10000 6.2 360 10:54 12.12.2020
4943 Clouds 19 1023 72 10000 5.7 360 09:49 12.12.2020
4944 Clouds 19 1022 72 10000 5.1 360 08:57 12.12.2020
4945 Clouds 19 1023 82 10000 5.1 350 02:57 12.12.2020
4946 Clouds 19 1024 88 10000 6.7 10 23:55 11.12.2020
4947 Drizzle 19 1024 88 10000 7.2 10 22:30 11.12.2020
4948 Drizzle 19 1023 88 10000 6.7 360 20:48 11.12.2020
4949 Drizzle 21 1023 82 10000 9.3 10 18:26 11.12.2020
4950 Clouds 22 1023 64 10000 9.8 10 15:54 11.12.2020
4951 Clouds 22 1025 73 10000 10.8 30 14:18 11.12.2020
4952 Clouds 22 1026 60 10000 8.7 10 13:25 11.12.2020
4953 Clouds 21 1026 64 10000 8.2 10 12:19 11.12.2020
4954 Clouds 20 1026 64 10000 10.3 20 11:51 11.12.2020
4955 Clouds 19 1026 72 10000 7.7 360 10:46 11.12.2020
4956 Clouds 18 1025 88 10000 5.1 360 08:48 11.12.2020
4957 Clouds 18 1024 68 10000 7.7 20 05:42 11.12.2020
4958 Clouds 18 1024 68 10000 6.7 360 04:52 11.12.2020
4959 Clouds 18 1025 68 10000 7.2 360 01:38 11.12.2020
4960 Clouds 18 1025 63 10000 9.3 20 00:21 11.12.2020
4961 Clouds 20 1025 64 10000 8.2 10 22:44 10.12.2020
4962 Clouds 19 1025 72 10000 8.7 10 21:36 10.12.2020
4963 Clouds 20 1024 68 10000 9.8 10 20:41 10.12.2020
4964 Clouds 20 1024 64 10000 9.8 10 19:43 10.12.2020
4965 Clouds 20 1024 60 10000 10.8 10 18:56 10.12.2020
4966 Clouds 21 1023 60 10000 11.3 10 17:54 10.12.2020
4967 Clouds 22 1023 56 10000 10.3 20 16:30 10.12.2020
4968 Clouds 22 1024 64 10000 10.3 20 15:27 10.12.2020
4969 Clouds 22 1024 56 10000 10.8 20 14:50 10.12.2020
4970 Clouds 21 1025 64 10000 10.3 10 14:27 10.12.2020
4971 Clouds 21 1026 60 10000 10.8 20 12:47 10.12.2020
4972 Clouds 20 1026 72 10000 9.3 20 11:35 10.12.2020
4973 Clouds 18 1024 77 10000 6.7 10 08:51 10.12.2020
4974 Clouds 17 1024 77 10000 7.7 10 07:48 10.12.2020
4975 Clouds 18 1024 72 10000 8.7 10 06:41 10.12.2020
4976 Clouds 18 1025 77 10000 11.3 30 02:56 10.12.2020
4977 Clouds 18 1025 77 10000 8.7 20 01:59 10.12.2020
4978 Clouds 19 1026 82 10000 8.7 10 23:52 09.12.2020
4979 Clouds 18 1024 82 10000 5.7 350 20:59 09.12.2020
4980 Clouds 18 1024 82 10000 7.7 40 20:28 09.12.2020
4981 Clouds 19 1024 77 10000 9.3 30 19:21 09.12.2020
4982 Clouds 20 1023 60 10000 9.8 10 17:43 09.12.2020
4983 Rain 21 1023 60 10000 9.8 10 16:41 09.12.2020
4984 Clouds 21 1023 60 10000 9.8 10 16:20 09.12.2020
4985 Clouds 21 1023 60 10000 9.8 10 16:20 09.12.2020
4986 Clouds 21 1024 64 10000 10.8 20 14:58 09.12.2020
4987 Clouds 21 1024 60 10000 9.8 10 14:27 09.12.2020
4988 Clouds 21 1025 60 10000 9.8 10 13:51 09.12.2020
4989 Clouds 21 1025 56 10000 9.8 360 13:19 09.12.2020
4990 Clouds 21 1026 60 10000 9.3 10 12:43 09.12.2020
4991 Clouds 19 1026 68 10000 9.3 10 11:48 09.12.2020
4992 Clouds 18 1025 68 10000 6.2 350 10:31 09.12.2020
4993 Clouds 17 1025 72 10000 5.7 350 08:45 09.12.2020
4994 Clouds 17 1024 72 10000 4.6 350 07:42 09.12.2020
4995 Clouds 17 1024 72 10000 5.7 350 05:48 09.12.2020
4996 Clouds 18 1024 77 10000 6.2 340 03:21 09.12.2020
4997 Clouds 17 1025 88 10000 6.7 350 01:21 09.12.2020
4998 Clouds 18 1025 68 10000 6.2 350 23:41 08.12.2020
4999 Clouds 19 1025 63 10000 7.7 340 22:43 08.12.2020
5000 Clouds 19 1025 59 10000 6.2 350 20:50 08.12.2020
5001 Clouds 19 1025 56 10000 6.7 360 19:32 08.12.2020
5002 Clouds 20 1025 60 10000 8.2 20 18:57 08.12.2020
5003 Clouds 21 1024 56 10000 9.3 20 17:31 08.12.2020
5004 Clouds 22 1025 56 10000 8.7 40 15:43 08.12.2020
5005 Clouds 21 1026 56 10000 8.7 30 14:18 08.12.2020
5006 Clouds 21 1026 53 10000 7.2 30 13:24 08.12.2020
5007 Clouds 21 1027 52 10000 7.7 30 12:24 08.12.2020
5008 Clouds 20 1027 64 10000 5.7 360 11:39 08.12.2020
5009 Clouds 19 1026 68 10000 5.7 340 10:43 08.12.2020
5010 Clouds 17 1026 72 10000 6.2 340 09:47 08.12.2020
5011 Clouds 17 1025 82 10000 5.1 330 07:50 08.12.2020
5012 Clouds 18 1025 72 10000 5.1 330 06:33 08.12.2020
5013 Clouds 17 1025 82 10000 4.6 350 03:23 08.12.2020
5014 Clouds 19 1025 68 10000 5.7 20 00:46 08.12.2020
5015 Clouds 18 1025 77 10000 7.7 50 23:50 07.12.2020
5016 Clouds 18 1024 72 10000 5.7 360 22:37 07.12.2020
5017 Clouds 19 1024 68 10000 7.2 10 21:50 07.12.2020
5018 Clouds 19 1023 68 10000 7.7 20 19:51 07.12.2020
5019 Clouds 20 1023 60 10000 8.7 20 18:29 07.12.2020
5020 Clouds 20 1023 60 10000 9.8 30 17:26 07.12.2020
5021 Clouds 20 1023 64 10000 9.8 20 16:52 07.12.2020
5022 Clouds 21 1023 60 10000 9.3 20 15:26 07.12.2020
5023 Clouds 21 1024 60 10000 10.3 20 14:46 07.12.2020
5024 Rain 20 1025 68 10000 10.3 30 13:45 07.12.2020
5025 Clouds 20 1025 72 10000 9.3 20 12:38 07.12.2020
5026 Clouds 20 1025 77 10000 7.7 20 11:43 07.12.2020
5027 Clouds 18 1025 82 10000 7.2 350 10:56 07.12.2020
5028 Clouds 17 1023 77 10000 5.7 350 09:40 07.12.2020
5029 Clouds 16 1023 77 10000 6.2 350 08:21 07.12.2020
5030 Rain 16 1022 77 10000 6.7 10 06:21 07.12.2020
5031 Clouds 16 1022 77 10000 6.7 350 04:48 07.12.2020
5032 Rain 16 1023 87 9000 6.7 360 01:54 07.12.2020
5033 Rain 17 1023 82 10000 6.2 350 23:50 06.12.2020
5034 Clouds 17 1022 77 10000 6.2 350 22:23 06.12.2020
5035 Clouds 17 1021 82 10000 7.2 350 20:54 06.12.2020
5036 Clouds 18 1021 72 10000 6.2 350 20:34 06.12.2020
5037 Clouds 19 1021 72 10000 8.7 10 19:53 06.12.2020
5038 Clouds 19 1021 77 10000 9.3 10 18:18 06.12.2020
5039 Clouds 19 1020 82 10000 9.3 10 16:44 06.12.2020
5040 Clouds 20 1021 64 10000 8.2 350 14:52 06.12.2020
5041 Clouds 20 1021 64 10000 9.8 20 13:32 06.12.2020
5042 Clouds 19 1022 77 10000 5.7 360 12:39 06.12.2020
5043 Clouds 19 1022 77 10000 11.3 30 11:55 06.12.2020
5044 Clouds 18 1022 77 10000 9.8 30 11:30 06.12.2020
5045 Clouds 18 1022 72 10000 10.8 30 10:42 06.12.2020
5046 Clouds 17 1021 72 10000 7.7 360 09:45 06.12.2020
5047 Clouds 15 1020 77 10000 4.1 350 08:22 06.12.2020
5048 Clouds 16 1020 82 10000 5.1 330 05:38 06.12.2020
5049 Clouds 17 1020 77 10000 5.7 350 00:57 06.12.2020
5050 Clouds 17 1020 77 10000 5.7 350 00:37 06.12.2020
5051 Clouds 17 1020 77 10000 5.7 350 00:19 06.12.2020
5052 Clouds 18 1020 77 10000 5.7 350 22:26 05.12.2020
5053 Clouds 17 1020 77 10000 5.7 340 21:58 05.12.2020
5054 Clouds 18 1019 77 10000 7.7 10 21:37 05.12.2020
5055 Clouds 19 1019 77 10000 7.7 10 21:19 05.12.2020
5056 Clouds 19 1019 82 10000 6.7 340 18:55 05.12.2020
5057 Clouds 19 1019 82 10000 6.7 340 18:55 05.12.2020
5058 Clouds 19 1018 82 10000 5.1 330 17:57 05.12.2020
5059 Drizzle 19 1018 82 10000 6.2 360 16:49 05.12.2020
5060 Clouds 20 1018 77 9000 7.2 20 16:29 05.12.2020
5061 Clouds 19 1018 88 9000 9.3 360 15:36 05.12.2020
5062 Clouds 20 1019 82 10000 10.3 20 13:53 05.12.2020
5063 Clouds 21 1019 64 10000 7.2 320 11:50 05.12.2020
5064 Clouds 19 1018 68 10000 4.6 350 10:41 05.12.2020
5065 Clouds 18 1018 72 10000 5.7 340 09:38 05.12.2020
5066 Clouds 17 1017 77 10000 3.6 350 07:48 05.12.2020
5067 Clouds 17 1018 72 10000 4.1 340 05:58 05.12.2020
5068 Clouds 18 1018 72 10000 4.6 340 02:18 05.12.2020
5069 Clouds 18 1019 72 10000 2.1 290 23:39 04.12.2020
5070 Rain 19 1019 82 10000 4.6 10 21:37 04.12.2020
5071 Drizzle 20 1018 68 10000 6.2 360 19:35 04.12.2020
5072 Rain 20 1018 68 10000 7.2 20 18:40 04.12.2020
5073 Clouds 21 1017 68 10000 6.7 20 17:48 04.12.2020
5074 Clouds 21 1017 68 10000 7.7 40 16:52 04.12.2020
5075 Clouds 22 1018 64 10000 7.2 40 15:26 04.12.2020
5076 Clouds 21 1019 73 10000 6.2 40 13:38 04.12.2020
5077 Clouds 21 1019 73 10000 6.2 40 13:20 04.12.2020
5078 Clouds 22 1020 68 10000 4.6 40 12:41 04.12.2020
5079 Clouds 20 1019 77 10000 2.1 330 10:38 04.12.2020
5080 Clouds 18 1018 82 10000 3.1 320 09:30 04.12.2020
5081 Clouds 18 1017 77 10000 3.1 290 06:40 04.12.2020
5082 Clouds 18 1017 77 10000 3.1 270 04:54 04.12.2020
5083 Clouds 18 1018 82 10000 2.6 310 01:54 04.12.2020
5084 Clouds 19 1018 60 10000 2.6 310 22:51 03.12.2020
5085 Clouds 19 1017 68 10000 2.6 310 21:56 03.12.2020
5086 Clouds 20 1016 72 10000 2.1 310 20:47 03.12.2020
5087 Clouds 21 1016 73 10000 3.1 170 19:26 03.12.2020
5088 Clouds 21 1016 68 10000 3.1 170 18:48 03.12.2020
5089 Clouds 22 1015 64 10000 4.6 170 17:21 03.12.2020
5090 Clouds 22 1015 68 10000 5.7 160 16:45 03.12.2020
5091 Clouds 22 1015 64 10000 6.2 160 15:34 03.12.2020
5092 Clouds 22 1016 69 10000 6.2 160 14:50 03.12.2020
5093 Clouds 22 1016 64 10000 5.7 160 14:19 03.12.2020
5094 Clouds 22 1017 68 10000 2.1 70 12:55 03.12.2020
5095 Clouds 21 1017 68 10000 2.1 90 12:25 03.12.2020
5096 Clouds 21 1017 73 10000 1.5 120 11:22 03.12.2020
5097 Clouds 17 1015 72 10000 2.6 290 08:49 03.12.2020
5098 Clouds 17 1014 77 10000 3.1 290 04:24 03.12.2020
5099 Clouds 17 1015 77 10000 3.1 270 02:20 03.12.2020
5100 Clouds 18 1015 77 10000 2.6 280 00:41 03.12.2020
5101 Clouds 19 1015 77 10000 2.1 300 22:47 02.12.2020
5102 Clouds 19 1014 72 10000 2.6 320 21:56 02.12.2020
5103 Clouds 19 1013 72 10000 0.5 0 20:52 02.12.2020
5104 Clouds 20 1013 68 10000 1 0 20:34 02.12.2020
5105 Clouds 20 1013 68 10000 1 0 19:55 02.12.2020
5106 Clouds 22 1012 64 10000 3.1 360 17:53 02.12.2020
5107 Clouds 22 1011 64 10000 2.1 280 17:34 02.12.2020
5108 Clouds 23 1012 57 10000 6.7 210 16:57 02.12.2020
5109 Clouds 23 1012 60 10000 8.2 200 14:47 02.12.2020
5110 Clouds 22 1014 53 10000 1.5 181 11:34 02.12.2020
5111 Clouds 19 1014 64 10000 0.5 0 10:28 02.12.2020
5112 Clouds 18 1013 68 10000 1 0 08:24 02.12.2020
5113 Clouds 19 1014 77 10000 7.7 200 00:57 02.12.2020
5114 Clouds 18 1014 77 10000 4.6 220 22:21 01.12.2020
5115 Clouds 19 1013 68 10000 4.6 190 20:36 01.12.2020
5116 Clouds 20 1013 56 10000 6.7 220 19:34 01.12.2020
5117 Clouds 21 1013 68 10000 6.7 210 17:29 01.12.2020
5118 Clouds 23 1013 57 10000 9.8 210 15:24 01.12.2020
5119 Clouds 22 1014 60 10000 6.7 220 13:37 01.12.2020
5120 Clouds 21 1015 68 10000 8.7 210 11:44 01.12.2020
5121 Clouds 20 1015 73 10000 8.2 210 11:26 01.12.2020
5122 Clouds 20 1015 77 10000 4.6 210 10:32 01.12.2020
5123 Clouds 17 1014 88 10000 3.6 230 08:18 01.12.2020
5124 Clouds 17 1013 88 10000 2.6 240 06:46 01.12.2020
5125 Clouds 19 1014 82 10000 6.7 220 01:51 01.12.2020
5126 Clouds 19 1014 82 10000 6.7 220 01:51 01.12.2020
5127 Clouds 19 1014 72 10000 7.2 220 00:52 01.12.2020
5128 Clouds 18 1014 82 10000 7.2 220 23:21 30.11.2020
5129 Clouds 18 1013 88 10000 6.7 230 22:42 30.11.2020
5130 Clouds 18 1013 82 10000 5.7 210 22:23 30.11.2020
5131 Clouds 19 1012 72 10000 8.7 230 20:47 30.11.2020
5132 Clouds 19 1011 77 10000 6.2 220 19:41 30.11.2020
5133 Rain 18 1011 77 10000 8.2 230 18:22 30.11.2020
5134 Clouds 19 1010 60 10000 10.3 220 17:46 30.11.2020
5135 Clouds 22 1010 53 10000 9.8 220 16:54 30.11.2020
5136 Clouds 22 1010 53 10000 9.3 220 15:45 30.11.2020
5137 Clouds 21 1011 64 10000 7.2 200 14:21 30.11.2020
5138 Clouds 22 1012 53 10000 8.7 210 13:41 30.11.2020
5139 Clouds 21 1012 60 10000 7.7 200 12:26 30.11.2020
5140 Clouds 20 1012 64 10000 6.7 200 11:57 30.11.2020
5141 Clouds 19 1011 68 10000 4.6 200 10:25 30.11.2020
5142 Clouds 18 1011 72 10000 4.1 210 09:35 30.11.2020
5143 Clouds 17 1011 72 10000 4.1 210 09:35 30.11.2020
5144 Clouds 17 1010 72 10000 3.1 190 04:27 30.11.2020
5145 Clouds 16 1011 100 10000 1.5 210 23:28 29.11.2020
5146 Clouds 17 1011 93 10000 3.1 200 21:46 29.11.2020
5147 Clouds 17 1011 93 10000 4.1 200 21:28 29.11.2020
5148 Rain 17 1011 93 10000 2.1 200 19:31 29.11.2020
5149 Clouds 17 1012 88 10000 1.35 339 17:43 29.11.2020
5150 Clouds 18 1013 82 10000 3.1 330 14:49 29.11.2020
5151 Clouds 18 1014 72 10000 2.6 30 12:46 29.11.2020
5152 Clouds 19 1015 72 10000 6.2 10 11:37 29.11.2020
5153 Clouds 16 1014 87 10000 3.6 20 08:54 29.11.2020
5154 Clouds 16 1014 87 10000 3.6 360 08:35 29.11.2020
5155 Clouds 18 1015 72 10000 2.1 310 02:32 29.11.2020
5156 Clouds 19 1016 72 10000 5.26 314 22:59 28.11.2020
5157 Clouds 19 1016 77 10000 1 330 22:27 28.11.2020
5158 Clouds 19 1016 77 10000 1.5 340 20:24 28.11.2020
5159 Clouds 20 1015 72 10000 2.1 40 19:28 28.11.2020
5160 Clouds 21 1015 64 10000 1.5 70 18:57 28.11.2020
5161 Clouds 21 1015 68 10000 2.1 90 18:22 28.11.2020
5162 Clouds 21 1015 64 10000 2.1 120 16:58 28.11.2020
5163 Rain 19 1016 82 10000 5.7 360 14:59 28.11.2020
5164 Clouds 21 1017 56 10000 2.1 340 13:55 28.11.2020
5165 Clouds 21 1018 64 10000 3.1 360 11:28 28.11.2020
5166 Clouds 18 1017 72 10000 0.5 0 09:26 28.11.2020
5167 Clouds 18 1016 63 10000 2.6 290 03:44 28.11.2020
5168 Clouds 18 1017 68 10000 2.6 310 01:54 28.11.2020
5169 Clouds 19 1016 59 10000 4.6 320 23:22 27.11.2020
5170 Clouds 18 1016 77 10000 7.2 340 22:38 27.11.2020
5171 Clouds 19 1015 59 10000 3.6 350 20:40 27.11.2020
5172 Clouds 20 1015 52 10000 7.2 340 19:34 27.11.2020
5173 Clouds 20 1014 56 10000 5.1 350 18:58 27.11.2020
5174 Clouds 22 1014 46 10000 8.2 310 16:58 27.11.2020
5175 Clouds 22 1015 43 10000 8.7 330 14:45 27.11.2020
5176 Clouds 21 1016 49 10000 5.1 340 13:21 27.11.2020
5177 Clouds 20 1016 52 10000 5.7 320 12:47 27.11.2020
5178 Clouds 19 1016 68 10000 5.7 330 11:34 27.11.2020
5179 Clouds 19 1015 59 10000 4.6 340 10:45 27.11.2020
5180 Clouds 17 1015 72 10000 5.1 350 09:53 27.11.2020
5181 Clouds 17 1015 72 10000 4.6 350 23:50 26.11.2020
5182 Clouds 19 1013 51 10000 1.79 52 22:25 26.11.2020
5183 Clouds 18 1013 63 10000 1 0 21:46 26.11.2020
5184 Clouds 19 1013 63 10000 1 0 20:49 26.11.2020
5185 Clouds 19 1013 77 10000 4.1 360 18:37 26.11.2020
5186 Clouds 20 1013 49 10000 8.2 320 17:34 26.11.2020
5187 Clouds 21 1014 52 10000 7.7 340 14:24 26.11.2020
5188 Clouds 21 1016 52 10000 6.2 320 12:58 26.11.2020
5189 Clouds 21 1016 52 10000 6.7 340 12:40 26.11.2020
5190 Clouds 21 1016 49 10000 10.3 350 11:20 26.11.2020
5191 Clouds 19 1016 68 10000 8.7 360 10:23 26.11.2020
5192 Clouds 18 1016 67 10000 8.7 350 09:39 26.11.2020
5193 Clouds 18 1016 67 10000 8.7 350 09:18 26.11.2020
5194 Clouds 17 1016 72 10000 7.7 340 08:34 26.11.2020
5195 Clouds 18 1018 72 10000 7.7 350 02:19 26.11.2020
5196 Drizzle 19 1019 82 10000 6.2 360 22:31 25.11.2020
5197 Clouds 20 1018 82 10000 9.8 360 20:38 25.11.2020
5198 Clouds 21 1018 49 10000 5.1 340 19:27 25.11.2020
5199 Clouds 23 1018 47 10000 5.1 340 18:22 25.11.2020
5200 Clouds 23 1018 53 10000 9.8 10 15:55 25.11.2020
5201 Clouds 23 1018 60 10000 9.8 20 15:32 25.11.2020
5202 Clouds 24 1020 60 10000 7.7 40 13:47 25.11.2020
5203 Clouds 23 1021 64 10000 6.7 10 12:59 25.11.2020
5204 Clouds 23 1021 64 10000 7.7 10 11:27 25.11.2020
5205 Clouds 19 1021 68 10000 4.1 360 09:23 25.11.2020
5206 Clouds 20 1021 68 10000 4.6 360 08:51 25.11.2020
5207 Clear 20 1021 48 10000 4.1 360 08:29 25.11.2020
5208 Clear 20 1021 31 10000 2.1 330 03:55 25.11.2020
5209 Clear 21 1022 43 10000 2.1 320 01:50 25.11.2020
5210 Clear 21 1023 26 10000 2.6 320 00:22 25.11.2020
5211 Clear 20 1023 49 10000 1 0 23:36 24.11.2020
5212 Clear 21 1023 56 10000 2.1 320 22:52 24.11.2020
5213 Clear 21 1023 56 10000 2.1 330 21:50 24.11.2020
5214 Clear 21 1023 56 10000 1.5 320 21:27 24.11.2020
5215 Clear 22 1023 56 10000 2.07 145 20:19 24.11.2020
5216 Clear 23 1022 53 10000 2.1 110 18:39 24.11.2020
5217 Clear 23 1021 49 10000 2.6 110 17:29 24.11.2020
5218 Clear 25 1021 50 10000 3.6 120 16:38 24.11.2020
5219 Clear 24 1022 57 10000 3.6 120 15:56 24.11.2020
5220 Clear 25 1022 53 10000 3.6 130 15:36 24.11.2020
5221 Clear 25 1022 53 10000 3.6 130 15:18 24.11.2020
5222 Clear 25 1023 57 10000 3.6 140 14:31 24.11.2020
5223 Clear 24 1024 64 10000 3.1 150 12:42 24.11.2020
5224 Clear 24 1024 64 10000 2.6 160 12:21 24.11.2020
5225 Clear 23 1024 64 10000 2.1 170 11:37 24.11.2020
5226 Clear 23 1023 64 10000 2.1 200 10:26 24.11.2020
5227 Clear 22 1023 60 10000 2.1 250 09:53 24.11.2020
5228 Clear 22 1023 60 10000 1.5 250 09:34 24.11.2020
5229 Clear 21 1022 64 10000 1.5 240 06:50 24.11.2020
5230 Clear 22 1022 43 10000 2.1 340 04:18 24.11.2020
5231 Clear 22 1022 52 10000 1.5 330 22:27 23.11.2020
5232 Clear 22 1022 64 10000 1.5 320 21:34 23.11.2020
5233 Clear 22 1021 60 10000 2.1 320 20:50 23.11.2020
5234 Clear 23 1021 64 10000 1 0 20:20 23.11.2020
5235 Clear 24 1021 53 10000 1.5 150 18:20 23.11.2020
5236 Clear 24 1021 56 10000 3.1 130 17:24 23.11.2020
5237 Clear 24 1021 60 10000 2.6 150 16:22 23.11.2020
5238 Clear 24 1022 64 10000 2.1 130 14:46 23.11.2020
5239 Clear 25 1023 53 10000 2.1 170 12:55 23.11.2020
5240 Clear 25 1023 60 10000 1.5 0 12:36 23.11.2020
5241 Clear 25 1023 60 10000 1 0 11:46 23.11.2020
5242 Clear 23 1023 69 10000 0.5 0 10:47 23.11.2020
5243 Clear 21 1022 72 10000 1 0 09:31 23.11.2020
5244 Clear 21 1021 64 10000 1 0 08:40 23.11.2020
5245 Clear 21 1021 56 10000 3.29 103 07:25 23.11.2020
5246 Clear 23 1021 40 10000 2.6 340 00:32 23.11.2020
5247 Clear 22 1021 40 10000 2.6 10 23:28 22.11.2020
5248 Clouds 22 1021 64 10000 3.1 360 21:59 22.11.2020
5249 Clouds 23 1021 68 10000 2.6 10 20:53 22.11.2020
5250 Clouds 22 1020 68 10000 2.1 30 19:53 22.11.2020
5251 Clear 22 1020 73 10000 2.1 80 18:40 22.11.2020
5252 Clouds 23 1019 73 10000 2.6 90 16:52 22.11.2020
5253 Clouds 24 1020 73 10000 2.1 90 15:44 22.11.2020
5254 Clouds 24 1021 69 10000 2.1 90 14:29 22.11.2020
5255 Clear 25 1022 69 10000 3.1 90 12:49 22.11.2020
5256 Clear 24 1022 69 10000 2.6 80 11:57 22.11.2020
5257 Clear 24 1022 69 10000 2.1 100 11:20 22.11.2020
5258 Clear 24 1021 64 10000 2.6 10 10:44 22.11.2020
5259 Clear 21 1021 56 10000 2.6 340 08:51 22.11.2020
5260 Clear 23 1020 40 10000 4.1 340 01:48 22.11.2020
5261 Clear 24 1020 35 10000 4.1 350 23:35 21.11.2020
5262 Clear 23 1020 31 10000 3.1 310 21:57 21.11.2020
5263 Clear 23 1019 31 10000 3.1 310 21:19 21.11.2020
5264 Clear 24 1019 29 10000 2.1 340 20:33 21.11.2020
5265 Clear 24 1019 27 10000 2.1 40 19:53 21.11.2020
5266 Clear 24 1018 27 10000 0.5 0 19:27 21.11.2020
5267 Clear 26 1018 26 10000 1 0 17:57 21.11.2020
5268 Clear 25 1018 50 10000 1 0 16:48 21.11.2020
5269 Clear 22 1018 44 10000 1.5 90 15:52 21.11.2020
5270 Clear 26 1019 41 10000 1.5 70 15:22 21.11.2020
5271 Clear 26 1020 44 10000 1.5 0 14:43 21.11.2020
5272 Clear 26 1020 50 10000 0.5 0 13:58 21.11.2020
5273 Clear 25 1021 50 10000 1 0 12:27 21.11.2020
5274 Clear 25 1021 50 10000 0.5 0 11:56 21.11.2020
5275 Clear 24 1021 60 10000 0.5 0 10:39 21.11.2020
5276 Clear 21 1020 64 10000 0.5 0 09:32 21.11.2020
5277 Clear 22 1020 64 10000 1 0 08:51 21.11.2020
5278 Clear 21 1019 60 10000 2.1 320 06:34 21.11.2020
5279 Clear 22 1019 52 10000 2.6 330 04:33 21.11.2020
5280 Clear 23 1020 37 10000 3.1 330 00:38 21.11.2020
5281 Clear 24 1020 56 10000 3.6 30 23:25 20.11.2020
5282 Clear 24 1020 35 10000 2.73 119 21:56 20.11.2020
5283 Clear 24 1019 53 10000 3.1 330 21:38 20.11.2020
5284 Clear 24 1019 53 10000 3.1 330 21:38 20.11.2020
5285 Clear 24 1019 53 10000 3.1 330 21:18 20.11.2020
5286 Clear 24 1019 56 10000 0.5 80 19:44 20.11.2020
5287 Clear 26 1018 31 10000 2.1 200 18:36 20.11.2020
5288 Clear 26 1018 34 10000 2.1 170 17:47 20.11.2020
5289 Clear 26 1018 41 10000 2.6 150 17:23 20.11.2020
5290 Clear 26 1019 47 10000 2.6 190 16:38 20.11.2020
5291 Clear 25 1019 47 10000 2.1 0 15:56 20.11.2020
5292 Clear 25 1019 53 10000 2.1 170 14:49 20.11.2020
5293 Clear 25 1021 57 10000 2.1 170 13:43 20.11.2020
5294 Clear 25 1021 57 10000 2.1 170 13:18 20.11.2020
5295 Clear 25 1021 60 10000 2.1 0 12:31 20.11.2020
5296 Clear 25 1021 60 10000 1.5 230 11:43 20.11.2020
5297 Clear 24 1021 60 10000 0.5 0 10:45 20.11.2020
5298 Clouds 21 1019 72 10000 2.1 340 08:52 20.11.2020
5299 Clouds 21 1019 77 10000 2.6 350 08:23 20.11.2020
5300 Clouds 20 1019 77 10000 7.2 20 05:20 20.11.2020
5301 Clouds 20 1020 73 10000 5.7 10 03:43 20.11.2020
5302 Clouds 21 1021 77 10000 4.1 360 22:33 19.11.2020
5303 Clouds 21 1021 83 10000 4.6 20 21:55 19.11.2020
5304 Clouds 22 1020 78 10000 4.6 20 20:59 19.11.2020
5305 Clouds 22 1020 78 10000 5.1 10 20:30 19.11.2020
5306 Clouds 22 1020 77 10000 5.7 20 19:44 19.11.2020
5307 Clouds 22 1020 73 10000 5.1 20 19:22 19.11.2020
5308 Clouds 23 1020 73 10000 7.2 30 17:38 19.11.2020
5309 Clouds 24 1020 73 10000 8.2 30 16:47 19.11.2020
5310 Clouds 25 1021 69 10000 8.7 30 15:31 19.11.2020
5311 Clouds 25 1022 69 10000 10.8 30 13:59 19.11.2020
5312 Clouds 25 1023 69 10000 10.3 30 13:39 19.11.2020
5313 Clouds 25 1023 69 10000 10.3 30 12:57 19.11.2020
5314 Clouds 24 1023 69 10000 10.8 30 12:34 19.11.2020
5315 Clouds 24 1023 69 10000 10.8 10 11:41 19.11.2020
5316 Clouds 24 1023 69 10000 10.8 10 11:22 19.11.2020
5317 Clouds 24 1023 69 10000 10.8 10 11:22 19.11.2020
5318 Clouds 23 1023 73 10000 10.3 10 10:51 19.11.2020
5319 Clouds 22 1023 78 10000 7.7 360 09:49 19.11.2020
5320 Clouds 21 1022 77 10000 7.7 10 09:28 19.11.2020
5321 Clouds 21 1022 83 10000 8.7 10 08:58 19.11.2020
5322 Clouds 21 1022 77 10000 7.7 10 07:57 19.11.2020
5323 Clouds 23 1022 68 10000 10.3 10 01:48 19.11.2020
5324 Clear 23 1023 46 10000 8.7 10 00:33 19.11.2020
5325 Clear 24 1023 41 10000 8.7 10 23:47 18.11.2020
5326 Clear 24 1023 38 10000 7.7 10 23:23 18.11.2020
5327 Clear 24 1023 41 10000 7.7 10 22:29 18.11.2020
5328 Clear 24 1023 47 10000 8.2 10 21:44 18.11.2020
5329 Clear 24 1023 44 10000 7.7 10 21:25 18.11.2020
5330 Clear 25 1022 36 10000 8.7 20 20:37 18.11.2020
5331 Clear 26 1022 36 10000 7.2 20 19:44 18.11.2020
5332 Clear 27 1021 36 10000 7.2 20 19:22 18.11.2020
5333 Clear 27 1021 36 10000 7.2 20 19:22 18.11.2020
5334 Clouds 27 1021 42 10000 7.7 20 18:45 18.11.2020
5335 Clouds 28 1021 42 10000 6.7 30 17:44 18.11.2020
5336 Clouds 29 1021 39 10000 6.2 30 16:52 18.11.2020
5337 Clouds 27 1021 51 10000 7.2 40 16:18 18.11.2020
5338 Clear 27 1022 45 10000 3.1 50 14:41 18.11.2020
5339 Clear 27 1022 45 10000 3.1 50 14:19 18.11.2020
5340 Clear 28 1023 42 10000 2.6 60 13:22 18.11.2020
5341 Clear 28 1023 34 10000 3.1 40 12:43 18.11.2020
5342 Clear 28 1024 34 10000 3.1 40 11:51 18.11.2020
5343 Clear 26 1024 34 10000 2.1 40 10:57 18.11.2020
5344 Clear 24 1023 44 10000 1 0 10:27 18.11.2020
5345 Clear 23 1022 30 10000 1.13 124 08:40 18.11.2020
5346 Clear 24 1022 27 10000 3.6 320 06:48 18.11.2020
5347 Clear 22 1022 37 10000 2.6 10 03:48 18.11.2020
5348 Clear 25 1022 56 10000 5.7 20 00:18 18.11.2020
5349 Clear 27 1022 24 10000 3.6 320 23:23 17.11.2020
5350 Clear 27 1022 24 10000 3.6 310 22:41 17.11.2020
5351 Clear 27 1022 24 10000 3.6 310 22:41 17.11.2020
5352 Clear 27 1022 24 10000 3.6 310 22:23 17.11.2020
5353 Clear 26 1022 27 10000 3.1 320 21:46 17.11.2020
5354 Clear 27 1022 26 10000 2.6 310 21:18 17.11.2020
5355 Clear 26 1021 27 10000 2.1 330 20:42 17.11.2020
5356 Clear 26 1021 29 10000 1 330 20:22 17.11.2020
5357 Clear 26 1021 41 10000 0.5 0 18:37 17.11.2020
5358 Clear 26 1021 41 10000 0.5 0 18:18 17.11.2020
5359 Clear 26 1021 61 10000 1.5 160 16:59 17.11.2020
5360 Clear 26 1021 61 10000 1.5 130 16:30 17.11.2020
5361 Clear 27 1021 61 10000 2.1 150 15:51 17.11.2020
5362 Clear 26 1022 61 10000 2.6 140 15:33 17.11.2020
5363 Clear 27 1022 57 10000 2.6 140 14:57 17.11.2020
5364 Clear 27 1022 54 10000 2.1 130 14:28 17.11.2020
5365 Clear 26 1023 47 10000 1.5 170 13:41 17.11.2020
5366 Clear 26 1023 47 10000 1.5 170 13:19 17.11.2020
5367 Clear 26 1023 42 10000 2.1 140 12:40 17.11.2020
5368 Clear 26 1023 42 10000 2.6 130 11:44 17.11.2020
5369 Clear 26 1023 34 10000 0.5 0 10:50 17.11.2020
5370 Clear 26 1022 34 10000 0.5 0 10:29 17.11.2020
5371 Clear 26 1022 36 10000 4.22 149 09:51 17.11.2020
5372 Clear 25 1022 33 10000 3.94 147 09:29 17.11.2020
5373 Clear 26 1021 36 10000 3.1 290 08:23 17.11.2020
5374 Clear 25 1021 43 10000 3.62 133 07:44 17.11.2020
5375 Clouds 25 1021 41 10000 2.6 310 06:34 17.11.2020
5376 Clear 24 1021 64 10000 3.6 20 03:31 17.11.2020
5377 Clear 24 1021 78 10000 3.6 350 02:35 17.11.2020
5378 Clear 25 1021 56 10000 2.6 360 01:23 17.11.2020
5379 Clear 25 1021 56 10000 2.6 360 01:23 17.11.2020
5380 Clear 22 1021 64 10000 2.6 360 00:50 17.11.2020
5381 Clear 25 1021 46 10000 2.6 10 23:45 16.11.2020
5382 Clear 25 1022 49 10000 1.5 10 23:23 16.11.2020
5383 Clear 25 1022 73 10000 2.1 360 22:42 16.11.2020
5384 Clear 25 1022 73 10000 2.1 360 22:20 16.11.2020
5385 Clear 25 1022 73 10000 2.1 340 21:44 16.11.2020
5386 Clear 24 1021 73 10000 1.5 360 21:24 16.11.2020
5387 Clear 25 1021 69 10000 1.5 350 20:27 16.11.2020
5388 Clear 24 1021 73 10000 2.1 40 19:56 16.11.2020
5389 Clear 25 1021 78 10000 3.1 30 19:32 16.11.2020
5390 Clear 25 1020 78 10000 3.1 40 18:56 16.11.2020
5391 Clear 26 1020 73 10000 2.1 60 18:29 16.11.2020
5392 Clear 25 1020 69 10000 2.6 100 17:42 16.11.2020
5393 Clear 27 1020 69 10000 2.6 100 17:20 16.11.2020
5394 Clear 26 1021 65 10000 2.1 70 16:52 16.11.2020
5395 Clear 28 1021 61 10000 3.1 90 16:27 16.11.2020
5396 Clear 27 1021 57 10000 2.1 100 15:50 16.11.2020
5397 Clear 26 1021 54 10000 2.1 110 15:29 16.11.2020
5398 Clear 27 1021 57 10000 2.1 100 14:53 16.11.2020
5399 Clear 27 1022 57 10000 1 0 13:59 16.11.2020
5400 Clear 27 1022 69 10000 2.6 70 13:21 16.11.2020
5401 Clear 26 1022 54 10000 3.1 60 12:32 16.11.2020
5402 Clear 25 1022 57 10000 3.1 70 11:43 16.11.2020
5403 Clear 26 1022 51 10000 1 0 11:23 16.11.2020
5404 Clear 26 1022 53 10000 2.1 330 10:44 16.11.2020
5405 Clear 24 1022 60 10000 2.1 340 10:26 16.11.2020
5406 Clear 24 1021 56 10000 1.5 350 09:53 16.11.2020
5407 Clear 23 1021 56 10000 3.1 320 09:34 16.11.2020
5408 Clear 23 1021 56 10000 2.1 60 08:48 16.11.2020
5409 Clear 23 1020 46 10000 2.1 300 08:21 16.11.2020
5410 Clear 22 1020 64 10000 1.42 193 07:29 16.11.2020
5411 Clear 23 1020 64 10000 2.6 320 06:46 16.11.2020
5412 Clear 21 1020 83 10000 3.1 330 05:48 16.11.2020
5413 Clear 21 1020 88 10000 4.6 10 03:54 16.11.2020
5414 Clear 21 1021 78 10000 2.1 330 01:45 16.11.2020
5415 Clear 23 1021 83 10000 2.1 350 00:33 16.11.2020
5416 Clear 22 1020 78 10000 4.6 20 23:30 15.11.2020
5417 Clear 22 1020 78 10000 5.1 360 22:58 15.11.2020
5418 Clear 23 1020 78 10000 4.1 360 22:25 15.11.2020
5419 Clear 23 1020 78 10000 4.1 10 21:54 15.11.2020
5420 Clear 22 1020 78 10000 4.1 10 21:35 15.11.2020
5421 Clear 23 1019 78 10000 4.1 10 20:58 15.11.2020
5422 Clear 23 1019 78 10000 3.6 20 20:38 15.11.2020
5423 Clear 23 1019 78 10000 3.6 20 20:38 15.11.2020
5424 Clear 24 1019 69 10000 3.1 30 19:56 15.11.2020
5425 Clear 24 1018 69 10000 3.1 30 19:38 15.11.2020
5426 Clear 24 1018 69 10000 3.1 30 19:19 15.11.2020
5427 Clear 25 1018 69 10000 4.1 30 18:45 15.11.2020
5428 Clear 24 1018 73 10000 4.6 30 18:25 15.11.2020
5429 Clear 25 1018 69 10000 6.2 40 17:47 15.11.2020
5430 Clear 26 1018 65 10000 6.2 30 17:26 15.11.2020
5431 Clear 27 1018 65 10000 4.6 30 16:58 15.11.2020
5432 Clear 26 1018 65 10000 4.1 40 16:38 15.11.2020
5433 Clear 27 1018 65 10000 4.1 40 16:18 15.11.2020
5434 Clear 25 1018 73 10000 2.6 70 15:42 15.11.2020
5435 Clear 26 1018 69 10000 3.6 80 15:22 15.11.2020
5436 Clear 26 1018 78 10000 2.1 90 14:50 15.11.2020
5437 Clear 26 1018 78 10000 2.6 70 14:25 15.11.2020
5438 Clear 26 1019 73 10000 4.1 60 13:41 15.11.2020
5439 Clear 25 1019 73 10000 4.1 60 13:18 15.11.2020
5440 Clear 27 1019 57 10000 3.6 70 12:42 15.11.2020
5441 Clear 26 1019 57 10000 3.6 40 12:19 15.11.2020
5442 Clear 25 1019 78 10000 2.6 60 11:42 15.11.2020
5443 Clear 24 1019 78 10000 2.6 60 11:18 15.11.2020
5444 Clear 24 1018 78 10000 1 0 10:49 15.11.2020
5445 Clear 24 1018 73 10000 0.4 1 10:30 15.11.2020
5446 Clear 22 1017 68 10000 1.5 220 09:46 15.11.2020
5447 Clear 21 1017 82 10000 1 0 09:23 15.11.2020
5448 Clear 21 1017 77 10000 2.6 320 08:54 15.11.2020
5449 Clear 21 1017 77 10000 2.6 320 08:31 15.11.2020
5450 Clear 21 1017 73 10000 2.1 330 07:44 15.11.2020
5451 Clear 23 1016 73 10000 1 0 05:33 15.11.2020
5452 Clear 22 1016 73 10000 1.5 230 04:51 15.11.2020
5453 Clear 23 1017 69 10000 3.1 180 01:25 15.11.2020
5454 Clear 22 1017 73 10000 2.6 220 00:29 15.11.2020
5455 Clear 23 1017 69 10000 2.1 340 23:41 14.11.2020
5456 Clear 24 1017 73 10000 1 0 22:51 14.11.2020
5457 Clear 23 1017 69 10000 2.1 360 22:32 14.11.2020
5458 Clear 24 1017 78 10000 0.5 0 21:45 14.11.2020
5459 Clear 23 1017 83 10000 2.1 20 21:23 14.11.2020
5460 Clear 24 1016 78 10000 3.1 40 20:59 14.11.2020
5461 Clear 24 1016 69 10000 2.6 30 20:30 14.11.2020
5462 Clear 24 1016 69 10000 2.6 20 19:58 14.11.2020
5463 Clear 24 1016 69 10000 2.6 20 19:36 14.11.2020
5464 Clear 25 1015 69 10000 2.1 50 18:55 14.11.2020
5465 Clear 25 1015 57 10000 1.5 30 18:36 14.11.2020
5466 Clear 26 1015 57 10000 1.5 30 18:18 14.11.2020
5467 Clear 26 1016 61 10000 3.6 40 17:41 14.11.2020
5468 Clear 26 1016 61 10000 3.6 40 17:20 14.11.2020
5469 Clear 26 1016 51 10000 4.6 10 16:44 14.11.2020
5470 Clear 28 1015 27 10000 7.7 200 16:24 14.11.2020
5471 Clear 28 1015 33 10000 8.2 190 15:52 14.11.2020
5472 Clear 28 1015 25 10000 8.2 190 15:29 14.11.2020
5473 Clear 28 1016 28 10000 7.7 190 14:49 14.11.2020
5474 Clear 25 1017 69 10000 6.7 180 14:26 14.11.2020
5475 Clear 25 1017 73 10000 4.6 170 13:49 14.11.2020
5476 Clear 25 1017 73 10000 4.6 190 13:26 14.11.2020
5477 Clear 25 1018 78 10000 4.6 180 12:48 14.11.2020
5478 Clear 25 1018 73 10000 3.6 180 12:30 14.11.2020
5479 Clear 24 1018 73 10000 5.7 200 11:46 14.11.2020
5480 Clear 24 1017 73 10000 3.6 210 11:25 14.11.2020
5481 Clear 24 1017 73 10000 2.6 200 10:49 14.11.2020
5482 Clear 24 1017 69 10000 2.6 210 10:26 14.11.2020
5483 Clear 24 1017 64 10000 2.6 220 09:51 14.11.2020
5484 Clear 23 1016 60 10000 3.1 230 09:28 14.11.2020
5485 Clear 23 1016 60 10000 3.1 230 09:28 14.11.2020
5486 Clear 22 1016 60 10000 1.5 250 08:59 14.11.2020
5487 Clouds 23 1016 64 10000 1 0 08:38 14.11.2020
5488 Clouds 23 1015 60 10000 2.1 240 07:51 14.11.2020
5489 Clouds 23 1015 60 10000 2.6 230 07:28 14.11.2020
5490 Clouds 23 1015 64 10000 4.6 220 06:35 14.11.2020
5491 Clouds 24 1016 56 10000 3.6 220 05:37 14.11.2020
5492 Clouds 24 1016 53 10000 2.6 170 04:22 14.11.2020
5493 Clouds 23 1017 56 10000 2.6 220 01:21 14.11.2020
5494 Clouds 25 1018 50 10000 3.1 200 23:49 13.11.2020
5495 Clouds 24 1018 69 10000 1.5 150 23:26 13.11.2020
5496 Clouds 24 1018 69 10000 2.6 130 22:55 13.11.2020
5497 Clouds 25 1018 44 10000 3.1 200 22:29 13.11.2020
5498 Clouds 25 1017 47 10000 3.1 200 21:59 13.11.2020
5499 Clouds 25 1017 50 10000 2.6 200 21:39 13.11.2020
5500 Clouds 25 1017 50 10000 2.6 200 21:20 13.11.2020
5501 Clouds 24 1017 50 10000 3.1 200 20:42 13.11.2020
5502 Clouds 24 1017 50 10000 2.6 220 20:22 13.11.2020
5503 Clear 23 1017 56 10000 3.6 200 19:46 13.11.2020
5504 Clear 24 1017 50 10000 3.1 200 19:23 13.11.2020
5505 Clear 24 1017 50 10000 3.1 190 18:56 13.11.2020
5506 Clear 24 1017 50 10000 3.1 200 18:25 13.11.2020
5507 Clear 24 1017 53 10000 2.6 190 17:43 13.11.2020
5508 Clear 24 1017 53 10000 2.6 190 17:43 13.11.2020
5509 Clear 25 1017 53 10000 2.6 160 17:19 13.11.2020
5510 Clear 25 1017 47 10000 1.5 160 16:49 13.11.2020
5511 Clear 25 1017 41 10000 2.1 150 16:24 13.11.2020
5512 Clear 25 1017 50 10000 2.1 130 15:50 13.11.2020
5513 Clouds 25 1018 47 10000 1.5 120 15:27 13.11.2020
5514 Clouds 25 1019 50 10000 1.5 200 14:50 13.11.2020
5515 Clouds 25 1019 57 10000 1.5 190 14:25 13.11.2020
5516 Clouds 25 1020 53 10000 1 0 13:53 13.11.2020
5517 Clouds 24 1020 57 10000 0.5 0 13:25 13.11.2020
5518 Clouds 23 1020 64 10000 2.1 0 12:47 13.11.2020
5519 Clouds 23 1020 78 10000 1 0 12:24 13.11.2020
5520 Clouds 22 1020 83 10000 1 0 11:49 13.11.2020
5521 Clouds 22 1020 83 10000 0.5 0 11:29 13.11.2020
5522 Clouds 22 1020 83 10000 1.5 170 10:56 13.11.2020
5523 Clouds 21 1020 83 10000 2.1 200 10:35 13.11.2020
5524 Clouds 21 1019 88 10000 1.5 210 09:57 13.11.2020
5525 Clouds 21 1019 88 10000 1.5 220 09:38 13.11.2020
5526 Clouds 20 1019 88 10000 1.5 220 09:19 13.11.2020
5527 Clouds 20 1019 88 10000 1.5 220 09:19 13.11.2020
5528 Clouds 20 1019 88 10000 1.5 220 09:19 13.11.2020
5529 Clouds 20 1018 88 10000 1.5 230 08:36 13.11.2020
5530 Clouds 20 1018 88 10000 2.1 220 07:58 13.11.2020
5531 Clouds 20 1018 88 10000 1.5 220 07:40 13.11.2020
5532 Clouds 20 1018 88 10000 1.5 220 07:21 13.11.2020
5533 Clouds 20 1017 94 10000 1.5 260 06:48 13.11.2020
5534 Clouds 20 1017 94 10000 1.5 280 05:43 13.11.2020
5535 Clouds 20 1017 94 10000 1 300 04:59 13.11.2020
5536 Clouds 21 1018 88 10000 3.6 40 01:45 13.11.2020
5537 Clouds 20 1019 94 10000 4.6 30 00:38 13.11.2020
5538 Clouds 21 1019 83 10000 4.6 30 00:18 13.11.2020
5539 Clear 21 1019 88 10000 4.1 30 23:37 12.11.2020
5540 Clear 21 1019 88 10000 4.1 30 23:19 12.11.2020
5541 Clear 22 1019 83 10000 4.6 20 22:48 12.11.2020
5542 Clear 22 1019 83 10000 4.6 30 22:30 12.11.2020
5543 Clear 22 1018 83 10000 4.1 30 21:43 12.11.2020
5544 Clear 22 1018 83 10000 5.1 30 21:24 12.11.2020
5545 Clear 22 1018 83 10000 5.1 30 20:58 12.11.2020
5546 Clear 22 1018 83 10000 4.1 30 20:39 12.11.2020
5547 Clear 22 1018 83 10000 4.1 30 20:19 12.11.2020
5548 Clear 22 1017 83 10000 4.6 30 19:44 12.11.2020
5549 Clear 22 1017 83 10000 3.6 40 19:26 12.11.2020
5550 Clear 22 1017 83 10000 3.6 40 18:48 12.11.2020
5551 Clear 23 1017 78 10000 3.6 50 18:23 12.11.2020
5552 Clouds 23 1017 78 10000 3.1 50 17:45 12.11.2020
5553 Clouds 24 1016 78 10000 3.1 70 17:26 12.11.2020
5554 Clouds 24 1016 73 10000 3.6 70 16:47 12.11.2020
5555 Clouds 24 1017 69 10000 4.6 40 16:26 12.11.2020
5556 Clouds 24 1017 73 10000 3.1 50 15:57 12.11.2020
5557 Clear 24 1017 78 10000 2.6 90 15:39 12.11.2020
5558 Clear 24 1017 78 10000 2.6 90 15:20 12.11.2020
5559 Clouds 23 1017 73 10000 2.1 100 14:43 12.11.2020
5560 Clouds 23 1018 78 10000 2.6 100 14:25 12.11.2020
5561 Clouds 23 1018 78 10000 2.6 60 13:49 12.11.2020
5562 Clouds 23 1018 78 10000 2.6 60 13:21 12.11.2020
5563 Clouds 23 1019 73 10000 3.1 70 12:59 12.11.2020
5564 Clouds 22 1019 78 10000 2.6 70 12:38 12.11.2020
5565 Clouds 22 1019 78 10000 2.6 70 12:18 12.11.2020
5566 Clouds 23 1019 78 10000 2.6 30 11:42 12.11.2020
5567 Clouds 22 1019 78 10000 2.6 30 11:22 12.11.2020
5568 Clouds 21 1018 77 10000 2.1 360 10:41 12.11.2020
5569 Clouds 21 1018 77 10000 2.1 360 10:23 12.11.2020
5570 Clouds 20 1018 82 10000 2.6 330 09:42 12.11.2020
5571 Clouds 20 1018 82 10000 2.6 330 09:22 12.11.2020
5572 Clouds 19 1017 82 10000 2.1 310 08:41 12.11.2020
5573 Clouds 19 1017 82 10000 2.1 310 08:22 12.11.2020
5574 Clouds 19 1017 82 10000 2.1 310 08:22 12.11.2020
5575 Clouds 19 1017 82 10000 2.1 310 07:59 12.11.2020
5576 Clouds 19 1017 77 10000 2.6 360 07:40 12.11.2020
5577 Clouds 20 1017 77 10000 3.1 340 06:58 12.11.2020
5578 Clouds 19 1017 82 10000 3.1 360 06:40 12.11.2020
5579 Clouds 20 1018 77 10000 4.6 360 04:39 12.11.2020
5580 Clouds 20 1018 77 10000 4.1 360 03:20 12.11.2020
5581 Clouds 20 1019 73 10000 7.2 20 01:23 12.11.2020
5582 Clouds 21 1019 73 10000 7.2 10 23:47 11.11.2020
5583 Clouds 20 1019 77 10000 6.7 10 23:25 11.11.2020
5584 Clouds 21 1019 77 10000 8.7 10 22:57 11.11.2020
5585 Clouds 20 1019 77 10000 8.2 20 22:39 11.11.2020
5586 Clouds 21 1019 77 10000 8.2 20 22:19 11.11.2020
5587 Clouds 21 1018 77 10000 8.2 20 21:41 11.11.2020
5588 Clouds 21 1018 77 10000 8.2 20 21:23 11.11.2020
5589 Clouds 21 1018 77 10000 7.7 20 20:55 11.11.2020
5590 Clouds 21 1018 77 10000 8.2 20 20:37 11.11.2020
5591 Clouds 21 1018 77 10000 8.2 20 20:19 11.11.2020
5592 Clouds 21 1018 77 10000 8.2 20 19:48 11.11.2020
5593 Clouds 21 1017 73 10000 7.7 30 19:30 11.11.2020
5594 Clouds 21 1017 73 10000 7.7 30 19:30 11.11.2020
5595 Clouds 22 1017 78 10000 7.2 30 18:49 11.11.2020
5596 Clouds 22 1017 73 10000 8.2 30 18:28 11.11.2020
5597 Clouds 22 1017 73 10000 7.2 30 17:41 11.11.2020
5598 Clouds 22 1017 73 10000 7.2 30 17:22 11.11.2020
5599 Clouds 22 1017 73 10000 6.7 30 16:49 11.11.2020
5600 Clouds 23 1017 69 10000 6.2 40 16:31 11.11.2020
5601 Clouds 23 1017 69 10000 5.7 40 15:48 11.11.2020
5602 Clouds 23 1017 69 10000 5.1 40 15:26 11.11.2020
5603 Clouds 23 1017 69 10000 5.7 50 14:52 11.11.2020
5604 Clouds 22 1018 73 10000 5.7 50 14:33 11.11.2020
5605 Clouds 23 1018 69 10000 5.7 40 13:56 11.11.2020
5606 Clouds 23 1019 69 10000 6.2 40 13:33 11.11.2020
5607 Clouds 23 1019 69 10000 5.7 30 12:42 11.11.2020
5608 Clouds 23 1019 69 10000 5.7 30 12:20 11.11.2020
5609 Clouds 22 1019 73 10000 5.7 40 11:49 11.11.2020
5610 Clouds 22 1019 73 10000 5.7 30 11:29 11.11.2020
5611 Clouds 21 1019 77 10000 4.6 20 10:41 11.11.2020
5612 Clouds 20 1019 77 10000 4.6 20 10:22 11.11.2020
5613 Clouds 20 1019 73 10000 4.1 350 09:46 11.11.2020
5614 Clouds 19 1018 77 10000 4.1 350 09:28 11.11.2020
5615 Clouds 19 1018 77 10000 3.6 350 08:46 11.11.2020
5616 Clouds 19 1017 77 10000 3.6 360 08:27 11.11.2020
5617 Clouds 19 1017 82 10000 4.1 10 07:51 11.11.2020
5618 Clouds 19 1017 82 10000 4.1 360 07:30 11.11.2020
5619 Clouds 19 1017 77 10000 4.6 10 06:27 11.11.2020
5620 Clouds 20 1018 77 10000 4.6 10 04:30 11.11.2020
5621 Clouds 20 1019 73 10000 4.1 360 01:32 11.11.2020
5622 Clouds 20 1020 73 10000 4.1 350 00:34 11.11.2020
5623 Clouds 20 1020 73 10000 4.1 350 23:55 10.11.2020
5624 Clouds 20 1020 73 10000 4.1 350 23:24 10.11.2020
5625 Clouds 21 1020 73 10000 4.1 350 22:57 10.11.2020
5626 Clouds 20 1020 73 10000 4.1 350 22:27 10.11.2020
5627 Clouds 21 1019 73 10000 4.1 350 21:54 10.11.2020
5628 Clouds 21 1019 73 10000 4.6 20 21:36 10.11.2020
5629 Clouds 21 1019 73 10000 4.6 20 21:18 10.11.2020
5630 Clouds 21 1019 73 10000 4.6 20 20:42 10.11.2020
5631 Clouds 21 1019 73 10000 4.6 20 20:23 10.11.2020
5632 Clouds 21 1019 73 10000 5.1 20 19:50 10.11.2020
5633 Clouds 22 1018 64 10000 4.6 20 19:32 10.11.2020
5634 Clouds 22 1018 64 10000 4.6 20 18:59 10.11.2020
5635 Clouds 22 1018 64 10000 4.6 30 18:40 10.11.2020
5636 Clouds 22 1018 64 10000 4.6 30 18:19 10.11.2020
5637 Clouds 23 1018 60 10000 5.1 30 17:44 10.11.2020
5638 Clouds 23 1018 60 10000 5.1 30 17:26 10.11.2020
5639 Clouds 23 1019 64 10000 5.7 40 16:57 10.11.2020
5640 Clouds 23 1019 64 10000 5.7 40 16:57 10.11.2020
5641 Clouds 23 1019 60 10000 5.7 20 16:37 10.11.2020
5642 Clouds 23 1019 60 10000 5.7 20 16:18 10.11.2020
5643 Clouds 24 1019 60 10000 6.2 30 15:45 10.11.2020
5644 Clouds 24 1019 60 10000 5.7 40 15:23 10.11.2020
5645 Clouds 24 1020 57 10000 6.7 50 14:41 10.11.2020
5646 Clouds 24 1020 57 10000 6.7 50 14:22 10.11.2020
5647 Clouds 23 1021 60 10000 7.2 60 13:54 10.11.2020
5648 Clouds 23 1021 60 10000 6.7 50 13:36 10.11.2020
5649 Clouds 23 1021 60 10000 6.7 50 13:18 10.11.2020
5650 Clouds 23 1021 64 10000 6.7 50 12:44 10.11.2020
5651 Clouds 23 1022 64 10000 6.7 50 12:23 10.11.2020
5652 Clouds 23 1022 64 10000 7.2 50 11:39 10.11.2020
5653 Clouds 23 1022 64 10000 7.2 50 11:20 10.11.2020
5654 Clouds 22 1022 60 10000 7.2 40 10:44 10.11.2020
5655 Clouds 22 1022 68 10000 6.7 40 10:26 10.11.2020
5656 Clouds 20 1021 73 10000 6.7 30 09:51 10.11.2020
5657 Clouds 19 1021 77 10000 6.7 30 09:27 10.11.2020
5658 Clouds 19 1021 77 10000 7.2 40 08:59 10.11.2020
5659 Clouds 19 1021 77 10000 6.2 40 08:38 10.11.2020
5660 Clouds 19 1021 77 10000 6.2 40 08:19 10.11.2020
5661 Clouds 19 1020 72 10000 6.2 30 07:38 10.11.2020
5662 Clouds 19 1020 72 10000 6.2 30 07:18 10.11.2020
5663 Clouds 20 1020 73 10000 5.7 40 06:38 10.11.2020
5664 Clouds 20 1020 77 10000 7.2 40 05:29 10.11.2020
5665 Clouds 20 1021 77 10000 6.7 40 03:36 10.11.2020
5666 Clouds 20 1022 77 10000 7.7 40 01:41 10.11.2020
5667 Clouds 20 1022 77 10000 7.2 30 00:50 10.11.2020
5668 Clouds 21 1022 77 10000 7.7 30 23:46 09.11.2020
5669 Clouds 21 1022 77 10000 7.2 20 23:00 09.11.2020
5670 Clouds 21 1022 77 10000 7.2 20 22:41 09.11.2020
5671 Clouds 21 1022 77 10000 7.2 20 22:22 09.11.2020
5672 Clouds 21 1022 77 10000 7.2 20 21:43 09.11.2020
5673 Clouds 21 1022 77 10000 7.2 20 21:25 09.11.2020
5674 Clouds 21 1022 77 10000 7.2 20 21:25 09.11.2020
5675 Clouds 21 1022 73 10000 6.2 20 20:42 09.11.2020
5676 Clouds 21 1022 73 10000 6.2 20 20:22 09.11.2020
5677 Clouds 22 1021 73 10000 6.7 10 19:48 09.11.2020
5678 Clouds 22 1021 68 10000 7.2 20 19:24 09.11.2020
5679 Clouds 22 1021 68 10000 7.2 20 19:23 09.11.2020
5680 Clouds 22 1021 68 10000 7.2 20 18:58 09.11.2020
5681 Clouds 23 1021 69 10000 7.2 20 18:39 09.11.2020
5682 Clouds 23 1021 69 10000 7.2 20 18:19 09.11.2020
5683 Clouds 23 1021 64 10000 7.7 20 17:43 09.11.2020
5684 Clouds 23 1021 64 10000 8.2 30 17:25 09.11.2020
5685 Clouds 23 1021 69 10000 8.7 30 16:44 09.11.2020
5686 Clouds 23 1021 69 10000 8.7 30 16:44 09.11.2020
5687 Clouds 23 1021 69 10000 8.7 30 16:23 09.11.2020
5688 Clouds 24 1021 64 10000 7.7 30 15:45 09.11.2020
5689 Clouds 23 1021 64 10000 7.7 30 15:25 09.11.2020
5690 Clouds 24 1022 60 10000 7.7 30 14:49 09.11.2020
5691 Clouds 24 1022 60 10000 7.7 30 14:28 09.11.2020
5692 Clouds 23 1023 64 10000 7.7 30 13:53 09.11.2020
5693 Clouds 23 1023 64 10000 7.2 30 13:28 09.11.2020
5694 Clouds 23 1023 64 10000 7.2 30 12:58 09.11.2020
5695 Clouds 23 1023 64 10000 7.2 30 12:40 09.11.2020
5696 Clouds 23 1023 64 10000 7.2 30 12:20 09.11.2020
5697 Clouds 23 1023 64 10000 7.2 30 11:42 09.11.2020
5698 Clouds 23 1023 64 10000 7.2 30 11:24 09.11.2020
5699 Clouds 22 1023 64 10000 6.7 20 10:44 09.11.2020
5700 Clouds 21 1023 73 10000 5.1 360 10:25 09.11.2020
5701 Clouds 21 1022 68 10000 5.7 350 09:54 09.11.2020
5702 Clouds 20 1022 68 10000 5.7 350 09:29 09.11.2020
5703 Clouds 19 1022 68 10000 5.7 350 08:50 09.11.2020
5704 Clouds 19 1022 72 10000 5.1 350 08:27 09.11.2020
5705 Clouds 19 1022 68 10000 5.7 350 07:43 09.11.2020
5706 Clouds 19 1022 68 10000 5.7 350 07:22 09.11.2020
5707 Clouds 19 1022 68 10000 4.1 340 06:48 09.11.2020
5708 Clouds 19 1022 68 10000 4.1 340 03:51 09.11.2020
5709 Clouds 20 1022 68 10000 4.6 340 01:56 09.11.2020
5710 Clouds 20 1023 68 10000 4.1 340 01:38 09.11.2020
5711 Clouds 20 1023 68 10000 4.1 340 00:35 09.11.2020
5712 Clouds 20 1023 68 10000 4.1 340 23:39 08.11.2020
5713 Clouds 20 1023 68 10000 4.1 340 23:20 08.11.2020
5714 Clouds 21 1023 73 10000 4.1 350 22:42 08.11.2020
5715 Clouds 21 1023 73 10000 4.1 350 22:20 08.11.2020
5716 Clouds 21 1023 77 10000 4.1 350 21:43 08.11.2020
5717 Clouds 21 1022 77 10000 4.1 340 21:20 08.11.2020
5718 Clouds 21 1022 77 10000 3.6 340 20:55 08.11.2020
5719 Clouds 21 1022 73 10000 4.1 360 20:37 08.11.2020
5720 Clouds 21 1022 73 10000 4.1 360 20:19 08.11.2020
5721 Clouds 22 1021 64 10000 3.6 360 19:43 08.11.2020
5722 Clouds 22 1021 64 10000 3.6 360 19:21 08.11.2020
5723 Clouds 22 1021 73 10000 4.1 10 18:49 08.11.2020
5724 Clouds 22 1021 68 10000 4.6 360 18:22 08.11.2020
5725 Clouds 22 1021 73 10000 5.1 20 17:58 08.11.2020
5726 Clouds 22 1021 68 10000 4.6 20 17:39 08.11.2020
5727 Clouds 22 1021 68 10000 4.6 20 17:19 08.11.2020
5728 Clouds 23 1021 68 10000 5.7 30 16:56 08.11.2020
5729 Clouds 23 1021 68 10000 5.1 30 16:36 08.11.2020
5730 Clouds 23 1021 68 10000 5.1 30 16:18 08.11.2020
5731 Clouds 23 1021 64 10000 4.6 40 15:43 08.11.2020
5732 Clouds 23 1022 69 10000 4.6 30 15:22 08.11.2020
5733 Clouds 24 1022 60 10000 5.1 50 14:42 08.11.2020
5734 Clouds 24 1022 60 10000 5.1 50 14:22 08.11.2020
5735 Clouds 24 1022 60 10000 5.1 50 14:22 08.11.2020
5736 Clouds 24 1022 60 10000 5.7 50 13:47 08.11.2020
5737 Clouds 23 1023 69 10000 5.1 50 13:24 08.11.2020
5738 Clouds 23 1023 64 10000 5.1 70 12:46 08.11.2020
5739 Clouds 23 1023 69 10000 4.6 50 12:28 08.11.2020
5740 Clouds 23 1023 69 10000 4.6 40 11:58 08.11.2020
5741 Clouds 22 1023 73 10000 4.6 30 11:40 08.11.2020
5742 Clouds 22 1023 73 10000 4.6 30 11:20 08.11.2020
5743 Clouds 22 1023 73 10000 4.6 30 11:20 08.11.2020
5744 Clouds 22 1023 73 10000 4.1 30 10:50 08.11.2020
5745 Clouds 21 1023 73 10000 2.6 360 10:19 08.11.2020
5746 Clouds 20 1022 72 10000 2.6 350 09:55 08.11.2020
5747 Clouds 19 1022 77 10000 3.1 320 09:37 08.11.2020
5748 Clouds 19 1022 77 10000 3.1 320 09:18 08.11.2020
5749 Clouds 18 1022 72 10000 2.6 310 08:39 08.11.2020
5750 Clouds 18 1022 72 10000 2.6 310 08:18 08.11.2020
5751 Clouds 19 1021 72 10000 2.6 320 07:52 08.11.2020
5752 Clear 18 1021 77 10000 3.1 320 07:24 08.11.2020
5753 Clear 19 1021 68 10000 3.1 310 06:22 08.11.2020
5754 Clear 19 1021 72 10000 2.6 310 05:52 08.11.2020
5755 Clear 19 1021 77 10000 2.6 300 04:31 08.11.2020
5756 Clouds 19 1022 82 10000 2.1 300 01:51 08.11.2020
5757 Clouds 19 1022 82 10000 2.1 300 01:19 08.11.2020
5758 Clouds 19 1022 82 10000 2.1 300 01:19 08.11.2020
5759 Clouds 19 1022 82 10000 2.1 300 01:19 08.11.2020
5760 Clouds 20 1022 77 10000 1.5 280 00:27 08.11.2020
5761 Clouds 20 1022 77 10000 1 290 23:47 07.11.2020
5762 Clouds 20 1022 77 10000 1.89 88 23:28 07.11.2020
5763 Clouds 21 1022 77 10000 1.89 88 22:43 07.11.2020
5764 Clouds 20 1022 77 10000 1.79 97 22:25 07.11.2020
5765 Clouds 21 1022 77 10000 0.5 210 21:46 07.11.2020
5766 Clouds 21 1021 73 10000 1.71 111 21:23 07.11.2020
5767 Clouds 21 1021 73 10000 1.71 111 20:55 07.11.2020
5768 Clouds 21 1021 73 10000 1 0 20:37 07.11.2020
5769 Clouds 21 1021 73 10000 1 0 20:19 07.11.2020
5770 Clouds 21 1021 73 10000 2.1 140 19:43 07.11.2020
5771 Clouds 22 1020 78 10000 2.6 150 19:24 07.11.2020
5772 Clouds 22 1020 78 10000 3.1 120 18:40 07.11.2020
5773 Clouds 22 1020 78 10000 3.1 120 18:21 07.11.2020
5774 Clouds 22 1020 73 10000 3.1 130 17:46 07.11.2020
5775 Clouds 22 1020 78 10000 3.1 140 17:26 07.11.2020
5776 Clouds 22 1020 78 10000 3.6 140 16:44 07.11.2020
5777 Clouds 23 1020 73 10000 3.6 140 16:24 07.11.2020
5778 Clouds 23 1020 73 10000 3.6 120 15:48 07.11.2020
5779 Clouds 23 1020 73 10000 3.6 130 15:25 07.11.2020
5780 Clouds 23 1021 73 10000 3.6 130 14:58 07.11.2020
5781 Clouds 23 1021 73 10000 3.6 120 14:40 07.11.2020
5782 Clouds 23 1021 73 10000 3.6 120 14:20 07.11.2020
5783 Clouds 23 1022 69 10000 3.1 120 13:42 07.11.2020
5784 Clouds 23 1022 69 10000 3.1 120 13:22 07.11.2020
5785 Clouds 23 1022 69 10000 2.1 90 12:35 07.11.2020
5786 Clouds 23 1022 69 10000 2.1 100 11:47 07.11.2020
5787 Clouds 23 1022 64 10000 0.5 0 11:25 07.11.2020
5788 Clouds 23 1021 64 10000 0.5 0 10:59 07.11.2020
5789 Clouds 22 1021 64 10000 1 0 10:40 07.11.2020
5790 Clouds 22 1021 64 10000 1 0 10:22 07.11.2020
5791 Clouds 21 1021 68 10000 2.1 300 09:47 07.11.2020
5792 Clouds 20 1020 72 10000 2.6 290 09:21 07.11.2020
5793 Clouds 19 1020 77 10000 2.6 300 08:47 07.11.2020
5794 Clouds 19 1019 77 10000 2.6 290 08:29 07.11.2020
5795 Clear 19 1019 77 10000 2.6 290 07:48 07.11.2020
5796 Clouds 19 1019 77 10000 2.6 280 06:54 07.11.2020
5797 Clouds 19 1018 77 10000 2.6 280 05:54 07.11.2020
5798 Clouds 19 1018 72 10000 1.5 300 04:22 07.11.2020
5799 Clouds 19 1018 72 10000 1.5 300 02:46 07.11.2020
5800 Clouds 20 1018 72 10000 1 0 01:27 07.11.2020
5801 Clouds 20 1018 73 10000 1.5 300 00:38 07.11.2020
5802 Clouds 21 1018 68 10000 1 0 23:40 06.11.2020
5803 Clouds 21 1018 68 10000 1 0 23:18 06.11.2020
5804 Clouds 21 1017 68 10000 2.6 360 22:40 06.11.2020
5805 Clouds 21 1017 68 10000 2.6 360 22:18 06.11.2020
5806 Clouds 21 1017 68 10000 1 0 21:43 06.11.2020
5807 Clouds 21 1017 68 10000 4.1 20 21:20 06.11.2020
5808 Clouds 21 1016 68 10000 5.7 40 20:47 06.11.2020
5809 Clouds 22 1016 68 10000 6.2 40 20:20 06.11.2020
5810 Clouds 22 1016 68 10000 6.2 40 20:20 06.11.2020
5811 Clouds 22 1015 73 10000 7.2 60 19:46 06.11.2020
5812 Clouds 22 1015 78 10000 5.7 60 19:28 06.11.2020
5813 Clouds 22 1015 78 10000 6.7 70 18:57 06.11.2020
5814 Clouds 23 1014 73 10000 7.7 60 18:39 06.11.2020
5815 Clouds 23 1014 73 10000 7.7 60 18:19 06.11.2020
5816 Clouds 23 1014 73 10000 7.7 60 18:19 06.11.2020
5817 Clouds 24 1013 69 10000 9.3 50 17:46 06.11.2020
5818 Clouds 24 1013 57 10000 4.6 30 17:24 06.11.2020
5819 Clouds 25 1013 54 10000 3.1 320 16:45 06.11.2020
5820 Clouds 25 1013 57 10000 5.7 50 16:22 06.11.2020
5821 Clouds 25 1013 54 10000 6.2 40 15:47 06.11.2020
5822 Clouds 25 1013 54 10000 5.7 40 15:26 06.11.2020
5823 Clouds 25 1013 50 10000 2.6 70 14:50 06.11.2020
5824 Clouds 24 1013 57 10000 3.6 0 14:23 06.11.2020
5825 Clouds 24 1013 53 10000 10.3 220 13:44 06.11.2020
5826 Clouds 23 1013 53 10000 10.3 220 13:21 06.11.2020
5827 Clouds 23 1013 47 10000 9.3 210 12:44 06.11.2020
5828 Clouds 24 1013 53 10000 8.7 230 12:23 06.11.2020
5829 Clouds 24 1013 53 10000 9.3 230 11:40 06.11.2020
5830 Clouds 24 1013 53 10000 9.3 230 11:21 06.11.2020
5831 Clouds 22 1012 60 10000 7.2 220 10:38 06.11.2020
5832 Clouds 22 1012 60 10000 7.2 220 10:19 06.11.2020
5833 Clouds 21 1011 68 10000 8.2 220 09:46 06.11.2020
5834 Clouds 21 1011 64 10000 7.2 210 09:21 06.11.2020
5835 Clouds 21 1010 68 10000 7.2 210 08:49 06.11.2020
5836 Clouds 21 1010 68 10000 7.2 210 08:28 06.11.2020
5837 Clouds 21 1010 68 10000 6.7 210 07:48 06.11.2020
5838 Clouds 21 1010 64 10000 7.2 210 07:29 06.11.2020
5839 Clouds 20 1010 68 10000 6.7 210 06:51 06.11.2020
5840 Clouds 20 1010 72 10000 4.6 220 05:42 06.11.2020
5841 Clouds 20 1010 72 10000 3.6 210 03:18 06.11.2020
5842 Clouds 20 1010 72 10000 3.1 210 00:46 06.11.2020
5843 Clouds 20 1010 72 10000 3.6 210 00:18 06.11.2020
5844 Clouds 20 1010 68 10000 1.5 250 23:26 05.11.2020
5845 Clouds 20 1010 68 10000 2.1 230 22:51 05.11.2020
5846 Clouds 20 1010 68 10000 2.1 230 22:51 05.11.2020
5847 Clouds 20 1010 72 10000 1.5 230 22:26 05.11.2020
5848 Clouds 20 1010 72 10000 2.6 200 21:59 05.11.2020
5849 Clouds 20 1010 68 10000 0.5 0 21:41 05.11.2020
5850 Clouds 20 1010 68 10000 0.5 0 21:21 05.11.2020
5851 Clouds 20 1010 68 10000 0.5 0 21:21 05.11.2020
5852 Clouds 21 1009 68 10000 1.5 300 20:44 05.11.2020
5853 Clouds 21 1009 68 10000 1 0 20:26 05.11.2020
5854 Clouds 21 1009 77 10000 3.6 220 19:58 05.11.2020
5855 Clouds 21 1009 77 10000 6.7 190 19:40 05.11.2020
5856 Clouds 21 1009 77 10000 6.7 190 19:20 05.11.2020
5857 Clouds 22 1008 73 10000 8.7 180 18:42 05.11.2020
5858 Clouds 22 1008 73 10000 8.7 180 18:23 05.11.2020
5859 Clouds 22 1008 64 10000 7.2 190 17:51 05.11.2020
5860 Clouds 23 1008 64 10000 8.2 190 17:27 05.11.2020
5861 Clouds 22 1008 73 10000 8.2 170 16:50 05.11.2020
5862 Clouds 22 1008 68 10000 8.7 180 16:29 05.11.2020
5863 Clouds 22 1009 64 10000 8.7 170 15:57 05.11.2020
5864 Clouds 22 1009 68 10000 7.7 170 15:39 05.11.2020
5865 Clouds 22 1009 68 10000 7.7 170 15:20 05.11.2020
5866 Clouds 22 1010 68 10000 6.7 170 14:44 05.11.2020
5867 Clouds 21 1010 68 10000 5.1 160 14:24 05.11.2020
5868 Clouds 21 1011 68 10000 3.1 140 13:41 05.11.2020
5869 Clouds 21 1011 68 10000 3.1 140 13:23 05.11.2020
5870 Clouds 21 1011 68 10000 3.1 140 13:23 05.11.2020
5871 Clouds 21 1011 68 10000 3.1 110 12:45 05.11.2020
5872 Clouds 21 1011 68 10000 2.6 60 12:23 05.11.2020
5873 Clouds 21 1012 64 10000 1 0 11:46 05.11.2020
5874 Clouds 21 1012 64 10000 1 0 11:25 05.11.2020
5875 Clouds 21 1012 60 10000 2.38 288 10:52 05.11.2020
5876 Clouds 20 1012 64 10000 0.5 0 10:30 05.11.2020
5877 Clouds 19 1011 68 10000 1.5 360 09:55 05.11.2020
5878 Clouds 18 1011 68 10000 1.5 350 09:37 05.11.2020
5879 Clouds 18 1011 68 10000 1.5 350 09:18 05.11.2020
5880 Clouds 18 1011 72 10000 3.1 20 08:43 05.11.2020
5881 Clouds 18 1011 72 10000 3.1 30 08:23 05.11.2020
5882 Clouds 18 1011 77 10000 1.5 340 07:29 05.11.2020
5883 Clouds 18 1011 77 10000 2.6 360 06:51 05.11.2020
5884 Clouds 18 1011 77 10000 2.1 340 06:33 05.11.2020
5885 Clouds 19 1012 77 10000 4.6 340 03:47 05.11.2020
5886 Clouds 19 1015 88 10000 6.2 340 00:59 05.11.2020
5887 Drizzle 20 1015 88 10000 6.2 360 00:26 05.11.2020
5888 Clouds 20 1015 82 10000 4.6 340 23:43 04.11.2020
5889 Clouds 20 1016 82 10000 5.1 340 23:25 04.11.2020
5890 Rain 20 1016 88 9000 5.7 350 22:45 04.11.2020
5891 Clouds 20 1016 88 10000 4.1 350 22:23 04.11.2020
5892 Clouds 20 1016 88 10000 5.1 350 21:48 04.11.2020
5893 Clouds 20 1016 82 10000 4.6 360 21:29 04.11.2020
5894 Rain 20 1016 88 10000 6.2 340 20:56 04.11.2020
5895 Rain 20 1016 88 10000 6.2 340 20:56 04.11.2020
5896 Rain 20 1016 88 10000 6.2 340 20:37 04.11.2020
5897 Rain 20 1016 88 10000 6.2 340 20:18 04.11.2020
5898 Rain 20 1016 88 9000 5.7 360 19:42 04.11.2020
5899 Rain 20 1016 88 9000 5.7 360 19:24 04.11.2020
5900 Rain 20 1016 93 5000 7.7 360 18:43 04.11.2020
5901 Rain 22 1016 83 10000 8.7 20 18:24 04.11.2020
5902 Clouds 22 1016 78 10000 7.7 30 17:54 04.11.2020
5903 Clouds 22 1016 83 10000 7.7 20 17:36 04.11.2020
5904 Clouds 22 1016 83 10000 7.7 20 17:18 04.11.2020
5905 Clouds 22 1016 78 10000 8.2 30 16:37 04.11.2020
5906 Clouds 22 1016 78 10000 8.2 30 16:18 04.11.2020
5907 Clouds 23 1017 69 10000 9.3 30 15:42 04.11.2020
5908 Clouds 23 1017 69 10000 9.3 30 15:23 04.11.2020
5909 Clouds 24 1018 64 10000 8.7 30 14:47 04.11.2020
5910 Clouds 23 1018 69 10000 9.3 30 14:26 04.11.2020
5911 Clouds 24 1019 60 10000 9.3 30 13:54 04.11.2020
5912 Clouds 23 1019 69 10000 8.7 30 13:36 04.11.2020
5913 Clouds 23 1019 69 10000 8.7 30 13:18 04.11.2020
5914 Clouds 23 1019 69 10000 8.2 30 12:42 04.11.2020
5915 Clouds 23 1020 69 10000 8.7 30 12:24 04.11.2020
5916 Clouds 23 1020 69 10000 8.7 30 11:46 04.11.2020
5917 Clouds 23 1020 69 10000 9.8 30 11:23 04.11.2020
5918 Clouds 23 1020 73 10000 8.7 30 10:51 04.11.2020
5919 Clouds 22 1020 78 10000 8.2 20 10:24 04.11.2020
5920 Clouds 22 1020 78 10000 8.2 20 10:24 04.11.2020
5921 Clouds 21 1020 83 10000 7.7 20 09:56 04.11.2020
5922 Clouds 20 1020 77 10000 7.7 20 09:29 04.11.2020
5923 Clouds 20 1020 77 10000 8.2 20 08:58 04.11.2020
5924 Clouds 20 1020 77 10000 8.7 30 08:39 04.11.2020
5925 Clouds 20 1020 77 10000 8.7 30 08:18 04.11.2020
5926 Clouds 20 1020 77 10000 9.3 20 07:40 04.11.2020
5927 Clouds 20 1020 77 10000 9.3 20 07:21 04.11.2020
5928 Clouds 21 1020 73 10000 8.7 20 06:39 04.11.2020
5929 Clouds 20 1021 77 10000 8.7 20 04:59 04.11.2020
5930 Clouds 20 1021 77 10000 9.3 10 02:31 04.11.2020
5931 Clouds 20 1021 83 10000 9.3 10 01:38 04.11.2020
5932 Clouds 21 1022 78 10000 10.3 10 00:25 04.11.2020
5933 Clouds 21 1022 78 10000 9.3 10 23:28 03.11.2020
5934 Clouds 22 1021 78 10000 9.8 20 22:57 03.11.2020
5935 Clouds 22 1021 78 10000 9.3 20 22:38 03.11.2020
5936 Clouds 22 1021 78 10000 9.3 20 22:19 03.11.2020
5937 Clouds 22 1021 78 10000 9.8 20 21:43 03.11.2020
5938 Clouds 22 1021 78 10000 9.3 20 21:24 03.11.2020
5939 Clouds 22 1021 78 10000 9.3 20 21:24 03.11.2020
5940 Clouds 22 1021 73 10000 9.8 10 20:49 03.11.2020
5941 Clouds 22 1021 78 10000 8.7 10 20:27 03.11.2020
5942 Clouds 22 1021 78 10000 10.3 20 19:55 03.11.2020
5943 Clouds 22 1021 73 10000 10.8 20 19:37 03.11.2020
5944 Clouds 22 1021 73 10000 10.8 20 19:19 03.11.2020
5945 Clouds 23 1021 69 10000 10.3 20 18:41 03.11.2020
5946 Clouds 24 1021 69 10000 10.3 20 18:19 03.11.2020
5947 Clouds 24 1021 64 10000 10.8 20 17:46 03.11.2020
5948 Clouds 24 1021 64 10000 10.8 20 17:27 03.11.2020
5949 Clouds 24 1021 64 10000 10.8 30 16:51 03.11.2020
5950 Clouds 24 1021 64 10000 10.3 30 16:31 03.11.2020
5951 Clouds 25 1021 65 10000 10.8 30 15:55 03.11.2020
5952 Clouds 25 1021 61 10000 10.3 30 15:37 03.11.2020
5953 Clouds 25 1021 61 10000 10.3 30 15:18 03.11.2020
5954 Clouds 24 1022 69 10000 10.8 30 14:41 03.11.2020
5955 Clouds 24 1022 69 10000 10.8 30 14:23 03.11.2020
5956 Clouds 25 1022 65 10000 10.8 30 13:41 03.11.2020
5957 Clouds 24 1022 65 10000 10.8 30 13:21 03.11.2020
5958 Clouds 24 1023 64 10000 10.3 20 12:45 03.11.2020
5959 Clouds 24 1023 69 10000 10.3 30 12:24 03.11.2020
5960 Clouds 24 1023 64 10000 10.3 20 11:47 03.11.2020
5961 Clouds 24 1023 64 10000 10.3 20 11:25 03.11.2020
5962 Clouds 23 1023 69 10000 9.3 10 10:56 03.11.2020
5963 Clouds 23 1022 69 10000 7.2 360 10:37 03.11.2020
5964 Clouds 23 1022 69 10000 7.2 360 10:18 03.11.2020
5965 Clouds 22 1022 73 10000 8.2 360 09:45 03.11.2020
5966 Clouds 21 1022 73 10000 7.7 360 09:22 03.11.2020
5967 Clouds 20 1022 77 10000 8.2 360 08:49 03.11.2020
5968 Clouds 20 1021 77 10000 8.2 360 08:29 03.11.2020
5969 Clouds 20 1021 73 10000 8.7 360 07:41 03.11.2020
5970 Clouds 20 1021 73 10000 8.7 360 07:19 03.11.2020
5971 Clouds 20 1021 73 10000 7.7 360 06:21 03.11.2020
5972 Clouds 20 1021 77 10000 7.2 360 04:34 03.11.2020
5973 Clouds 21 1022 77 10000 6.2 360 00:45 03.11.2020
5974 Clouds 21 1022 77 10000 6.7 10 00:20 03.11.2020
5975 Clouds 22 1022 73 10000 7.2 10 23:43 02.11.2020
5976 Clouds 22 1022 78 10000 6.7 20 23:20 02.11.2020
5977 Clouds 22 1022 78 10000 8.2 10 22:43 02.11.2020
5978 Clouds 22 1022 78 10000 7.7 10 22:24 02.11.2020
5979 Clouds 22 1021 78 10000 8.7 20 21:39 02.11.2020
5980 Clouds 22 1021 78 10000 8.7 20 21:20 02.11.2020
5981 Clouds 23 1021 69 10000 7.7 360 20:55 02.11.2020
5982 Clouds 23 1021 69 10000 7.7 360 20:36 02.11.2020
5983 Clouds 23 1021 69 10000 7.7 360 20:18 02.11.2020
5984 Clouds 23 1021 69 10000 7.7 360 20:18 02.11.2020
5985 Clouds 23 1021 69 10000 9.8 20 19:42 02.11.2020
5986 Clouds 23 1021 69 10000 9.8 20 19:22 02.11.2020
5987 Clouds 24 1020 64 10000 10.8 10 18:42 02.11.2020
5988 Clouds 24 1020 69 10000 10.3 20 18:21 02.11.2020
5989 Clouds 24 1021 60 10000 11.3 20 17:56 02.11.2020
5990 Clouds 24 1021 60 10000 11.3 20 17:56 02.11.2020
5991 Clouds 24 1021 64 10000 11.8 30 17:38 02.11.2020
5992 Clouds 24 1021 64 10000 11.8 30 17:19 02.11.2020
5993 Clouds 26 1020 54 10000 10.8 30 16:40 02.11.2020
5994 Clouds 26 1020 54 10000 10.8 30 16:40 02.11.2020
5995 Clouds 26 1020 54 10000 10.8 30 16:22 02.11.2020
5996 Clouds 25 1021 65 10000 11.8 30 15:41 02.11.2020
5997 Clouds 24 1021 65 10000 11.8 30 15:22 02.11.2020
5998 Clouds 24 1021 64 10000 10.8 30 14:53 02.11.2020
5999 Clouds 24 1021 64 10000 10.8 30 14:53 02.11.2020
6000 Clouds 24 1021 61 10000 10.8 30 14:20 02.11.2020
6001 Clouds 24 1022 69 10000 10.8 30 13:54 02.11.2020
6002 Clouds 24 1022 69 10000 10.3 20 13:23 02.11.2020
6003 Clouds 24 1022 69 10000 10.3 20 13:23 02.11.2020
6004 Clouds 25 1022 65 10000 10.8 20 12:59 02.11.2020
6005 Clouds 24 1022 73 10000 10.3 10 12:31 02.11.2020
6006 Clouds 24 1022 73 10000 8.7 10 11:58 02.11.2020
6007 Clouds 23 1022 69 10000 8.7 10 11:38 02.11.2020
6008 Clouds 23 1022 69 10000 8.7 10 11:19 02.11.2020
6009 Clouds 23 1022 73 10000 8.2 10 10:42 02.11.2020
6010 Clouds 22 1022 73 10000 8.2 10 10:21 02.11.2020
6011 Clouds 22 1021 73 10000 7.2 10 09:49 02.11.2020
6012 Clouds 22 1021 77 10000 7.2 360 09:24 02.11.2020
6013 Clouds 21 1020 77 10000 7.7 360 08:45 02.11.2020
6014 Clouds 21 1020 77 10000 7.7 360 08:24 02.11.2020
6015 Clouds 21 1020 73 10000 7.7 10 07:50 02.11.2020
6016 Clouds 21 1020 73 10000 7.7 10 07:50 02.11.2020
6017 Clear 21 1020 73 10000 8.7 10 06:59 02.11.2020
6018 Clouds 21 1020 73 10000 9.8 10 06:36 02.11.2020
6019 Clear 22 1020 73 10000 8.7 20 03:35 02.11.2020
6020 Clear 22 1021 64 10000 9.3 20 01:25 02.11.2020
6021 Clear 23 1021 60 10000 9.3 10 00:35 02.11.2020
6022 Clear 23 1021 60 10000 10.3 10 23:42 01.11.2020
6023 Clear 23 1021 60 10000 10.3 10 23:24 01.11.2020
6024 Clear 23 1021 64 10000 9.8 10 22:46 01.11.2020
6025 Clear 23 1021 60 10000 9.3 20 22:26 01.11.2020
6026 Clear 23 1021 64 10000 9.3 20 21:59 01.11.2020
6027 Clear 23 1021 64 10000 9.3 20 21:59 01.11.2020
6028 Clear 23 1021 60 10000 8.7 20 21:38 01.11.2020
6029 Clear 23 1021 60 10000 8.7 20 21:20 01.11.2020
6030 Clear 24 1020 50 10000 7.2 20 20:42 01.11.2020
6031 Clear 24 1020 50 10000 7.2 20 20:42 01.11.2020
6032 Clear 24 1020 50 10000 7.2 20 20:23 01.11.2020
6033 Clear 24 1020 53 10000 7.7 20 19:43 01.11.2020
6034 Clear 25 1020 47 10000 7.2 20 19:25 01.11.2020
6035 Clear 25 1020 50 10000 8.7 30 18:44 01.11.2020
6036 Clear 26 1020 42 10000 7.7 10 18:20 01.11.2020
6037 Clear 26 1020 42 10000 7.7 10 18:20 01.11.2020
6038 Clear 27 1020 39 10000 7.7 20 17:59 01.11.2020
6039 Clear 26 1020 57 10000 7.7 40 17:41 01.11.2020
6040 Clear 26 1020 57 10000 7.7 40 17:22 01.11.2020
6041 Clear 27 1020 37 10000 7.7 20 16:41 01.11.2020
6042 Clear 27 1020 37 10000 7.7 20 16:21 01.11.2020
6043 Clear 27 1020 32 10000 8.2 20 15:54 01.11.2020
6044 Clear 27 1020 28 10000 6.7 20 15:36 01.11.2020
6045 Clear 27 1020 28 10000 6.7 20 15:18 01.11.2020
6046 Clear 28 1021 28 10000 6.2 20 14:43 01.11.2020
6047 Clear 27 1021 28 10000 7.2 10 14:21 01.11.2020
6048 Clear 27 1022 35 10000 8.2 30 13:49 01.11.2020
6049 Clear 27 1022 32 10000 7.2 30 13:31 01.11.2020
6050 Clear 27 1022 39 10000 6.7 20 12:44 01.11.2020
6051 Clear 27 1022 39 10000 7.2 20 12:24 01.11.2020
6052 Clear 26 1023 54 10000 8.7 30 11:53 01.11.2020
6053 Clear 25 1022 47 10000 6.2 30 11:19 01.11.2020
6054 Clear 26 1022 32 10000 4.6 10 10:59 01.11.2020
6055 Clear 26 1022 32 10000 5.7 10 10:40 01.11.2020
6056 Clear 25 1022 32 10000 5.7 10 10:21 01.11.2020
6057 Clear 25 1022 36 10000 5.7 360 09:46 01.11.2020
6058 Clear 24 1021 36 10000 5.1 360 08:49 01.11.2020
6059 Clear 24 1021 36 10000 5.7 360 08:24 01.11.2020
6060 Clear 23 1021 40 10000 5.1 360 07:43 01.11.2020
6061 Clear 24 1021 36 10000 6.2 360 05:23 01.11.2020
6062 Clear 25 1022 22 10000 4.6 360 01:52 01.11.2020
6063 Clear 25 1021 22 10000 5.7 360 00:53 01.11.2020
6064 Clear 25 1022 26 10000 5.1 360 23:29 31.10.2020
6065 Clear 25 1021 26 10000 5.1 360 22:59 31.10.2020
6066 Clear 25 1021 26 10000 5.1 360 22:41 31.10.2020
6067 Clear 25 1021 26 10000 5.1 360 22:22 31.10.2020
6068 Clear 25 1021 24 10000 4.6 360 21:44 31.10.2020
6069 Clear 25 1021 26 10000 5.7 360 21:20 31.10.2020
6070 Clear 26 1021 20 10000 4.1 360 20:39 31.10.2020
6071 Clear 26 1021 20 10000 4.1 360 20:19 31.10.2020
6072 Clear 26 1021 20 10000 3.1 20 19:41 31.10.2020
6073 Clear 26 1021 20 10000 3.1 20 19:23 31.10.2020
6074 Clear 27 1021 20 10000 3.6 30 18:48 31.10.2020
6075 Clear 27 1021 23 10000 3.6 30 18:30 31.10.2020
6076 Clear 27 1021 22 10000 3.1 40 17:41 31.10.2020
6077 Clear 30 1021 22 10000 3.1 40 17:23 31.10.2020
6078 Clear 30 1021 23 10000 2.1 70 16:53 31.10.2020
6079 Clear 29 1021 25 10000 2.1 70 16:33 31.10.2020
6080 Clear 27 1021 25 10000 1 0 15:54 31.10.2020
6081 Clear 27 1021 26 10000 1.5 0 15:25 31.10.2020
6082 Clear 27 1021 25 10000 1.5 0 14:53 31.10.2020
6083 Clear 29 1022 30 10000 1.5 0 14:31 31.10.2020
6084 Clear 26 1022 36 10000 1 0 13:52 31.10.2020
6085 Clear 26 1023 34 10000 1 0 13:28 31.10.2020
6086 Clear 29 1023 30 10000 1.5 0 12:55 31.10.2020
6087 Clear 29 1023 26 10000 1 0 12:22 31.10.2020
6088 Clear 27 1023 30 10000 1.5 0 11:41 31.10.2020
6089 Clear 26 1023 30 10000 1.5 0 11:22 31.10.2020
6090 Clear 25 1022 32 10000 2.1 360 10:42 31.10.2020
6091 Clear 25 1022 31 10000 2.1 330 09:57 31.10.2020
6092 Clear 24 1021 36 10000 2.1 310 09:37 31.10.2020
6093 Clear 24 1021 36 10000 2.1 310 09:19 31.10.2020
6094 Clear 24 1021 38 10000 2.6 320 08:26 31.10.2020
6095 Clear 24 1020 38 10000 2.6 340 07:30 31.10.2020
6096 Clear 24 1020 41 10000 2.6 300 06:57 31.10.2020
6097 Clear 24 1020 44 10000 1.5 290 06:36 31.10.2020
6098 Clear 25 1019 34 9000 1.5 310 03:48 31.10.2020
6099 Clear 24 1019 28 8000 2.6 360 02:39 31.10.2020
6100 Clear 24 1019 29 8000 5.1 350 00:55 31.10.2020
6101 Clear 24 1019 29 8000 5.1 10 23:56 30.10.2020
6102 Clear 23 1019 56 10000 4.6 360 23:31 30.10.2020
6103 Clear 23 1019 68 10000 4.6 360 22:59 30.10.2020
6104 Clear 23 1019 68 10000 4.6 10 22:38 30.10.2020
6105 Clear 23 1019 68 10000 4.6 10 22:20 30.10.2020
6106 Clear 24 1019 69 10000 4.1 360 21:48 30.10.2020
6107 Clear 24 1019 69 10000 4.6 20 21:26 30.10.2020
6108 Clear 24 1018 69 10000 3.1 40 20:45 30.10.2020
6109 Clear 25 1017 50 10000 2.1 300 20:26 30.10.2020
6110 Clear 24 1017 64 10000 3.6 10 19:58 30.10.2020
6111 Clear 24 1017 73 10000 5.1 30 19:37 30.10.2020
6112 Clear 24 1017 73 10000 5.1 30 19:18 30.10.2020
6113 Clear 25 1017 39 10000 2.1 330 18:41 30.10.2020
6114 Clear 25 1017 39 10000 2.1 330 18:22 30.10.2020
6115 Clear 25 1017 50 10000 4.6 30 17:44 30.10.2020
6116 Clear 25 1017 44 10000 3.6 30 17:21 30.10.2020
6117 Clear 25 1017 54 10000 5.1 40 16:50 30.10.2020
6118 Clear 25 1017 65 10000 5.7 30 16:24 30.10.2020
6119 Clear 25 1017 61 10000 5.7 40 15:42 30.10.2020
6120 Clear 25 1018 61 10000 7.2 30 15:24 30.10.2020
6121 Clear 25 1018 69 10000 7.2 30 14:58 30.10.2020
6122 Clouds 25 1018 69 10000 7.7 40 14:39 30.10.2020
6123 Clouds 25 1018 69 10000 7.7 40 14:21 30.10.2020
6124 Clouds 25 1018 69 10000 7.7 40 14:21 30.10.2020
6125 Clouds 25 1018 69 10000 7.7 40 14:21 30.10.2020
6126 Clouds 25 1019 69 10000 8.2 30 13:41 30.10.2020
6127 Clouds 25 1019 69 10000 8.2 30 13:20 30.10.2020
6128 Clouds 24 1019 69 10000 8.2 40 12:43 30.10.2020
6129 Clouds 24 1019 69 10000 8.7 30 12:22 30.10.2020
6130 Clouds 24 1019 69 10000 9.8 30 11:46 30.10.2020
6131 Clouds 24 1019 69 10000 8.2 10 11:20 30.10.2020
6132 Clouds 23 1019 73 10000 8.7 20 10:50 30.10.2020
6133 Clouds 22 1019 69 10000 7.7 10 10:25 30.10.2020
6134 Clouds 21 1018 73 10000 7.2 360 09:47 30.10.2020
6135 Clouds 21 1018 77 10000 6.2 10 09:24 30.10.2020
6136 Clouds 20 1018 77 10000 6.2 10 08:55 30.10.2020
6137 Clouds 20 1018 77 10000 5.7 10 08:31 30.10.2020
6138 Clouds 19 1017 77 10000 5.7 360 07:51 30.10.2020
6139 Clouds 19 1017 72 10000 5.1 360 07:33 30.10.2020
6140 Clouds 19 1017 72 10000 5.1 10 06:49 30.10.2020
6141 Clouds 20 1017 73 10000 7.2 20 05:31 30.10.2020
6142 Clouds 20 1018 73 10000 6.7 360 02:30 30.10.2020
6143 Clouds 21 1019 73 10000 7.7 360 00:46 30.10.2020
6144 Clouds 21 1019 73 10000 6.2 360 23:57 29.10.2020
6145 Clouds 21 1019 73 10000 5.7 350 23:39 29.10.2020
6146 Clouds 21 1019 73 10000 5.7 350 23:21 29.10.2020
6147 Clouds 21 1019 77 10000 6.7 360 22:43 29.10.2020
6148 Clouds 21 1018 77 10000 8.2 10 22:24 29.10.2020
6149 Clouds 22 1018 73 10000 7.7 10 21:40 29.10.2020
6150 Clouds 22 1018 73 10000 7.7 10 21:21 29.10.2020
6151 Clouds 22 1018 73 10000 7.7 10 20:42 29.10.2020
6152 Clouds 22 1018 73 10000 8.7 10 20:20 29.10.2020
6153 Clouds 22 1018 73 10000 10.3 20 19:45 29.10.2020
6154 Clouds 22 1018 73 10000 10.3 20 19:22 29.10.2020
6155 Clouds 23 1018 69 10000 10.3 20 18:58 29.10.2020
6156 Clouds 23 1018 69 10000 10.8 20 18:39 29.10.2020
6157 Clouds 23 1018 69 10000 10.8 20 18:20 29.10.2020
6158 Clouds 24 1018 53 10000 9.3 360 17:41 29.10.2020
6159 Clouds 24 1018 53 10000 9.3 360 17:21 29.10.2020
6160 Clouds 24 1018 53 10000 10.8 20 16:47 29.10.2020
6161 Clouds 24 1018 60 10000 11.3 30 16:21 29.10.2020
6162 Clouds 24 1018 57 10000 11.8 30 15:57 29.10.2020
6163 Clouds 24 1018 57 10000 12.3 30 15:38 29.10.2020
6164 Clouds 24 1018 57 10000 12.3 30 15:19 29.10.2020
6165 Clouds 24 1018 60 10000 11.3 30 14:45 29.10.2020
6166 Clouds 24 1019 64 10000 11.3 30 14:23 29.10.2020
6167 Clouds 24 1019 64 10000 11.3 30 14:23 29.10.2020
6168 Clouds 24 1019 57 10000 11.3 30 13:48 29.10.2020
6169 Clouds 24 1020 60 10000 10.3 30 13:28 29.10.2020
6170 Clouds 24 1020 57 10000 10.8 30 12:44 29.10.2020
6171 Clouds 23 1020 57 10000 10.3 20 12:21 29.10.2020
6172 Clouds 23 1020 60 10000 8.7 10 11:58 29.10.2020
6173 Clouds 23 1020 64 10000 9.8 30 11:40 29.10.2020
6174 Clouds 23 1020 64 10000 9.8 30 11:40 29.10.2020
6175 Clouds 23 1020 64 10000 9.8 30 11:21 29.10.2020
6176 Clouds 23 1020 64 10000 7.7 10 10:37 29.10.2020
6177 Clouds 22 1020 64 10000 7.7 10 10:37 29.10.2020
6178 Clouds 22 1020 64 10000 7.7 10 10:19 29.10.2020
6179 Clouds 22 1020 60 10000 6.7 360 09:50 29.10.2020
6180 Clouds 21 1020 68 10000 5.1 360 09:27 29.10.2020
6181 Clouds 21 1020 68 10000 5.1 360 08:48 29.10.2020
6182 Clouds 20 1019 73 10000 6.7 350 08:26 29.10.2020
6183 Clouds 21 1019 68 10000 6.2 350 07:52 29.10.2020
6184 Clouds 21 1019 68 10000 5.1 350 07:23 29.10.2020
6185 Clouds 21 1019 68 10000 5.1 360 06:53 29.10.2020
6186 Clouds 21 1019 68 10000 5.7 350 04:50 29.10.2020
6187 Clouds 21 1020 64 10000 5.7 360 02:32 29.10.2020
6188 Clouds 22 1020 66 10000 5.31 21 00:45 29.10.2020
6189 Clouds 22 1020 68 10000 5.52 20 00:23 29.10.2020
6190 Clouds 22 1020 66 10000 5.52 20 23:44 28.10.2020
6191 Clouds 22 1020 63 10000 6.11 19 23:20 28.10.2020
6192 Clouds 21 1020 68 10000 8.2 20 22:44 28.10.2020
6193 Clouds 21 1020 68 10000 8.2 20 22:26 28.10.2020
6194 Clouds 21 1020 68 10000 8.2 20 21:46 28.10.2020
6195 Clouds 22 1020 60 10000 8.2 10 21:26 28.10.2020
6196 Clouds 21 1020 68 10000 8.2 10 20:59 28.10.2020
6197 Clouds 22 1020 56 10000 9.3 20 20:40 28.10.2020
6198 Clouds 22 1020 56 10000 9.3 20 20:19 28.10.2020
6199 Clouds 22 1020 56 10000 8.7 10 19:47 28.10.2020
6200 Clouds 22 1020 60 10000 8.7 10 19:27 28.10.2020
6201 Clouds 23 1019 53 10000 8.7 10 18:46 28.10.2020
6202 Clouds 23 1019 53 10000 9.3 10 18:20 28.10.2020
6203 Clouds 23 1020 60 10000 8.7 10 17:44 28.10.2020
6204 Clouds 23 1019 60 10000 9.3 20 17:24 28.10.2020
6205 Clouds 24 1020 57 10000 9.8 20 16:49 28.10.2020
6206 Clouds 23 1020 53 10000 7.7 10 16:31 28.10.2020
6207 Clouds 23 1020 53 10000 8.2 360 15:46 28.10.2020
6208 Clouds 23 1021 53 10000 8.7 20 15:20 28.10.2020
6209 Clouds 23 1020 61 10000 2.24 190 14:58 28.10.2020
6210 Clouds 23 1020 61 10000 3.13 232 14:38 28.10.2020
6211 Clouds 23 1020 62 10000 2.68 221 14:19 28.10.2020
6212 Clouds 23 1021 61 10000 2.24 251 12:39 28.10.2020
6213 Clouds 23 1021 61 10000 0.89 308 12:21 28.10.2020
6214 Clouds 22 1021 63 10000 0.45 248 11:44 28.10.2020
6215 Clouds 22 1021 64 10000 5.55 16 11:23 28.10.2020
6216 Clouds 21 1021 64 10000 6.2 350 10:59 28.10.2020
6217 Clouds 21 1021 64 10000 6.2 350 10:40 28.10.2020
6218 Clouds 21 1021 64 10000 6.2 350 10:22 28.10.2020
6219 Clouds 21 1021 64 10000 6.2 350 10:22 28.10.2020
6220 Clouds 21 1021 60 10000 4.6 10 09:39 28.10.2020
6221 Clouds 21 1021 60 10000 4.6 10 09:21 28.10.2020
6222 Clouds 21 1020 56 10000 5.7 360 08:48 28.10.2020
6223 Clouds 21 1020 56 10000 5.1 360 08:27 28.10.2020
6224 Clouds 21 1020 56 10000 5.7 360 07:48 28.10.2020
6225 Clouds 21 1020 56 10000 6.7 20 07:30 28.10.2020
6226 Clouds 21 1020 60 10000 5.1 340 06:41 28.10.2020
6227 Clouds 21 1019 60 10000 5.1 350 05:51 28.10.2020
6228 Clouds 21 1020 60 10000 5.1 360 04:54 28.10.2020
6229 Clouds 21 1020 60 10000 6.7 10 04:25 28.10.2020
6230 Clouds 22 1021 60 10000 7.7 30 02:26 28.10.2020
6231 Clouds 22 1021 60 10000 7.2 30 01:50 28.10.2020
6232 Clouds 22 1022 56 10000 7.7 10 00:21 28.10.2020
6233 Clouds 22 1021 64 10000 7.7 30 23:38 27.10.2020
6234 Clouds 22 1021 64 10000 7.7 30 23:20 27.10.2020
6235 Clouds 22 1021 64 10000 8.2 30 22:42 27.10.2020
6236 Clouds 22 1021 64 10000 8.2 30 22:19 27.10.2020
6237 Clouds 22 1021 64 10000 7.2 20 21:56 27.10.2020
6238 Clouds 22 1021 68 10000 7.2 20 21:37 27.10.2020
6239 Clouds 22 1021 68 10000 7.2 20 21:37 27.10.2020
6240 Clouds 22 1021 68 10000 7.2 20 21:18 27.10.2020
6241 Clouds 22 1020 68 10000 7.7 20 20:43 27.10.2020
6242 Clouds 22 1020 68 10000 7.7 20 20:22 27.10.2020
6243 Clouds 22 1020 68 10000 9.8 20 19:39 27.10.2020
6244 Clouds 22 1020 68 10000 9.8 20 19:21 27.10.2020
6245 Clouds 23 1019 68 10000 9.8 20 18:58 27.10.2020
6246 Clouds 23 1020 64 10000 9.8 20 18:40 27.10.2020
6247 Clouds 23 1020 64 10000 9.8 20 18:20 27.10.2020
6248 Clouds 23 1019 64 10000 10.3 30 17:43 27.10.2020
6249 Clouds 24 1019 64 10000 10.3 30 17:21 27.10.2020
6250 Clouds 24 1019 64 10000 10.3 30 17:21 27.10.2020
6251 Clouds 24 1020 60 10000 10.3 30 16:54 27.10.2020
6252 Clouds 24 1020 64 10000 9.8 30 16:36 27.10.2020
6253 Clouds 24 1020 64 10000 9.8 30 16:18 27.10.2020
6254 Clouds 24 1020 57 10000 9.8 20 15:40 27.10.2020
6255 Clouds 24 1020 57 10000 9.8 20 15:20 27.10.2020
6256 Clouds 24 1020 57 10000 10.3 30 14:48 27.10.2020
6257 Clouds 24 1021 57 10000 11.8 30 14:28 27.10.2020
6258 Clouds 24 1021 60 10000 11.3 30 13:52 27.10.2020
6259 Clouds 24 1022 60 10000 10.8 10 13:22 27.10.2020
6260 Clouds 23 1022 64 10000 9.8 20 12:42 27.10.2020
6261 Clouds 23 1022 64 10000 9.8 20 12:23 27.10.2020
6262 Clouds 23 1022 69 10000 10.8 30 11:43 27.10.2020
6263 Clouds 23 1022 73 10000 8.7 20 11:24 27.10.2020
6264 Clouds 23 1022 73 10000 7.2 30 10:48 27.10.2020
6265 Clouds 22 1022 68 10000 6.2 360 10:30 27.10.2020
6266 Clouds 22 1022 68 10000 6.7 10 09:47 27.10.2020
6267 Clouds 22 1021 64 10000 6.2 360 09:26 27.10.2020
6268 Clouds 20 1021 68 10000 5.7 360 08:44 27.10.2020
6269 Clouds 20 1021 68 10000 5.7 360 08:26 27.10.2020
6270 Clouds 20 1021 77 10000 5.1 360 07:47 27.10.2020
6271 Clouds 20 1021 77 10000 6.7 10 07:28 27.10.2020
6272 Clouds 21 1021 73 10000 7.2 10 06:38 27.10.2020
6273 Clouds 21 1021 73 10000 7.2 10 06:19 27.10.2020
6274 Clouds 21 1021 73 10000 5.7 360 05:43 27.10.2020
6275 Clouds 20 1021 77 10000 5.1 360 04:51 27.10.2020
6276 Clouds 21 1022 68 10000 5.7 360 02:35 27.10.2020
6277 Clouds 21 1023 77 10000 5.1 360 00:58 27.10.2020
6278 Clouds 22 1023 68 10000 7.2 10 23:47 26.10.2020
6279 Clouds 22 1023 68 10000 6.2 360 23:29 26.10.2020
6280 Clouds 21 1022 73 10000 6.2 350 22:51 26.10.2020
6281 Clouds 22 1022 68 10000 6.2 10 22:27 26.10.2020
6282 Clouds 22 1022 68 10000 8.2 10 21:50 26.10.2020
6283 Clouds 22 1022 68 10000 6.2 360 21:21 26.10.2020
6284 Clouds 22 1022 68 10000 8.7 10 20:58 26.10.2020
6285 Clouds 22 1022 68 10000 8.7 10 20:40 26.10.2020
6286 Clouds 22 1022 68 10000 8.7 10 20:21 26.10.2020
6287 Clouds 22 1021 68 10000 8.7 10 19:47 26.10.2020
6288 Clouds 22 1021 68 10000 9.3 20 19:25 26.10.2020
6289 Clouds 23 1021 64 10000 10.8 20 18:46 26.10.2020
6290 Clouds 23 1021 64 10000 10.8 20 18:25 26.10.2020
6291 Clouds 24 1021 60 10000 9.8 20 17:59 26.10.2020
6292 Clouds 24 1021 57 10000 9.8 20 17:39 26.10.2020
6293 Clouds 24 1021 57 10000 9.8 20 17:21 26.10.2020
6294 Clouds 24 1021 57 10000 9.8 10 16:43 26.10.2020
6295 Clouds 24 1021 60 10000 9.8 20 16:21 26.10.2020
6296 Clouds 24 1022 60 10000 9.3 20 15:43 26.10.2020
6297 Clouds 24 1022 60 10000 9.8 20 15:25 26.10.2020
6298 Clouds 24 1022 57 10000 10.3 20 14:53 26.10.2020
6299 Clouds 24 1023 57 10000 11.3 20 14:34 26.10.2020
6300 Clouds 24 1023 57 10000 11.8 30 13:46 26.10.2020
6301 Clouds 24 1023 57 10000 10.8 20 13:27 26.10.2020
6302 Clouds 24 1023 57 10000 11.3 20 12:57 26.10.2020
6303 Clouds 24 1024 57 10000 10.3 20 12:33 26.10.2020
6304 Clouds 24 1024 53 10000 10.8 10 11:57 26.10.2020
6305 Clouds 23 1024 56 10000 10.8 10 11:39 26.10.2020
6306 Clouds 23 1024 56 10000 10.8 10 11:21 26.10.2020
6307 Clouds 22 1023 64 10000 11.3 20 10:49 26.10.2020
6308 Clouds 22 1023 64 10000 9.8 20 10:26 26.10.2020
6309 Clouds 22 1023 60 10000 9.8 10 09:56 26.10.2020
6310 Clouds 21 1023 64 10000 9.3 10 09:31 26.10.2020
6311 Clouds 20 1022 68 10000 7.2 360 08:54 26.10.2020
6312 Clouds 21 1022 68 10000 8.2 10 08:24 26.10.2020
6313 Clouds 20 1022 68 10000 8.2 10 07:40 26.10.2020
6314 Clouds 20 1022 68 10000 8.2 10 07:21 26.10.2020
6315 Clouds 21 1022 68 10000 9.8 20 05:31 26.10.2020
6316 Clouds 20 1022 68 10000 9.3 20 04:19 26.10.2020
6317 Clouds 20 1023 68 10000 9.8 20 03:21 26.10.2020
6318 Clouds 20 1023 68 10000 9.8 20 03:21 26.10.2020
6319 Clouds 20 1023 68 10000 9.8 20 03:21 26.10.2020
6320 Clouds 21 1024 68 10000 8.2 20 01:34 26.10.2020
6321 Clouds 21 1024 68 10000 8.7 20 00:36 26.10.2020
6322 Clouds 21 1024 68 10000 8.7 20 23:51 25.10.2020
6323 Clouds 21 1024 68 10000 7.2 360 23:30 25.10.2020
6324 Clouds 21 1024 68 10000 9.3 20 22:47 25.10.2020
6325 Clouds 21 1024 68 10000 9.3 20 22:47 25.10.2020
6326 Clouds 22 1024 64 10000 9.3 20 22:28 25.10.2020
6327 Clouds 22 1024 64 10000 10.3 20 21:55 25.10.2020
6328 Clouds 22 1024 64 10000 8.7 10 21:36 25.10.2020
6329 Clouds 22 1024 64 10000 8.7 10 21:18 25.10.2020
6330 Clouds 22 1023 64 10000 9.8 10 20:43 25.10.2020
6331 Clouds 22 1023 64 10000 9.8 10 20:23 25.10.2020
6332 Clouds 22 1023 64 10000 9.8 20 19:55 25.10.2020
6333 Clouds 22 1023 64 10000 10.8 20 19:37 25.10.2020
6334 Clouds 22 1023 64 10000 10.8 20 19:19 25.10.2020
6335 Clouds 23 1022 60 10000 11.8 20 18:41 25.10.2020
6336 Clouds 23 1022 60 10000 11.8 20 18:22 25.10.2020
6337 Clouds 23 1022 60 10000 11.8 20 17:55 25.10.2020
6338 Clouds 23 1022 60 10000 11.3 20 17:37 25.10.2020
6339 Clouds 23 1022 60 10000 11.3 20 17:18 25.10.2020
6340 Clouds 24 1022 64 10000 10.8 30 16:43 25.10.2020
6341 Clouds 23 1022 60 10000 10.8 20 16:23 25.10.2020
6342 Clouds 24 1023 57 10000 11.3 30 15:47 25.10.2020
6343 Clouds 24 1023 57 10000 11.8 30 15:27 25.10.2020
6344 Clouds 24 1023 57 10000 11.8 30 14:54 25.10.2020
6345 Clouds 24 1023 57 10000 11.8 20 14:30 25.10.2020
6346 Clouds 24 1023 57 10000 12.3 20 13:45 25.10.2020
6347 Clouds 24 1024 57 10000 11.8 20 13:25 25.10.2020
6348 Clouds 24 1024 57 10000 11.3 20 12:57 25.10.2020
6349 Clouds 24 1024 57 10000 10.3 20 12:39 25.10.2020
6350 Clouds 24 1024 57 10000 10.3 20 12:21 25.10.2020
6351 Clouds 23 1024 60 10000 11.3 20 11:42 25.10.2020
6352 Clouds 23 1024 60 10000 11.3 20 11:20 25.10.2020
6353 Clouds 23 1024 60 10000 10.3 20 10:47 25.10.2020
6354 Clouds 22 1024 60 10000 9.8 20 10:26 25.10.2020
6355 Clouds 22 1024 64 10000 7.2 10 09:52 25.10.2020
6356 Clouds 21 1023 64 10000 6.7 10 09:23 25.10.2020
6357 Clouds 20 1023 64 10000 6.7 350 08:59 25.10.2020
6358 Clouds 20 1023 64 10000 6.7 10 08:40 25.10.2020
6359 Clouds 20 1023 64 10000 6.7 10 08:22 25.10.2020
6360 Clouds 20 1023 68 10000 7.7 10 07:44 25.10.2020
6361 Clouds 20 1023 68 10000 8.2 20 06:53 25.10.2020
6362 Clouds 20 1023 68 10000 6.7 10 06:28 25.10.2020
6363 Clouds 20 1023 68 10000 6.2 10 05:20 25.10.2020
6364 Clouds 20 1023 64 10000 7.7 10 04:50 25.10.2020
6365 Clouds 21 1025 64 10000 8.7 20 02:30 25.10.2020
6366 Clouds 21 1025 64 10000 9.3 10 00:54 25.10.2020
6367 Clouds 21 1025 68 10000 9.3 10 00:28 25.10.2020
6368 Clouds 21 1024 64 10000 9.3 20 23:55 24.10.2020
6369 Clouds 22 1025 68 10000 8.7 20 23:35 24.10.2020
6370 Clouds 22 1024 64 10000 7.7 20 22:59 24.10.2020
6371 Clouds 22 1024 64 10000 8.2 20 22:40 24.10.2020
6372 Clouds 22 1024 64 10000 8.2 20 22:21 24.10.2020
6373 Clouds 22 1024 68 10000 8.2 20 21:54 24.10.2020
6374 Clouds 22 1023 68 10000 7.7 10 21:36 24.10.2020
6375 Clouds 22 1023 68 10000 7.7 10 21:18 24.10.2020
6376 Clouds 22 1023 64 10000 7.7 20 20:42 24.10.2020
6377 Clouds 22 1023 64 10000 7.7 20 20:20 24.10.2020
6378 Clouds 23 1024 56 10000 8.2 30 19:40 24.10.2020
6379 Clouds 23 1024 56 10000 8.2 30 19:22 24.10.2020
6380 Clouds 23 1023 57 10000 8.2 30 18:51 24.10.2020
6381 Clouds 23 1023 60 10000 8.7 30 18:30 24.10.2020
6382 Clouds 24 1023 57 10000 8.7 30 17:44 24.10.2020
6383 Clouds 24 1023 57 10000 8.7 30 17:25 24.10.2020
6384 Clouds 24 1024 57 10000 8.2 20 16:53 24.10.2020
6385 Clouds 24 1024 50 10000 8.7 30 16:34 24.10.2020
6386 Clouds 24 1024 57 10000 8.7 30 15:57 24.10.2020
6387 Clouds 24 1025 57 10000 8.7 30 15:37 24.10.2020
6388 Clouds 24 1025 57 10000 8.7 30 15:18 24.10.2020
6389 Clouds 24 1025 53 10000 9.3 20 14:30 24.10.2020
6390 Clouds 24 1026 53 10000 9.8 30 13:55 24.10.2020
6391 Clouds 23 1026 60 10000 9.8 30 13:36 24.10.2020
6392 Clouds 23 1026 60 10000 9.8 30 13:18 24.10.2020
6393 Clouds 23 1026 53 10000 9.8 30 12:37 24.10.2020
6394 Clouds 23 1026 53 10000 9.8 30 12:19 24.10.2020
6395 Clouds 22 1025 60 10000 9.3 30 11:45 24.10.2020
6396 Clouds 21 1025 60 10000 7.2 10 11:19 24.10.2020
6397 Clouds 20 1025 60 10000 6.2 360 10:43 24.10.2020
6398 Clouds 20 1025 60 10000 7.2 350 10:25 24.10.2020
6399 Clouds 19 1024 64 10000 6.7 360 09:45 24.10.2020
6400 Clouds 19 1024 64 10000 6.2 360 09:26 24.10.2020
6401 Clouds 19 1024 64 10000 6.7 360 08:54 24.10.2020
6402 Clouds 19 1024 68 10000 6.7 10 08:19 24.10.2020
6403 Clouds 19 1024 64 10000 6.7 350 07:50 24.10.2020
6404 Clouds 19 1024 64 10000 6.2 350 07:20 24.10.2020
6405 Clouds 19 1024 64 10000 7.2 350 06:49 24.10.2020
6406 Clouds 19 1024 68 10000 5.7 350 05:27 24.10.2020
6407 Clouds 21 1025 64 10000 6.2 40 02:20 24.10.2020
6408 Clouds 21 1025 64 10000 8.2 40 00:54 24.10.2020
6409 Clouds 21 1025 64 10000 7.2 40 00:36 24.10.2020
6410 Clouds 21 1025 64 10000 7.2 40 00:18 24.10.2020
6411 Clouds 21 1025 68 10000 7.7 30 23:39 23.10.2020
6412 Clouds 21 1025 68 10000 7.7 30 23:20 23.10.2020
6413 Clouds 21 1025 64 10000 8.2 30 22:42 23.10.2020
6414 Clouds 21 1024 64 10000 7.7 20 22:21 23.10.2020
6415 Clouds 21 1024 60 10000 7.7 20 21:53 23.10.2020
6416 Clouds 22 1024 56 10000 7.7 10 21:30 23.10.2020
6417 Clouds 22 1024 56 10000 7.7 10 21:30 23.10.2020
6418 Clouds 22 1023 56 10000 8.2 20 20:58 23.10.2020
6419 Clouds 22 1023 60 10000 7.7 20 20:38 23.10.2020
6420 Clouds 22 1023 60 10000 7.7 20 20:18 23.10.2020
6421 Clouds 23 1023 56 10000 7.7 10 19:43 23.10.2020
6422 Clouds 23 1023 56 10000 7.7 30 19:25 23.10.2020
6423 Clouds 23 1023 56 10000 7.7 20 18:42 23.10.2020
6424 Clouds 23 1023 56 10000 7.7 20 18:23 23.10.2020
6425 Clouds 24 1023 53 10000 7.7 30 17:45 23.10.2020
6426 Clouds 24 1023 57 10000 8.2 20 17:21 23.10.2020
6427 Clouds 24 1023 53 10000 8.2 40 16:50 23.10.2020
6428 Clouds 24 1024 57 10000 8.2 30 16:30 23.10.2020
6429 Clouds 24 1024 57 10000 7.7 40 15:56 23.10.2020
6430 Clouds 24 1024 53 10000 7.2 50 15:38 23.10.2020
6431 Clouds 25 1024 53 10000 7.2 50 15:19 23.10.2020
6432 Clouds 24 1024 53 10000 7.2 40 14:41 23.10.2020
6433 Clouds 24 1024 53 10000 7.2 40 14:22 23.10.2020
6434 Clouds 24 1025 53 10000 6.7 40 13:41 23.10.2020
6435 Clouds 24 1025 53 10000 6.7 40 13:21 23.10.2020
6436 Clouds 23 1024 60 10000 6.7 30 12:48 23.10.2020
6437 Clouds 23 1024 53 10000 7.2 30 12:29 23.10.2020
6438 Clouds 22 1024 56 10000 5.7 20 11:49 23.10.2020
6439 Clouds 22 1024 60 10000 5.1 360 11:25 23.10.2020
6440 Clouds 21 1023 60 10000 4.6 340 10:50 23.10.2020
6441 Clouds 20 1023 64 10000 4.6 350 10:26 23.10.2020
6442 Clouds 20 1023 64 10000 4.6 340 09:50 23.10.2020
6443 Clouds 19 1022 68 10000 4.6 340 09:27 23.10.2020
6444 Clouds 19 1022 64 10000 4.6 340 08:57 23.10.2020
6445 Clouds 19 1022 64 10000 4.6 340 08:38 23.10.2020
6446 Clouds 19 1022 64 10000 4.6 340 07:48 23.10.2020
6447 Clouds 19 1021 72 10000 4.1 320 07:26 23.10.2020
6448 Clouds 19 1021 68 10000 4.6 340 06:43 23.10.2020
6449 Clouds 20 1021 64 10000 4.1 340 05:59 23.10.2020
6450 Clouds 20 1021 68 10000 3.6 330 02:54 23.10.2020
6451 Clouds 20 1021 68 10000 3.6 350 02:26 23.10.2020
6452 Clouds 20 1021 72 10000 4.6 340 00:48 23.10.2020
6453 Clouds 21 1021 72 10000 3.6 350 23:54 22.10.2020
6454 Rain 21 1021 77 10000 6.2 340 23:31 22.10.2020
6455 Rain 21 1020 64 10000 4.6 350 22:56 22.10.2020
6456 Clouds 21 1020 64 10000 4.1 360 22:38 22.10.2020
6457 Clouds 21 1020 64 10000 4.1 360 22:19 22.10.2020
6458 Clouds 22 1020 60 10000 5.1 360 21:43 22.10.2020
6459 Clouds 22 1019 60 10000 5.7 360 21:23 22.10.2020
6460 Clouds 22 1019 60 10000 6.7 360 20:57 22.10.2020
6461 Clouds 22 1019 56 10000 6.7 10 20:39 22.10.2020
6462 Clouds 22 1019 56 10000 6.7 10 20:18 22.10.2020
6463 Clouds 23 1018 56 10000 8.2 20 19:40 22.10.2020
6464 Clouds 23 1018 56 10000 8.2 20 19:19 22.10.2020
6465 Clouds 23 1018 60 10000 8.7 30 18:43 22.10.2020
6466 Clouds 23 1018 60 10000 8.7 30 18:20 22.10.2020
6467 Clouds 23 1018 60 10000 8.7 40 17:46 22.10.2020
6468 Clouds 23 1017 60 10000 8.7 30 17:22 22.10.2020
6469 Clouds 23 1017 60 10000 8.2 20 16:54 22.10.2020
6470 Clouds 24 1017 53 10000 7.7 20 16:36 22.10.2020
6471 Clouds 24 1017 53 10000 7.7 20 16:18 22.10.2020
6472 Clouds 24 1018 53 10000 7.2 10 15:40 22.10.2020
6473 Clouds 24 1018 53 10000 7.2 10 15:22 22.10.2020
6474 Clouds 24 1018 50 10000 8.2 10 14:46 22.10.2020
6475 Clouds 24 1018 53 10000 7.7 360 14:24 22.10.2020
6476 Clouds 22 1018 60 10000 6.2 10 13:48 22.10.2020
6477 Clouds 22 1018 64 10000 5.1 10 13:24 22.10.2020
6478 Clouds 21 1019 73 10000 7.2 340 12:47 22.10.2020
6479 Clouds 21 1019 82 10000 7.2 350 12:23 22.10.2020
6480 Clouds 21 1018 73 10000 5.1 340 11:50 22.10.2020
6481 Clouds 21 1018 73 10000 5.7 340 11:20 22.10.2020
6482 Clouds 21 1017 68 10000 4.1 330 10:49 22.10.2020
6483 Clouds 20 1017 77 10000 4.6 320 10:27 22.10.2020
6484 Clouds 19 1017 82 10000 4.6 360 09:47 22.10.2020
6485 Clouds 19 1016 82 10000 5.1 350 09:28 22.10.2020
6486 Clouds 19 1016 82 10000 4.6 360 08:49 22.10.2020
6487 Clouds 19 1016 82 10000 4.6 10 08:28 22.10.2020
6488 Clouds 20 1015 72 10000 4.1 350 07:57 22.10.2020
6489 Clouds 20 1015 72 10000 4.1 350 07:57 22.10.2020
6490 Clouds 19 1015 77 10000 3.6 360 07:34 22.10.2020
6491 Clouds 19 1015 82 10000 3.1 350 06:58 22.10.2020
6492 Clouds 20 1015 77 10000 3.1 340 06:26 22.10.2020
6493 Clouds 19 1015 72 10000 3.6 350 05:40 22.10.2020
6494 Clouds 19 1016 88 10000 3.1 20 03:46 22.10.2020
6495 Rain 20 1016 88 10000 3.1 20 01:45 22.10.2020
6496 Clouds 21 1016 83 10000 2.6 30 00:26 22.10.2020
6497 Clouds 21 1016 83 10000 2.6 310 23:50 21.10.2020
6498 Clouds 21 1016 88 10000 3.1 20 23:31 21.10.2020
6499 Rain 21 1015 88 9000 3.6 10 22:41 21.10.2020
6500 Rain 21 1015 88 9000 3.6 10 22:19 21.10.2020
6501 Rain 21 1015 88 9000 3.6 10 22:19 21.10.2020
6502 Clouds 22 1015 78 10000 2.6 20 21:56 21.10.2020
6503 Clouds 22 1015 69 10000 3.6 40 21:37 21.10.2020
6504 Clouds 22 1015 69 10000 3.6 40 21:18 21.10.2020
6505 Clouds 22 1015 69 10000 2.6 30 20:47 21.10.2020
6506 Clouds 22 1015 73 10000 3.1 340 20:19 21.10.2020
6507 Clouds 22 1015 78 10000 4.1 350 19:44 21.10.2020
6508 Clouds 22 1014 78 10000 4.6 350 19:26 21.10.2020
6509 Clouds 22 1014 78 10000 4.6 350 19:26 21.10.2020
6510 Clouds 22 1014 73 10000 5.1 10 18:54 21.10.2020
6511 Clouds 22 1015 73 10000 2.1 0 18:33 21.10.2020
6512 Clouds 22 1015 73 10000 2.1 0 18:33 21.10.2020
6513 Clouds 23 1014 73 10000 2.6 90 17:55 21.10.2020
6514 Clouds 23 1014 73 10000 3.6 90 17:37 21.10.2020
6515 Rain 23 1014 73 10000 3.6 90 17:18 21.10.2020
6516 Rain 23 1015 73 10000 2.1 90 16:40 21.10.2020
6517 Rain 23 1015 73 10000 2.1 90 16:21 21.10.2020
6518 Rain 23 1015 73 10000 2.1 90 16:21 21.10.2020
6519 Rain 23 1015 78 10000 3.1 110 15:49 21.10.2020
6520 Clouds 24 1015 73 10000 4.1 50 15:29 21.10.2020
6521 Clouds 25 1015 69 10000 4.1 90 14:58 21.10.2020
6522 Clouds 25 1015 69 10000 3.1 90 14:40 21.10.2020
6523 Clouds 25 1015 69 10000 3.1 90 14:40 21.10.2020
6524 Clouds 25 1015 69 10000 3.1 90 14:21 21.10.2020
6525 Clouds 24 1016 73 10000 3.1 90 13:42 21.10.2020
6526 Clouds 24 1016 73 10000 3.1 90 13:23 21.10.2020
6527 Clouds 24 1016 73 10000 3.1 70 12:42 21.10.2020
6528 Clouds 24 1016 73 10000 3.1 70 12:22 21.10.2020
6529 Clouds 24 1015 64 10000 2.1 150 11:48 21.10.2020
6530 Clouds 24 1015 64 10000 2.1 150 11:22 21.10.2020
6531 Clouds 23 1015 64 10000 3.96 320 10:59 21.10.2020
6532 Clouds 23 1015 69 10000 1 0 10:40 21.10.2020
6533 Clouds 22 1015 69 10000 1 0 10:21 21.10.2020
6534 Clouds 21 1014 73 10000 1 0 09:44 21.10.2020
6535 Clouds 22 1014 73 10000 1 0 09:25 21.10.2020
6536 Clouds 21 1014 73 10000 0.5 0 08:40 21.10.2020
6537 Clouds 21 1014 73 10000 0.5 0 08:22 21.10.2020
6538 Clouds 22 1014 73 10000 1.5 340 07:55 21.10.2020
6539 Clouds 22 1014 73 10000 2.1 360 07:20 21.10.2020
6540 Clouds 22 1014 73 10000 2.6 360 06:37 21.10.2020
6541 Clouds 22 1014 69 10000 3.1 20 06:19 21.10.2020
6542 Clouds 23 1015 73 10000 3.1 30 03:35 21.10.2020
6543 Clouds 23 1015 69 10000 3.1 20 00:26 21.10.2020
6544 Clouds 24 1015 73 10000 3.6 20 23:35 20.10.2020
6545 Clouds 24 1014 78 10000 3.1 50 22:47 20.10.2020
6546 Clouds 24 1014 78 10000 3.1 50 22:25 20.10.2020
6547 Clouds 24 1014 78 10000 4.1 40 21:47 20.10.2020
6548 Clouds 24 1014 78 10000 4.1 40 21:19 20.10.2020
6549 Clouds 25 1013 73 10000 6.2 50 20:43 20.10.2020
6550 Clouds 25 1013 73 10000 6.2 50 20:24 20.10.2020
6551 Clouds 25 1013 73 10000 8.7 60 19:55 20.10.2020
6552 Clouds 26 1013 61 10000 7.2 40 19:37 20.10.2020
6553 Clouds 28 1012 52 10000 3.1 0 19:19 20.10.2020
6554 Clouds 28 1012 49 10000 6.2 340 18:38 20.10.2020
6555 Clouds 27 1012 55 10000 9.3 200 17:59 20.10.2020
6556 Clouds 27 1012 55 10000 5.1 210 17:40 20.10.2020
6557 Rain 27 1012 55 10000 5.1 210 17:22 20.10.2020
6558 Clouds 29 1013 45 10000 9.3 210 16:42 20.10.2020
6559 Clouds 29 1013 45 10000 9.3 210 16:24 20.10.2020
6560 Clouds 29 1013 38 10000 9.3 230 15:49 20.10.2020
6561 Clouds 29 1013 38 10000 9.3 230 15:29 20.10.2020
6562 Clouds 29 1014 40 10000 9.3 220 14:47 20.10.2020
6563 Clouds 29 1014 40 10000 9.3 220 14:25 20.10.2020
6564 Clouds 28 1014 45 10000 9.3 220 13:59 20.10.2020
6565 Clouds 28 1014 42 10000 8.2 210 13:41 20.10.2020
6566 Clouds 28 1014 42 10000 8.2 210 13:20 20.10.2020
6567 Clouds 27 1014 42 10000 7.7 210 12:51 20.10.2020
6568 Clouds 27 1014 51 10000 7.7 200 12:31 20.10.2020
6569 Clouds 28 1013 37 10000 10.8 230 11:48 20.10.2020
6570 Clouds 28 1013 37 10000 10.8 230 11:29 20.10.2020
6571 Clouds 27 1013 35 10000 8.2 230 10:49 20.10.2020
6572 Clouds 27 1013 35 10000 6.2 240 10:26 20.10.2020
6573 Clouds 24 1013 78 10000 9.8 150 09:47 20.10.2020
6574 Clouds 24 1013 78 10000 9.8 150 09:20 20.10.2020
6575 Clouds 24 1013 83 10000 8.7 160 08:50 20.10.2020
6576 Clouds 24 1013 53 10000 3.1 190 08:26 20.10.2020
6577 Clouds 24 1013 60 10000 4.1 210 07:48 20.10.2020
6578 Clouds 24 1013 60 10000 4.1 210 07:24 20.10.2020
6579 Clouds 23 1013 73 10000 5.7 190 06:24 20.10.2020
6580 Clouds 22 1014 83 10000 0.5 0 04:55 20.10.2020
6581 Clouds 23 1015 83 10000 2.6 220 02:31 20.10.2020
6582 Clouds 23 1015 78 10000 1 0 01:43 20.10.2020
6583 Clouds 24 1016 73 10000 2.19 164 00:56 20.10.2020
6584 Clouds 24 1016 78 10000 2.19 164 00:37 20.10.2020
6585 Clouds 24 1016 83 10000 1.91 134 00:18 20.10.2020
6586 Clouds 24 1016 73 10000 2.1 10 23:29 19.10.2020
6587 Clouds 25 1016 73 10000 2.6 20 22:59 19.10.2020
6588 Clouds 25 1015 73 10000 2.6 20 22:30 19.10.2020
6589 Clouds 25 1015 78 10000 2.6 20 21:58 19.10.2020
6590 Clouds 25 1015 74 10000 2.1 20 21:39 19.10.2020
6591 Clouds 25 1015 74 10000 2.1 0 21:19 19.10.2020
6592 Clouds 25 1015 69 10000 2.6 160 20:44 19.10.2020
6593 Clouds 25 1015 69 10000 2.6 160 20:26 19.10.2020
6594 Clouds 26 1015 69 10000 2.6 110 19:46 19.10.2020
6595 Clouds 26 1015 69 10000 2.6 110 19:20 19.10.2020
6596 Clouds 25 1015 69 10000 3.6 130 18:51 19.10.2020
6597 Clouds 25 1015 74 10000 2.6 130 18:31 19.10.2020
6598 Clouds 25 1016 69 10000 2.6 120 17:49 19.10.2020
6599 Clouds 25 1016 69 10000 2.6 120 17:29 19.10.2020
6600 Clouds 25 1016 74 10000 2.1 120 16:55 19.10.2020
6601 Clouds 25 1016 73 10000 3.1 80 16:30 19.10.2020
6602 Clouds 25 1017 65 10000 4.1 60 15:59 19.10.2020
6603 Clear 25 656 95 10000 1.48 91 15:37 19.10.2020
6604 Clear 25 656 95 10000 2.12 91 15:19 19.10.2020
6605 Clear 25 656 95 10000 2.12 91 14:43 19.10.2020
6606 Clear 24 656 95 10000 2.61 83 14:23 19.10.2020
6607 Clear 24 656 95 10000 2.4 87 13:46 19.10.2020
6608 Clear 25 1017 72 10000 4.47 234 13:28 19.10.2020
6609 Clear 24 1017 75 10000 3.13 269 12:46 19.10.2020
6610 Clear 24 656 95 10000 2.01 73 12:26 19.10.2020
6611 Clear 24 656 95 10000 2.01 73 11:51 19.10.2020
6612 Clouds 22 1016 77 10000 3.1 360 11:24 19.10.2020
6613 Clouds 21 1016 77 10000 3.1 360 10:46 19.10.2020
6614 Clouds 21 1016 77 10000 3.1 360 10:28 19.10.2020
6615 Clouds 20 1015 82 10000 2.6 340 09:58 19.10.2020
6616 Clouds 20 1015 82 10000 0.5 0 09:39 19.10.2020
6617 Clouds 20 1015 82 10000 0.5 0 09:18 19.10.2020
6618 Clouds 20 1015 77 10000 0.5 0 08:45 19.10.2020
6619 Clouds 20 1015 82 10000 0.69 149 08:21 19.10.2020
6620 Clouds 19 1015 82 10000 1.5 300 07:21 19.10.2020
6621 Clouds 19 1015 82 10000 1.5 330 06:50 19.10.2020
6622 Clouds 19 1015 82 10000 1.5 330 06:50 19.10.2020
6623 Clouds 20 1015 82 10000 2.1 310 05:40 19.10.2020
6624 Clouds 20 1016 82 10000 2.1 230 03:46 19.10.2020
6625 Clouds 20 1017 77 10000 2.1 230 01:57 19.10.2020
6626 Clouds 20 1017 82 10000 1.5 200 00:43 19.10.2020
6627 Clouds 20 1016 83 10000 3.1 190 23:59 18.10.2020
6628 Clouds 21 1016 77 10000 4.1 200 23:40 18.10.2020
6629 Clouds 21 1016 77 10000 4.1 200 23:20 18.10.2020
6630 Clouds 21 1016 83 10000 3.6 200 22:44 18.10.2020
6631 Clouds 21 1015 77 10000 4.6 190 22:19 18.10.2020
6632 Clouds 22 1015 73 10000 3.6 190 21:43 18.10.2020
6633 Clouds 22 1015 73 10000 5.1 200 21:23 18.10.2020
6634 Clouds 22 1015 73 10000 5.1 190 20:46 18.10.2020
6635 Clouds 22 1015 69 10000 6.7 190 20:24 18.10.2020
6636 Clouds 22 1015 73 10000 6.2 190 19:50 18.10.2020
6637 Clouds 23 1015 73 10000 6.7 180 19:27 18.10.2020
6638 Clouds 24 1015 69 10000 6.2 170 18:55 18.10.2020
6639 Clouds 24 1015 69 10000 5.7 170 18:36 18.10.2020
6640 Clouds 24 1015 69 10000 5.7 170 18:18 18.10.2020
6641 Clouds 24 1015 64 10000 6.2 170 17:41 18.10.2020
6642 Clouds 24 1015 64 10000 6.2 170 17:22 18.10.2020
6643 Clouds 23